<?xml version="1.0" encoding="UTF-8" standalone="no" ?>
<gpx xmlns="http://www.topografix.com/GPX/1/1" xmlns:xsi="http://www.w3.org/2001/XMLSchema-instance" xsi:schemaLocation="http://www.topografix.com/GPX/1/1 http://www.topografix.com/GPX/1/1/gpx.xsd" version="1.1" creator="VisuGPX - https://www.visugpx.com">
  <metadata>
    <name>Tour du Lot - Vtt - Étape 1 - Gourdon - Martel </name>
    <desc><![CDATA[Première étape de notre tour Vtt du Lot. Gourdon - Martel. 
Il s'agit donc de la première étape du parcours officiel du tour du Lot avec pour direction générale NE avec passage par Rocamadour (belle grimpée). La trace s'infléchit avec pour direction générale vers le nord pour traverser la Dordogne à Port de Cluges et finir à Martel charmante et très belle petite cité aux 7 tours.
]]></desc>
  </metadata>
  <trk>
    <name><![CDATA[Tour du Lot - Vtt - Étape 1 - Gourdon - Martel ]]></name>
    <trkseg>
      <trkpt lat="44.73758" lon="1.38041">
        <ele>243.80000305176</ele>
        <time>2022-05-22T07:00:42.000Z</time>
      </trkpt>
      <trkpt lat="44.73756" lon="1.38039">
        <ele>244</ele>
        <time>2022-05-22T07:00:43.000Z</time>
      </trkpt>
      <trkpt lat="44.73745" lon="1.38026">
        <ele>244.19999694824</ele>
        <time>2022-05-22T07:00:48.000Z</time>
      </trkpt>
      <trkpt lat="44.73728" lon="1.38013">
        <ele>244.39999389648</ele>
        <time>2022-05-22T07:00:55.000Z</time>
      </trkpt>
      <trkpt lat="44.73718" lon="1.38017">
        <ele>244.80000305176</ele>
        <time>2022-05-22T07:00:59.000Z</time>
      </trkpt>
      <trkpt lat="44.73715" lon="1.38025">
        <ele>245</ele>
        <time>2022-05-22T07:01:02.000Z</time>
      </trkpt>
      <trkpt lat="44.73714" lon="1.38028">
        <ele>245.19999694824</ele>
        <time>2022-05-22T07:01:03.000Z</time>
      </trkpt>
      <trkpt lat="44.73714" lon="1.3803">
        <ele>245.19999694824</ele>
        <time>2022-05-22T07:01:04.000Z</time>
      </trkpt>
      <trkpt lat="44.73711" lon="1.38043">
        <ele>245.80000305176</ele>
        <time>2022-05-22T07:01:08.000Z</time>
      </trkpt>
      <trkpt lat="44.7371" lon="1.38049">
        <ele>246.19999694824</ele>
        <time>2022-05-22T07:01:10.000Z</time>
      </trkpt>
      <trkpt lat="44.73707" lon="1.38056">
        <ele>247</ele>
        <time>2022-05-22T07:01:12.000Z</time>
      </trkpt>
      <trkpt lat="44.73706" lon="1.38059">
        <ele>247.19999694824</ele>
        <time>2022-05-22T07:01:13.000Z</time>
      </trkpt>
      <trkpt lat="44.73702" lon="1.38071">
        <ele>248.60000610352</ele>
        <time>2022-05-22T07:01:17.000Z</time>
      </trkpt>
      <trkpt lat="44.73702" lon="1.38074">
        <ele>249</ele>
        <time>2022-05-22T07:01:18.000Z</time>
      </trkpt>
      <trkpt lat="44.73701" lon="1.38077">
        <ele>249.19999694824</ele>
        <time>2022-05-22T07:01:19.000Z</time>
      </trkpt>
      <trkpt lat="44.73699" lon="1.38083">
        <ele>249.80000305176</ele>
        <time>2022-05-22T07:01:21.000Z</time>
      </trkpt>
      <trkpt lat="44.73696" lon="1.38096">
        <ele>250.80000305176</ele>
        <time>2022-05-22T07:01:25.000Z</time>
      </trkpt>
      <trkpt lat="44.73696" lon="1.38098">
        <ele>251</ele>
        <time>2022-05-22T07:01:26.000Z</time>
      </trkpt>
      <trkpt lat="44.73696" lon="1.38101">
        <ele>251.60000610352</ele>
        <time>2022-05-22T07:01:27.000Z</time>
      </trkpt>
      <trkpt lat="44.73697" lon="1.38107">
        <ele>252</ele>
        <time>2022-05-22T07:01:29.000Z</time>
      </trkpt>
      <trkpt lat="44.73697" lon="1.38111">
        <ele>252.60000610352</ele>
        <time>2022-05-22T07:01:30.000Z</time>
      </trkpt>
      <trkpt lat="44.73702" lon="1.38125">
        <ele>253.60000610352</ele>
        <time>2022-05-22T07:01:34.000Z</time>
      </trkpt>
      <trkpt lat="44.73706" lon="1.38139">
        <ele>254.80000305176</ele>
        <time>2022-05-22T07:01:38.000Z</time>
      </trkpt>
      <trkpt lat="44.73706" lon="1.38143">
        <ele>255.19999694824</ele>
        <time>2022-05-22T07:01:39.000Z</time>
      </trkpt>
      <trkpt lat="44.73708" lon="1.38146">
        <ele>255.19999694824</ele>
        <time>2022-05-22T07:01:40.000Z</time>
      </trkpt>
      <trkpt lat="44.73709" lon="1.3815">
        <ele>255.80000305176</ele>
        <time>2022-05-22T07:01:41.000Z</time>
      </trkpt>
      <trkpt lat="44.7371" lon="1.38157">
        <ele>256.39999389648</ele>
        <time>2022-05-22T07:01:43.000Z</time>
      </trkpt>
      <trkpt lat="44.7371" lon="1.38163">
        <ele>256.79998779297</ele>
        <time>2022-05-22T07:01:45.000Z</time>
      </trkpt>
      <trkpt lat="44.73709" lon="1.38174">
        <ele>258</ele>
        <time>2022-05-22T07:01:48.000Z</time>
      </trkpt>
      <trkpt lat="44.73706" lon="1.38184">
        <ele>259</ele>
        <time>2022-05-22T07:01:52.000Z</time>
      </trkpt>
      <trkpt lat="44.73699" lon="1.38197">
        <ele>260.20001220703</ele>
        <time>2022-05-22T07:01:58.000Z</time>
      </trkpt>
      <trkpt lat="44.73698" lon="1.38198">
        <ele>260.20001220703</ele>
        <time>2022-05-22T07:01:59.000Z</time>
      </trkpt>
      <trkpt lat="44.73695" lon="1.38201">
        <ele>260.39999389648</ele>
        <time>2022-05-22T07:02:01.000Z</time>
      </trkpt>
      <trkpt lat="44.73692" lon="1.38203">
        <ele>260.60000610352</ele>
        <time>2022-05-22T07:02:03.000Z</time>
      </trkpt>
      <trkpt lat="44.73691" lon="1.38204">
        <ele>260.60000610352</ele>
        <time>2022-05-22T07:02:04.000Z</time>
      </trkpt>
      <trkpt lat="44.73687" lon="1.38224">
        <ele>260.60000610352</ele>
        <time>2022-05-22T07:02:11.000Z</time>
      </trkpt>
      <trkpt lat="44.7369" lon="1.38247">
        <ele>260.60000610352</ele>
        <time>2022-05-22T07:02:17.000Z</time>
      </trkpt>
      <trkpt lat="44.73689" lon="1.38264">
        <ele>260.60000610352</ele>
        <time>2022-05-22T07:02:22.000Z</time>
      </trkpt>
      <trkpt lat="44.73691" lon="1.38272">
        <ele>260.60000610352</ele>
        <time>2022-05-22T07:02:24.000Z</time>
      </trkpt>
      <trkpt lat="44.73697" lon="1.38281">
        <ele>260.60000610352</ele>
        <time>2022-05-22T07:02:27.000Z</time>
      </trkpt>
      <trkpt lat="44.73707" lon="1.3829">
        <ele>260.79998779297</ele>
        <time>2022-05-22T07:02:31.000Z</time>
      </trkpt>
      <trkpt lat="44.73709" lon="1.38292">
        <ele>260.79998779297</ele>
        <time>2022-05-22T07:02:32.000Z</time>
      </trkpt>
      <trkpt lat="44.7371" lon="1.38294">
        <ele>260.79998779297</ele>
        <time>2022-05-22T07:02:33.000Z</time>
      </trkpt>
      <trkpt lat="44.73712" lon="1.38297">
        <ele>260.79998779297</ele>
        <time>2022-05-22T07:02:35.000Z</time>
      </trkpt>
      <trkpt lat="44.73715" lon="1.38296">
        <ele>260.60000610352</ele>
        <time>2022-05-22T07:02:38.000Z</time>
      </trkpt>
      <trkpt lat="44.73714" lon="1.38297">
        <ele>260.60000610352</ele>
        <time>2022-05-22T07:02:43.000Z</time>
      </trkpt>
      <trkpt lat="44.73714" lon="1.38298">
        <ele>260.60000610352</ele>
        <time>2022-05-22T07:02:47.000Z</time>
      </trkpt>
      <trkpt lat="44.73714" lon="1.38297">
        <ele>260.60000610352</ele>
        <time>2022-05-22T07:02:51.000Z</time>
      </trkpt>
      <trkpt lat="44.73714" lon="1.38297">
        <ele>260.60000610352</ele>
        <time>2022-05-22T07:02:54.000Z</time>
      </trkpt>
      <trkpt lat="44.73714" lon="1.38297">
        <ele>260.79998779297</ele>
        <time>2022-05-22T07:02:57.000Z</time>
      </trkpt>
      <trkpt lat="44.73712" lon="1.38296">
        <ele>261.20001220703</ele>
        <time>2022-05-22T07:03:17.000Z</time>
      </trkpt>
      <trkpt lat="44.73712" lon="1.38295">
        <ele>261.20001220703</ele>
        <time>2022-05-22T07:03:24.000Z</time>
      </trkpt>
      <trkpt lat="44.73712" lon="1.38294">
        <ele>261</ele>
        <time>2022-05-22T07:03:30.000Z</time>
      </trkpt>
      <trkpt lat="44.73713" lon="1.38292">
        <ele>261.20001220703</ele>
        <time>2022-05-22T07:03:52.000Z</time>
      </trkpt>
      <trkpt lat="44.73709" lon="1.38292">
        <ele>261.20001220703</ele>
        <time>2022-05-22T07:04:20.000Z</time>
      </trkpt>
      <trkpt lat="44.73708" lon="1.38292">
        <ele>261.20001220703</ele>
        <time>2022-05-22T07:04:24.000Z</time>
      </trkpt>
      <trkpt lat="44.73709" lon="1.38294">
        <ele>261.39999389648</ele>
        <time>2022-05-22T07:04:27.000Z</time>
      </trkpt>
      <trkpt lat="44.7371" lon="1.38294">
        <ele>261.39999389648</ele>
        <time>2022-05-22T07:04:29.000Z</time>
      </trkpt>
      <trkpt lat="44.7371" lon="1.38295">
        <ele>261.39999389648</ele>
        <time>2022-05-22T07:04:46.000Z</time>
      </trkpt>
      <trkpt lat="44.73712" lon="1.38296">
        <ele>261.39999389648</ele>
        <time>2022-05-22T07:05:09.000Z</time>
      </trkpt>
      <trkpt lat="44.73715" lon="1.38304">
        <ele>261.60000610352</ele>
        <time>2022-05-22T07:05:12.000Z</time>
      </trkpt>
      <trkpt lat="44.73715" lon="1.38311">
        <ele>261.60000610352</ele>
        <time>2022-05-22T07:05:14.000Z</time>
      </trkpt>
      <trkpt lat="44.73715" lon="1.38315">
        <ele>261.60000610352</ele>
        <time>2022-05-22T07:05:15.000Z</time>
      </trkpt>
      <trkpt lat="44.73715" lon="1.38336">
        <ele>260.79998779297</ele>
        <time>2022-05-22T07:05:20.000Z</time>
      </trkpt>
      <trkpt lat="44.73717" lon="1.38349">
        <ele>259.79998779297</ele>
        <time>2022-05-22T07:05:24.000Z</time>
      </trkpt>
      <trkpt lat="44.73718" lon="1.38357">
        <ele>259</ele>
        <time>2022-05-22T07:05:26.000Z</time>
      </trkpt>
      <trkpt lat="44.73718" lon="1.38361">
        <ele>258.60000610352</ele>
        <time>2022-05-22T07:05:27.000Z</time>
      </trkpt>
      <trkpt lat="44.73721" lon="1.38377">
        <ele>257.39999389648</ele>
        <time>2022-05-22T07:05:31.000Z</time>
      </trkpt>
      <trkpt lat="44.73722" lon="1.38381">
        <ele>256.79998779297</ele>
        <time>2022-05-22T07:05:32.000Z</time>
      </trkpt>
      <trkpt lat="44.73725" lon="1.38388">
        <ele>256</ele>
        <time>2022-05-22T07:05:34.000Z</time>
      </trkpt>
      <trkpt lat="44.73727" lon="1.38395">
        <ele>255.19999694824</ele>
        <time>2022-05-22T07:05:36.000Z</time>
      </trkpt>
      <trkpt lat="44.73727" lon="1.38397">
        <ele>254.39999389648</ele>
        <time>2022-05-22T07:05:37.000Z</time>
      </trkpt>
      <trkpt lat="44.73727" lon="1.38406">
        <ele>253</ele>
        <time>2022-05-22T07:05:40.000Z</time>
      </trkpt>
      <trkpt lat="44.73728" lon="1.38413">
        <ele>252</ele>
        <time>2022-05-22T07:05:42.000Z</time>
      </trkpt>
      <trkpt lat="44.7373" lon="1.38424">
        <ele>251.19999694824</ele>
        <time>2022-05-22T07:05:45.000Z</time>
      </trkpt>
      <trkpt lat="44.73729" lon="1.38427">
        <ele>250.80000305176</ele>
        <time>2022-05-22T07:05:46.000Z</time>
      </trkpt>
      <trkpt lat="44.73728" lon="1.38429">
        <ele>250.60000610352</ele>
        <time>2022-05-22T07:05:47.000Z</time>
      </trkpt>
      <trkpt lat="44.73729" lon="1.38431">
        <ele>249.60000610352</ele>
        <time>2022-05-22T07:05:50.000Z</time>
      </trkpt>
      <trkpt lat="44.73729" lon="1.38431">
        <ele>249.19999694824</ele>
        <time>2022-05-22T07:05:51.000Z</time>
      </trkpt>
      <trkpt lat="44.73729" lon="1.38434">
        <ele>248.60000610352</ele>
        <time>2022-05-22T07:05:58.000Z</time>
      </trkpt>
      <trkpt lat="44.73728" lon="1.38434">
        <ele>248.60000610352</ele>
        <time>2022-05-22T07:05:59.000Z</time>
      </trkpt>
      <trkpt lat="44.73728" lon="1.38437">
        <ele>248.60000610352</ele>
        <time>2022-05-22T07:06:12.000Z</time>
      </trkpt>
      <trkpt lat="44.73729" lon="1.38439">
        <ele>248.60000610352</ele>
        <time>2022-05-22T07:06:19.000Z</time>
      </trkpt>
      <trkpt lat="44.73732" lon="1.38441">
        <ele>248.60000610352</ele>
        <time>2022-05-22T07:06:21.000Z</time>
      </trkpt>
      <trkpt lat="44.73745" lon="1.38439">
        <ele>248.39999389648</ele>
        <time>2022-05-22T07:06:25.000Z</time>
      </trkpt>
      <trkpt lat="44.73767" lon="1.38434">
        <ele>248</ele>
        <time>2022-05-22T07:06:31.000Z</time>
      </trkpt>
      <trkpt lat="44.73769" lon="1.38435">
        <ele>248</ele>
        <time>2022-05-22T07:06:32.000Z</time>
      </trkpt>
      <trkpt lat="44.73772" lon="1.38436">
        <ele>247.80000305176</ele>
        <time>2022-05-22T07:06:34.000Z</time>
      </trkpt>
      <trkpt lat="44.73774" lon="1.38434">
        <ele>247.60000610352</ele>
        <time>2022-05-22T07:06:36.000Z</time>
      </trkpt>
      <trkpt lat="44.73776" lon="1.38429">
        <ele>247.39999389648</ele>
        <time>2022-05-22T07:06:38.000Z</time>
      </trkpt>
      <trkpt lat="44.73775" lon="1.38426">
        <ele>247.19999694824</ele>
        <time>2022-05-22T07:06:39.000Z</time>
      </trkpt>
      <trkpt lat="44.7377" lon="1.38423">
        <ele>247</ele>
        <time>2022-05-22T07:06:41.000Z</time>
      </trkpt>
      <trkpt lat="44.73767" lon="1.38425">
        <ele>247.19999694824</ele>
        <time>2022-05-22T07:06:42.000Z</time>
      </trkpt>
      <trkpt lat="44.73751" lon="1.38432">
        <ele>247.60000610352</ele>
        <time>2022-05-22T07:06:47.000Z</time>
      </trkpt>
      <trkpt lat="44.73734" lon="1.38435">
        <ele>248.39999389648</ele>
        <time>2022-05-22T07:06:52.000Z</time>
      </trkpt>
      <trkpt lat="44.73728" lon="1.38435">
        <ele>248.60000610352</ele>
        <time>2022-05-22T07:06:54.000Z</time>
      </trkpt>
      <trkpt lat="44.7372" lon="1.38435">
        <ele>248.80000305176</ele>
        <time>2022-05-22T07:06:56.000Z</time>
      </trkpt>
      <trkpt lat="44.737" lon="1.38435">
        <ele>248.60000610352</ele>
        <time>2022-05-22T07:07:01.000Z</time>
      </trkpt>
      <trkpt lat="44.73682" lon="1.38439">
        <ele>248</ele>
        <time>2022-05-22T07:07:07.000Z</time>
      </trkpt>
      <trkpt lat="44.7368" lon="1.3844">
        <ele>247.80000305176</ele>
        <time>2022-05-22T07:07:08.000Z</time>
      </trkpt>
      <trkpt lat="44.73678" lon="1.38439">
        <ele>247.80000305176</ele>
        <time>2022-05-22T07:07:09.000Z</time>
      </trkpt>
      <trkpt lat="44.73675" lon="1.38438">
        <ele>247.60000610352</ele>
        <time>2022-05-22T07:07:11.000Z</time>
      </trkpt>
      <trkpt lat="44.73673" lon="1.38438">
        <ele>247.19999694824</ele>
        <time>2022-05-22T07:07:15.000Z</time>
      </trkpt>
      <trkpt lat="44.73673" lon="1.38438">
        <ele>247</ele>
        <time>2022-05-22T07:07:20.000Z</time>
      </trkpt>
      <trkpt lat="44.73674" lon="1.38437">
        <ele>247</ele>
        <time>2022-05-22T07:07:25.000Z</time>
      </trkpt>
      <trkpt lat="44.73674" lon="1.38437">
        <ele>247.60000610352</ele>
        <time>2022-05-22T07:07:35.000Z</time>
      </trkpt>
      <trkpt lat="44.73674" lon="1.38435">
        <ele>247</ele>
        <time>2022-05-22T07:07:49.000Z</time>
      </trkpt>
      <trkpt lat="44.73676" lon="1.38436">
        <ele>246.80000305176</ele>
        <time>2022-05-22T07:07:55.000Z</time>
      </trkpt>
      <trkpt lat="44.73677" lon="1.38437">
        <ele>246.80000305176</ele>
        <time>2022-05-22T07:07:56.000Z</time>
      </trkpt>
      <trkpt lat="44.7368" lon="1.38439">
        <ele>246.80000305176</ele>
        <time>2022-05-22T07:07:58.000Z</time>
      </trkpt>
      <trkpt lat="44.73686" lon="1.38439">
        <ele>247</ele>
        <time>2022-05-22T07:08:00.000Z</time>
      </trkpt>
      <trkpt lat="44.73703" lon="1.38439">
        <ele>247.19999694824</ele>
        <time>2022-05-22T07:08:05.000Z</time>
      </trkpt>
      <trkpt lat="44.73731" lon="1.38439">
        <ele>248.19999694824</ele>
        <time>2022-05-22T07:08:14.000Z</time>
      </trkpt>
      <trkpt lat="44.73763" lon="1.38433">
        <ele>248.60000610352</ele>
        <time>2022-05-22T07:08:23.000Z</time>
      </trkpt>
      <trkpt lat="44.73786" lon="1.38418">
        <ele>248</ele>
        <time>2022-05-22T07:08:29.000Z</time>
      </trkpt>
      <trkpt lat="44.73794" lon="1.38413">
        <ele>247.80000305176</ele>
        <time>2022-05-22T07:08:31.000Z</time>
      </trkpt>
      <trkpt lat="44.73808" lon="1.38405">
        <ele>247.60000610352</ele>
        <time>2022-05-22T07:08:34.000Z</time>
      </trkpt>
      <trkpt lat="44.73821" lon="1.38397">
        <ele>246.80000305176</ele>
        <time>2022-05-22T07:08:38.000Z</time>
      </trkpt>
      <trkpt lat="44.73824" lon="1.38396">
        <ele>246.39999389648</ele>
        <time>2022-05-22T07:08:39.000Z</time>
      </trkpt>
      <trkpt lat="44.73831" lon="1.38398">
        <ele>245.80000305176</ele>
        <time>2022-05-22T07:08:42.000Z</time>
      </trkpt>
      <trkpt lat="44.73834" lon="1.38407">
        <ele>245.39999389648</ele>
        <time>2022-05-22T07:08:45.000Z</time>
      </trkpt>
      <trkpt lat="44.73835" lon="1.38411">
        <ele>245.19999694824</ele>
        <time>2022-05-22T07:08:46.000Z</time>
      </trkpt>
      <trkpt lat="44.73834" lon="1.38428">
        <ele>244.19999694824</ele>
        <time>2022-05-22T07:08:49.000Z</time>
      </trkpt>
      <trkpt lat="44.73833" lon="1.38435">
        <ele>243.80000305176</ele>
        <time>2022-05-22T07:08:50.000Z</time>
      </trkpt>
      <trkpt lat="44.73831" lon="1.38456">
        <ele>242.80000305176</ele>
        <time>2022-05-22T07:08:53.000Z</time>
      </trkpt>
      <trkpt lat="44.73828" lon="1.38477">
        <ele>241.60000610352</ele>
        <time>2022-05-22T07:08:56.000Z</time>
      </trkpt>
      <trkpt lat="44.73827" lon="1.38483">
        <ele>241.19999694824</ele>
        <time>2022-05-22T07:08:57.000Z</time>
      </trkpt>
      <trkpt lat="44.73825" lon="1.385">
        <ele>240.39999389648</ele>
        <time>2022-05-22T07:08:59.000Z</time>
      </trkpt>
      <trkpt lat="44.73825" lon="1.38515">
        <ele>239.39999389648</ele>
        <time>2022-05-22T07:09:01.000Z</time>
      </trkpt>
      <trkpt lat="44.73826" lon="1.3853">
        <ele>238.39999389648</ele>
        <time>2022-05-22T07:09:03.000Z</time>
      </trkpt>
      <trkpt lat="44.73828" lon="1.38538">
        <ele>238</ele>
        <time>2022-05-22T07:09:04.000Z</time>
      </trkpt>
      <trkpt lat="44.73831" lon="1.38552">
        <ele>236.80000305176</ele>
        <time>2022-05-22T07:09:06.000Z</time>
      </trkpt>
      <trkpt lat="44.73833" lon="1.38563">
        <ele>235.80000305176</ele>
        <time>2022-05-22T07:09:08.000Z</time>
      </trkpt>
      <trkpt lat="44.73834" lon="1.38576">
        <ele>234.60000610352</ele>
        <time>2022-05-22T07:09:10.000Z</time>
      </trkpt>
      <trkpt lat="44.73835" lon="1.38591">
        <ele>233.39999389648</ele>
        <time>2022-05-22T07:09:13.000Z</time>
      </trkpt>
      <trkpt lat="44.73834" lon="1.38595">
        <ele>233.19999694824</ele>
        <time>2022-05-22T07:09:14.000Z</time>
      </trkpt>
      <trkpt lat="44.73834" lon="1.38611">
        <ele>232.80000305176</ele>
        <time>2022-05-22T07:09:18.000Z</time>
      </trkpt>
      <trkpt lat="44.73833" lon="1.38614">
        <ele>232.80000305176</ele>
        <time>2022-05-22T07:09:19.000Z</time>
      </trkpt>
      <trkpt lat="44.73832" lon="1.38631">
        <ele>233</ele>
        <time>2022-05-22T07:09:23.000Z</time>
      </trkpt>
      <trkpt lat="44.73833" lon="1.38638">
        <ele>233.19999694824</ele>
        <time>2022-05-22T07:09:25.000Z</time>
      </trkpt>
      <trkpt lat="44.73833" lon="1.38663">
        <ele>234</ele>
        <time>2022-05-22T07:09:31.000Z</time>
      </trkpt>
      <trkpt lat="44.73833" lon="1.38687">
        <ele>234.39999389648</ele>
        <time>2022-05-22T07:09:36.000Z</time>
      </trkpt>
      <trkpt lat="44.73832" lon="1.38693">
        <ele>234.39999389648</ele>
        <time>2022-05-22T07:09:37.000Z</time>
      </trkpt>
      <trkpt lat="44.7383" lon="1.3873">
        <ele>234.39999389648</ele>
        <time>2022-05-22T07:09:44.000Z</time>
      </trkpt>
      <trkpt lat="44.73828" lon="1.38749">
        <ele>234</ele>
        <time>2022-05-22T07:09:49.000Z</time>
      </trkpt>
      <trkpt lat="44.73832" lon="1.38764">
        <ele>233.39999389648</ele>
        <time>2022-05-22T07:09:52.000Z</time>
      </trkpt>
      <trkpt lat="44.73834" lon="1.38769">
        <ele>233.19999694824</ele>
        <time>2022-05-22T07:09:53.000Z</time>
      </trkpt>
      <trkpt lat="44.73848" lon="1.38794">
        <ele>232.39999389648</ele>
        <time>2022-05-22T07:09:58.000Z</time>
      </trkpt>
      <trkpt lat="44.73867" lon="1.38828">
        <ele>231.39999389648</ele>
        <time>2022-05-22T07:10:04.000Z</time>
      </trkpt>
      <trkpt lat="44.7387" lon="1.38833">
        <ele>231.19999694824</ele>
        <time>2022-05-22T07:10:05.000Z</time>
      </trkpt>
      <trkpt lat="44.73888" lon="1.38866">
        <ele>230.39999389648</ele>
        <time>2022-05-22T07:10:10.000Z</time>
      </trkpt>
      <trkpt lat="44.73896" lon="1.38881">
        <ele>230.19999694824</ele>
        <time>2022-05-22T07:10:12.000Z</time>
      </trkpt>
      <trkpt lat="44.73914" lon="1.38916">
        <ele>229.19999694824</ele>
        <time>2022-05-22T07:10:17.000Z</time>
      </trkpt>
      <trkpt lat="44.73921" lon="1.38927">
        <ele>229</ele>
        <time>2022-05-22T07:10:19.000Z</time>
      </trkpt>
      <trkpt lat="44.73928" lon="1.38932">
        <ele>228.80000305176</ele>
        <time>2022-05-22T07:10:21.000Z</time>
      </trkpt>
      <trkpt lat="44.73932" lon="1.38932">
        <ele>228.80000305176</ele>
        <time>2022-05-22T07:10:22.000Z</time>
      </trkpt>
      <trkpt lat="44.73947" lon="1.38927">
        <ele>228.80000305176</ele>
        <time>2022-05-22T07:10:26.000Z</time>
      </trkpt>
      <trkpt lat="44.73961" lon="1.38926">
        <ele>228.19999694824</ele>
        <time>2022-05-22T07:10:29.000Z</time>
      </trkpt>
      <trkpt lat="44.73981" lon="1.38925">
        <ele>227.19999694824</ele>
        <time>2022-05-22T07:10:34.000Z</time>
      </trkpt>
      <trkpt lat="44.73993" lon="1.38924">
        <ele>226</ele>
        <time>2022-05-22T07:10:38.000Z</time>
      </trkpt>
      <trkpt lat="44.73995" lon="1.38923">
        <ele>225.60000610352</ele>
        <time>2022-05-22T07:10:39.000Z</time>
      </trkpt>
      <trkpt lat="44.73998" lon="1.38921">
        <ele>225.39999389648</ele>
        <time>2022-05-22T07:10:40.000Z</time>
      </trkpt>
      <trkpt lat="44.73999" lon="1.38918">
        <ele>225</ele>
        <time>2022-05-22T07:10:41.000Z</time>
      </trkpt>
      <trkpt lat="44.73999" lon="1.38914">
        <ele>224.80000305176</ele>
        <time>2022-05-22T07:10:42.000Z</time>
      </trkpt>
      <trkpt lat="44.73987" lon="1.3889">
        <ele>224.19999694824</ele>
        <time>2022-05-22T07:10:47.000Z</time>
      </trkpt>
      <trkpt lat="44.73978" lon="1.38871">
        <ele>224</ele>
        <time>2022-05-22T07:10:50.000Z</time>
      </trkpt>
      <trkpt lat="44.73969" lon="1.38854">
        <ele>223.39999389648</ele>
        <time>2022-05-22T07:10:53.000Z</time>
      </trkpt>
      <trkpt lat="44.73964" lon="1.38842">
        <ele>223.19999694824</ele>
        <time>2022-05-22T07:10:55.000Z</time>
      </trkpt>
      <trkpt lat="44.73955" lon="1.38821">
        <ele>223</ele>
        <time>2022-05-22T07:10:59.000Z</time>
      </trkpt>
      <trkpt lat="44.73948" lon="1.38804">
        <ele>223</ele>
        <time>2022-05-22T07:11:02.000Z</time>
      </trkpt>
      <trkpt lat="44.73944" lon="1.38793">
        <ele>223</ele>
        <time>2022-05-22T07:11:04.000Z</time>
      </trkpt>
      <trkpt lat="44.73935" lon="1.38772">
        <ele>224.19999694824</ele>
        <time>2022-05-22T07:11:08.000Z</time>
      </trkpt>
      <trkpt lat="44.73933" lon="1.38767">
        <ele>224.60000610352</ele>
        <time>2022-05-22T07:11:09.000Z</time>
      </trkpt>
      <trkpt lat="44.73925" lon="1.3875">
        <ele>225.60000610352</ele>
        <time>2022-05-22T07:11:13.000Z</time>
      </trkpt>
      <trkpt lat="44.7392" lon="1.38737">
        <ele>226.60000610352</ele>
        <time>2022-05-22T07:11:16.000Z</time>
      </trkpt>
      <trkpt lat="44.73919" lon="1.38733">
        <ele>227</ele>
        <time>2022-05-22T07:11:17.000Z</time>
      </trkpt>
      <trkpt lat="44.73912" lon="1.38717">
        <ele>228.39999389648</ele>
        <time>2022-05-22T07:11:21.000Z</time>
      </trkpt>
      <trkpt lat="44.73905" lon="1.38702">
        <ele>229.19999694824</ele>
        <time>2022-05-22T07:11:25.000Z</time>
      </trkpt>
      <trkpt lat="44.73903" lon="1.38699">
        <ele>229.60000610352</ele>
        <time>2022-05-22T07:11:26.000Z</time>
      </trkpt>
      <trkpt lat="44.73894" lon="1.38679">
        <ele>231</ele>
        <time>2022-05-22T07:11:31.000Z</time>
      </trkpt>
      <trkpt lat="44.73886" lon="1.38661">
        <ele>231.80000305176</ele>
        <time>2022-05-22T07:11:35.000Z</time>
      </trkpt>
      <trkpt lat="44.73884" lon="1.38656">
        <ele>232.19999694824</ele>
        <time>2022-05-22T07:11:36.000Z</time>
      </trkpt>
      <trkpt lat="44.73873" lon="1.38634">
        <ele>232.39999389648</ele>
        <time>2022-05-22T07:11:41.000Z</time>
      </trkpt>
      <trkpt lat="44.73851" lon="1.38598">
        <ele>232.39999389648</ele>
        <time>2022-05-22T07:11:50.000Z</time>
      </trkpt>
      <trkpt lat="44.73838" lon="1.38588">
        <ele>231.80000305176</ele>
        <time>2022-05-22T07:11:55.000Z</time>
      </trkpt>
      <trkpt lat="44.73837" lon="1.38588">
        <ele>231.80000305176</ele>
        <time>2022-05-22T07:11:56.000Z</time>
      </trkpt>
      <trkpt lat="44.73833" lon="1.38591">
        <ele>231.80000305176</ele>
        <time>2022-05-22T07:11:59.000Z</time>
      </trkpt>
      <trkpt lat="44.73831" lon="1.38591">
        <ele>231.80000305176</ele>
        <time>2022-05-22T07:12:00.000Z</time>
      </trkpt>
      <trkpt lat="44.73818" lon="1.38591">
        <ele>232.19999694824</ele>
        <time>2022-05-22T07:12:04.000Z</time>
      </trkpt>
      <trkpt lat="44.73803" lon="1.38589">
        <ele>233.19999694824</ele>
        <time>2022-05-22T07:12:08.000Z</time>
      </trkpt>
      <trkpt lat="44.73793" lon="1.38589">
        <ele>234</ele>
        <time>2022-05-22T07:12:11.000Z</time>
      </trkpt>
      <trkpt lat="44.73782" lon="1.38586">
        <ele>234.39999389648</ele>
        <time>2022-05-22T07:12:14.000Z</time>
      </trkpt>
      <trkpt lat="44.7377" lon="1.3858">
        <ele>235.19999694824</ele>
        <time>2022-05-22T07:12:18.000Z</time>
      </trkpt>
      <trkpt lat="44.73767" lon="1.38579">
        <ele>235.19999694824</ele>
        <time>2022-05-22T07:12:20.000Z</time>
      </trkpt>
      <trkpt lat="44.73766" lon="1.38579">
        <ele>235.19999694824</ele>
        <time>2022-05-22T07:12:21.000Z</time>
      </trkpt>
      <trkpt lat="44.73765" lon="1.38581">
        <ele>235.39999389648</ele>
        <time>2022-05-22T07:12:22.000Z</time>
      </trkpt>
      <trkpt lat="44.73758" lon="1.38593">
        <ele>235.39999389648</ele>
        <time>2022-05-22T07:12:27.000Z</time>
      </trkpt>
      <trkpt lat="44.73749" lon="1.38607">
        <ele>235</ele>
        <time>2022-05-22T07:12:32.000Z</time>
      </trkpt>
      <trkpt lat="44.73747" lon="1.3861">
        <ele>234.80000305176</ele>
        <time>2022-05-22T07:12:34.000Z</time>
      </trkpt>
      <trkpt lat="44.73745" lon="1.38609">
        <ele>234.19999694824</ele>
        <time>2022-05-22T07:12:36.000Z</time>
      </trkpt>
      <trkpt lat="44.73741" lon="1.38606">
        <ele>233.80000305176</ele>
        <time>2022-05-22T07:12:38.000Z</time>
      </trkpt>
      <trkpt lat="44.73735" lon="1.38597">
        <ele>233.60000610352</ele>
        <time>2022-05-22T07:12:41.000Z</time>
      </trkpt>
      <trkpt lat="44.73724" lon="1.3858">
        <ele>233.80000305176</ele>
        <time>2022-05-22T07:12:46.000Z</time>
      </trkpt>
      <trkpt lat="44.73707" lon="1.38558">
        <ele>234.39999389648</ele>
        <time>2022-05-22T07:12:53.000Z</time>
      </trkpt>
      <trkpt lat="44.73702" lon="1.38553">
        <ele>234.60000610352</ele>
        <time>2022-05-22T07:12:55.000Z</time>
      </trkpt>
      <trkpt lat="44.73699" lon="1.38556">
        <ele>234.80000305176</ele>
        <time>2022-05-22T07:12:57.000Z</time>
      </trkpt>
      <trkpt lat="44.73692" lon="1.38574">
        <ele>234.80000305176</ele>
        <time>2022-05-22T07:13:01.000Z</time>
      </trkpt>
      <trkpt lat="44.73681" lon="1.38606">
        <ele>234</ele>
        <time>2022-05-22T07:13:05.000Z</time>
      </trkpt>
      <trkpt lat="44.73674" lon="1.3862">
        <ele>233.39999389648</ele>
        <time>2022-05-22T07:13:07.000Z</time>
      </trkpt>
      <trkpt lat="44.73666" lon="1.38628">
        <ele>232.80000305176</ele>
        <time>2022-05-22T07:13:09.000Z</time>
      </trkpt>
      <trkpt lat="44.73656" lon="1.38636">
        <ele>232</ele>
        <time>2022-05-22T07:13:11.000Z</time>
      </trkpt>
      <trkpt lat="44.73651" lon="1.38639">
        <ele>231.19999694824</ele>
        <time>2022-05-22T07:13:12.000Z</time>
      </trkpt>
      <trkpt lat="44.73637" lon="1.38644">
        <ele>230.39999389648</ele>
        <time>2022-05-22T07:13:14.000Z</time>
      </trkpt>
      <trkpt lat="44.73631" lon="1.38646">
        <ele>230.19999694824</ele>
        <time>2022-05-22T07:13:15.000Z</time>
      </trkpt>
      <trkpt lat="44.73611" lon="1.38653">
        <ele>229.19999694824</ele>
        <time>2022-05-22T07:13:18.000Z</time>
      </trkpt>
      <trkpt lat="44.73604" lon="1.38656">
        <ele>228.39999389648</ele>
        <time>2022-05-22T07:13:19.000Z</time>
      </trkpt>
      <trkpt lat="44.73589" lon="1.38662">
        <ele>227.80000305176</ele>
        <time>2022-05-22T07:13:21.000Z</time>
      </trkpt>
      <trkpt lat="44.73576" lon="1.38674">
        <ele>227</ele>
        <time>2022-05-22T07:13:23.000Z</time>
      </trkpt>
      <trkpt lat="44.7357" lon="1.38681">
        <ele>226.39999389648</ele>
        <time>2022-05-22T07:13:24.000Z</time>
      </trkpt>
      <trkpt lat="44.73559" lon="1.38696">
        <ele>225.60000610352</ele>
        <time>2022-05-22T07:13:26.000Z</time>
      </trkpt>
      <trkpt lat="44.73543" lon="1.3872">
        <ele>224.39999389648</ele>
        <time>2022-05-22T07:13:29.000Z</time>
      </trkpt>
      <trkpt lat="44.73539" lon="1.38726">
        <ele>224</ele>
        <time>2022-05-22T07:13:30.000Z</time>
      </trkpt>
      <trkpt lat="44.7353" lon="1.38741">
        <ele>223.60000610352</ele>
        <time>2022-05-22T07:13:32.000Z</time>
      </trkpt>
      <trkpt lat="44.73527" lon="1.38746">
        <ele>223.60000610352</ele>
        <time>2022-05-22T07:13:33.000Z</time>
      </trkpt>
      <trkpt lat="44.73524" lon="1.38752">
        <ele>223.39999389648</ele>
        <time>2022-05-22T07:13:34.000Z</time>
      </trkpt>
      <trkpt lat="44.73518" lon="1.38761">
        <ele>223</ele>
        <time>2022-05-22T07:13:36.000Z</time>
      </trkpt>
      <trkpt lat="44.73517" lon="1.38762">
        <ele>222.60000610352</ele>
        <time>2022-05-22T07:13:37.000Z</time>
      </trkpt>
      <trkpt lat="44.73516" lon="1.38763">
        <ele>222.19999694824</ele>
        <time>2022-05-22T07:13:39.000Z</time>
      </trkpt>
      <trkpt lat="44.73516" lon="1.38763">
        <ele>222.19999694824</ele>
        <time>2022-05-22T07:13:40.000Z</time>
      </trkpt>
      <trkpt lat="44.73516" lon="1.38763">
        <ele>222</ele>
        <time>2022-05-22T07:13:47.000Z</time>
      </trkpt>
      <trkpt lat="44.73516" lon="1.38763">
        <ele>221.80000305176</ele>
        <time>2022-05-22T07:13:59.000Z</time>
      </trkpt>
      <trkpt lat="44.73516" lon="1.38763">
        <ele>221.60000610352</ele>
        <time>2022-05-22T07:14:04.000Z</time>
      </trkpt>
      <trkpt lat="44.73515" lon="1.38769">
        <ele>221.60000610352</ele>
        <time>2022-05-22T07:14:06.000Z</time>
      </trkpt>
      <trkpt lat="44.73513" lon="1.38773">
        <ele>221.39999389648</ele>
        <time>2022-05-22T07:14:07.000Z</time>
      </trkpt>
      <trkpt lat="44.73506" lon="1.38792">
        <ele>221</ele>
        <time>2022-05-22T07:14:10.000Z</time>
      </trkpt>
      <trkpt lat="44.73502" lon="1.388">
        <ele>220.80000305176</ele>
        <time>2022-05-22T07:14:11.000Z</time>
      </trkpt>
      <trkpt lat="44.73497" lon="1.38807">
        <ele>220.80000305176</ele>
        <time>2022-05-22T07:14:12.000Z</time>
      </trkpt>
      <trkpt lat="44.73479" lon="1.38826">
        <ele>219.39999389648</ele>
        <time>2022-05-22T07:14:15.000Z</time>
      </trkpt>
      <trkpt lat="44.73474" lon="1.38832">
        <ele>218.80000305176</ele>
        <time>2022-05-22T07:14:16.000Z</time>
      </trkpt>
      <trkpt lat="44.73469" lon="1.38838">
        <ele>218</ele>
        <time>2022-05-22T07:14:17.000Z</time>
      </trkpt>
      <trkpt lat="44.73466" lon="1.38844">
        <ele>217.39999389648</ele>
        <time>2022-05-22T07:14:18.000Z</time>
      </trkpt>
      <trkpt lat="44.73463" lon="1.3885">
        <ele>216.80000305176</ele>
        <time>2022-05-22T07:14:19.000Z</time>
      </trkpt>
      <trkpt lat="44.7346" lon="1.38856">
        <ele>215</ele>
        <time>2022-05-22T07:14:20.000Z</time>
      </trkpt>
      <trkpt lat="44.73455" lon="1.38865">
        <ele>213.19999694824</ele>
        <time>2022-05-22T07:14:22.000Z</time>
      </trkpt>
      <trkpt lat="44.73453" lon="1.38869">
        <ele>212.60000610352</ele>
        <time>2022-05-22T07:14:23.000Z</time>
      </trkpt>
      <trkpt lat="44.7345" lon="1.38873">
        <ele>211.80000305176</ele>
        <time>2022-05-22T07:14:24.000Z</time>
      </trkpt>
      <trkpt lat="44.73446" lon="1.3888">
        <ele>210.60000610352</ele>
        <time>2022-05-22T07:14:26.000Z</time>
      </trkpt>
      <trkpt lat="44.73439" lon="1.38893">
        <ele>209.19999694824</ele>
        <time>2022-05-22T07:14:29.000Z</time>
      </trkpt>
      <trkpt lat="44.73438" lon="1.38895">
        <ele>208.80000305176</ele>
        <time>2022-05-22T07:14:30.000Z</time>
      </trkpt>
      <trkpt lat="44.73437" lon="1.38897">
        <ele>207.80000305176</ele>
        <time>2022-05-22T07:14:32.000Z</time>
      </trkpt>
      <trkpt lat="44.73437" lon="1.38897">
        <ele>207.60000610352</ele>
        <time>2022-05-22T07:14:33.000Z</time>
      </trkpt>
      <trkpt lat="44.73439" lon="1.38893">
        <ele>207</ele>
        <time>2022-05-22T07:14:40.000Z</time>
      </trkpt>
      <trkpt lat="44.73441" lon="1.3889">
        <ele>207</ele>
        <time>2022-05-22T07:14:42.000Z</time>
      </trkpt>
      <trkpt lat="44.73443" lon="1.38886">
        <ele>207</ele>
        <time>2022-05-22T07:14:44.000Z</time>
      </trkpt>
      <trkpt lat="44.73445" lon="1.38882">
        <ele>207</ele>
        <time>2022-05-22T07:14:46.000Z</time>
      </trkpt>
      <trkpt lat="44.73438" lon="1.38881">
        <ele>207</ele>
        <time>2022-05-22T07:14:50.000Z</time>
      </trkpt>
      <trkpt lat="44.73428" lon="1.38898">
        <ele>206.80000305176</ele>
        <time>2022-05-22T07:14:54.000Z</time>
      </trkpt>
      <trkpt lat="44.73425" lon="1.38903">
        <ele>206.60000610352</ele>
        <time>2022-05-22T07:14:55.000Z</time>
      </trkpt>
      <trkpt lat="44.73419" lon="1.38916">
        <ele>206.19999694824</ele>
        <time>2022-05-22T07:14:57.000Z</time>
      </trkpt>
      <trkpt lat="44.73416" lon="1.38933">
        <ele>205.19999694824</ele>
        <time>2022-05-22T07:14:59.000Z</time>
      </trkpt>
      <trkpt lat="44.73414" lon="1.38961">
        <ele>204</ele>
        <time>2022-05-22T07:15:02.000Z</time>
      </trkpt>
      <trkpt lat="44.73413" lon="1.3899">
        <ele>203</ele>
        <time>2022-05-22T07:15:05.000Z</time>
      </trkpt>
      <trkpt lat="44.73412" lon="1.39">
        <ele>202.80000305176</ele>
        <time>2022-05-22T07:15:06.000Z</time>
      </trkpt>
      <trkpt lat="44.73408" lon="1.39027">
        <ele>202</ele>
        <time>2022-05-22T07:15:09.000Z</time>
      </trkpt>
      <trkpt lat="44.73404" lon="1.39037">
        <ele>201.60000610352</ele>
        <time>2022-05-22T07:15:10.000Z</time>
      </trkpt>
      <trkpt lat="44.73398" lon="1.39044">
        <ele>201.19999694824</ele>
        <time>2022-05-22T07:15:11.000Z</time>
      </trkpt>
      <trkpt lat="44.73393" lon="1.39051">
        <ele>200.60000610352</ele>
        <time>2022-05-22T07:15:12.000Z</time>
      </trkpt>
      <trkpt lat="44.73381" lon="1.39067">
        <ele>199.39999389648</ele>
        <time>2022-05-22T07:15:14.000Z</time>
      </trkpt>
      <trkpt lat="44.73364" lon="1.39095">
        <ele>198.19999694824</ele>
        <time>2022-05-22T07:15:17.000Z</time>
      </trkpt>
      <trkpt lat="44.73354" lon="1.39111">
        <ele>197.19999694824</ele>
        <time>2022-05-22T07:15:19.000Z</time>
      </trkpt>
      <trkpt lat="44.73336" lon="1.39125">
        <ele>196.60000610352</ele>
        <time>2022-05-22T07:15:22.000Z</time>
      </trkpt>
      <trkpt lat="44.7333" lon="1.39128">
        <ele>196.19999694824</ele>
        <time>2022-05-22T07:15:23.000Z</time>
      </trkpt>
      <trkpt lat="44.73324" lon="1.3913">
        <ele>196</ele>
        <time>2022-05-22T07:15:24.000Z</time>
      </trkpt>
      <trkpt lat="44.73306" lon="1.39137">
        <ele>195.39999389648</ele>
        <time>2022-05-22T07:15:27.000Z</time>
      </trkpt>
      <trkpt lat="44.73298" lon="1.39146">
        <ele>195.39999389648</ele>
        <time>2022-05-22T07:15:29.000Z</time>
      </trkpt>
      <trkpt lat="44.73295" lon="1.39151">
        <ele>195.39999389648</ele>
        <time>2022-05-22T07:15:30.000Z</time>
      </trkpt>
      <trkpt lat="44.73286" lon="1.39173">
        <ele>195.39999389648</ele>
        <time>2022-05-22T07:15:34.000Z</time>
      </trkpt>
      <trkpt lat="44.7328" lon="1.39183">
        <ele>195.39999389648</ele>
        <time>2022-05-22T07:15:36.000Z</time>
      </trkpt>
      <trkpt lat="44.73278" lon="1.39196">
        <ele>195.39999389648</ele>
        <time>2022-05-22T07:15:38.000Z</time>
      </trkpt>
      <trkpt lat="44.73279" lon="1.39202">
        <ele>195.39999389648</ele>
        <time>2022-05-22T07:15:39.000Z</time>
      </trkpt>
      <trkpt lat="44.73285" lon="1.39226">
        <ele>195.60000610352</ele>
        <time>2022-05-22T07:15:43.000Z</time>
      </trkpt>
      <trkpt lat="44.73286" lon="1.39232">
        <ele>195.60000610352</ele>
        <time>2022-05-22T07:15:44.000Z</time>
      </trkpt>
      <trkpt lat="44.73286" lon="1.39238">
        <ele>195.60000610352</ele>
        <time>2022-05-22T07:15:45.000Z</time>
      </trkpt>
      <trkpt lat="44.73284" lon="1.39243">
        <ele>195.60000610352</ele>
        <time>2022-05-22T07:15:46.000Z</time>
      </trkpt>
      <trkpt lat="44.73279" lon="1.39249">
        <ele>195.80000305176</ele>
        <time>2022-05-22T07:15:48.000Z</time>
      </trkpt>
      <trkpt lat="44.73272" lon="1.39253">
        <ele>196.39999389648</ele>
        <time>2022-05-22T07:15:50.000Z</time>
      </trkpt>
      <trkpt lat="44.73267" lon="1.39258">
        <ele>197.19999694824</ele>
        <time>2022-05-22T07:15:52.000Z</time>
      </trkpt>
      <trkpt lat="44.73266" lon="1.3926">
        <ele>197.60000610352</ele>
        <time>2022-05-22T07:15:53.000Z</time>
      </trkpt>
      <trkpt lat="44.73266" lon="1.39264">
        <ele>198.19999694824</ele>
        <time>2022-05-22T07:15:54.000Z</time>
      </trkpt>
      <trkpt lat="44.73267" lon="1.39276">
        <ele>199</ele>
        <time>2022-05-22T07:15:57.000Z</time>
      </trkpt>
      <trkpt lat="44.73267" lon="1.39281">
        <ele>199.39999389648</ele>
        <time>2022-05-22T07:15:58.000Z</time>
      </trkpt>
      <trkpt lat="44.73268" lon="1.39285">
        <ele>199.60000610352</ele>
        <time>2022-05-22T07:15:59.000Z</time>
      </trkpt>
      <trkpt lat="44.7327" lon="1.39301">
        <ele>200.39999389648</ele>
        <time>2022-05-22T07:16:02.000Z</time>
      </trkpt>
      <trkpt lat="44.73271" lon="1.39306">
        <ele>201</ele>
        <time>2022-05-22T07:16:03.000Z</time>
      </trkpt>
      <trkpt lat="44.73276" lon="1.39334">
        <ele>202</ele>
        <time>2022-05-22T07:16:08.000Z</time>
      </trkpt>
      <trkpt lat="44.73276" lon="1.39339">
        <ele>202.19999694824</ele>
        <time>2022-05-22T07:16:09.000Z</time>
      </trkpt>
      <trkpt lat="44.73278" lon="1.39355">
        <ele>203</ele>
        <time>2022-05-22T07:16:13.000Z</time>
      </trkpt>
      <trkpt lat="44.73279" lon="1.39357">
        <ele>203</ele>
        <time>2022-05-22T07:16:14.000Z</time>
      </trkpt>
      <trkpt lat="44.73279" lon="1.39362">
        <ele>203</ele>
        <time>2022-05-22T07:16:16.000Z</time>
      </trkpt>
      <trkpt lat="44.73279" lon="1.39362">
        <ele>203</ele>
        <time>2022-05-22T07:16:18.000Z</time>
      </trkpt>
      <trkpt lat="44.73279" lon="1.39362">
        <ele>202.80000305176</ele>
        <time>2022-05-22T07:16:41.000Z</time>
      </trkpt>
      <trkpt lat="44.73279" lon="1.39362">
        <ele>202.80000305176</ele>
        <time>2022-05-22T07:16:47.000Z</time>
      </trkpt>
      <trkpt lat="44.73279" lon="1.39362">
        <ele>202.80000305176</ele>
        <time>2022-05-22T07:16:53.000Z</time>
      </trkpt>
      <trkpt lat="44.73279" lon="1.39362">
        <ele>202.80000305176</ele>
        <time>2022-05-22T07:16:54.000Z</time>
      </trkpt>
      <trkpt lat="44.73279" lon="1.39362">
        <ele>202.80000305176</ele>
        <time>2022-05-22T07:16:59.000Z</time>
      </trkpt>
      <trkpt lat="44.73279" lon="1.39362">
        <ele>202.80000305176</ele>
        <time>2022-05-22T07:17:03.000Z</time>
      </trkpt>
      <trkpt lat="44.73279" lon="1.39362">
        <ele>202.60000610352</ele>
        <time>2022-05-22T07:17:13.000Z</time>
      </trkpt>
      <trkpt lat="44.73279" lon="1.39362">
        <ele>202.80000305176</ele>
        <time>2022-05-22T07:17:19.000Z</time>
      </trkpt>
      <trkpt lat="44.73279" lon="1.39362">
        <ele>202.60000610352</ele>
        <time>2022-05-22T07:17:35.000Z</time>
      </trkpt>
      <trkpt lat="44.73279" lon="1.39362">
        <ele>202.60000610352</ele>
        <time>2022-05-22T07:17:52.000Z</time>
      </trkpt>
      <trkpt lat="44.73279" lon="1.39362">
        <ele>202.80000305176</ele>
        <time>2022-05-22T07:18:07.000Z</time>
      </trkpt>
      <trkpt lat="44.7328" lon="1.39366">
        <ele>202.80000305176</ele>
        <time>2022-05-22T07:18:49.000Z</time>
      </trkpt>
      <trkpt lat="44.73283" lon="1.39373">
        <ele>202.80000305176</ele>
        <time>2022-05-22T07:18:51.000Z</time>
      </trkpt>
      <trkpt lat="44.7329" lon="1.39395">
        <ele>202.80000305176</ele>
        <time>2022-05-22T07:18:55.000Z</time>
      </trkpt>
      <trkpt lat="44.73292" lon="1.39404">
        <ele>203.19999694824</ele>
        <time>2022-05-22T07:18:57.000Z</time>
      </trkpt>
      <trkpt lat="44.73298" lon="1.39421">
        <ele>203.39999389648</ele>
        <time>2022-05-22T07:19:01.000Z</time>
      </trkpt>
      <trkpt lat="44.73299" lon="1.39424">
        <ele>203.60000610352</ele>
        <time>2022-05-22T07:19:02.000Z</time>
      </trkpt>
      <trkpt lat="44.73303" lon="1.39436">
        <ele>204.60000610352</ele>
        <time>2022-05-22T07:19:06.000Z</time>
      </trkpt>
      <trkpt lat="44.73304" lon="1.39439">
        <ele>204.60000610352</ele>
        <time>2022-05-22T07:19:07.000Z</time>
      </trkpt>
      <trkpt lat="44.73305" lon="1.39442">
        <ele>204.80000305176</ele>
        <time>2022-05-22T07:19:08.000Z</time>
      </trkpt>
      <trkpt lat="44.73308" lon="1.39451">
        <ele>205.19999694824</ele>
        <time>2022-05-22T07:19:11.000Z</time>
      </trkpt>
      <trkpt lat="44.73313" lon="1.39461">
        <ele>205.60000610352</ele>
        <time>2022-05-22T07:19:14.000Z</time>
      </trkpt>
      <trkpt lat="44.73317" lon="1.39469">
        <ele>205.80000305176</ele>
        <time>2022-05-22T07:19:16.000Z</time>
      </trkpt>
      <trkpt lat="44.7332" lon="1.39473">
        <ele>205.80000305176</ele>
        <time>2022-05-22T07:19:17.000Z</time>
      </trkpt>
      <trkpt lat="44.73326" lon="1.39481">
        <ele>205.80000305176</ele>
        <time>2022-05-22T07:19:19.000Z</time>
      </trkpt>
      <trkpt lat="44.73329" lon="1.39487">
        <ele>205.80000305176</ele>
        <time>2022-05-22T07:19:20.000Z</time>
      </trkpt>
      <trkpt lat="44.73336" lon="1.39498">
        <ele>205.60000610352</ele>
        <time>2022-05-22T07:19:22.000Z</time>
      </trkpt>
      <trkpt lat="44.73345" lon="1.39509">
        <ele>205.60000610352</ele>
        <time>2022-05-22T07:19:24.000Z</time>
      </trkpt>
      <trkpt lat="44.7335" lon="1.39516">
        <ele>205.39999389648</ele>
        <time>2022-05-22T07:19:25.000Z</time>
      </trkpt>
      <trkpt lat="44.73361" lon="1.3953">
        <ele>204.39999389648</ele>
        <time>2022-05-22T07:19:27.000Z</time>
      </trkpt>
      <trkpt lat="44.73366" lon="1.39536">
        <ele>204.19999694824</ele>
        <time>2022-05-22T07:19:28.000Z</time>
      </trkpt>
      <trkpt lat="44.73372" lon="1.39543">
        <ele>203.80000305176</ele>
        <time>2022-05-22T07:19:29.000Z</time>
      </trkpt>
      <trkpt lat="44.73381" lon="1.39553">
        <ele>203.39999389648</ele>
        <time>2022-05-22T07:19:31.000Z</time>
      </trkpt>
      <trkpt lat="44.73385" lon="1.39556">
        <ele>202.60000610352</ele>
        <time>2022-05-22T07:19:32.000Z</time>
      </trkpt>
      <trkpt lat="44.73398" lon="1.39565">
        <ele>201.80000305176</ele>
        <time>2022-05-22T07:19:34.000Z</time>
      </trkpt>
      <trkpt lat="44.73406" lon="1.39572">
        <ele>201.60000610352</ele>
        <time>2022-05-22T07:19:35.000Z</time>
      </trkpt>
      <trkpt lat="44.73415" lon="1.39584">
        <ele>200.60000610352</ele>
        <time>2022-05-22T07:19:37.000Z</time>
      </trkpt>
      <trkpt lat="44.73426" lon="1.396">
        <ele>200.19999694824</ele>
        <time>2022-05-22T07:19:39.000Z</time>
      </trkpt>
      <trkpt lat="44.7344" lon="1.39621">
        <ele>200</ele>
        <time>2022-05-22T07:19:42.000Z</time>
      </trkpt>
      <trkpt lat="44.73448" lon="1.39629">
        <ele>199.80000305176</ele>
        <time>2022-05-22T07:19:44.000Z</time>
      </trkpt>
      <trkpt lat="44.73454" lon="1.39634">
        <ele>199.60000610352</ele>
        <time>2022-05-22T07:19:45.000Z</time>
      </trkpt>
      <trkpt lat="44.73457" lon="1.39637">
        <ele>199.39999389648</ele>
        <time>2022-05-22T07:19:46.000Z</time>
      </trkpt>
      <trkpt lat="44.73462" lon="1.39644">
        <ele>199.39999389648</ele>
        <time>2022-05-22T07:19:48.000Z</time>
      </trkpt>
      <trkpt lat="44.73485" lon="1.39678">
        <ele>200.60000610352</ele>
        <time>2022-05-22T07:19:56.000Z</time>
      </trkpt>
      <trkpt lat="44.73489" lon="1.39684">
        <ele>200.60000610352</ele>
        <time>2022-05-22T07:19:57.000Z</time>
      </trkpt>
      <trkpt lat="44.73506" lon="1.39709">
        <ele>200.80000305176</ele>
        <time>2022-05-22T07:20:03.000Z</time>
      </trkpt>
      <trkpt lat="44.73531" lon="1.39735">
        <ele>201.39999389648</ele>
        <time>2022-05-22T07:20:10.000Z</time>
      </trkpt>
      <trkpt lat="44.73535" lon="1.39739">
        <ele>201.60000610352</ele>
        <time>2022-05-22T07:20:11.000Z</time>
      </trkpt>
      <trkpt lat="44.73564" lon="1.39761">
        <ele>202</ele>
        <time>2022-05-22T07:20:17.000Z</time>
      </trkpt>
      <trkpt lat="44.7358" lon="1.39772">
        <ele>201.80000305176</ele>
        <time>2022-05-22T07:20:21.000Z</time>
      </trkpt>
      <trkpt lat="44.73588" lon="1.39779">
        <ele>201.80000305176</ele>
        <time>2022-05-22T07:20:23.000Z</time>
      </trkpt>
      <trkpt lat="44.73614" lon="1.39798">
        <ele>202.19999694824</ele>
        <time>2022-05-22T07:20:30.000Z</time>
      </trkpt>
      <trkpt lat="44.73646" lon="1.39811">
        <ele>202.39999389648</ele>
        <time>2022-05-22T07:20:37.000Z</time>
      </trkpt>
      <trkpt lat="44.73659" lon="1.39818">
        <ele>202.60000610352</ele>
        <time>2022-05-22T07:20:41.000Z</time>
      </trkpt>
      <trkpt lat="44.73663" lon="1.39819">
        <ele>203</ele>
        <time>2022-05-22T07:20:42.000Z</time>
      </trkpt>
      <trkpt lat="44.73674" lon="1.39823">
        <ele>203.19999694824</ele>
        <time>2022-05-22T07:20:46.000Z</time>
      </trkpt>
      <trkpt lat="44.73697" lon="1.39829">
        <ele>202.80000305176</ele>
        <time>2022-05-22T07:20:55.000Z</time>
      </trkpt>
      <trkpt lat="44.73698" lon="1.39829">
        <ele>202.80000305176</ele>
        <time>2022-05-22T07:20:59.000Z</time>
      </trkpt>
      <trkpt lat="44.73699" lon="1.39829">
        <ele>203</ele>
        <time>2022-05-22T07:21:08.000Z</time>
      </trkpt>
      <trkpt lat="44.737" lon="1.39825">
        <ele>203</ele>
        <time>2022-05-22T07:21:10.000Z</time>
      </trkpt>
      <trkpt lat="44.737" lon="1.39821">
        <ele>203</ele>
        <time>2022-05-22T07:21:11.000Z</time>
      </trkpt>
      <trkpt lat="44.73693" lon="1.39798">
        <ele>203</ele>
        <time>2022-05-22T07:21:15.000Z</time>
      </trkpt>
      <trkpt lat="44.73689" lon="1.39777">
        <ele>203</ele>
        <time>2022-05-22T07:21:18.000Z</time>
      </trkpt>
      <trkpt lat="44.73687" lon="1.3976">
        <ele>203</ele>
        <time>2022-05-22T07:21:20.000Z</time>
      </trkpt>
      <trkpt lat="44.73689" lon="1.39745">
        <ele>202.60000610352</ele>
        <time>2022-05-22T07:21:22.000Z</time>
      </trkpt>
      <trkpt lat="44.73694" lon="1.39731">
        <ele>202.19999694824</ele>
        <time>2022-05-22T07:21:24.000Z</time>
      </trkpt>
      <trkpt lat="44.73712" lon="1.39704">
        <ele>202</ele>
        <time>2022-05-22T07:21:29.000Z</time>
      </trkpt>
      <trkpt lat="44.73749" lon="1.39652">
        <ele>202.19999694824</ele>
        <time>2022-05-22T07:21:39.000Z</time>
      </trkpt>
      <trkpt lat="44.73761" lon="1.39636">
        <ele>202.39999389648</ele>
        <time>2022-05-22T07:21:42.000Z</time>
      </trkpt>
      <trkpt lat="44.73766" lon="1.39631">
        <ele>202.39999389648</ele>
        <time>2022-05-22T07:21:43.000Z</time>
      </trkpt>
      <trkpt lat="44.7377" lon="1.39627">
        <ele>202.39999389648</ele>
        <time>2022-05-22T07:21:44.000Z</time>
      </trkpt>
      <trkpt lat="44.73775" lon="1.39624">
        <ele>202.39999389648</ele>
        <time>2022-05-22T07:21:45.000Z</time>
      </trkpt>
      <trkpt lat="44.73779" lon="1.39622">
        <ele>202.39999389648</ele>
        <time>2022-05-22T07:21:46.000Z</time>
      </trkpt>
      <trkpt lat="44.73788" lon="1.39621">
        <ele>202.39999389648</ele>
        <time>2022-05-22T07:21:48.000Z</time>
      </trkpt>
      <trkpt lat="44.73793" lon="1.3962">
        <ele>202.39999389648</ele>
        <time>2022-05-22T07:21:49.000Z</time>
      </trkpt>
      <trkpt lat="44.73822" lon="1.39627">
        <ele>203</ele>
        <time>2022-05-22T07:21:55.000Z</time>
      </trkpt>
      <trkpt lat="44.7384" lon="1.39634">
        <ele>204</ele>
        <time>2022-05-22T07:21:59.000Z</time>
      </trkpt>
      <trkpt lat="44.73857" lon="1.39642">
        <ele>204.60000610352</ele>
        <time>2022-05-22T07:22:03.000Z</time>
      </trkpt>
      <trkpt lat="44.73866" lon="1.39646">
        <ele>204.80000305176</ele>
        <time>2022-05-22T07:22:05.000Z</time>
      </trkpt>
      <trkpt lat="44.73884" lon="1.39656">
        <ele>206</ele>
        <time>2022-05-22T07:22:09.000Z</time>
      </trkpt>
      <trkpt lat="44.73893" lon="1.39661">
        <ele>206.80000305176</ele>
        <time>2022-05-22T07:22:11.000Z</time>
      </trkpt>
      <trkpt lat="44.73902" lon="1.39666">
        <ele>207.39999389648</ele>
        <time>2022-05-22T07:22:13.000Z</time>
      </trkpt>
      <trkpt lat="44.73924" lon="1.39674">
        <ele>208.60000610352</ele>
        <time>2022-05-22T07:22:18.000Z</time>
      </trkpt>
      <trkpt lat="44.73935" lon="1.39675">
        <ele>209</ele>
        <time>2022-05-22T07:22:20.000Z</time>
      </trkpt>
      <trkpt lat="44.73943" lon="1.39673">
        <ele>209.60000610352</ele>
        <time>2022-05-22T07:22:22.000Z</time>
      </trkpt>
      <trkpt lat="44.73948" lon="1.39672">
        <ele>210</ele>
        <time>2022-05-22T07:22:23.000Z</time>
      </trkpt>
      <trkpt lat="44.73961" lon="1.39666">
        <ele>210.80000305176</ele>
        <time>2022-05-22T07:22:26.000Z</time>
      </trkpt>
      <trkpt lat="44.73965" lon="1.39662">
        <ele>211.39999389648</ele>
        <time>2022-05-22T07:22:27.000Z</time>
      </trkpt>
      <trkpt lat="44.73969" lon="1.39659">
        <ele>211.60000610352</ele>
        <time>2022-05-22T07:22:28.000Z</time>
      </trkpt>
      <trkpt lat="44.73987" lon="1.3964">
        <ele>212.39999389648</ele>
        <time>2022-05-22T07:22:33.000Z</time>
      </trkpt>
      <trkpt lat="44.74002" lon="1.39626">
        <ele>213.39999389648</ele>
        <time>2022-05-22T07:22:37.000Z</time>
      </trkpt>
      <trkpt lat="44.74006" lon="1.39624">
        <ele>213.60000610352</ele>
        <time>2022-05-22T07:22:38.000Z</time>
      </trkpt>
      <trkpt lat="44.74014" lon="1.3962">
        <ele>214.19999694824</ele>
        <time>2022-05-22T07:22:40.000Z</time>
      </trkpt>
      <trkpt lat="44.74022" lon="1.39621">
        <ele>214.60000610352</ele>
        <time>2022-05-22T07:22:42.000Z</time>
      </trkpt>
      <trkpt lat="44.74027" lon="1.39622">
        <ele>215</ele>
        <time>2022-05-22T07:22:43.000Z</time>
      </trkpt>
      <trkpt lat="44.74031" lon="1.39625">
        <ele>215.19999694824</ele>
        <time>2022-05-22T07:22:44.000Z</time>
      </trkpt>
      <trkpt lat="44.74037" lon="1.39632">
        <ele>215.60000610352</ele>
        <time>2022-05-22T07:22:46.000Z</time>
      </trkpt>
      <trkpt lat="44.7404" lon="1.39637">
        <ele>215.80000305176</ele>
        <time>2022-05-22T07:22:47.000Z</time>
      </trkpt>
      <trkpt lat="44.74043" lon="1.39641">
        <ele>216.19999694824</ele>
        <time>2022-05-22T07:22:48.000Z</time>
      </trkpt>
      <trkpt lat="44.74045" lon="1.39646">
        <ele>216.80000305176</ele>
        <time>2022-05-22T07:22:49.000Z</time>
      </trkpt>
      <trkpt lat="44.74047" lon="1.39652">
        <ele>217.19999694824</ele>
        <time>2022-05-22T07:22:50.000Z</time>
      </trkpt>
      <trkpt lat="44.74051" lon="1.39662">
        <ele>217.80000305176</ele>
        <time>2022-05-22T07:22:52.000Z</time>
      </trkpt>
      <trkpt lat="44.74053" lon="1.39668">
        <ele>218</ele>
        <time>2022-05-22T07:22:53.000Z</time>
      </trkpt>
      <trkpt lat="44.74054" lon="1.39678">
        <ele>218.19999694824</ele>
        <time>2022-05-22T07:22:55.000Z</time>
      </trkpt>
      <trkpt lat="44.74054" lon="1.39683">
        <ele>218.39999389648</ele>
        <time>2022-05-22T07:22:56.000Z</time>
      </trkpt>
      <trkpt lat="44.74053" lon="1.39688">
        <ele>218.60000610352</ele>
        <time>2022-05-22T07:22:57.000Z</time>
      </trkpt>
      <trkpt lat="44.74047" lon="1.39707">
        <ele>219</ele>
        <time>2022-05-22T07:23:01.000Z</time>
      </trkpt>
      <trkpt lat="44.74048" lon="1.39724">
        <ele>219.19999694824</ele>
        <time>2022-05-22T07:23:04.000Z</time>
      </trkpt>
      <trkpt lat="44.7405" lon="1.3973">
        <ele>219.19999694824</ele>
        <time>2022-05-22T07:23:05.000Z</time>
      </trkpt>
      <trkpt lat="44.74055" lon="1.39744">
        <ele>219</ele>
        <time>2022-05-22T07:23:07.000Z</time>
      </trkpt>
      <trkpt lat="44.74066" lon="1.39768">
        <ele>218.80000305176</ele>
        <time>2022-05-22T07:23:10.000Z</time>
      </trkpt>
      <trkpt lat="44.7407" lon="1.39777">
        <ele>218.60000610352</ele>
        <time>2022-05-22T07:23:11.000Z</time>
      </trkpt>
      <trkpt lat="44.74075" lon="1.39798">
        <ele>217.60000610352</ele>
        <time>2022-05-22T07:23:13.000Z</time>
      </trkpt>
      <trkpt lat="44.74076" lon="1.3981">
        <ele>217.19999694824</ele>
        <time>2022-05-22T07:23:14.000Z</time>
      </trkpt>
      <trkpt lat="44.74078" lon="1.39821">
        <ele>217</ele>
        <time>2022-05-22T07:23:15.000Z</time>
      </trkpt>
      <trkpt lat="44.7408" lon="1.39856">
        <ele>215.80000305176</ele>
        <time>2022-05-22T07:23:18.000Z</time>
      </trkpt>
      <trkpt lat="44.74081" lon="1.3988">
        <ele>215</ele>
        <time>2022-05-22T07:23:20.000Z</time>
      </trkpt>
      <trkpt lat="44.74081" lon="1.39891">
        <ele>214.80000305176</ele>
        <time>2022-05-22T07:23:21.000Z</time>
      </trkpt>
      <trkpt lat="44.74083" lon="1.39926">
        <ele>213.60000610352</ele>
        <time>2022-05-22T07:23:24.000Z</time>
      </trkpt>
      <trkpt lat="44.74085" lon="1.3997">
        <ele>212.39999389648</ele>
        <time>2022-05-22T07:23:28.000Z</time>
      </trkpt>
      <trkpt lat="44.74085" lon="1.39991">
        <ele>212</ele>
        <time>2022-05-22T07:23:30.000Z</time>
      </trkpt>
      <trkpt lat="44.74086" lon="1.40022">
        <ele>211.39999389648</ele>
        <time>2022-05-22T07:23:33.000Z</time>
      </trkpt>
      <trkpt lat="44.74086" lon="1.4005">
        <ele>211</ele>
        <time>2022-05-22T07:23:36.000Z</time>
      </trkpt>
      <trkpt lat="44.74086" lon="1.40059">
        <ele>211</ele>
        <time>2022-05-22T07:23:37.000Z</time>
      </trkpt>
      <trkpt lat="44.74085" lon="1.40118">
        <ele>210.80000305176</ele>
        <time>2022-05-22T07:23:44.000Z</time>
      </trkpt>
      <trkpt lat="44.74084" lon="1.40167">
        <ele>210.39999389648</ele>
        <time>2022-05-22T07:23:50.000Z</time>
      </trkpt>
      <trkpt lat="44.74083" lon="1.40181">
        <ele>210.39999389648</ele>
        <time>2022-05-22T07:23:52.000Z</time>
      </trkpt>
      <trkpt lat="44.74079" lon="1.40199">
        <ele>210.19999694824</ele>
        <time>2022-05-22T07:23:55.000Z</time>
      </trkpt>
      <trkpt lat="44.74078" lon="1.40207">
        <ele>210.19999694824</ele>
        <time>2022-05-22T07:23:58.000Z</time>
      </trkpt>
      <trkpt lat="44.74066" lon="1.40216">
        <ele>210.19999694824</ele>
        <time>2022-05-22T07:24:02.000Z</time>
      </trkpt>
      <trkpt lat="44.74059" lon="1.40225">
        <ele>210</ele>
        <time>2022-05-22T07:24:04.000Z</time>
      </trkpt>
      <trkpt lat="44.74057" lon="1.40232">
        <ele>209.80000305176</ele>
        <time>2022-05-22T07:24:05.000Z</time>
      </trkpt>
      <trkpt lat="44.74054" lon="1.40246">
        <ele>209.39999389648</ele>
        <time>2022-05-22T07:24:07.000Z</time>
      </trkpt>
      <trkpt lat="44.74051" lon="1.40272">
        <ele>208.80000305176</ele>
        <time>2022-05-22T07:24:10.000Z</time>
      </trkpt>
      <trkpt lat="44.74042" lon="1.40328">
        <ele>208.60000610352</ele>
        <time>2022-05-22T07:24:17.000Z</time>
      </trkpt>
      <trkpt lat="44.74036" lon="1.40367">
        <ele>208.60000610352</ele>
        <time>2022-05-22T07:24:22.000Z</time>
      </trkpt>
      <trkpt lat="44.74036" lon="1.40385">
        <ele>208.39999389648</ele>
        <time>2022-05-22T07:24:24.000Z</time>
      </trkpt>
      <trkpt lat="44.74037" lon="1.4041">
        <ele>208.39999389648</ele>
        <time>2022-05-22T07:24:27.000Z</time>
      </trkpt>
      <trkpt lat="44.74042" lon="1.40442">
        <ele>208.60000610352</ele>
        <time>2022-05-22T07:24:31.000Z</time>
      </trkpt>
      <trkpt lat="44.74056" lon="1.40507">
        <ele>208.80000305176</ele>
        <time>2022-05-22T07:24:40.000Z</time>
      </trkpt>
      <trkpt lat="44.74057" lon="1.40536">
        <ele>208.80000305176</ele>
        <time>2022-05-22T07:24:44.000Z</time>
      </trkpt>
      <trkpt lat="44.74055" lon="1.40541">
        <ele>208.80000305176</ele>
        <time>2022-05-22T07:24:45.000Z</time>
      </trkpt>
      <trkpt lat="44.74039" lon="1.40553">
        <ele>208.80000305176</ele>
        <time>2022-05-22T07:24:49.000Z</time>
      </trkpt>
      <trkpt lat="44.74011" lon="1.40573">
        <ele>208.19999694824</ele>
        <time>2022-05-22T07:24:54.000Z</time>
      </trkpt>
      <trkpt lat="44.73992" lon="1.40588">
        <ele>207.19999694824</ele>
        <time>2022-05-22T07:24:58.000Z</time>
      </trkpt>
      <trkpt lat="44.7398" lon="1.40599">
        <ele>206.39999389648</ele>
        <time>2022-05-22T07:25:01.000Z</time>
      </trkpt>
      <trkpt lat="44.73976" lon="1.40601">
        <ele>206.19999694824</ele>
        <time>2022-05-22T07:25:02.000Z</time>
      </trkpt>
      <trkpt lat="44.73965" lon="1.4061">
        <ele>205.80000305176</ele>
        <time>2022-05-22T07:25:06.000Z</time>
      </trkpt>
      <trkpt lat="44.73941" lon="1.40629">
        <ele>205.80000305176</ele>
        <time>2022-05-22T07:25:13.000Z</time>
      </trkpt>
      <trkpt lat="44.7393" lon="1.40637">
        <ele>206.19999694824</ele>
        <time>2022-05-22T07:25:18.000Z</time>
      </trkpt>
      <trkpt lat="44.73912" lon="1.4065">
        <ele>206.19999694824</ele>
        <time>2022-05-22T07:25:23.000Z</time>
      </trkpt>
      <trkpt lat="44.73886" lon="1.40665">
        <ele>207</ele>
        <time>2022-05-22T07:25:29.000Z</time>
      </trkpt>
      <trkpt lat="44.73876" lon="1.4067">
        <ele>207.19999694824</ele>
        <time>2022-05-22T07:25:31.000Z</time>
      </trkpt>
      <trkpt lat="44.73851" lon="1.40687">
        <ele>208</ele>
        <time>2022-05-22T07:25:37.000Z</time>
      </trkpt>
      <trkpt lat="44.73841" lon="1.40694">
        <ele>208.39999389648</ele>
        <time>2022-05-22T07:25:39.000Z</time>
      </trkpt>
      <trkpt lat="44.73824" lon="1.40712">
        <ele>208.80000305176</ele>
        <time>2022-05-22T07:25:43.000Z</time>
      </trkpt>
      <trkpt lat="44.73816" lon="1.40733">
        <ele>209.60000610352</ele>
        <time>2022-05-22T07:25:47.000Z</time>
      </trkpt>
      <trkpt lat="44.73816" lon="1.40737">
        <ele>209.80000305176</ele>
        <time>2022-05-22T07:25:48.000Z</time>
      </trkpt>
      <trkpt lat="44.73816" lon="1.40767">
        <ele>211</ele>
        <time>2022-05-22T07:25:53.000Z</time>
      </trkpt>
      <trkpt lat="44.73816" lon="1.40773">
        <ele>211.19999694824</ele>
        <time>2022-05-22T07:25:54.000Z</time>
      </trkpt>
      <trkpt lat="44.73815" lon="1.4079">
        <ele>212</ele>
        <time>2022-05-22T07:25:57.000Z</time>
      </trkpt>
      <trkpt lat="44.73811" lon="1.40813">
        <ele>212.60000610352</ele>
        <time>2022-05-22T07:26:02.000Z</time>
      </trkpt>
      <trkpt lat="44.73808" lon="1.40823">
        <ele>213</ele>
        <time>2022-05-22T07:26:05.000Z</time>
      </trkpt>
      <trkpt lat="44.73805" lon="1.40831">
        <ele>213.39999389648</ele>
        <time>2022-05-22T07:26:07.000Z</time>
      </trkpt>
      <trkpt lat="44.73803" lon="1.40841">
        <ele>213.80000305176</ele>
        <time>2022-05-22T07:26:09.000Z</time>
      </trkpt>
      <trkpt lat="44.73803" lon="1.40859">
        <ele>214.19999694824</ele>
        <time>2022-05-22T07:26:12.000Z</time>
      </trkpt>
      <trkpt lat="44.738" lon="1.40893">
        <ele>214.39999389648</ele>
        <time>2022-05-22T07:26:17.000Z</time>
      </trkpt>
      <trkpt lat="44.73799" lon="1.409">
        <ele>214.39999389648</ele>
        <time>2022-05-22T07:26:18.000Z</time>
      </trkpt>
      <trkpt lat="44.73798" lon="1.40936">
        <ele>214.39999389648</ele>
        <time>2022-05-22T07:26:23.000Z</time>
      </trkpt>
      <trkpt lat="44.73797" lon="1.40973">
        <ele>214.39999389648</ele>
        <time>2022-05-22T07:26:28.000Z</time>
      </trkpt>
      <trkpt lat="44.73798" lon="1.40979">
        <ele>214.39999389648</ele>
        <time>2022-05-22T07:26:29.000Z</time>
      </trkpt>
      <trkpt lat="44.73799" lon="1.41004">
        <ele>215.19999694824</ele>
        <time>2022-05-22T07:26:34.000Z</time>
      </trkpt>
      <trkpt lat="44.73802" lon="1.41027">
        <ele>216.19999694824</ele>
        <time>2022-05-22T07:26:37.000Z</time>
      </trkpt>
      <trkpt lat="44.73804" lon="1.41042">
        <ele>216.80000305176</ele>
        <time>2022-05-22T07:26:39.000Z</time>
      </trkpt>
      <trkpt lat="44.73806" lon="1.41062">
        <ele>217.19999694824</ele>
        <time>2022-05-22T07:26:42.000Z</time>
      </trkpt>
      <trkpt lat="44.73807" lon="1.41077">
        <ele>217.39999389648</ele>
        <time>2022-05-22T07:26:44.000Z</time>
      </trkpt>
      <trkpt lat="44.73808" lon="1.41084">
        <ele>217.60000610352</ele>
        <time>2022-05-22T07:26:45.000Z</time>
      </trkpt>
      <trkpt lat="44.73808" lon="1.41091">
        <ele>217.60000610352</ele>
        <time>2022-05-22T07:26:46.000Z</time>
      </trkpt>
      <trkpt lat="44.7381" lon="1.41118">
        <ele>218.19999694824</ele>
        <time>2022-05-22T07:26:50.000Z</time>
      </trkpt>
      <trkpt lat="44.73809" lon="1.41131">
        <ele>218.39999389648</ele>
        <time>2022-05-22T07:26:52.000Z</time>
      </trkpt>
      <trkpt lat="44.73806" lon="1.41167">
        <ele>219.60000610352</ele>
        <time>2022-05-22T07:26:57.000Z</time>
      </trkpt>
      <trkpt lat="44.73804" lon="1.41183">
        <ele>220</ele>
        <time>2022-05-22T07:26:59.000Z</time>
      </trkpt>
      <trkpt lat="44.73802" lon="1.4119">
        <ele>220.19999694824</ele>
        <time>2022-05-22T07:27:00.000Z</time>
      </trkpt>
      <trkpt lat="44.73796" lon="1.41202">
        <ele>220.60000610352</ele>
        <time>2022-05-22T07:27:02.000Z</time>
      </trkpt>
      <trkpt lat="44.73792" lon="1.41208">
        <ele>220.60000610352</ele>
        <time>2022-05-22T07:27:03.000Z</time>
      </trkpt>
      <trkpt lat="44.73774" lon="1.41234">
        <ele>220.60000610352</ele>
        <time>2022-05-22T07:27:07.000Z</time>
      </trkpt>
      <trkpt lat="44.7377" lon="1.41243">
        <ele>220.39999389648</ele>
        <time>2022-05-22T07:27:08.000Z</time>
      </trkpt>
      <trkpt lat="44.73766" lon="1.41258">
        <ele>219.80000305176</ele>
        <time>2022-05-22T07:27:10.000Z</time>
      </trkpt>
      <trkpt lat="44.73766" lon="1.41265">
        <ele>219.60000610352</ele>
        <time>2022-05-22T07:27:11.000Z</time>
      </trkpt>
      <trkpt lat="44.73767" lon="1.41269">
        <ele>219.39999389648</ele>
        <time>2022-05-22T07:27:12.000Z</time>
      </trkpt>
      <trkpt lat="44.73773" lon="1.41278">
        <ele>219.19999694824</ele>
        <time>2022-05-22T07:27:14.000Z</time>
      </trkpt>
      <trkpt lat="44.73803" lon="1.4129">
        <ele>219</ele>
        <time>2022-05-22T07:27:20.000Z</time>
      </trkpt>
      <trkpt lat="44.73822" lon="1.41294">
        <ele>218.60000610352</ele>
        <time>2022-05-22T07:27:23.000Z</time>
      </trkpt>
      <trkpt lat="44.73841" lon="1.41297">
        <ele>217.60000610352</ele>
        <time>2022-05-22T07:27:27.000Z</time>
      </trkpt>
      <trkpt lat="44.73844" lon="1.41297">
        <ele>217.60000610352</ele>
        <time>2022-05-22T07:27:28.000Z</time>
      </trkpt>
      <trkpt lat="44.73846" lon="1.41297">
        <ele>216.80000305176</ele>
        <time>2022-05-22T07:27:30.000Z</time>
      </trkpt>
      <trkpt lat="44.73846" lon="1.41297">
        <ele>216.39999389648</ele>
        <time>2022-05-22T07:27:31.000Z</time>
      </trkpt>
      <trkpt lat="44.73846" lon="1.41297">
        <ele>215.39999389648</ele>
        <time>2022-05-22T07:27:36.000Z</time>
      </trkpt>
      <trkpt lat="44.73846" lon="1.41297">
        <ele>215.19999694824</ele>
        <time>2022-05-22T07:27:40.000Z</time>
      </trkpt>
      <trkpt lat="44.73846" lon="1.41297">
        <ele>215</ele>
        <time>2022-05-22T07:27:43.000Z</time>
      </trkpt>
      <trkpt lat="44.73846" lon="1.41297">
        <ele>215</ele>
        <time>2022-05-22T07:27:47.000Z</time>
      </trkpt>
      <trkpt lat="44.73846" lon="1.41297">
        <ele>214.80000305176</ele>
        <time>2022-05-22T07:28:05.000Z</time>
      </trkpt>
      <trkpt lat="44.73846" lon="1.41297">
        <ele>215.39999389648</ele>
        <time>2022-05-22T07:28:32.000Z</time>
      </trkpt>
      <trkpt lat="44.73852" lon="1.41297">
        <ele>215.39999389648</ele>
        <time>2022-05-22T07:28:41.000Z</time>
      </trkpt>
      <trkpt lat="44.73877" lon="1.41298">
        <ele>215.39999389648</ele>
        <time>2022-05-22T07:28:45.000Z</time>
      </trkpt>
      <trkpt lat="44.73915" lon="1.413">
        <ele>214.60000610352</ele>
        <time>2022-05-22T07:28:50.000Z</time>
      </trkpt>
      <trkpt lat="44.73921" lon="1.41301">
        <ele>214.39999389648</ele>
        <time>2022-05-22T07:28:51.000Z</time>
      </trkpt>
      <trkpt lat="44.73943" lon="1.41304">
        <ele>213</ele>
        <time>2022-05-22T07:28:54.000Z</time>
      </trkpt>
      <trkpt lat="44.73969" lon="1.4131">
        <ele>212.39999389648</ele>
        <time>2022-05-22T07:28:58.000Z</time>
      </trkpt>
      <trkpt lat="44.73977" lon="1.41319">
        <ele>212.19999694824</ele>
        <time>2022-05-22T07:29:00.000Z</time>
      </trkpt>
      <trkpt lat="44.73978" lon="1.41324">
        <ele>212</ele>
        <time>2022-05-22T07:29:01.000Z</time>
      </trkpt>
      <trkpt lat="44.73978" lon="1.41331">
        <ele>211.80000305176</ele>
        <time>2022-05-22T07:29:04.000Z</time>
      </trkpt>
      <trkpt lat="44.73978" lon="1.41331">
        <ele>211.39999389648</ele>
        <time>2022-05-22T07:29:09.000Z</time>
      </trkpt>
      <trkpt lat="44.73978" lon="1.41331">
        <ele>211.60000610352</ele>
        <time>2022-05-22T07:29:33.000Z</time>
      </trkpt>
      <trkpt lat="44.73978" lon="1.41331">
        <ele>211.80000305176</ele>
        <time>2022-05-22T07:29:39.000Z</time>
      </trkpt>
      <trkpt lat="44.73978" lon="1.4134">
        <ele>211.80000305176</ele>
        <time>2022-05-22T07:29:42.000Z</time>
      </trkpt>
      <trkpt lat="44.73975" lon="1.41365">
        <ele>211.80000305176</ele>
        <time>2022-05-22T07:29:47.000Z</time>
      </trkpt>
      <trkpt lat="44.73962" lon="1.41397">
        <ele>211.80000305176</ele>
        <time>2022-05-22T07:29:53.000Z</time>
      </trkpt>
      <trkpt lat="44.73943" lon="1.41436">
        <ele>211.60000610352</ele>
        <time>2022-05-22T07:30:02.000Z</time>
      </trkpt>
      <trkpt lat="44.73919" lon="1.4148">
        <ele>212</ele>
        <time>2022-05-22T07:30:12.000Z</time>
      </trkpt>
      <trkpt lat="44.73917" lon="1.41484">
        <ele>212.19999694824</ele>
        <time>2022-05-22T07:30:13.000Z</time>
      </trkpt>
      <trkpt lat="44.73904" lon="1.41507">
        <ele>212.60000610352</ele>
        <time>2022-05-22T07:30:20.000Z</time>
      </trkpt>
      <trkpt lat="44.73896" lon="1.41519">
        <ele>213</ele>
        <time>2022-05-22T07:30:23.000Z</time>
      </trkpt>
      <trkpt lat="44.73892" lon="1.41524">
        <ele>213.39999389648</ele>
        <time>2022-05-22T07:30:25.000Z</time>
      </trkpt>
      <trkpt lat="44.73881" lon="1.41538">
        <ele>214.60000610352</ele>
        <time>2022-05-22T07:30:30.000Z</time>
      </trkpt>
      <trkpt lat="44.73876" lon="1.41548">
        <ele>215.60000610352</ele>
        <time>2022-05-22T07:30:34.000Z</time>
      </trkpt>
      <trkpt lat="44.73876" lon="1.41551">
        <ele>216</ele>
        <time>2022-05-22T07:30:35.000Z</time>
      </trkpt>
      <trkpt lat="44.73878" lon="1.41563">
        <ele>216.80000305176</ele>
        <time>2022-05-22T07:30:39.000Z</time>
      </trkpt>
      <trkpt lat="44.73879" lon="1.41568">
        <ele>216.80000305176</ele>
        <time>2022-05-22T07:30:40.000Z</time>
      </trkpt>
      <trkpt lat="44.7388" lon="1.416">
        <ele>216.60000610352</ele>
        <time>2022-05-22T07:30:46.000Z</time>
      </trkpt>
      <trkpt lat="44.73879" lon="1.41637">
        <ele>216.60000610352</ele>
        <time>2022-05-22T07:30:53.000Z</time>
      </trkpt>
      <trkpt lat="44.73878" lon="1.41664">
        <ele>216.39999389648</ele>
        <time>2022-05-22T07:30:58.000Z</time>
      </trkpt>
      <trkpt lat="44.73879" lon="1.41693">
        <ele>216.19999694824</ele>
        <time>2022-05-22T07:31:03.000Z</time>
      </trkpt>
      <trkpt lat="44.73885" lon="1.41735">
        <ele>216.19999694824</ele>
        <time>2022-05-22T07:31:11.000Z</time>
      </trkpt>
      <trkpt lat="44.73895" lon="1.41777">
        <ele>216.39999389648</ele>
        <time>2022-05-22T07:31:19.000Z</time>
      </trkpt>
      <trkpt lat="44.73907" lon="1.41817">
        <ele>216.60000610352</ele>
        <time>2022-05-22T07:31:26.000Z</time>
      </trkpt>
      <trkpt lat="44.73916" lon="1.41843">
        <ele>216.80000305176</ele>
        <time>2022-05-22T07:31:32.000Z</time>
      </trkpt>
      <trkpt lat="44.73936" lon="1.41891">
        <ele>217.60000610352</ele>
        <time>2022-05-22T07:31:43.000Z</time>
      </trkpt>
      <trkpt lat="44.73949" lon="1.41931">
        <ele>218</ele>
        <time>2022-05-22T07:31:52.000Z</time>
      </trkpt>
      <trkpt lat="44.7395" lon="1.41957">
        <ele>218.39999389648</ele>
        <time>2022-05-22T07:31:58.000Z</time>
      </trkpt>
      <trkpt lat="44.73948" lon="1.41982">
        <ele>219</ele>
        <time>2022-05-22T07:32:04.000Z</time>
      </trkpt>
      <trkpt lat="44.73953" lon="1.42002">
        <ele>219.60000610352</ele>
        <time>2022-05-22T07:32:09.000Z</time>
      </trkpt>
      <trkpt lat="44.73955" lon="1.42019">
        <ele>220.19999694824</ele>
        <time>2022-05-22T07:32:13.000Z</time>
      </trkpt>
      <trkpt lat="44.73957" lon="1.42026">
        <ele>220.19999694824</ele>
        <time>2022-05-22T07:32:15.000Z</time>
      </trkpt>
      <trkpt lat="44.73967" lon="1.4204">
        <ele>220.39999389648</ele>
        <time>2022-05-22T07:32:18.000Z</time>
      </trkpt>
      <trkpt lat="44.73972" lon="1.42053">
        <ele>220.19999694824</ele>
        <time>2022-05-22T07:32:20.000Z</time>
      </trkpt>
      <trkpt lat="44.73973" lon="1.42059">
        <ele>220.19999694824</ele>
        <time>2022-05-22T07:32:21.000Z</time>
      </trkpt>
      <trkpt lat="44.73979" lon="1.42076">
        <ele>220.19999694824</ele>
        <time>2022-05-22T07:32:24.000Z</time>
      </trkpt>
      <trkpt lat="44.73981" lon="1.42087">
        <ele>220.19999694824</ele>
        <time>2022-05-22T07:32:26.000Z</time>
      </trkpt>
      <trkpt lat="44.73982" lon="1.421">
        <ele>220.19999694824</ele>
        <time>2022-05-22T07:32:28.000Z</time>
      </trkpt>
      <trkpt lat="44.73981" lon="1.4212">
        <ele>220.19999694824</ele>
        <time>2022-05-22T07:32:32.000Z</time>
      </trkpt>
      <trkpt lat="44.73983" lon="1.42149">
        <ele>220.39999389648</ele>
        <time>2022-05-22T07:32:36.000Z</time>
      </trkpt>
      <trkpt lat="44.7398" lon="1.4218">
        <ele>220.60000610352</ele>
        <time>2022-05-22T07:32:42.000Z</time>
      </trkpt>
      <trkpt lat="44.73982" lon="1.42202">
        <ele>221.19999694824</ele>
        <time>2022-05-22T07:32:47.000Z</time>
      </trkpt>
      <trkpt lat="44.73988" lon="1.42237">
        <ele>221.60000610352</ele>
        <time>2022-05-22T07:32:54.000Z</time>
      </trkpt>
      <trkpt lat="44.74" lon="1.42273">
        <ele>221.39999389648</ele>
        <time>2022-05-22T07:33:01.000Z</time>
      </trkpt>
      <trkpt lat="44.7402" lon="1.42309">
        <ele>221</ele>
        <time>2022-05-22T07:33:09.000Z</time>
      </trkpt>
      <trkpt lat="44.74025" lon="1.42318">
        <ele>220.80000305176</ele>
        <time>2022-05-22T07:33:11.000Z</time>
      </trkpt>
      <trkpt lat="44.74045" lon="1.42351">
        <ele>220.80000305176</ele>
        <time>2022-05-22T07:33:18.000Z</time>
      </trkpt>
      <trkpt lat="44.74053" lon="1.42367">
        <ele>220.60000610352</ele>
        <time>2022-05-22T07:33:21.000Z</time>
      </trkpt>
      <trkpt lat="44.74068" lon="1.42404">
        <ele>220.80000305176</ele>
        <time>2022-05-22T07:33:29.000Z</time>
      </trkpt>
      <trkpt lat="44.74079" lon="1.4244">
        <ele>221.80000305176</ele>
        <time>2022-05-22T07:33:36.000Z</time>
      </trkpt>
      <trkpt lat="44.74095" lon="1.42486">
        <ele>221.80000305176</ele>
        <time>2022-05-22T07:33:45.000Z</time>
      </trkpt>
      <trkpt lat="44.74111" lon="1.42533">
        <ele>221.39999389648</ele>
        <time>2022-05-22T07:33:54.000Z</time>
      </trkpt>
      <trkpt lat="44.74121" lon="1.42578">
        <ele>221</ele>
        <time>2022-05-22T07:34:02.000Z</time>
      </trkpt>
      <trkpt lat="44.74132" lon="1.42623">
        <ele>221</ele>
        <time>2022-05-22T07:34:10.000Z</time>
      </trkpt>
      <trkpt lat="44.74135" lon="1.42633">
        <ele>221</ele>
        <time>2022-05-22T07:34:12.000Z</time>
      </trkpt>
      <trkpt lat="44.74147" lon="1.42675">
        <ele>221.19999694824</ele>
        <time>2022-05-22T07:34:20.000Z</time>
      </trkpt>
      <trkpt lat="44.74172" lon="1.42745">
        <ele>221.80000305176</ele>
        <time>2022-05-22T07:34:33.000Z</time>
      </trkpt>
      <trkpt lat="44.74193" lon="1.42779">
        <ele>221.80000305176</ele>
        <time>2022-05-22T07:34:42.000Z</time>
      </trkpt>
      <trkpt lat="44.74199" lon="1.42801">
        <ele>221.39999389648</ele>
        <time>2022-05-22T07:34:47.000Z</time>
      </trkpt>
      <trkpt lat="44.74197" lon="1.42815">
        <ele>221.39999389648</ele>
        <time>2022-05-22T07:34:50.000Z</time>
      </trkpt>
      <trkpt lat="44.74195" lon="1.42818">
        <ele>221.19999694824</ele>
        <time>2022-05-22T07:34:51.000Z</time>
      </trkpt>
      <trkpt lat="44.74185" lon="1.42822">
        <ele>221.60000610352</ele>
        <time>2022-05-22T07:34:55.000Z</time>
      </trkpt>
      <trkpt lat="44.74176" lon="1.42822">
        <ele>222.39999389648</ele>
        <time>2022-05-22T07:34:59.000Z</time>
      </trkpt>
      <trkpt lat="44.74171" lon="1.42824">
        <ele>223.39999389648</ele>
        <time>2022-05-22T07:35:02.000Z</time>
      </trkpt>
      <trkpt lat="44.74169" lon="1.42825">
        <ele>223.60000610352</ele>
        <time>2022-05-22T07:35:03.000Z</time>
      </trkpt>
      <trkpt lat="44.74161" lon="1.42832">
        <ele>224.80000305176</ele>
        <time>2022-05-22T07:35:08.000Z</time>
      </trkpt>
      <trkpt lat="44.74157" lon="1.42835">
        <ele>225.39999389648</ele>
        <time>2022-05-22T07:35:10.000Z</time>
      </trkpt>
      <trkpt lat="44.74156" lon="1.42837">
        <ele>225.80000305176</ele>
        <time>2022-05-22T07:35:11.000Z</time>
      </trkpt>
      <trkpt lat="44.74151" lon="1.42846">
        <ele>227.39999389648</ele>
        <time>2022-05-22T07:35:16.000Z</time>
      </trkpt>
      <trkpt lat="44.74148" lon="1.42856">
        <ele>228.39999389648</ele>
        <time>2022-05-22T07:35:21.000Z</time>
      </trkpt>
      <trkpt lat="44.74147" lon="1.4286">
        <ele>229</ele>
        <time>2022-05-22T07:35:23.000Z</time>
      </trkpt>
      <trkpt lat="44.74145" lon="1.42869">
        <ele>229.60000610352</ele>
        <time>2022-05-22T07:35:27.000Z</time>
      </trkpt>
      <trkpt lat="44.74144" lon="1.42875">
        <ele>230.19999694824</ele>
        <time>2022-05-22T07:35:30.000Z</time>
      </trkpt>
      <trkpt lat="44.74143" lon="1.42879">
        <ele>230.80000305176</ele>
        <time>2022-05-22T07:35:32.000Z</time>
      </trkpt>
      <trkpt lat="44.74141" lon="1.4289">
        <ele>232.19999694824</ele>
        <time>2022-05-22T07:35:37.000Z</time>
      </trkpt>
      <trkpt lat="44.74139" lon="1.42899">
        <ele>233.19999694824</ele>
        <time>2022-05-22T07:35:41.000Z</time>
      </trkpt>
      <trkpt lat="44.74137" lon="1.42905">
        <ele>233.80000305176</ele>
        <time>2022-05-22T07:35:44.000Z</time>
      </trkpt>
      <trkpt lat="44.74135" lon="1.42909">
        <ele>234.39999389648</ele>
        <time>2022-05-22T07:35:46.000Z</time>
      </trkpt>
      <trkpt lat="44.74133" lon="1.42917">
        <ele>235.39999389648</ele>
        <time>2022-05-22T07:35:50.000Z</time>
      </trkpt>
      <trkpt lat="44.74132" lon="1.42919">
        <ele>235.80000305176</ele>
        <time>2022-05-22T07:35:51.000Z</time>
      </trkpt>
      <trkpt lat="44.74131" lon="1.42926">
        <ele>237</ele>
        <time>2022-05-22T07:35:55.000Z</time>
      </trkpt>
      <trkpt lat="44.7413" lon="1.4293">
        <ele>237.60000610352</ele>
        <time>2022-05-22T07:35:57.000Z</time>
      </trkpt>
      <trkpt lat="44.74129" lon="1.42936">
        <ele>238.19999694824</ele>
        <time>2022-05-22T07:36:00.000Z</time>
      </trkpt>
      <trkpt lat="44.74126" lon="1.42945">
        <ele>239.19999694824</ele>
        <time>2022-05-22T07:36:04.000Z</time>
      </trkpt>
      <trkpt lat="44.74122" lon="1.42958">
        <ele>240.19999694824</ele>
        <time>2022-05-22T07:36:09.000Z</time>
      </trkpt>
      <trkpt lat="44.7412" lon="1.42968">
        <ele>241.19999694824</ele>
        <time>2022-05-22T07:36:13.000Z</time>
      </trkpt>
      <trkpt lat="44.74119" lon="1.42971">
        <ele>241.60000610352</ele>
        <time>2022-05-22T07:36:14.000Z</time>
      </trkpt>
      <trkpt lat="44.74117" lon="1.4298">
        <ele>242.80000305176</ele>
        <time>2022-05-22T07:36:17.000Z</time>
      </trkpt>
      <trkpt lat="44.74114" lon="1.42991">
        <ele>244</ele>
        <time>2022-05-22T07:36:21.000Z</time>
      </trkpt>
      <trkpt lat="44.74114" lon="1.42994">
        <ele>244</ele>
        <time>2022-05-22T07:36:22.000Z</time>
      </trkpt>
      <trkpt lat="44.74113" lon="1.43004">
        <ele>245</ele>
        <time>2022-05-22T07:36:25.000Z</time>
      </trkpt>
      <trkpt lat="44.7411" lon="1.43019">
        <ele>246.19999694824</ele>
        <time>2022-05-22T07:36:30.000Z</time>
      </trkpt>
      <trkpt lat="44.74109" lon="1.43024">
        <ele>246.60000610352</ele>
        <time>2022-05-22T07:36:32.000Z</time>
      </trkpt>
      <trkpt lat="44.74107" lon="1.43039">
        <ele>247.60000610352</ele>
        <time>2022-05-22T07:36:37.000Z</time>
      </trkpt>
      <trkpt lat="44.74105" lon="1.43046">
        <ele>247.80000305176</ele>
        <time>2022-05-22T07:36:39.000Z</time>
      </trkpt>
      <trkpt lat="44.74102" lon="1.43065">
        <ele>248.80000305176</ele>
        <time>2022-05-22T07:36:45.000Z</time>
      </trkpt>
      <trkpt lat="44.74101" lon="1.43072">
        <ele>249</ele>
        <time>2022-05-22T07:36:47.000Z</time>
      </trkpt>
      <trkpt lat="44.74095" lon="1.43093">
        <ele>249.80000305176</ele>
        <time>2022-05-22T07:36:54.000Z</time>
      </trkpt>
      <trkpt lat="44.74092" lon="1.43108">
        <ele>251</ele>
        <time>2022-05-22T07:36:59.000Z</time>
      </trkpt>
      <trkpt lat="44.7409" lon="1.43116">
        <ele>251.39999389648</ele>
        <time>2022-05-22T07:37:02.000Z</time>
      </trkpt>
      <trkpt lat="44.74089" lon="1.43125">
        <ele>252.19999694824</ele>
        <time>2022-05-22T07:37:05.000Z</time>
      </trkpt>
      <trkpt lat="44.74086" lon="1.43135">
        <ele>253.19999694824</ele>
        <time>2022-05-22T07:37:09.000Z</time>
      </trkpt>
      <trkpt lat="44.74084" lon="1.43146">
        <ele>254.19999694824</ele>
        <time>2022-05-22T07:37:13.000Z</time>
      </trkpt>
      <trkpt lat="44.74082" lon="1.43157">
        <ele>255.39999389648</ele>
        <time>2022-05-22T07:37:17.000Z</time>
      </trkpt>
      <trkpt lat="44.7408" lon="1.43166">
        <ele>256.60000610352</ele>
        <time>2022-05-22T07:37:20.000Z</time>
      </trkpt>
      <trkpt lat="44.74079" lon="1.43169">
        <ele>256.79998779297</ele>
        <time>2022-05-22T07:37:21.000Z</time>
      </trkpt>
      <trkpt lat="44.74076" lon="1.43178">
        <ele>258</ele>
        <time>2022-05-22T07:37:24.000Z</time>
      </trkpt>
      <trkpt lat="44.74071" lon="1.43184">
        <ele>259.20001220703</ele>
        <time>2022-05-22T07:37:27.000Z</time>
      </trkpt>
      <trkpt lat="44.74069" lon="1.43187">
        <ele>259.60000610352</ele>
        <time>2022-05-22T07:37:29.000Z</time>
      </trkpt>
      <trkpt lat="44.74065" lon="1.43191">
        <ele>260.39999389648</ele>
        <time>2022-05-22T07:37:32.000Z</time>
      </trkpt>
      <trkpt lat="44.74063" lon="1.43192">
        <ele>260.79998779297</ele>
        <time>2022-05-22T07:37:33.000Z</time>
      </trkpt>
      <trkpt lat="44.7406" lon="1.43194">
        <ele>261.60000610352</ele>
        <time>2022-05-22T07:37:35.000Z</time>
      </trkpt>
      <trkpt lat="44.74054" lon="1.43199">
        <ele>263</ele>
        <time>2022-05-22T07:37:39.000Z</time>
      </trkpt>
      <trkpt lat="44.74053" lon="1.432">
        <ele>263.20001220703</ele>
        <time>2022-05-22T07:37:40.000Z</time>
      </trkpt>
      <trkpt lat="44.74048" lon="1.43204">
        <ele>264</ele>
        <time>2022-05-22T07:37:43.000Z</time>
      </trkpt>
      <trkpt lat="44.74044" lon="1.43208">
        <ele>264.79998779297</ele>
        <time>2022-05-22T07:37:46.000Z</time>
      </trkpt>
      <trkpt lat="44.74042" lon="1.43208">
        <ele>265</ele>
        <time>2022-05-22T07:37:47.000Z</time>
      </trkpt>
      <trkpt lat="44.74037" lon="1.43213">
        <ele>265.60000610352</ele>
        <time>2022-05-22T07:37:49.000Z</time>
      </trkpt>
      <trkpt lat="44.74035" lon="1.43215">
        <ele>266.20001220703</ele>
        <time>2022-05-22T07:37:50.000Z</time>
      </trkpt>
      <trkpt lat="44.74025" lon="1.43228">
        <ele>267.39999389648</ele>
        <time>2022-05-22T07:37:56.000Z</time>
      </trkpt>
      <trkpt lat="44.74024" lon="1.43229">
        <ele>268</ele>
        <time>2022-05-22T07:37:57.000Z</time>
      </trkpt>
      <trkpt lat="44.7402" lon="1.43235">
        <ele>268.60000610352</ele>
        <time>2022-05-22T07:37:59.000Z</time>
      </trkpt>
      <trkpt lat="44.7401" lon="1.43245">
        <ele>269.60000610352</ele>
        <time>2022-05-22T07:38:04.000Z</time>
      </trkpt>
      <trkpt lat="44.74008" lon="1.43248">
        <ele>269.79998779297</ele>
        <time>2022-05-22T07:38:05.000Z</time>
      </trkpt>
      <trkpt lat="44.74004" lon="1.43251">
        <ele>270.79998779297</ele>
        <time>2022-05-22T07:38:07.000Z</time>
      </trkpt>
      <trkpt lat="44.73998" lon="1.43258">
        <ele>272</ele>
        <time>2022-05-22T07:38:11.000Z</time>
      </trkpt>
      <trkpt lat="44.73992" lon="1.43263">
        <ele>272.79998779297</ele>
        <time>2022-05-22T07:38:14.000Z</time>
      </trkpt>
      <trkpt lat="44.73988" lon="1.43266">
        <ele>273.20001220703</ele>
        <time>2022-05-22T07:38:16.000Z</time>
      </trkpt>
      <trkpt lat="44.73978" lon="1.43272">
        <ele>274.39999389648</ele>
        <time>2022-05-22T07:38:21.000Z</time>
      </trkpt>
      <trkpt lat="44.73966" lon="1.4328">
        <ele>275.39999389648</ele>
        <time>2022-05-22T07:38:27.000Z</time>
      </trkpt>
      <trkpt lat="44.73959" lon="1.43283">
        <ele>276</ele>
        <time>2022-05-22T07:38:30.000Z</time>
      </trkpt>
      <trkpt lat="44.73955" lon="1.43284">
        <ele>276.60000610352</ele>
        <time>2022-05-22T07:38:32.000Z</time>
      </trkpt>
      <trkpt lat="44.73941" lon="1.4329">
        <ele>277.39999389648</ele>
        <time>2022-05-22T07:38:38.000Z</time>
      </trkpt>
      <trkpt lat="44.73921" lon="1.43292">
        <ele>277.60000610352</ele>
        <time>2022-05-22T07:38:46.000Z</time>
      </trkpt>
      <trkpt lat="44.73916" lon="1.43292">
        <ele>277.79998779297</ele>
        <time>2022-05-22T07:38:48.000Z</time>
      </trkpt>
      <trkpt lat="44.73902" lon="1.4329">
        <ele>278.39999389648</ele>
        <time>2022-05-22T07:38:54.000Z</time>
      </trkpt>
      <trkpt lat="44.73888" lon="1.4329">
        <ele>278.60000610352</ele>
        <time>2022-05-22T07:39:00.000Z</time>
      </trkpt>
      <trkpt lat="44.73875" lon="1.4329">
        <ele>279</ele>
        <time>2022-05-22T07:39:05.000Z</time>
      </trkpt>
      <trkpt lat="44.7387" lon="1.43291">
        <ele>279.20001220703</ele>
        <time>2022-05-22T07:39:07.000Z</time>
      </trkpt>
      <trkpt lat="44.73858" lon="1.4329">
        <ele>280</ele>
        <time>2022-05-22T07:39:12.000Z</time>
      </trkpt>
      <trkpt lat="44.73849" lon="1.43292">
        <ele>280.39999389648</ele>
        <time>2022-05-22T07:39:16.000Z</time>
      </trkpt>
      <trkpt lat="44.73839" lon="1.43293">
        <ele>281</ele>
        <time>2022-05-22T07:39:20.000Z</time>
      </trkpt>
      <trkpt lat="44.73824" lon="1.43294">
        <ele>282</ele>
        <time>2022-05-22T07:39:26.000Z</time>
      </trkpt>
      <trkpt lat="44.73808" lon="1.43294">
        <ele>283.20001220703</ele>
        <time>2022-05-22T07:39:33.000Z</time>
      </trkpt>
      <trkpt lat="44.73801" lon="1.43294">
        <ele>283.60000610352</ele>
        <time>2022-05-22T07:39:36.000Z</time>
      </trkpt>
      <trkpt lat="44.73791" lon="1.43295">
        <ele>284.20001220703</ele>
        <time>2022-05-22T07:39:40.000Z</time>
      </trkpt>
      <trkpt lat="44.73779" lon="1.43295">
        <ele>285</ele>
        <time>2022-05-22T07:39:45.000Z</time>
      </trkpt>
      <trkpt lat="44.73772" lon="1.43296">
        <ele>285.20001220703</ele>
        <time>2022-05-22T07:39:48.000Z</time>
      </trkpt>
      <trkpt lat="44.73761" lon="1.43297">
        <ele>286.20001220703</ele>
        <time>2022-05-22T07:39:53.000Z</time>
      </trkpt>
      <trkpt lat="44.73757" lon="1.43299">
        <ele>286.39999389648</ele>
        <time>2022-05-22T07:39:55.000Z</time>
      </trkpt>
      <trkpt lat="44.73757" lon="1.43306">
        <ele>286.79998779297</ele>
        <time>2022-05-22T07:39:59.000Z</time>
      </trkpt>
      <trkpt lat="44.73757" lon="1.43306">
        <ele>287.20001220703</ele>
        <time>2022-05-22T07:40:04.000Z</time>
      </trkpt>
      <trkpt lat="44.73757" lon="1.43306">
        <ele>287.39999389648</ele>
        <time>2022-05-22T07:40:11.000Z</time>
      </trkpt>
      <trkpt lat="44.73757" lon="1.43306">
        <ele>287.20001220703</ele>
        <time>2022-05-22T07:40:16.000Z</time>
      </trkpt>
      <trkpt lat="44.73757" lon="1.43306">
        <ele>287.20001220703</ele>
        <time>2022-05-22T07:40:21.000Z</time>
      </trkpt>
      <trkpt lat="44.73757" lon="1.43306">
        <ele>287.20001220703</ele>
        <time>2022-05-22T07:40:25.000Z</time>
      </trkpt>
      <trkpt lat="44.73758" lon="1.43315">
        <ele>287.39999389648</ele>
        <time>2022-05-22T07:40:29.000Z</time>
      </trkpt>
      <trkpt lat="44.73761" lon="1.43339">
        <ele>287.60000610352</ele>
        <time>2022-05-22T07:40:35.000Z</time>
      </trkpt>
      <trkpt lat="44.73765" lon="1.43373">
        <ele>287.79998779297</ele>
        <time>2022-05-22T07:40:44.000Z</time>
      </trkpt>
      <trkpt lat="44.73766" lon="1.43377">
        <ele>287.79998779297</ele>
        <time>2022-05-22T07:40:45.000Z</time>
      </trkpt>
      <trkpt lat="44.73768" lon="1.43401">
        <ele>287.60000610352</ele>
        <time>2022-05-22T07:40:51.000Z</time>
      </trkpt>
      <trkpt lat="44.73768" lon="1.43406">
        <ele>287.60000610352</ele>
        <time>2022-05-22T07:40:52.000Z</time>
      </trkpt>
      <trkpt lat="44.73772" lon="1.4343">
        <ele>286.79998779297</ele>
        <time>2022-05-22T07:40:57.000Z</time>
      </trkpt>
      <trkpt lat="44.73773" lon="1.43441">
        <ele>286.39999389648</ele>
        <time>2022-05-22T07:40:59.000Z</time>
      </trkpt>
      <trkpt lat="44.73774" lon="1.43446">
        <ele>286.20001220703</ele>
        <time>2022-05-22T07:41:00.000Z</time>
      </trkpt>
      <trkpt lat="44.73775" lon="1.43462">
        <ele>285</ele>
        <time>2022-05-22T07:41:04.000Z</time>
      </trkpt>
      <trkpt lat="44.73777" lon="1.43469">
        <ele>284.39999389648</ele>
        <time>2022-05-22T07:41:06.000Z</time>
      </trkpt>
      <trkpt lat="44.73777" lon="1.43473">
        <ele>284</ele>
        <time>2022-05-22T07:41:07.000Z</time>
      </trkpt>
      <trkpt lat="44.73778" lon="1.43477">
        <ele>283.79998779297</ele>
        <time>2022-05-22T07:41:08.000Z</time>
      </trkpt>
      <trkpt lat="44.73779" lon="1.43491">
        <ele>282.60000610352</ele>
        <time>2022-05-22T07:41:11.000Z</time>
      </trkpt>
      <trkpt lat="44.7378" lon="1.43498">
        <ele>281.60000610352</ele>
        <time>2022-05-22T07:41:12.000Z</time>
      </trkpt>
      <trkpt lat="44.7378" lon="1.43504">
        <ele>281.20001220703</ele>
        <time>2022-05-22T07:41:13.000Z</time>
      </trkpt>
      <trkpt lat="44.73781" lon="1.4351">
        <ele>280.20001220703</ele>
        <time>2022-05-22T07:41:14.000Z</time>
      </trkpt>
      <trkpt lat="44.73781" lon="1.43517">
        <ele>280</ele>
        <time>2022-05-22T07:41:15.000Z</time>
      </trkpt>
      <trkpt lat="44.73782" lon="1.43532">
        <ele>278.79998779297</ele>
        <time>2022-05-22T07:41:17.000Z</time>
      </trkpt>
      <trkpt lat="44.73783" lon="1.4354">
        <ele>278</ele>
        <time>2022-05-22T07:41:18.000Z</time>
      </trkpt>
      <trkpt lat="44.73784" lon="1.43546">
        <ele>277.39999389648</ele>
        <time>2022-05-22T07:41:19.000Z</time>
      </trkpt>
      <trkpt lat="44.73786" lon="1.43557">
        <ele>275.39999389648</ele>
        <time>2022-05-22T07:41:21.000Z</time>
      </trkpt>
      <trkpt lat="44.73788" lon="1.43566">
        <ele>273.60000610352</ele>
        <time>2022-05-22T07:41:23.000Z</time>
      </trkpt>
      <trkpt lat="44.73791" lon="1.43577">
        <ele>271.20001220703</ele>
        <time>2022-05-22T07:41:25.000Z</time>
      </trkpt>
      <trkpt lat="44.73794" lon="1.4359">
        <ele>270</ele>
        <time>2022-05-22T07:41:27.000Z</time>
      </trkpt>
      <trkpt lat="44.73797" lon="1.43606">
        <ele>269</ele>
        <time>2022-05-22T07:41:29.000Z</time>
      </trkpt>
      <trkpt lat="44.73798" lon="1.43612">
        <ele>267.60000610352</ele>
        <time>2022-05-22T07:41:30.000Z</time>
      </trkpt>
      <trkpt lat="44.738" lon="1.43627">
        <ele>266.39999389648</ele>
        <time>2022-05-22T07:41:32.000Z</time>
      </trkpt>
      <trkpt lat="44.73802" lon="1.4364">
        <ele>265.39999389648</ele>
        <time>2022-05-22T07:41:34.000Z</time>
      </trkpt>
      <trkpt lat="44.73802" lon="1.43646">
        <ele>264.20001220703</ele>
        <time>2022-05-22T07:41:35.000Z</time>
      </trkpt>
      <trkpt lat="44.73802" lon="1.43655">
        <ele>263.60000610352</ele>
        <time>2022-05-22T07:41:36.000Z</time>
      </trkpt>
      <trkpt lat="44.73802" lon="1.43662">
        <ele>262.60000610352</ele>
        <time>2022-05-22T07:41:37.000Z</time>
      </trkpt>
      <trkpt lat="44.73801" lon="1.43675">
        <ele>261.20001220703</ele>
        <time>2022-05-22T07:41:39.000Z</time>
      </trkpt>
      <trkpt lat="44.73801" lon="1.43681">
        <ele>260.39999389648</ele>
        <time>2022-05-22T07:41:40.000Z</time>
      </trkpt>
      <trkpt lat="44.73802" lon="1.43687">
        <ele>259.79998779297</ele>
        <time>2022-05-22T07:41:41.000Z</time>
      </trkpt>
      <trkpt lat="44.73803" lon="1.43693">
        <ele>258.39999389648</ele>
        <time>2022-05-22T07:41:42.000Z</time>
      </trkpt>
      <trkpt lat="44.73807" lon="1.43705">
        <ele>257.39999389648</ele>
        <time>2022-05-22T07:41:44.000Z</time>
      </trkpt>
      <trkpt lat="44.73809" lon="1.43717">
        <ele>256.20001220703</ele>
        <time>2022-05-22T07:41:46.000Z</time>
      </trkpt>
      <trkpt lat="44.7381" lon="1.43723">
        <ele>255</ele>
        <time>2022-05-22T07:41:47.000Z</time>
      </trkpt>
      <trkpt lat="44.7381" lon="1.43728">
        <ele>254.39999389648</ele>
        <time>2022-05-22T07:41:48.000Z</time>
      </trkpt>
      <trkpt lat="44.7381" lon="1.43733">
        <ele>253.39999389648</ele>
        <time>2022-05-22T07:41:49.000Z</time>
      </trkpt>
      <trkpt lat="44.73809" lon="1.4374">
        <ele>253</ele>
        <time>2022-05-22T07:41:50.000Z</time>
      </trkpt>
      <trkpt lat="44.73808" lon="1.43746">
        <ele>251.80000305176</ele>
        <time>2022-05-22T07:41:51.000Z</time>
      </trkpt>
      <trkpt lat="44.73807" lon="1.43757">
        <ele>250.39999389648</ele>
        <time>2022-05-22T07:41:53.000Z</time>
      </trkpt>
      <trkpt lat="44.73806" lon="1.43766">
        <ele>248.80000305176</ele>
        <time>2022-05-22T07:41:55.000Z</time>
      </trkpt>
      <trkpt lat="44.73805" lon="1.4377">
        <ele>247.60000610352</ele>
        <time>2022-05-22T07:41:56.000Z</time>
      </trkpt>
      <trkpt lat="44.73804" lon="1.43774">
        <ele>246.80000305176</ele>
        <time>2022-05-22T07:41:57.000Z</time>
      </trkpt>
      <trkpt lat="44.73803" lon="1.43779">
        <ele>245.19999694824</ele>
        <time>2022-05-22T07:41:58.000Z</time>
      </trkpt>
      <trkpt lat="44.73802" lon="1.43783">
        <ele>244.19999694824</ele>
        <time>2022-05-22T07:41:59.000Z</time>
      </trkpt>
      <trkpt lat="44.738" lon="1.4379">
        <ele>243</ele>
        <time>2022-05-22T07:42:01.000Z</time>
      </trkpt>
      <trkpt lat="44.73799" lon="1.43795">
        <ele>242.60000610352</ele>
        <time>2022-05-22T07:42:02.000Z</time>
      </trkpt>
      <trkpt lat="44.738" lon="1.43801">
        <ele>242</ele>
        <time>2022-05-22T07:42:03.000Z</time>
      </trkpt>
      <trkpt lat="44.73802" lon="1.43805">
        <ele>241.60000610352</ele>
        <time>2022-05-22T07:42:04.000Z</time>
      </trkpt>
      <trkpt lat="44.73805" lon="1.43808">
        <ele>241</ele>
        <time>2022-05-22T07:42:05.000Z</time>
      </trkpt>
      <trkpt lat="44.73808" lon="1.43811">
        <ele>240.80000305176</ele>
        <time>2022-05-22T07:42:06.000Z</time>
      </trkpt>
      <trkpt lat="44.73826" lon="1.43819">
        <ele>239.60000610352</ele>
        <time>2022-05-22T07:42:10.000Z</time>
      </trkpt>
      <trkpt lat="44.73831" lon="1.43821">
        <ele>239.60000610352</ele>
        <time>2022-05-22T07:42:11.000Z</time>
      </trkpt>
      <trkpt lat="44.73854" lon="1.43835">
        <ele>239</ele>
        <time>2022-05-22T07:42:16.000Z</time>
      </trkpt>
      <trkpt lat="44.73868" lon="1.43843">
        <ele>238.60000610352</ele>
        <time>2022-05-22T07:42:19.000Z</time>
      </trkpt>
      <trkpt lat="44.739" lon="1.43861">
        <ele>238</ele>
        <time>2022-05-22T07:42:26.000Z</time>
      </trkpt>
      <trkpt lat="44.7393" lon="1.43879">
        <ele>237.60000610352</ele>
        <time>2022-05-22T07:42:33.000Z</time>
      </trkpt>
      <trkpt lat="44.73934" lon="1.43881">
        <ele>237.19999694824</ele>
        <time>2022-05-22T07:42:34.000Z</time>
      </trkpt>
      <trkpt lat="44.73977" lon="1.43905">
        <ele>236.80000305176</ele>
        <time>2022-05-22T07:42:44.000Z</time>
      </trkpt>
      <trkpt lat="44.73995" lon="1.43913">
        <ele>236.60000610352</ele>
        <time>2022-05-22T07:42:48.000Z</time>
      </trkpt>
      <trkpt lat="44.74003" lon="1.43915">
        <ele>236.39999389648</ele>
        <time>2022-05-22T07:42:50.000Z</time>
      </trkpt>
      <trkpt lat="44.74008" lon="1.43915">
        <ele>236.39999389648</ele>
        <time>2022-05-22T07:42:51.000Z</time>
      </trkpt>
      <trkpt lat="44.74013" lon="1.43914">
        <ele>236.39999389648</ele>
        <time>2022-05-22T07:42:52.000Z</time>
      </trkpt>
      <trkpt lat="44.74028" lon="1.43907">
        <ele>236.19999694824</ele>
        <time>2022-05-22T07:42:56.000Z</time>
      </trkpt>
      <trkpt lat="44.74049" lon="1.43892">
        <ele>235.80000305176</ele>
        <time>2022-05-22T07:43:02.000Z</time>
      </trkpt>
      <trkpt lat="44.74057" lon="1.43876">
        <ele>235.80000305176</ele>
        <time>2022-05-22T07:43:06.000Z</time>
      </trkpt>
      <trkpt lat="44.7406" lon="1.43859">
        <ele>235.80000305176</ele>
        <time>2022-05-22T07:43:10.000Z</time>
      </trkpt>
      <trkpt lat="44.74062" lon="1.43853">
        <ele>235.39999389648</ele>
        <time>2022-05-22T07:43:13.000Z</time>
      </trkpt>
      <trkpt lat="44.74062" lon="1.43853">
        <ele>235.39999389648</ele>
        <time>2022-05-22T07:43:14.000Z</time>
      </trkpt>
      <trkpt lat="44.74062" lon="1.43853">
        <ele>235.19999694824</ele>
        <time>2022-05-22T07:43:25.000Z</time>
      </trkpt>
      <trkpt lat="44.74062" lon="1.43853">
        <ele>235</ele>
        <time>2022-05-22T07:43:38.000Z</time>
      </trkpt>
      <trkpt lat="44.74062" lon="1.43853">
        <ele>235</ele>
        <time>2022-05-22T07:43:53.000Z</time>
      </trkpt>
      <trkpt lat="44.74063" lon="1.43853">
        <ele>235</ele>
        <time>2022-05-22T07:43:58.000Z</time>
      </trkpt>
      <trkpt lat="44.74065" lon="1.43857">
        <ele>234.80000305176</ele>
        <time>2022-05-22T07:44:02.000Z</time>
      </trkpt>
      <trkpt lat="44.7407" lon="1.43864">
        <ele>234.80000305176</ele>
        <time>2022-05-22T07:44:07.000Z</time>
      </trkpt>
      <trkpt lat="44.74071" lon="1.43868">
        <ele>234.80000305176</ele>
        <time>2022-05-22T07:44:09.000Z</time>
      </trkpt>
      <trkpt lat="44.74068" lon="1.43873">
        <ele>234.80000305176</ele>
        <time>2022-05-22T07:44:12.000Z</time>
      </trkpt>
      <trkpt lat="44.74067" lon="1.43874">
        <ele>234.80000305176</ele>
        <time>2022-05-22T07:44:13.000Z</time>
      </trkpt>
      <trkpt lat="44.74066" lon="1.43874">
        <ele>234.80000305176</ele>
        <time>2022-05-22T07:44:16.000Z</time>
      </trkpt>
      <trkpt lat="44.74066" lon="1.43874">
        <ele>234.60000610352</ele>
        <time>2022-05-22T07:44:32.000Z</time>
      </trkpt>
      <trkpt lat="44.74066" lon="1.43874">
        <ele>234.80000305176</ele>
        <time>2022-05-22T07:44:37.000Z</time>
      </trkpt>
      <trkpt lat="44.74069" lon="1.43878">
        <ele>235</ele>
        <time>2022-05-22T07:44:40.000Z</time>
      </trkpt>
      <trkpt lat="44.74071" lon="1.43877">
        <ele>235</ele>
        <time>2022-05-22T07:44:41.000Z</time>
      </trkpt>
      <trkpt lat="44.74083" lon="1.43869">
        <ele>234.80000305176</ele>
        <time>2022-05-22T07:44:46.000Z</time>
      </trkpt>
      <trkpt lat="44.74103" lon="1.43853">
        <ele>234.39999389648</ele>
        <time>2022-05-22T07:44:52.000Z</time>
      </trkpt>
      <trkpt lat="44.74112" lon="1.43846">
        <ele>234.19999694824</ele>
        <time>2022-05-22T07:44:56.000Z</time>
      </trkpt>
      <trkpt lat="44.74113" lon="1.43845">
        <ele>234.19999694824</ele>
        <time>2022-05-22T07:44:57.000Z</time>
      </trkpt>
      <trkpt lat="44.74113" lon="1.43845">
        <ele>233.80000305176</ele>
        <time>2022-05-22T07:45:01.000Z</time>
      </trkpt>
      <trkpt lat="44.74115" lon="1.43845">
        <ele>233.60000610352</ele>
        <time>2022-05-22T07:45:08.000Z</time>
      </trkpt>
      <trkpt lat="44.74116" lon="1.43845">
        <ele>233.60000610352</ele>
        <time>2022-05-22T07:45:09.000Z</time>
      </trkpt>
      <trkpt lat="44.74121" lon="1.43846">
        <ele>233.60000610352</ele>
        <time>2022-05-22T07:45:12.000Z</time>
      </trkpt>
      <trkpt lat="44.74125" lon="1.43847">
        <ele>233.60000610352</ele>
        <time>2022-05-22T07:45:14.000Z</time>
      </trkpt>
      <trkpt lat="44.74141" lon="1.43852">
        <ele>233.60000610352</ele>
        <time>2022-05-22T07:45:20.000Z</time>
      </trkpt>
      <trkpt lat="44.74146" lon="1.43857">
        <ele>233.60000610352</ele>
        <time>2022-05-22T07:45:23.000Z</time>
      </trkpt>
      <trkpt lat="44.74146" lon="1.43858">
        <ele>233.39999389648</ele>
        <time>2022-05-22T07:45:25.000Z</time>
      </trkpt>
      <trkpt lat="44.74146" lon="1.43858">
        <ele>233</ele>
        <time>2022-05-22T07:45:46.000Z</time>
      </trkpt>
      <trkpt lat="44.74147" lon="1.43854">
        <ele>233</ele>
        <time>2022-05-22T07:45:48.000Z</time>
      </trkpt>
      <trkpt lat="44.74146" lon="1.43852">
        <ele>233</ele>
        <time>2022-05-22T07:45:49.000Z</time>
      </trkpt>
      <trkpt lat="44.7414" lon="1.43851">
        <ele>233</ele>
        <time>2022-05-22T07:45:52.000Z</time>
      </trkpt>
      <trkpt lat="44.74127" lon="1.43847">
        <ele>233</ele>
        <time>2022-05-22T07:45:57.000Z</time>
      </trkpt>
      <trkpt lat="44.74122" lon="1.43845">
        <ele>233</ele>
        <time>2022-05-22T07:45:59.000Z</time>
      </trkpt>
      <trkpt lat="44.74121" lon="1.43845">
        <ele>233</ele>
        <time>2022-05-22T07:46:01.000Z</time>
      </trkpt>
      <trkpt lat="44.74125" lon="1.43846">
        <ele>233</ele>
        <time>2022-05-22T07:46:03.000Z</time>
      </trkpt>
      <trkpt lat="44.7413" lon="1.43845">
        <ele>233.39999389648</ele>
        <time>2022-05-22T07:46:05.000Z</time>
      </trkpt>
      <trkpt lat="44.74145" lon="1.43852">
        <ele>233.19999694824</ele>
        <time>2022-05-22T07:46:11.000Z</time>
      </trkpt>
      <trkpt lat="44.74146" lon="1.43853">
        <ele>233</ele>
        <time>2022-05-22T07:46:14.000Z</time>
      </trkpt>
      <trkpt lat="44.74147" lon="1.43854">
        <ele>233</ele>
        <time>2022-05-22T07:46:30.000Z</time>
      </trkpt>
      <trkpt lat="44.74152" lon="1.43855">
        <ele>233</ele>
        <time>2022-05-22T07:46:33.000Z</time>
      </trkpt>
      <trkpt lat="44.74164" lon="1.4386">
        <ele>232.80000305176</ele>
        <time>2022-05-22T07:46:37.000Z</time>
      </trkpt>
      <trkpt lat="44.7417" lon="1.43868">
        <ele>232.60000610352</ele>
        <time>2022-05-22T07:46:39.000Z</time>
      </trkpt>
      <trkpt lat="44.74172" lon="1.43874">
        <ele>232.39999389648</ele>
        <time>2022-05-22T07:46:40.000Z</time>
      </trkpt>
      <trkpt lat="44.74172" lon="1.43881">
        <ele>232.39999389648</ele>
        <time>2022-05-22T07:46:41.000Z</time>
      </trkpt>
      <trkpt lat="44.74169" lon="1.43892">
        <ele>232</ele>
        <time>2022-05-22T07:46:43.000Z</time>
      </trkpt>
      <trkpt lat="44.74163" lon="1.43901">
        <ele>231.60000610352</ele>
        <time>2022-05-22T07:46:45.000Z</time>
      </trkpt>
      <trkpt lat="44.74162" lon="1.43906">
        <ele>231.60000610352</ele>
        <time>2022-05-22T07:46:46.000Z</time>
      </trkpt>
      <trkpt lat="44.7416" lon="1.43915">
        <ele>231.60000610352</ele>
        <time>2022-05-22T07:46:48.000Z</time>
      </trkpt>
      <trkpt lat="44.74156" lon="1.43943">
        <ele>232.19999694824</ele>
        <time>2022-05-22T07:46:54.000Z</time>
      </trkpt>
      <trkpt lat="44.74153" lon="1.43972">
        <ele>232.60000610352</ele>
        <time>2022-05-22T07:47:00.000Z</time>
      </trkpt>
      <trkpt lat="44.74153" lon="1.43976">
        <ele>232.80000305176</ele>
        <time>2022-05-22T07:47:01.000Z</time>
      </trkpt>
      <trkpt lat="44.74153" lon="1.43998">
        <ele>233.60000610352</ele>
        <time>2022-05-22T07:47:06.000Z</time>
      </trkpt>
      <trkpt lat="44.74153" lon="1.44004">
        <ele>233.80000305176</ele>
        <time>2022-05-22T07:47:08.000Z</time>
      </trkpt>
      <trkpt lat="44.74154" lon="1.44009">
        <ele>234</ele>
        <time>2022-05-22T07:47:10.000Z</time>
      </trkpt>
      <trkpt lat="44.74157" lon="1.44025">
        <ele>234</ele>
        <time>2022-05-22T07:47:14.000Z</time>
      </trkpt>
      <trkpt lat="44.7416" lon="1.44033">
        <ele>234</ele>
        <time>2022-05-22T07:47:16.000Z</time>
      </trkpt>
      <trkpt lat="44.74168" lon="1.44038">
        <ele>233.80000305176</ele>
        <time>2022-05-22T07:47:18.000Z</time>
      </trkpt>
      <trkpt lat="44.74178" lon="1.44043">
        <ele>233.19999694824</ele>
        <time>2022-05-22T07:47:20.000Z</time>
      </trkpt>
      <trkpt lat="44.74186" lon="1.44052">
        <ele>232.60000610352</ele>
        <time>2022-05-22T07:47:22.000Z</time>
      </trkpt>
      <trkpt lat="44.7419" lon="1.44057">
        <ele>232.39999389648</ele>
        <time>2022-05-22T07:47:23.000Z</time>
      </trkpt>
      <trkpt lat="44.74194" lon="1.44062">
        <ele>232.19999694824</ele>
        <time>2022-05-22T07:47:24.000Z</time>
      </trkpt>
      <trkpt lat="44.74206" lon="1.44074">
        <ele>231.80000305176</ele>
        <time>2022-05-22T07:47:28.000Z</time>
      </trkpt>
      <trkpt lat="44.7421" lon="1.44077">
        <ele>231.80000305176</ele>
        <time>2022-05-22T07:47:33.000Z</time>
      </trkpt>
      <trkpt lat="44.7421" lon="1.44077">
        <ele>231.80000305176</ele>
        <time>2022-05-22T07:47:43.000Z</time>
      </trkpt>
      <trkpt lat="44.7421" lon="1.44077">
        <ele>231.80000305176</ele>
        <time>2022-05-22T07:47:47.000Z</time>
      </trkpt>
      <trkpt lat="44.7421" lon="1.44077">
        <ele>231.80000305176</ele>
        <time>2022-05-22T07:47:53.000Z</time>
      </trkpt>
      <trkpt lat="44.7421" lon="1.44077">
        <ele>232</ele>
        <time>2022-05-22T07:48:10.000Z</time>
      </trkpt>
      <trkpt lat="44.74218" lon="1.44079">
        <ele>232</ele>
        <time>2022-05-22T07:48:12.000Z</time>
      </trkpt>
      <trkpt lat="44.74243" lon="1.44096">
        <ele>232</ele>
        <time>2022-05-22T07:48:19.000Z</time>
      </trkpt>
      <trkpt lat="44.74248" lon="1.44122">
        <ele>232.19999694824</ele>
        <time>2022-05-22T07:48:24.000Z</time>
      </trkpt>
      <trkpt lat="44.7425" lon="1.44162">
        <ele>233</ele>
        <time>2022-05-22T07:48:31.000Z</time>
      </trkpt>
      <trkpt lat="44.74251" lon="1.44206">
        <ele>233.19999694824</ele>
        <time>2022-05-22T07:48:39.000Z</time>
      </trkpt>
      <trkpt lat="44.7425" lon="1.4423">
        <ele>233.60000610352</ele>
        <time>2022-05-22T07:48:45.000Z</time>
      </trkpt>
      <trkpt lat="44.74256" lon="1.44249">
        <ele>234.39999389648</ele>
        <time>2022-05-22T07:48:50.000Z</time>
      </trkpt>
      <trkpt lat="44.74262" lon="1.44265">
        <ele>234.60000610352</ele>
        <time>2022-05-22T07:48:54.000Z</time>
      </trkpt>
      <trkpt lat="44.74265" lon="1.44273">
        <ele>234.80000305176</ele>
        <time>2022-05-22T07:48:56.000Z</time>
      </trkpt>
      <trkpt lat="44.74269" lon="1.44307">
        <ele>235.39999389648</ele>
        <time>2022-05-22T07:49:03.000Z</time>
      </trkpt>
      <trkpt lat="44.74269" lon="1.44353">
        <ele>235.19999694824</ele>
        <time>2022-05-22T07:49:10.000Z</time>
      </trkpt>
      <trkpt lat="44.74269" lon="1.44371">
        <ele>235</ele>
        <time>2022-05-22T07:49:13.000Z</time>
      </trkpt>
      <trkpt lat="44.74269" lon="1.44391">
        <ele>234.80000305176</ele>
        <time>2022-05-22T07:49:17.000Z</time>
      </trkpt>
      <trkpt lat="44.74271" lon="1.44428">
        <ele>234.80000305176</ele>
        <time>2022-05-22T07:49:24.000Z</time>
      </trkpt>
      <trkpt lat="44.74273" lon="1.44478">
        <ele>235.19999694824</ele>
        <time>2022-05-22T07:49:33.000Z</time>
      </trkpt>
      <trkpt lat="44.74274" lon="1.4452">
        <ele>235.60000610352</ele>
        <time>2022-05-22T07:49:40.000Z</time>
      </trkpt>
      <trkpt lat="44.74274" lon="1.44526">
        <ele>235.80000305176</ele>
        <time>2022-05-22T07:49:41.000Z</time>
      </trkpt>
      <trkpt lat="44.74275" lon="1.44554">
        <ele>236</ele>
        <time>2022-05-22T07:49:46.000Z</time>
      </trkpt>
      <trkpt lat="44.74276" lon="1.44565">
        <ele>236</ele>
        <time>2022-05-22T07:49:48.000Z</time>
      </trkpt>
      <trkpt lat="44.74277" lon="1.44593">
        <ele>236.39999389648</ele>
        <time>2022-05-22T07:49:54.000Z</time>
      </trkpt>
      <trkpt lat="44.74277" lon="1.44627">
        <ele>236.80000305176</ele>
        <time>2022-05-22T07:50:01.000Z</time>
      </trkpt>
      <trkpt lat="44.74278" lon="1.44632">
        <ele>236.80000305176</ele>
        <time>2022-05-22T07:50:02.000Z</time>
      </trkpt>
      <trkpt lat="44.74279" lon="1.44679">
        <ele>237</ele>
        <time>2022-05-22T07:50:11.000Z</time>
      </trkpt>
      <trkpt lat="44.74282" lon="1.44703">
        <ele>237</ele>
        <time>2022-05-22T07:50:16.000Z</time>
      </trkpt>
      <trkpt lat="44.74289" lon="1.44737">
        <ele>237.19999694824</ele>
        <time>2022-05-22T07:50:24.000Z</time>
      </trkpt>
      <trkpt lat="44.743" lon="1.44767">
        <ele>237.80000305176</ele>
        <time>2022-05-22T07:50:31.000Z</time>
      </trkpt>
      <trkpt lat="44.74305" lon="1.44774">
        <ele>238</ele>
        <time>2022-05-22T07:50:33.000Z</time>
      </trkpt>
      <trkpt lat="44.74319" lon="1.44796">
        <ele>238.80000305176</ele>
        <time>2022-05-22T07:50:40.000Z</time>
      </trkpt>
      <trkpt lat="44.7432" lon="1.44799">
        <ele>239</ele>
        <time>2022-05-22T07:50:41.000Z</time>
      </trkpt>
      <trkpt lat="44.74331" lon="1.4482">
        <ele>239.60000610352</ele>
        <time>2022-05-22T07:50:47.000Z</time>
      </trkpt>
      <trkpt lat="44.74341" lon="1.44848">
        <ele>240</ele>
        <time>2022-05-22T07:50:54.000Z</time>
      </trkpt>
      <trkpt lat="44.74346" lon="1.44886">
        <ele>240</ele>
        <time>2022-05-22T07:51:02.000Z</time>
      </trkpt>
      <trkpt lat="44.7435" lon="1.44927">
        <ele>240.60000610352</ele>
        <time>2022-05-22T07:51:11.000Z</time>
      </trkpt>
      <trkpt lat="44.74358" lon="1.44962">
        <ele>241</ele>
        <time>2022-05-22T07:51:18.000Z</time>
      </trkpt>
      <trkpt lat="44.74365" lon="1.44996">
        <ele>241</ele>
        <time>2022-05-22T07:51:25.000Z</time>
      </trkpt>
      <trkpt lat="44.7437" lon="1.4502">
        <ele>241</ele>
        <time>2022-05-22T07:51:30.000Z</time>
      </trkpt>
      <trkpt lat="44.74376" lon="1.45051">
        <ele>241.39999389648</ele>
        <time>2022-05-22T07:51:36.000Z</time>
      </trkpt>
      <trkpt lat="44.74383" lon="1.45083">
        <ele>241.60000610352</ele>
        <time>2022-05-22T07:51:42.000Z</time>
      </trkpt>
      <trkpt lat="44.74384" lon="1.45089">
        <ele>241.60000610352</ele>
        <time>2022-05-22T07:51:43.000Z</time>
      </trkpt>
      <trkpt lat="44.74391" lon="1.45117">
        <ele>241.60000610352</ele>
        <time>2022-05-22T07:51:49.000Z</time>
      </trkpt>
      <trkpt lat="44.74397" lon="1.45163">
        <ele>241.80000305176</ele>
        <time>2022-05-22T07:51:58.000Z</time>
      </trkpt>
      <trkpt lat="44.744" lon="1.45183">
        <ele>242.19999694824</ele>
        <time>2022-05-22T07:52:02.000Z</time>
      </trkpt>
      <trkpt lat="44.74403" lon="1.45197">
        <ele>242.39999389648</ele>
        <time>2022-05-22T07:52:05.000Z</time>
      </trkpt>
      <trkpt lat="44.74408" lon="1.45221">
        <ele>243.19999694824</ele>
        <time>2022-05-22T07:52:10.000Z</time>
      </trkpt>
      <trkpt lat="44.7441" lon="1.45237">
        <ele>243.60000610352</ele>
        <time>2022-05-22T07:52:14.000Z</time>
      </trkpt>
      <trkpt lat="44.74416" lon="1.45271">
        <ele>244</ele>
        <time>2022-05-22T07:52:21.000Z</time>
      </trkpt>
      <trkpt lat="44.74421" lon="1.45297">
        <ele>244.19999694824</ele>
        <time>2022-05-22T07:52:26.000Z</time>
      </trkpt>
      <trkpt lat="44.74422" lon="1.45302">
        <ele>244.39999389648</ele>
        <time>2022-05-22T07:52:27.000Z</time>
      </trkpt>
      <trkpt lat="44.74431" lon="1.45349">
        <ele>245</ele>
        <time>2022-05-22T07:52:36.000Z</time>
      </trkpt>
      <trkpt lat="44.74438" lon="1.45383">
        <ele>245.39999389648</ele>
        <time>2022-05-22T07:52:42.000Z</time>
      </trkpt>
      <trkpt lat="44.74439" lon="1.45388">
        <ele>245.39999389648</ele>
        <time>2022-05-22T07:52:43.000Z</time>
      </trkpt>
      <trkpt lat="44.74442" lon="1.45421">
        <ele>245.39999389648</ele>
        <time>2022-05-22T07:52:49.000Z</time>
      </trkpt>
      <trkpt lat="44.74442" lon="1.45426">
        <ele>245.39999389648</ele>
        <time>2022-05-22T07:52:50.000Z</time>
      </trkpt>
      <trkpt lat="44.74444" lon="1.4545">
        <ele>245.19999694824</ele>
        <time>2022-05-22T07:52:55.000Z</time>
      </trkpt>
      <trkpt lat="44.74447" lon="1.45488">
        <ele>245.19999694824</ele>
        <time>2022-05-22T07:53:01.000Z</time>
      </trkpt>
      <trkpt lat="44.74448" lon="1.45496">
        <ele>245.19999694824</ele>
        <time>2022-05-22T07:53:02.000Z</time>
      </trkpt>
      <trkpt lat="44.74446" lon="1.45529">
        <ele>245.19999694824</ele>
        <time>2022-05-22T07:53:07.000Z</time>
      </trkpt>
      <trkpt lat="44.74445" lon="1.45542">
        <ele>245.19999694824</ele>
        <time>2022-05-22T07:53:09.000Z</time>
      </trkpt>
      <trkpt lat="44.74445" lon="1.45563">
        <ele>245</ele>
        <time>2022-05-22T07:53:12.000Z</time>
      </trkpt>
      <trkpt lat="44.74444" lon="1.45576">
        <ele>244.80000305176</ele>
        <time>2022-05-22T07:53:14.000Z</time>
      </trkpt>
      <trkpt lat="44.74442" lon="1.45594">
        <ele>245</ele>
        <time>2022-05-22T07:53:17.000Z</time>
      </trkpt>
      <trkpt lat="44.74441" lon="1.45606">
        <ele>245</ele>
        <time>2022-05-22T07:53:19.000Z</time>
      </trkpt>
      <trkpt lat="44.74441" lon="1.45618">
        <ele>245</ele>
        <time>2022-05-22T07:53:21.000Z</time>
      </trkpt>
      <trkpt lat="44.7444" lon="1.45635">
        <ele>245.19999694824</ele>
        <time>2022-05-22T07:53:24.000Z</time>
      </trkpt>
      <trkpt lat="44.74441" lon="1.45659">
        <ele>245.60000610352</ele>
        <time>2022-05-22T07:53:28.000Z</time>
      </trkpt>
      <trkpt lat="44.7445" lon="1.45709">
        <ele>245.80000305176</ele>
        <time>2022-05-22T07:53:37.000Z</time>
      </trkpt>
      <trkpt lat="44.74456" lon="1.45733">
        <ele>246.19999694824</ele>
        <time>2022-05-22T07:53:42.000Z</time>
      </trkpt>
      <trkpt lat="44.74457" lon="1.45737">
        <ele>246.39999389648</ele>
        <time>2022-05-22T07:53:43.000Z</time>
      </trkpt>
      <trkpt lat="44.74459" lon="1.45746">
        <ele>246.60000610352</ele>
        <time>2022-05-22T07:53:45.000Z</time>
      </trkpt>
      <trkpt lat="44.74464" lon="1.45769">
        <ele>247.60000610352</ele>
        <time>2022-05-22T07:53:50.000Z</time>
      </trkpt>
      <trkpt lat="44.74466" lon="1.45781">
        <ele>248</ele>
        <time>2022-05-22T07:53:52.000Z</time>
      </trkpt>
      <trkpt lat="44.7447" lon="1.45796">
        <ele>248.80000305176</ele>
        <time>2022-05-22T07:53:55.000Z</time>
      </trkpt>
      <trkpt lat="44.74476" lon="1.45822">
        <ele>249.19999694824</ele>
        <time>2022-05-22T07:53:59.000Z</time>
      </trkpt>
      <trkpt lat="44.74492" lon="1.45872">
        <ele>249</ele>
        <time>2022-05-22T07:54:08.000Z</time>
      </trkpt>
      <trkpt lat="44.74502" lon="1.459">
        <ele>248.60000610352</ele>
        <time>2022-05-22T07:54:15.000Z</time>
      </trkpt>
      <trkpt lat="44.74513" lon="1.4593">
        <ele>248.60000610352</ele>
        <time>2022-05-22T07:54:22.000Z</time>
      </trkpt>
      <trkpt lat="44.74531" lon="1.45957">
        <ele>249.19999694824</ele>
        <time>2022-05-22T07:54:29.000Z</time>
      </trkpt>
      <trkpt lat="44.74539" lon="1.45964">
        <ele>249.60000610352</ele>
        <time>2022-05-22T07:54:32.000Z</time>
      </trkpt>
      <trkpt lat="44.7455" lon="1.45971">
        <ele>250.39999389648</ele>
        <time>2022-05-22T07:54:36.000Z</time>
      </trkpt>
      <trkpt lat="44.74555" lon="1.45975">
        <ele>250.60000610352</ele>
        <time>2022-05-22T07:54:38.000Z</time>
      </trkpt>
      <trkpt lat="44.74566" lon="1.45981">
        <ele>251.80000305176</ele>
        <time>2022-05-22T07:54:42.000Z</time>
      </trkpt>
      <trkpt lat="44.74568" lon="1.45982">
        <ele>251.80000305176</ele>
        <time>2022-05-22T07:54:43.000Z</time>
      </trkpt>
      <trkpt lat="44.74573" lon="1.45985">
        <ele>252.19999694824</ele>
        <time>2022-05-22T07:54:45.000Z</time>
      </trkpt>
      <trkpt lat="44.74578" lon="1.45987">
        <ele>252.19999694824</ele>
        <time>2022-05-22T07:54:47.000Z</time>
      </trkpt>
      <trkpt lat="44.74599" lon="1.45994">
        <ele>252.80000305176</ele>
        <time>2022-05-22T07:54:54.000Z</time>
      </trkpt>
      <trkpt lat="44.74606" lon="1.45995">
        <ele>252.80000305176</ele>
        <time>2022-05-22T07:54:56.000Z</time>
      </trkpt>
      <trkpt lat="44.74633" lon="1.46001">
        <ele>253.19999694824</ele>
        <time>2022-05-22T07:55:03.000Z</time>
      </trkpt>
      <trkpt lat="44.74649" lon="1.46009">
        <ele>253.60000610352</ele>
        <time>2022-05-22T07:55:08.000Z</time>
      </trkpt>
      <trkpt lat="44.74656" lon="1.46017">
        <ele>254.39999389648</ele>
        <time>2022-05-22T07:55:11.000Z</time>
      </trkpt>
      <trkpt lat="44.74666" lon="1.46028">
        <ele>254.80000305176</ele>
        <time>2022-05-22T07:55:15.000Z</time>
      </trkpt>
      <trkpt lat="44.74671" lon="1.46033">
        <ele>255.19999694824</ele>
        <time>2022-05-22T07:55:17.000Z</time>
      </trkpt>
      <trkpt lat="44.74681" lon="1.46046">
        <ele>255.80000305176</ele>
        <time>2022-05-22T07:55:21.000Z</time>
      </trkpt>
      <trkpt lat="44.74699" lon="1.46064">
        <ele>256</ele>
        <time>2022-05-22T07:55:27.000Z</time>
      </trkpt>
      <trkpt lat="44.7472" lon="1.46078">
        <ele>255.80000305176</ele>
        <time>2022-05-22T07:55:33.000Z</time>
      </trkpt>
      <trkpt lat="44.74739" lon="1.46087">
        <ele>255.80000305176</ele>
        <time>2022-05-22T07:55:38.000Z</time>
      </trkpt>
      <trkpt lat="44.74769" lon="1.46098">
        <ele>256.60000610352</ele>
        <time>2022-05-22T07:55:46.000Z</time>
      </trkpt>
      <trkpt lat="44.74776" lon="1.461">
        <ele>256.79998779297</ele>
        <time>2022-05-22T07:55:48.000Z</time>
      </trkpt>
      <trkpt lat="44.74799" lon="1.46107">
        <ele>257.60000610352</ele>
        <time>2022-05-22T07:55:54.000Z</time>
      </trkpt>
      <trkpt lat="44.74811" lon="1.4611">
        <ele>257.79998779297</ele>
        <time>2022-05-22T07:55:57.000Z</time>
      </trkpt>
      <trkpt lat="44.7483" lon="1.46115">
        <ele>258.39999389648</ele>
        <time>2022-05-22T07:56:03.000Z</time>
      </trkpt>
      <trkpt lat="44.74849" lon="1.46132">
        <ele>258.39999389648</ele>
        <time>2022-05-22T07:56:10.000Z</time>
      </trkpt>
      <trkpt lat="44.74853" lon="1.46138">
        <ele>258.20001220703</ele>
        <time>2022-05-22T07:56:12.000Z</time>
      </trkpt>
      <trkpt lat="44.74857" lon="1.46145">
        <ele>258.39999389648</ele>
        <time>2022-05-22T07:56:14.000Z</time>
      </trkpt>
      <trkpt lat="44.74865" lon="1.46158">
        <ele>258</ele>
        <time>2022-05-22T07:56:17.000Z</time>
      </trkpt>
      <trkpt lat="44.74867" lon="1.46166">
        <ele>258.20001220703</ele>
        <time>2022-05-22T07:56:19.000Z</time>
      </trkpt>
      <trkpt lat="44.74876" lon="1.46186">
        <ele>258.20001220703</ele>
        <time>2022-05-22T07:56:24.000Z</time>
      </trkpt>
      <trkpt lat="44.74887" lon="1.46208">
        <ele>258.39999389648</ele>
        <time>2022-05-22T07:56:29.000Z</time>
      </trkpt>
      <trkpt lat="44.74891" lon="1.46217">
        <ele>258.39999389648</ele>
        <time>2022-05-22T07:56:31.000Z</time>
      </trkpt>
      <trkpt lat="44.74904" lon="1.46233">
        <ele>258.79998779297</ele>
        <time>2022-05-22T07:56:35.000Z</time>
      </trkpt>
      <trkpt lat="44.74909" lon="1.46242">
        <ele>259</ele>
        <time>2022-05-22T07:56:37.000Z</time>
      </trkpt>
      <trkpt lat="44.74925" lon="1.46257">
        <ele>259.39999389648</ele>
        <time>2022-05-22T07:56:42.000Z</time>
      </trkpt>
      <trkpt lat="44.74943" lon="1.46265">
        <ele>260</ele>
        <time>2022-05-22T07:56:47.000Z</time>
      </trkpt>
      <trkpt lat="44.74965" lon="1.46261">
        <ele>260.60000610352</ele>
        <time>2022-05-22T07:56:54.000Z</time>
      </trkpt>
      <trkpt lat="44.74989" lon="1.46256">
        <ele>260.79998779297</ele>
        <time>2022-05-22T07:57:01.000Z</time>
      </trkpt>
      <trkpt lat="44.75006" lon="1.46262">
        <ele>260.79998779297</ele>
        <time>2022-05-22T07:57:06.000Z</time>
      </trkpt>
      <trkpt lat="44.75009" lon="1.46264">
        <ele>260.79998779297</ele>
        <time>2022-05-22T07:57:07.000Z</time>
      </trkpt>
      <trkpt lat="44.7503" lon="1.46277">
        <ele>261.20001220703</ele>
        <time>2022-05-22T07:57:14.000Z</time>
      </trkpt>
      <trkpt lat="44.75044" lon="1.46291">
        <ele>261.79998779297</ele>
        <time>2022-05-22T07:57:19.000Z</time>
      </trkpt>
      <trkpt lat="44.75046" lon="1.46293">
        <ele>262</ele>
        <time>2022-05-22T07:57:20.000Z</time>
      </trkpt>
      <trkpt lat="44.75074" lon="1.46316">
        <ele>262.79998779297</ele>
        <time>2022-05-22T07:57:29.000Z</time>
      </trkpt>
      <trkpt lat="44.75076" lon="1.46319">
        <ele>263</ele>
        <time>2022-05-22T07:57:30.000Z</time>
      </trkpt>
      <trkpt lat="44.75095" lon="1.46338">
        <ele>263.79998779297</ele>
        <time>2022-05-22T07:57:37.000Z</time>
      </trkpt>
      <trkpt lat="44.75103" lon="1.46347">
        <ele>264</ele>
        <time>2022-05-22T07:57:40.000Z</time>
      </trkpt>
      <trkpt lat="44.75106" lon="1.46349">
        <ele>264.20001220703</ele>
        <time>2022-05-22T07:57:41.000Z</time>
      </trkpt>
      <trkpt lat="44.75119" lon="1.46366">
        <ele>264.60000610352</ele>
        <time>2022-05-22T07:57:48.000Z</time>
      </trkpt>
      <trkpt lat="44.75123" lon="1.46371">
        <ele>265</ele>
        <time>2022-05-22T07:57:50.000Z</time>
      </trkpt>
      <trkpt lat="44.75129" lon="1.46379">
        <ele>265.39999389648</ele>
        <time>2022-05-22T07:57:53.000Z</time>
      </trkpt>
      <trkpt lat="44.75138" lon="1.4639">
        <ele>265.79998779297</ele>
        <time>2022-05-22T07:57:57.000Z</time>
      </trkpt>
      <trkpt lat="44.7514" lon="1.46392">
        <ele>265.79998779297</ele>
        <time>2022-05-22T07:57:58.000Z</time>
      </trkpt>
      <trkpt lat="44.75142" lon="1.46396">
        <ele>266</ele>
        <time>2022-05-22T07:57:59.000Z</time>
      </trkpt>
      <trkpt lat="44.7515" lon="1.46406">
        <ele>266.60000610352</ele>
        <time>2022-05-22T07:58:02.000Z</time>
      </trkpt>
      <trkpt lat="44.75153" lon="1.46414">
        <ele>267.20001220703</ele>
        <time>2022-05-22T07:58:04.000Z</time>
      </trkpt>
      <trkpt lat="44.75156" lon="1.46422">
        <ele>267.60000610352</ele>
        <time>2022-05-22T07:58:06.000Z</time>
      </trkpt>
      <trkpt lat="44.7516" lon="1.46432">
        <ele>268.20001220703</ele>
        <time>2022-05-22T07:58:09.000Z</time>
      </trkpt>
      <trkpt lat="44.75162" lon="1.46436">
        <ele>268.20001220703</ele>
        <time>2022-05-22T07:58:10.000Z</time>
      </trkpt>
      <trkpt lat="44.75176" lon="1.46453">
        <ele>269.39999389648</ele>
        <time>2022-05-22T07:58:14.000Z</time>
      </trkpt>
      <trkpt lat="44.75183" lon="1.46462">
        <ele>270</ele>
        <time>2022-05-22T07:58:17.000Z</time>
      </trkpt>
      <trkpt lat="44.75193" lon="1.46474">
        <ele>270.20001220703</ele>
        <time>2022-05-22T07:58:22.000Z</time>
      </trkpt>
      <trkpt lat="44.75197" lon="1.4648">
        <ele>270.60000610352</ele>
        <time>2022-05-22T07:58:25.000Z</time>
      </trkpt>
      <trkpt lat="44.75199" lon="1.46482">
        <ele>270.79998779297</ele>
        <time>2022-05-22T07:58:26.000Z</time>
      </trkpt>
      <trkpt lat="44.75201" lon="1.46488">
        <ele>271.39999389648</ele>
        <time>2022-05-22T07:58:28.000Z</time>
      </trkpt>
      <trkpt lat="44.75203" lon="1.46491">
        <ele>271.60000610352</ele>
        <time>2022-05-22T07:58:29.000Z</time>
      </trkpt>
      <trkpt lat="44.75214" lon="1.46503">
        <ele>272.60000610352</ele>
        <time>2022-05-22T07:58:34.000Z</time>
      </trkpt>
      <trkpt lat="44.75216" lon="1.46505">
        <ele>272.79998779297</ele>
        <time>2022-05-22T07:58:35.000Z</time>
      </trkpt>
      <trkpt lat="44.75221" lon="1.46512">
        <ele>273.79998779297</ele>
        <time>2022-05-22T07:58:39.000Z</time>
      </trkpt>
      <trkpt lat="44.75223" lon="1.46513">
        <ele>274.39999389648</ele>
        <time>2022-05-22T07:58:41.000Z</time>
      </trkpt>
      <trkpt lat="44.75225" lon="1.4652">
        <ele>274.79998779297</ele>
        <time>2022-05-22T07:58:44.000Z</time>
      </trkpt>
      <trkpt lat="44.75224" lon="1.46527">
        <ele>275.20001220703</ele>
        <time>2022-05-22T07:58:46.000Z</time>
      </trkpt>
      <trkpt lat="44.75217" lon="1.46539">
        <ele>276</ele>
        <time>2022-05-22T07:58:50.000Z</time>
      </trkpt>
      <trkpt lat="44.75214" lon="1.46545">
        <ele>276.79998779297</ele>
        <time>2022-05-22T07:58:52.000Z</time>
      </trkpt>
      <trkpt lat="44.75213" lon="1.46548">
        <ele>277.39999389648</ele>
        <time>2022-05-22T07:58:53.000Z</time>
      </trkpt>
      <trkpt lat="44.7521" lon="1.46562">
        <ele>278.60000610352</ele>
        <time>2022-05-22T07:58:57.000Z</time>
      </trkpt>
      <trkpt lat="44.75209" lon="1.46566">
        <ele>279</ele>
        <time>2022-05-22T07:58:58.000Z</time>
      </trkpt>
      <trkpt lat="44.75209" lon="1.46577">
        <ele>280</ele>
        <time>2022-05-22T07:59:01.000Z</time>
      </trkpt>
      <trkpt lat="44.75209" lon="1.46593">
        <ele>281.20001220703</ele>
        <time>2022-05-22T07:59:05.000Z</time>
      </trkpt>
      <trkpt lat="44.75209" lon="1.46596">
        <ele>281.39999389648</ele>
        <time>2022-05-22T07:59:06.000Z</time>
      </trkpt>
      <trkpt lat="44.75209" lon="1.46611">
        <ele>282.39999389648</ele>
        <time>2022-05-22T07:59:10.000Z</time>
      </trkpt>
      <trkpt lat="44.75209" lon="1.46625">
        <ele>283.79998779297</ele>
        <time>2022-05-22T07:59:14.000Z</time>
      </trkpt>
      <trkpt lat="44.75209" lon="1.46628">
        <ele>284</ele>
        <time>2022-05-22T07:59:15.000Z</time>
      </trkpt>
      <trkpt lat="44.75209" lon="1.46644">
        <ele>285</ele>
        <time>2022-05-22T07:59:19.000Z</time>
      </trkpt>
      <trkpt lat="44.7521" lon="1.46657">
        <ele>286</ele>
        <time>2022-05-22T07:59:23.000Z</time>
      </trkpt>
      <trkpt lat="44.7521" lon="1.46665">
        <ele>286.60000610352</ele>
        <time>2022-05-22T07:59:25.000Z</time>
      </trkpt>
      <trkpt lat="44.7521" lon="1.46671">
        <ele>287</ele>
        <time>2022-05-22T07:59:27.000Z</time>
      </trkpt>
      <trkpt lat="44.75211" lon="1.46686">
        <ele>288.20001220703</ele>
        <time>2022-05-22T07:59:31.000Z</time>
      </trkpt>
      <trkpt lat="44.75211" lon="1.4669">
        <ele>288.20001220703</ele>
        <time>2022-05-22T07:59:32.000Z</time>
      </trkpt>
      <trkpt lat="44.75211" lon="1.46704">
        <ele>289.20001220703</ele>
        <time>2022-05-22T07:59:36.000Z</time>
      </trkpt>
      <trkpt lat="44.75211" lon="1.46707">
        <ele>289.39999389648</ele>
        <time>2022-05-22T07:59:37.000Z</time>
      </trkpt>
      <trkpt lat="44.7521" lon="1.46713">
        <ele>289.79998779297</ele>
        <time>2022-05-22T07:59:39.000Z</time>
      </trkpt>
      <trkpt lat="44.7521" lon="1.4672">
        <ele>290.60000610352</ele>
        <time>2022-05-22T07:59:41.000Z</time>
      </trkpt>
      <trkpt lat="44.75211" lon="1.4673">
        <ele>291.60000610352</ele>
        <time>2022-05-22T07:59:44.000Z</time>
      </trkpt>
      <trkpt lat="44.75212" lon="1.46737">
        <ele>292.20001220703</ele>
        <time>2022-05-22T07:59:46.000Z</time>
      </trkpt>
      <trkpt lat="44.75214" lon="1.46745">
        <ele>292.79998779297</ele>
        <time>2022-05-22T07:59:48.000Z</time>
      </trkpt>
      <trkpt lat="44.75216" lon="1.46769">
        <ele>293.79998779297</ele>
        <time>2022-05-22T07:59:54.000Z</time>
      </trkpt>
      <trkpt lat="44.75222" lon="1.46799">
        <ele>294.60000610352</ele>
        <time>2022-05-22T08:00:02.000Z</time>
      </trkpt>
      <trkpt lat="44.75223" lon="1.46807">
        <ele>294.79998779297</ele>
        <time>2022-05-22T08:00:04.000Z</time>
      </trkpt>
      <trkpt lat="44.75227" lon="1.46826">
        <ele>296</ele>
        <time>2022-05-22T08:00:09.000Z</time>
      </trkpt>
      <trkpt lat="44.75227" lon="1.46856">
        <ele>297.20001220703</ele>
        <time>2022-05-22T08:00:16.000Z</time>
      </trkpt>
      <trkpt lat="44.75227" lon="1.46868">
        <ele>297.60000610352</ele>
        <time>2022-05-22T08:00:19.000Z</time>
      </trkpt>
      <trkpt lat="44.75225" lon="1.46877">
        <ele>298.79998779297</ele>
        <time>2022-05-22T08:00:22.000Z</time>
      </trkpt>
      <trkpt lat="44.75224" lon="1.46884">
        <ele>299.39999389648</ele>
        <time>2022-05-22T08:00:24.000Z</time>
      </trkpt>
      <trkpt lat="44.75222" lon="1.46888">
        <ele>300</ele>
        <time>2022-05-22T08:00:26.000Z</time>
      </trkpt>
      <trkpt lat="44.75221" lon="1.46895">
        <ele>300.60000610352</ele>
        <time>2022-05-22T08:00:29.000Z</time>
      </trkpt>
      <trkpt lat="44.7522" lon="1.46896">
        <ele>301.20001220703</ele>
        <time>2022-05-22T08:00:30.000Z</time>
      </trkpt>
      <trkpt lat="44.75217" lon="1.46903">
        <ele>302.20001220703</ele>
        <time>2022-05-22T08:00:33.000Z</time>
      </trkpt>
      <trkpt lat="44.75216" lon="1.46906">
        <ele>302.39999389648</ele>
        <time>2022-05-22T08:00:34.000Z</time>
      </trkpt>
      <trkpt lat="44.75214" lon="1.46908">
        <ele>302.79998779297</ele>
        <time>2022-05-22T08:00:35.000Z</time>
      </trkpt>
      <trkpt lat="44.75211" lon="1.46914">
        <ele>303.60000610352</ele>
        <time>2022-05-22T08:00:37.000Z</time>
      </trkpt>
      <trkpt lat="44.75207" lon="1.4692">
        <ele>304</ele>
        <time>2022-05-22T08:00:39.000Z</time>
      </trkpt>
      <trkpt lat="44.75205" lon="1.46925">
        <ele>304.60000610352</ele>
        <time>2022-05-22T08:00:41.000Z</time>
      </trkpt>
      <trkpt lat="44.75204" lon="1.46927">
        <ele>304.79998779297</ele>
        <time>2022-05-22T08:00:42.000Z</time>
      </trkpt>
      <trkpt lat="44.75199" lon="1.46934">
        <ele>305.60000610352</ele>
        <time>2022-05-22T08:00:45.000Z</time>
      </trkpt>
      <trkpt lat="44.75196" lon="1.46937">
        <ele>306.39999389648</ele>
        <time>2022-05-22T08:00:47.000Z</time>
      </trkpt>
      <trkpt lat="44.75195" lon="1.4694">
        <ele>306.79998779297</ele>
        <time>2022-05-22T08:00:48.000Z</time>
      </trkpt>
      <trkpt lat="44.75192" lon="1.46944">
        <ele>307.20001220703</ele>
        <time>2022-05-22T08:00:50.000Z</time>
      </trkpt>
      <trkpt lat="44.75187" lon="1.46953">
        <ele>308</ele>
        <time>2022-05-22T08:00:53.000Z</time>
      </trkpt>
      <trkpt lat="44.7518" lon="1.46962">
        <ele>309.20001220703</ele>
        <time>2022-05-22T08:00:57.000Z</time>
      </trkpt>
      <trkpt lat="44.75178" lon="1.46963">
        <ele>309.39999389648</ele>
        <time>2022-05-22T08:00:58.000Z</time>
      </trkpt>
      <trkpt lat="44.75173" lon="1.46971">
        <ele>310.39999389648</ele>
        <time>2022-05-22T08:01:02.000Z</time>
      </trkpt>
      <trkpt lat="44.75169" lon="1.46977">
        <ele>310.60000610352</ele>
        <time>2022-05-22T08:01:04.000Z</time>
      </trkpt>
      <trkpt lat="44.75166" lon="1.46984">
        <ele>311.79998779297</ele>
        <time>2022-05-22T08:01:07.000Z</time>
      </trkpt>
      <trkpt lat="44.75165" lon="1.46986">
        <ele>312</ele>
        <time>2022-05-22T08:01:08.000Z</time>
      </trkpt>
      <trkpt lat="44.75165" lon="1.46991">
        <ele>312.60000610352</ele>
        <time>2022-05-22T08:01:10.000Z</time>
      </trkpt>
      <trkpt lat="44.75168" lon="1.46995">
        <ele>313</ele>
        <time>2022-05-22T08:01:12.000Z</time>
      </trkpt>
      <trkpt lat="44.75173" lon="1.46999">
        <ele>313.20001220703</ele>
        <time>2022-05-22T08:01:15.000Z</time>
      </trkpt>
      <trkpt lat="44.75183" lon="1.47011">
        <ele>314</ele>
        <time>2022-05-22T08:01:23.000Z</time>
      </trkpt>
      <trkpt lat="44.75183" lon="1.47011">
        <ele>314</ele>
        <time>2022-05-22T08:01:24.000Z</time>
      </trkpt>
      <trkpt lat="44.75183" lon="1.47011">
        <ele>314</ele>
        <time>2022-05-22T08:01:28.000Z</time>
      </trkpt>
      <trkpt lat="44.75182" lon="1.47007">
        <ele>313.79998779297</ele>
        <time>2022-05-22T08:01:37.000Z</time>
      </trkpt>
      <trkpt lat="44.75182" lon="1.47007">
        <ele>314</ele>
        <time>2022-05-22T08:01:42.000Z</time>
      </trkpt>
      <trkpt lat="44.75182" lon="1.47007">
        <ele>314</ele>
        <time>2022-05-22T08:01:46.000Z</time>
      </trkpt>
      <trkpt lat="44.75182" lon="1.4701">
        <ele>314</ele>
        <time>2022-05-22T08:01:58.000Z</time>
      </trkpt>
      <trkpt lat="44.75182" lon="1.4701">
        <ele>313.79998779297</ele>
        <time>2022-05-22T08:02:02.000Z</time>
      </trkpt>
      <trkpt lat="44.75182" lon="1.47011">
        <ele>313.79998779297</ele>
        <time>2022-05-22T08:02:09.000Z</time>
      </trkpt>
      <trkpt lat="44.75182" lon="1.47011">
        <ele>313.60000610352</ele>
        <time>2022-05-22T08:02:16.000Z</time>
      </trkpt>
      <trkpt lat="44.75182" lon="1.47011">
        <ele>313.79998779297</ele>
        <time>2022-05-22T08:02:21.000Z</time>
      </trkpt>
      <trkpt lat="44.75182" lon="1.47011">
        <ele>313.79998779297</ele>
        <time>2022-05-22T08:02:28.000Z</time>
      </trkpt>
      <trkpt lat="44.75182" lon="1.47011">
        <ele>313.79998779297</ele>
        <time>2022-05-22T08:02:37.000Z</time>
      </trkpt>
      <trkpt lat="44.75182" lon="1.47011">
        <ele>313.60000610352</ele>
        <time>2022-05-22T08:02:43.000Z</time>
      </trkpt>
      <trkpt lat="44.75187" lon="1.47018">
        <ele>313.39999389648</ele>
        <time>2022-05-22T08:02:51.000Z</time>
      </trkpt>
      <trkpt lat="44.75193" lon="1.47026">
        <ele>313.20001220703</ele>
        <time>2022-05-22T08:02:53.000Z</time>
      </trkpt>
      <trkpt lat="44.752" lon="1.47035">
        <ele>312.79998779297</ele>
        <time>2022-05-22T08:02:55.000Z</time>
      </trkpt>
      <trkpt lat="44.75215" lon="1.47055">
        <ele>312.39999389648</ele>
        <time>2022-05-22T08:02:59.000Z</time>
      </trkpt>
      <trkpt lat="44.75217" lon="1.47059">
        <ele>312</ele>
        <time>2022-05-22T08:03:00.000Z</time>
      </trkpt>
      <trkpt lat="44.75221" lon="1.47064">
        <ele>311.60000610352</ele>
        <time>2022-05-22T08:03:01.000Z</time>
      </trkpt>
      <trkpt lat="44.75231" lon="1.47077">
        <ele>310.79998779297</ele>
        <time>2022-05-22T08:03:04.000Z</time>
      </trkpt>
      <trkpt lat="44.75234" lon="1.47081">
        <ele>310.60000610352</ele>
        <time>2022-05-22T08:03:05.000Z</time>
      </trkpt>
      <trkpt lat="44.75242" lon="1.47087">
        <ele>310.39999389648</ele>
        <time>2022-05-22T08:03:07.000Z</time>
      </trkpt>
      <trkpt lat="44.75253" lon="1.47089">
        <ele>310.20001220703</ele>
        <time>2022-05-22T08:03:09.000Z</time>
      </trkpt>
      <trkpt lat="44.75261" lon="1.47088">
        <ele>310</ele>
        <time>2022-05-22T08:03:11.000Z</time>
      </trkpt>
      <trkpt lat="44.75266" lon="1.47087">
        <ele>309.79998779297</ele>
        <time>2022-05-22T08:03:12.000Z</time>
      </trkpt>
      <trkpt lat="44.75275" lon="1.4709">
        <ele>309.60000610352</ele>
        <time>2022-05-22T08:03:14.000Z</time>
      </trkpt>
      <trkpt lat="44.75278" lon="1.47094">
        <ele>309.39999389648</ele>
        <time>2022-05-22T08:03:15.000Z</time>
      </trkpt>
      <trkpt lat="44.75283" lon="1.47105">
        <ele>308.79998779297</ele>
        <time>2022-05-22T08:03:18.000Z</time>
      </trkpt>
      <trkpt lat="44.75284" lon="1.47109">
        <ele>308.60000610352</ele>
        <time>2022-05-22T08:03:19.000Z</time>
      </trkpt>
      <trkpt lat="44.75284" lon="1.47113">
        <ele>308.60000610352</ele>
        <time>2022-05-22T08:03:20.000Z</time>
      </trkpt>
      <trkpt lat="44.75286" lon="1.47128">
        <ele>308.60000610352</ele>
        <time>2022-05-22T08:03:24.000Z</time>
      </trkpt>
      <trkpt lat="44.75285" lon="1.47133">
        <ele>308.60000610352</ele>
        <time>2022-05-22T08:03:25.000Z</time>
      </trkpt>
      <trkpt lat="44.75285" lon="1.4714">
        <ele>308.79998779297</ele>
        <time>2022-05-22T08:03:27.000Z</time>
      </trkpt>
      <trkpt lat="44.7529" lon="1.47159">
        <ele>309.20001220703</ele>
        <time>2022-05-22T08:03:32.000Z</time>
      </trkpt>
      <trkpt lat="44.75297" lon="1.47185">
        <ele>309.79998779297</ele>
        <time>2022-05-22T08:03:37.000Z</time>
      </trkpt>
      <trkpt lat="44.75298" lon="1.47191">
        <ele>310</ele>
        <time>2022-05-22T08:03:38.000Z</time>
      </trkpt>
      <trkpt lat="44.75301" lon="1.47203">
        <ele>310.20001220703</ele>
        <time>2022-05-22T08:03:40.000Z</time>
      </trkpt>
      <trkpt lat="44.75304" lon="1.47209">
        <ele>310.39999389648</ele>
        <time>2022-05-22T08:03:42.000Z</time>
      </trkpt>
      <trkpt lat="44.75321" lon="1.47212">
        <ele>310.39999389648</ele>
        <time>2022-05-22T08:03:46.000Z</time>
      </trkpt>
      <trkpt lat="44.75332" lon="1.47212">
        <ele>310.39999389648</ele>
        <time>2022-05-22T08:03:48.000Z</time>
      </trkpt>
      <trkpt lat="44.75348" lon="1.47212">
        <ele>310</ele>
        <time>2022-05-22T08:03:51.000Z</time>
      </trkpt>
      <trkpt lat="44.75367" lon="1.47208">
        <ele>308.60000610352</ele>
        <time>2022-05-22T08:03:54.000Z</time>
      </trkpt>
      <trkpt lat="44.75372" lon="1.47207">
        <ele>308.39999389648</ele>
        <time>2022-05-22T08:03:55.000Z</time>
      </trkpt>
      <trkpt lat="44.75378" lon="1.47204">
        <ele>308</ele>
        <time>2022-05-22T08:03:56.000Z</time>
      </trkpt>
      <trkpt lat="44.75384" lon="1.472">
        <ele>307.39999389648</ele>
        <time>2022-05-22T08:03:57.000Z</time>
      </trkpt>
      <trkpt lat="44.75396" lon="1.47192">
        <ele>306.39999389648</ele>
        <time>2022-05-22T08:03:59.000Z</time>
      </trkpt>
      <trkpt lat="44.75409" lon="1.47187">
        <ele>306</ele>
        <time>2022-05-22T08:04:01.000Z</time>
      </trkpt>
      <trkpt lat="44.75425" lon="1.47184">
        <ele>305.20001220703</ele>
        <time>2022-05-22T08:04:03.000Z</time>
      </trkpt>
      <trkpt lat="44.75442" lon="1.47185">
        <ele>304.20001220703</ele>
        <time>2022-05-22T08:04:05.000Z</time>
      </trkpt>
      <trkpt lat="44.75451" lon="1.47185">
        <ele>303</ele>
        <time>2022-05-22T08:04:06.000Z</time>
      </trkpt>
      <trkpt lat="44.75465" lon="1.47185">
        <ele>302.20001220703</ele>
        <time>2022-05-22T08:04:08.000Z</time>
      </trkpt>
      <trkpt lat="44.75469" lon="1.47183">
        <ele>302</ele>
        <time>2022-05-22T08:04:09.000Z</time>
      </trkpt>
      <trkpt lat="44.75472" lon="1.47181">
        <ele>301.39999389648</ele>
        <time>2022-05-22T08:04:10.000Z</time>
      </trkpt>
      <trkpt lat="44.75477" lon="1.47174">
        <ele>300.79998779297</ele>
        <time>2022-05-22T08:04:12.000Z</time>
      </trkpt>
      <trkpt lat="44.75487" lon="1.47154">
        <ele>300.20001220703</ele>
        <time>2022-05-22T08:04:17.000Z</time>
      </trkpt>
      <trkpt lat="44.75505" lon="1.47129">
        <ele>300</ele>
        <time>2022-05-22T08:04:24.000Z</time>
      </trkpt>
      <trkpt lat="44.75512" lon="1.47121">
        <ele>299.79998779297</ele>
        <time>2022-05-22T08:04:27.000Z</time>
      </trkpt>
      <trkpt lat="44.75516" lon="1.47118">
        <ele>299.60000610352</ele>
        <time>2022-05-22T08:04:29.000Z</time>
      </trkpt>
      <trkpt lat="44.75522" lon="1.4712">
        <ele>299.39999389648</ele>
        <time>2022-05-22T08:04:33.000Z</time>
      </trkpt>
      <trkpt lat="44.75522" lon="1.47122">
        <ele>299.39999389648</ele>
        <time>2022-05-22T08:04:34.000Z</time>
      </trkpt>
      <trkpt lat="44.75526" lon="1.47127">
        <ele>299.60000610352</ele>
        <time>2022-05-22T08:04:37.000Z</time>
      </trkpt>
      <trkpt lat="44.75532" lon="1.47136">
        <ele>300.39999389648</ele>
        <time>2022-05-22T08:04:41.000Z</time>
      </trkpt>
      <trkpt lat="44.75535" lon="1.47142">
        <ele>300.79998779297</ele>
        <time>2022-05-22T08:04:43.000Z</time>
      </trkpt>
      <trkpt lat="44.75539" lon="1.47146">
        <ele>301.39999389648</ele>
        <time>2022-05-22T08:04:45.000Z</time>
      </trkpt>
      <trkpt lat="44.75545" lon="1.47153">
        <ele>301.79998779297</ele>
        <time>2022-05-22T08:04:47.000Z</time>
      </trkpt>
      <trkpt lat="44.75555" lon="1.47165">
        <ele>303</ele>
        <time>2022-05-22T08:04:51.000Z</time>
      </trkpt>
      <trkpt lat="44.75562" lon="1.47175">
        <ele>303.60000610352</ele>
        <time>2022-05-22T08:04:54.000Z</time>
      </trkpt>
      <trkpt lat="44.75566" lon="1.47182">
        <ele>304</ele>
        <time>2022-05-22T08:04:56.000Z</time>
      </trkpt>
      <trkpt lat="44.7557" lon="1.47185">
        <ele>304.39999389648</ele>
        <time>2022-05-22T08:04:58.000Z</time>
      </trkpt>
      <trkpt lat="44.75578" lon="1.47196">
        <ele>305</ele>
        <time>2022-05-22T08:05:01.000Z</time>
      </trkpt>
      <trkpt lat="44.75585" lon="1.47205">
        <ele>306.20001220703</ele>
        <time>2022-05-22T08:05:05.000Z</time>
      </trkpt>
      <trkpt lat="44.75589" lon="1.4721">
        <ele>306.39999389648</ele>
        <time>2022-05-22T08:05:07.000Z</time>
      </trkpt>
      <trkpt lat="44.75592" lon="1.47215">
        <ele>307.60000610352</ele>
        <time>2022-05-22T08:05:09.000Z</time>
      </trkpt>
      <trkpt lat="44.75593" lon="1.47217">
        <ele>308.60000610352</ele>
        <time>2022-05-22T08:05:10.000Z</time>
      </trkpt>
      <trkpt lat="44.75595" lon="1.4722">
        <ele>309.60000610352</ele>
        <time>2022-05-22T08:05:12.000Z</time>
      </trkpt>
      <trkpt lat="44.75596" lon="1.47223">
        <ele>309.60000610352</ele>
        <time>2022-05-22T08:05:13.000Z</time>
      </trkpt>
      <trkpt lat="44.75602" lon="1.47231">
        <ele>310.79998779297</ele>
        <time>2022-05-22T08:05:17.000Z</time>
      </trkpt>
      <trkpt lat="44.75604" lon="1.47235">
        <ele>312</ele>
        <time>2022-05-22T08:05:19.000Z</time>
      </trkpt>
      <trkpt lat="44.75611" lon="1.47243">
        <ele>313.39999389648</ele>
        <time>2022-05-22T08:05:23.000Z</time>
      </trkpt>
      <trkpt lat="44.75615" lon="1.47249">
        <ele>314.20001220703</ele>
        <time>2022-05-22T08:05:26.000Z</time>
      </trkpt>
      <trkpt lat="44.75618" lon="1.47253">
        <ele>314.79998779297</ele>
        <time>2022-05-22T08:05:28.000Z</time>
      </trkpt>
      <trkpt lat="44.75622" lon="1.47258">
        <ele>316</ele>
        <time>2022-05-22T08:05:31.000Z</time>
      </trkpt>
      <trkpt lat="44.75628" lon="1.47266">
        <ele>317.39999389648</ele>
        <time>2022-05-22T08:05:36.000Z</time>
      </trkpt>
      <trkpt lat="44.75632" lon="1.47271">
        <ele>317.79998779297</ele>
        <time>2022-05-22T08:05:39.000Z</time>
      </trkpt>
      <trkpt lat="44.75636" lon="1.47277">
        <ele>318.60000610352</ele>
        <time>2022-05-22T08:05:42.000Z</time>
      </trkpt>
      <trkpt lat="44.7564" lon="1.47282">
        <ele>320</ele>
        <time>2022-05-22T08:05:45.000Z</time>
      </trkpt>
      <trkpt lat="44.75642" lon="1.47284">
        <ele>320.20001220703</ele>
        <time>2022-05-22T08:05:46.000Z</time>
      </trkpt>
      <trkpt lat="44.75648" lon="1.4729">
        <ele>321.20001220703</ele>
        <time>2022-05-22T08:05:50.000Z</time>
      </trkpt>
      <trkpt lat="44.75651" lon="1.47294">
        <ele>321.60000610352</ele>
        <time>2022-05-22T08:05:52.000Z</time>
      </trkpt>
      <trkpt lat="44.75656" lon="1.47301">
        <ele>322.39999389648</ele>
        <time>2022-05-22T08:05:55.000Z</time>
      </trkpt>
      <trkpt lat="44.75664" lon="1.4731">
        <ele>323.79998779297</ele>
        <time>2022-05-22T08:05:59.000Z</time>
      </trkpt>
      <trkpt lat="44.75665" lon="1.47313">
        <ele>324.20001220703</ele>
        <time>2022-05-22T08:06:00.000Z</time>
      </trkpt>
      <trkpt lat="44.75668" lon="1.47318">
        <ele>325</ele>
        <time>2022-05-22T08:06:02.000Z</time>
      </trkpt>
      <trkpt lat="44.75672" lon="1.47321">
        <ele>326</ele>
        <time>2022-05-22T08:06:04.000Z</time>
      </trkpt>
      <trkpt lat="44.75674" lon="1.47323">
        <ele>326.20001220703</ele>
        <time>2022-05-22T08:06:05.000Z</time>
      </trkpt>
      <trkpt lat="44.75678" lon="1.47328">
        <ele>326.79998779297</ele>
        <time>2022-05-22T08:06:08.000Z</time>
      </trkpt>
      <trkpt lat="44.75684" lon="1.47335">
        <ele>327.20001220703</ele>
        <time>2022-05-22T08:06:11.000Z</time>
      </trkpt>
      <trkpt lat="44.75685" lon="1.47337">
        <ele>327.39999389648</ele>
        <time>2022-05-22T08:06:12.000Z</time>
      </trkpt>
      <trkpt lat="44.75685" lon="1.47338">
        <ele>327.60000610352</ele>
        <time>2022-05-22T08:06:13.000Z</time>
      </trkpt>
      <trkpt lat="44.75687" lon="1.4734">
        <ele>327.79998779297</ele>
        <time>2022-05-22T08:06:14.000Z</time>
      </trkpt>
      <trkpt lat="44.75688" lon="1.47343">
        <ele>328.39999389648</ele>
        <time>2022-05-22T08:06:15.000Z</time>
      </trkpt>
      <trkpt lat="44.75692" lon="1.4735">
        <ele>329.79998779297</ele>
        <time>2022-05-22T08:06:18.000Z</time>
      </trkpt>
      <trkpt lat="44.75698" lon="1.47359">
        <ele>330.79998779297</ele>
        <time>2022-05-22T08:06:22.000Z</time>
      </trkpt>
      <trkpt lat="44.75699" lon="1.47361">
        <ele>331.20001220703</ele>
        <time>2022-05-22T08:06:23.000Z</time>
      </trkpt>
      <trkpt lat="44.75701" lon="1.47367">
        <ele>331.79998779297</ele>
        <time>2022-05-22T08:06:25.000Z</time>
      </trkpt>
      <trkpt lat="44.75702" lon="1.4737">
        <ele>332.20001220703</ele>
        <time>2022-05-22T08:06:26.000Z</time>
      </trkpt>
      <trkpt lat="44.75705" lon="1.47378">
        <ele>333.20001220703</ele>
        <time>2022-05-22T08:06:29.000Z</time>
      </trkpt>
      <trkpt lat="44.75711" lon="1.47394">
        <ele>334.20001220703</ele>
        <time>2022-05-22T08:06:34.000Z</time>
      </trkpt>
      <trkpt lat="44.75714" lon="1.474">
        <ele>334.39999389648</ele>
        <time>2022-05-22T08:06:36.000Z</time>
      </trkpt>
      <trkpt lat="44.75721" lon="1.4742">
        <ele>335.39999389648</ele>
        <time>2022-05-22T08:06:41.000Z</time>
      </trkpt>
      <trkpt lat="44.75722" lon="1.47423">
        <ele>335.60000610352</ele>
        <time>2022-05-22T08:06:42.000Z</time>
      </trkpt>
      <trkpt lat="44.75727" lon="1.47434">
        <ele>336.39999389648</ele>
        <time>2022-05-22T08:06:45.000Z</time>
      </trkpt>
      <trkpt lat="44.75732" lon="1.47445">
        <ele>337.20001220703</ele>
        <time>2022-05-22T08:06:48.000Z</time>
      </trkpt>
      <trkpt lat="44.75735" lon="1.47452">
        <ele>337.39999389648</ele>
        <time>2022-05-22T08:06:50.000Z</time>
      </trkpt>
      <trkpt lat="44.75735" lon="1.47455">
        <ele>337.79998779297</ele>
        <time>2022-05-22T08:06:51.000Z</time>
      </trkpt>
      <trkpt lat="44.75735" lon="1.47461">
        <ele>338</ele>
        <time>2022-05-22T08:06:53.000Z</time>
      </trkpt>
      <trkpt lat="44.75735" lon="1.47464">
        <ele>338</ele>
        <time>2022-05-22T08:06:54.000Z</time>
      </trkpt>
      <trkpt lat="44.75734" lon="1.47473">
        <ele>338.39999389648</ele>
        <time>2022-05-22T08:06:57.000Z</time>
      </trkpt>
      <trkpt lat="44.75735" lon="1.47483">
        <ele>339.20001220703</ele>
        <time>2022-05-22T08:07:00.000Z</time>
      </trkpt>
      <trkpt lat="44.75734" lon="1.47492">
        <ele>339.79998779297</ele>
        <time>2022-05-22T08:07:02.000Z</time>
      </trkpt>
      <trkpt lat="44.75733" lon="1.47496">
        <ele>340</ele>
        <time>2022-05-22T08:07:03.000Z</time>
      </trkpt>
      <trkpt lat="44.75733" lon="1.47503">
        <ele>340.39999389648</ele>
        <time>2022-05-22T08:07:05.000Z</time>
      </trkpt>
      <trkpt lat="44.75734" lon="1.47512">
        <ele>341</ele>
        <time>2022-05-22T08:07:07.000Z</time>
      </trkpt>
      <trkpt lat="44.75734" lon="1.4752">
        <ele>341.79998779297</ele>
        <time>2022-05-22T08:07:10.000Z</time>
      </trkpt>
      <trkpt lat="44.75734" lon="1.47523">
        <ele>342</ele>
        <time>2022-05-22T08:07:11.000Z</time>
      </trkpt>
      <trkpt lat="44.75734" lon="1.47526">
        <ele>342.39999389648</ele>
        <time>2022-05-22T08:07:12.000Z</time>
      </trkpt>
      <trkpt lat="44.75732" lon="1.47535">
        <ele>342.60000610352</ele>
        <time>2022-05-22T08:07:15.000Z</time>
      </trkpt>
      <trkpt lat="44.75732" lon="1.47544">
        <ele>343.60000610352</ele>
        <time>2022-05-22T08:07:18.000Z</time>
      </trkpt>
      <trkpt lat="44.75732" lon="1.47548">
        <ele>344.20001220703</ele>
        <time>2022-05-22T08:07:19.000Z</time>
      </trkpt>
      <trkpt lat="44.75731" lon="1.47551">
        <ele>344.39999389648</ele>
        <time>2022-05-22T08:07:20.000Z</time>
      </trkpt>
      <trkpt lat="44.7573" lon="1.47558">
        <ele>344.79998779297</ele>
        <time>2022-05-22T08:07:22.000Z</time>
      </trkpt>
      <trkpt lat="44.75728" lon="1.47569">
        <ele>345.20001220703</ele>
        <time>2022-05-22T08:07:25.000Z</time>
      </trkpt>
      <trkpt lat="44.75728" lon="1.47581">
        <ele>346</ele>
        <time>2022-05-22T08:07:28.000Z</time>
      </trkpt>
      <trkpt lat="44.75727" lon="1.47587">
        <ele>346.39999389648</ele>
        <time>2022-05-22T08:07:30.000Z</time>
      </trkpt>
      <trkpt lat="44.75728" lon="1.4759">
        <ele>346.79998779297</ele>
        <time>2022-05-22T08:07:31.000Z</time>
      </trkpt>
      <trkpt lat="44.75727" lon="1.47593">
        <ele>347.39999389648</ele>
        <time>2022-05-22T08:07:32.000Z</time>
      </trkpt>
      <trkpt lat="44.75729" lon="1.47604">
        <ele>348.60000610352</ele>
        <time>2022-05-22T08:07:35.000Z</time>
      </trkpt>
      <trkpt lat="44.7573" lon="1.47608">
        <ele>349</ele>
        <time>2022-05-22T08:07:36.000Z</time>
      </trkpt>
      <trkpt lat="44.75728" lon="1.47624">
        <ele>350</ele>
        <time>2022-05-22T08:07:40.000Z</time>
      </trkpt>
      <trkpt lat="44.75727" lon="1.47632">
        <ele>350.60000610352</ele>
        <time>2022-05-22T08:07:42.000Z</time>
      </trkpt>
      <trkpt lat="44.75726" lon="1.47637">
        <ele>351</ele>
        <time>2022-05-22T08:07:44.000Z</time>
      </trkpt>
      <trkpt lat="44.75725" lon="1.47646">
        <ele>351.79998779297</ele>
        <time>2022-05-22T08:07:47.000Z</time>
      </trkpt>
      <trkpt lat="44.75724" lon="1.47652">
        <ele>352.39999389648</ele>
        <time>2022-05-22T08:07:49.000Z</time>
      </trkpt>
      <trkpt lat="44.75721" lon="1.47664">
        <ele>353.60000610352</ele>
        <time>2022-05-22T08:07:53.000Z</time>
      </trkpt>
      <trkpt lat="44.75719" lon="1.4767">
        <ele>353.79998779297</ele>
        <time>2022-05-22T08:07:55.000Z</time>
      </trkpt>
      <trkpt lat="44.75713" lon="1.47683">
        <ele>354.79998779297</ele>
        <time>2022-05-22T08:07:59.000Z</time>
      </trkpt>
      <trkpt lat="44.75709" lon="1.47691">
        <ele>355.20001220703</ele>
        <time>2022-05-22T08:08:01.000Z</time>
      </trkpt>
      <trkpt lat="44.75705" lon="1.47709">
        <ele>355.60000610352</ele>
        <time>2022-05-22T08:08:06.000Z</time>
      </trkpt>
      <trkpt lat="44.75694" lon="1.47744">
        <ele>355.60000610352</ele>
        <time>2022-05-22T08:08:13.000Z</time>
      </trkpt>
      <trkpt lat="44.75688" lon="1.4776">
        <ele>355.60000610352</ele>
        <time>2022-05-22T08:08:17.000Z</time>
      </trkpt>
      <trkpt lat="44.75687" lon="1.47767">
        <ele>355.60000610352</ele>
        <time>2022-05-22T08:08:19.000Z</time>
      </trkpt>
      <trkpt lat="44.7567" lon="1.47797">
        <ele>356.20001220703</ele>
        <time>2022-05-22T08:08:27.000Z</time>
      </trkpt>
      <trkpt lat="44.75656" lon="1.4781">
        <ele>357.39999389648</ele>
        <time>2022-05-22T08:08:34.000Z</time>
      </trkpt>
      <trkpt lat="44.75649" lon="1.47812">
        <ele>358.39999389648</ele>
        <time>2022-05-22T08:08:38.000Z</time>
      </trkpt>
      <trkpt lat="44.75647" lon="1.47812">
        <ele>359</ele>
        <time>2022-05-22T08:08:39.000Z</time>
      </trkpt>
      <trkpt lat="44.75644" lon="1.47812">
        <ele>360</ele>
        <time>2022-05-22T08:08:41.000Z</time>
      </trkpt>
      <trkpt lat="44.75642" lon="1.47812">
        <ele>360.60000610352</ele>
        <time>2022-05-22T08:08:42.000Z</time>
      </trkpt>
      <trkpt lat="44.75639" lon="1.47814">
        <ele>361</ele>
        <time>2022-05-22T08:08:44.000Z</time>
      </trkpt>
      <trkpt lat="44.75637" lon="1.47815">
        <ele>361.20001220703</ele>
        <time>2022-05-22T08:08:45.000Z</time>
      </trkpt>
      <trkpt lat="44.75621" lon="1.4783">
        <ele>361.60000610352</ele>
        <time>2022-05-22T08:08:52.000Z</time>
      </trkpt>
      <trkpt lat="44.75609" lon="1.47845">
        <ele>361.60000610352</ele>
        <time>2022-05-22T08:08:56.000Z</time>
      </trkpt>
      <trkpt lat="44.75599" lon="1.47858">
        <ele>361.60000610352</ele>
        <time>2022-05-22T08:08:58.000Z</time>
      </trkpt>
      <trkpt lat="44.75586" lon="1.47876">
        <ele>361.60000610352</ele>
        <time>2022-05-22T08:09:03.000Z</time>
      </trkpt>
      <trkpt lat="44.75586" lon="1.47876">
        <ele>361.60000610352</ele>
        <time>2022-05-22T08:09:04.000Z</time>
      </trkpt>
      <trkpt lat="44.75569" lon="1.47901">
        <ele>361.79998779297</ele>
        <time>2022-05-22T08:09:09.000Z</time>
      </trkpt>
      <trkpt lat="44.75563" lon="1.47909">
        <ele>362</ele>
        <time>2022-05-22T08:09:12.000Z</time>
      </trkpt>
      <trkpt lat="44.75551" lon="1.47925">
        <ele>362.20001220703</ele>
        <time>2022-05-22T08:09:15.000Z</time>
      </trkpt>
      <trkpt lat="44.75539" lon="1.47943">
        <ele>362.79998779297</ele>
        <time>2022-05-22T08:09:20.000Z</time>
      </trkpt>
      <trkpt lat="44.75533" lon="1.47954">
        <ele>362.79998779297</ele>
        <time>2022-05-22T08:09:24.000Z</time>
      </trkpt>
      <trkpt lat="44.75526" lon="1.47969">
        <ele>363.20001220703</ele>
        <time>2022-05-22T08:09:29.000Z</time>
      </trkpt>
      <trkpt lat="44.75525" lon="1.47978">
        <ele>363.39999389648</ele>
        <time>2022-05-22T08:09:30.000Z</time>
      </trkpt>
      <trkpt lat="44.75525" lon="1.47987">
        <ele>363.60000610352</ele>
        <time>2022-05-22T08:09:32.000Z</time>
      </trkpt>
      <trkpt lat="44.75528" lon="1.47993">
        <ele>363.60000610352</ele>
        <time>2022-05-22T08:09:34.000Z</time>
      </trkpt>
      <trkpt lat="44.7553" lon="1.47994">
        <ele>363.79998779297</ele>
        <time>2022-05-22T08:09:35.000Z</time>
      </trkpt>
      <trkpt lat="44.75537" lon="1.47994">
        <ele>364</ele>
        <time>2022-05-22T08:09:38.000Z</time>
      </trkpt>
      <trkpt lat="44.75539" lon="1.47993">
        <ele>364.20001220703</ele>
        <time>2022-05-22T08:09:40.000Z</time>
      </trkpt>
      <trkpt lat="44.75547" lon="1.47988">
        <ele>364.39999389648</ele>
        <time>2022-05-22T08:09:45.000Z</time>
      </trkpt>
      <trkpt lat="44.75555" lon="1.47984">
        <ele>364.79998779297</ele>
        <time>2022-05-22T08:09:50.000Z</time>
      </trkpt>
      <trkpt lat="44.75554" lon="1.47984">
        <ele>364.79998779297</ele>
        <time>2022-05-22T08:09:51.000Z</time>
      </trkpt>
      <trkpt lat="44.75554" lon="1.47985">
        <ele>365.20001220703</ele>
        <time>2022-05-22T08:10:01.000Z</time>
      </trkpt>
      <trkpt lat="44.75554" lon="1.47985">
        <ele>365.20001220703</ele>
        <time>2022-05-22T08:10:04.000Z</time>
      </trkpt>
      <trkpt lat="44.75554" lon="1.47985">
        <ele>365.39999389648</ele>
        <time>2022-05-22T08:10:08.000Z</time>
      </trkpt>
      <trkpt lat="44.75554" lon="1.47985">
        <ele>365.20001220703</ele>
        <time>2022-05-22T08:10:16.000Z</time>
      </trkpt>
      <trkpt lat="44.75554" lon="1.47985">
        <ele>365.20001220703</ele>
        <time>2022-05-22T08:10:41.000Z</time>
      </trkpt>
      <trkpt lat="44.75554" lon="1.47985">
        <ele>364.79998779297</ele>
        <time>2022-05-22T08:10:59.000Z</time>
      </trkpt>
      <trkpt lat="44.75555" lon="1.47984">
        <ele>365.20001220703</ele>
        <time>2022-05-22T08:11:34.000Z</time>
      </trkpt>
      <trkpt lat="44.75555" lon="1.47984">
        <ele>365.39999389648</ele>
        <time>2022-05-22T08:12:00.000Z</time>
      </trkpt>
      <trkpt lat="44.75556" lon="1.47982">
        <ele>365.39999389648</ele>
        <time>2022-05-22T08:12:32.000Z</time>
      </trkpt>
      <trkpt lat="44.75556" lon="1.47982">
        <ele>365.79998779297</ele>
        <time>2022-05-22T08:13:07.000Z</time>
      </trkpt>
      <trkpt lat="44.75558" lon="1.47983">
        <ele>365.79998779297</ele>
        <time>2022-05-22T08:13:13.000Z</time>
      </trkpt>
      <trkpt lat="44.75561" lon="1.47982">
        <ele>365.79998779297</ele>
        <time>2022-05-22T08:13:15.000Z</time>
      </trkpt>
      <trkpt lat="44.75572" lon="1.47972">
        <ele>366.20001220703</ele>
        <time>2022-05-22T08:13:23.000Z</time>
      </trkpt>
      <trkpt lat="44.7559" lon="1.47961">
        <ele>366.39999389648</ele>
        <time>2022-05-22T08:13:29.000Z</time>
      </trkpt>
      <trkpt lat="44.75621" lon="1.47949">
        <ele>366.20001220703</ele>
        <time>2022-05-22T08:13:37.000Z</time>
      </trkpt>
      <trkpt lat="44.75645" lon="1.47945">
        <ele>365.79998779297</ele>
        <time>2022-05-22T08:13:44.000Z</time>
      </trkpt>
      <trkpt lat="44.75651" lon="1.47946">
        <ele>365.79998779297</ele>
        <time>2022-05-22T08:13:46.000Z</time>
      </trkpt>
      <trkpt lat="44.75659" lon="1.47949">
        <ele>365.79998779297</ele>
        <time>2022-05-22T08:13:49.000Z</time>
      </trkpt>
      <trkpt lat="44.75673" lon="1.47955">
        <ele>366</ele>
        <time>2022-05-22T08:13:54.000Z</time>
      </trkpt>
      <trkpt lat="44.75678" lon="1.47957">
        <ele>366.20001220703</ele>
        <time>2022-05-22T08:13:56.000Z</time>
      </trkpt>
      <trkpt lat="44.75679" lon="1.47959">
        <ele>366.39999389648</ele>
        <time>2022-05-22T08:13:57.000Z</time>
      </trkpt>
      <trkpt lat="44.75685" lon="1.47968">
        <ele>367</ele>
        <time>2022-05-22T08:14:01.000Z</time>
      </trkpt>
      <trkpt lat="44.75687" lon="1.47972">
        <ele>367.39999389648</ele>
        <time>2022-05-22T08:14:03.000Z</time>
      </trkpt>
      <trkpt lat="44.75693" lon="1.47979">
        <ele>368.39999389648</ele>
        <time>2022-05-22T08:14:06.000Z</time>
      </trkpt>
      <trkpt lat="44.75702" lon="1.47985">
        <ele>368.60000610352</ele>
        <time>2022-05-22T08:14:09.000Z</time>
      </trkpt>
      <trkpt lat="44.7572" lon="1.47997">
        <ele>368.79998779297</ele>
        <time>2022-05-22T08:14:15.000Z</time>
      </trkpt>
      <trkpt lat="44.75745" lon="1.48004">
        <ele>369</ele>
        <time>2022-05-22T08:14:22.000Z</time>
      </trkpt>
      <trkpt lat="44.7577" lon="1.4801">
        <ele>368.79998779297</ele>
        <time>2022-05-22T08:14:27.000Z</time>
      </trkpt>
      <trkpt lat="44.75797" lon="1.4802">
        <ele>368.39999389648</ele>
        <time>2022-05-22T08:14:31.000Z</time>
      </trkpt>
      <trkpt lat="44.75804" lon="1.48025">
        <ele>368.39999389648</ele>
        <time>2022-05-22T08:14:32.000Z</time>
      </trkpt>
      <trkpt lat="44.75817" lon="1.4804">
        <ele>367.79998779297</ele>
        <time>2022-05-22T08:14:34.000Z</time>
      </trkpt>
      <trkpt lat="44.75821" lon="1.48047">
        <ele>367.20001220703</ele>
        <time>2022-05-22T08:14:35.000Z</time>
      </trkpt>
      <trkpt lat="44.75824" lon="1.48058">
        <ele>366.79998779297</ele>
        <time>2022-05-22T08:14:36.000Z</time>
      </trkpt>
      <trkpt lat="44.75826" lon="1.48065">
        <ele>366</ele>
        <time>2022-05-22T08:14:37.000Z</time>
      </trkpt>
      <trkpt lat="44.7583" lon="1.4808">
        <ele>364.60000610352</ele>
        <time>2022-05-22T08:14:39.000Z</time>
      </trkpt>
      <trkpt lat="44.75835" lon="1.481">
        <ele>363.60000610352</ele>
        <time>2022-05-22T08:14:42.000Z</time>
      </trkpt>
      <trkpt lat="44.75842" lon="1.48135">
        <ele>364</ele>
        <time>2022-05-22T08:14:49.000Z</time>
      </trkpt>
      <trkpt lat="44.75847" lon="1.48161">
        <ele>365.60000610352</ele>
        <time>2022-05-22T08:14:55.000Z</time>
      </trkpt>
      <trkpt lat="44.75848" lon="1.48165">
        <ele>366</ele>
        <time>2022-05-22T08:14:56.000Z</time>
      </trkpt>
      <trkpt lat="44.75853" lon="1.48182">
        <ele>367</ele>
        <time>2022-05-22T08:15:00.000Z</time>
      </trkpt>
      <trkpt lat="44.75859" lon="1.48193">
        <ele>367.39999389648</ele>
        <time>2022-05-22T08:15:03.000Z</time>
      </trkpt>
      <trkpt lat="44.75874" lon="1.48201">
        <ele>368</ele>
        <time>2022-05-22T08:15:08.000Z</time>
      </trkpt>
      <trkpt lat="44.75891" lon="1.48203">
        <ele>368.39999389648</ele>
        <time>2022-05-22T08:15:14.000Z</time>
      </trkpt>
      <trkpt lat="44.7591" lon="1.48212">
        <ele>369</ele>
        <time>2022-05-22T08:15:21.000Z</time>
      </trkpt>
      <trkpt lat="44.75912" lon="1.48213">
        <ele>369</ele>
        <time>2022-05-22T08:15:22.000Z</time>
      </trkpt>
      <trkpt lat="44.75925" lon="1.48223">
        <ele>369.20001220703</ele>
        <time>2022-05-22T08:15:27.000Z</time>
      </trkpt>
      <trkpt lat="44.75947" lon="1.48237">
        <ele>369.39999389648</ele>
        <time>2022-05-22T08:15:33.000Z</time>
      </trkpt>
      <trkpt lat="44.7596" lon="1.48248">
        <ele>369.60000610352</ele>
        <time>2022-05-22T08:15:37.000Z</time>
      </trkpt>
      <trkpt lat="44.75982" lon="1.48256">
        <ele>369.79998779297</ele>
        <time>2022-05-22T08:15:43.000Z</time>
      </trkpt>
      <trkpt lat="44.76002" lon="1.48257">
        <ele>369.79998779297</ele>
        <time>2022-05-22T08:15:48.000Z</time>
      </trkpt>
      <trkpt lat="44.76023" lon="1.48257">
        <ele>369.79998779297</ele>
        <time>2022-05-22T08:15:53.000Z</time>
      </trkpt>
      <trkpt lat="44.76056" lon="1.48261">
        <ele>369</ele>
        <time>2022-05-22T08:15:59.000Z</time>
      </trkpt>
      <trkpt lat="44.76088" lon="1.48263">
        <ele>368</ele>
        <time>2022-05-22T08:16:03.000Z</time>
      </trkpt>
      <trkpt lat="44.76096" lon="1.48261">
        <ele>367.60000610352</ele>
        <time>2022-05-22T08:16:04.000Z</time>
      </trkpt>
      <trkpt lat="44.76111" lon="1.48256">
        <ele>366.60000610352</ele>
        <time>2022-05-22T08:16:06.000Z</time>
      </trkpt>
      <trkpt lat="44.76122" lon="1.48255">
        <ele>365.79998779297</ele>
        <time>2022-05-22T08:16:08.000Z</time>
      </trkpt>
      <trkpt lat="44.76127" lon="1.48255">
        <ele>365.60000610352</ele>
        <time>2022-05-22T08:16:09.000Z</time>
      </trkpt>
      <trkpt lat="44.76151" lon="1.48257">
        <ele>365.60000610352</ele>
        <time>2022-05-22T08:16:15.000Z</time>
      </trkpt>
      <trkpt lat="44.76159" lon="1.48258">
        <ele>366.79998779297</ele>
        <time>2022-05-22T08:16:17.000Z</time>
      </trkpt>
      <trkpt lat="44.76167" lon="1.48259">
        <ele>368</ele>
        <time>2022-05-22T08:16:19.000Z</time>
      </trkpt>
      <trkpt lat="44.76171" lon="1.48259">
        <ele>368.39999389648</ele>
        <time>2022-05-22T08:16:20.000Z</time>
      </trkpt>
      <trkpt lat="44.76178" lon="1.48261">
        <ele>369.20001220703</ele>
        <time>2022-05-22T08:16:23.000Z</time>
      </trkpt>
      <trkpt lat="44.7619" lon="1.48259">
        <ele>369.79998779297</ele>
        <time>2022-05-22T08:16:26.000Z</time>
      </trkpt>
      <trkpt lat="44.76197" lon="1.48257">
        <ele>370.60000610352</ele>
        <time>2022-05-22T08:16:28.000Z</time>
      </trkpt>
      <trkpt lat="44.76214" lon="1.48248">
        <ele>371.79998779297</ele>
        <time>2022-05-22T08:16:32.000Z</time>
      </trkpt>
      <trkpt lat="44.76229" lon="1.48237">
        <ele>372.79998779297</ele>
        <time>2022-05-22T08:16:36.000Z</time>
      </trkpt>
      <trkpt lat="44.76243" lon="1.48231">
        <ele>373.39999389648</ele>
        <time>2022-05-22T08:16:40.000Z</time>
      </trkpt>
      <trkpt lat="44.7625" lon="1.4823">
        <ele>374</ele>
        <time>2022-05-22T08:16:42.000Z</time>
      </trkpt>
      <trkpt lat="44.76263" lon="1.48224">
        <ele>375.39999389648</ele>
        <time>2022-05-22T08:16:46.000Z</time>
      </trkpt>
      <trkpt lat="44.76278" lon="1.48219">
        <ele>376.79998779297</ele>
        <time>2022-05-22T08:16:50.000Z</time>
      </trkpt>
      <trkpt lat="44.76289" lon="1.48211">
        <ele>377</ele>
        <time>2022-05-22T08:16:53.000Z</time>
      </trkpt>
      <trkpt lat="44.763" lon="1.482">
        <ele>377</ele>
        <time>2022-05-22T08:16:56.000Z</time>
      </trkpt>
      <trkpt lat="44.76309" lon="1.4819">
        <ele>377</ele>
        <time>2022-05-22T08:16:58.000Z</time>
      </trkpt>
      <trkpt lat="44.76315" lon="1.48185">
        <ele>377</ele>
        <time>2022-05-22T08:16:59.000Z</time>
      </trkpt>
      <trkpt lat="44.76335" lon="1.48173">
        <ele>376.39999389648</ele>
        <time>2022-05-22T08:17:02.000Z</time>
      </trkpt>
      <trkpt lat="44.76357" lon="1.48166">
        <ele>375.39999389648</ele>
        <time>2022-05-22T08:17:05.000Z</time>
      </trkpt>
      <trkpt lat="44.76364" lon="1.48165">
        <ele>375.20001220703</ele>
        <time>2022-05-22T08:17:06.000Z</time>
      </trkpt>
      <trkpt lat="44.76371" lon="1.48164">
        <ele>374.79998779297</ele>
        <time>2022-05-22T08:17:07.000Z</time>
      </trkpt>
      <trkpt lat="44.76378" lon="1.48164">
        <ele>374.39999389648</ele>
        <time>2022-05-22T08:17:08.000Z</time>
      </trkpt>
      <trkpt lat="44.7639" lon="1.48162">
        <ele>373.79998779297</ele>
        <time>2022-05-22T08:17:10.000Z</time>
      </trkpt>
      <trkpt lat="44.76401" lon="1.48157">
        <ele>373.60000610352</ele>
        <time>2022-05-22T08:17:12.000Z</time>
      </trkpt>
      <trkpt lat="44.76409" lon="1.48149">
        <ele>373.39999389648</ele>
        <time>2022-05-22T08:17:14.000Z</time>
      </trkpt>
      <trkpt lat="44.76415" lon="1.48142">
        <ele>373.20001220703</ele>
        <time>2022-05-22T08:17:16.000Z</time>
      </trkpt>
      <trkpt lat="44.76445" lon="1.481">
        <ele>373.60000610352</ele>
        <time>2022-05-22T08:17:25.000Z</time>
      </trkpt>
      <trkpt lat="44.76457" lon="1.48087">
        <ele>373.79998779297</ele>
        <time>2022-05-22T08:17:29.000Z</time>
      </trkpt>
      <trkpt lat="44.76467" lon="1.4808">
        <ele>373.79998779297</ele>
        <time>2022-05-22T08:17:32.000Z</time>
      </trkpt>
      <trkpt lat="44.76485" lon="1.48079">
        <ele>374</ele>
        <time>2022-05-22T08:17:37.000Z</time>
      </trkpt>
      <trkpt lat="44.76503" lon="1.48086">
        <ele>374.79998779297</ele>
        <time>2022-05-22T08:17:43.000Z</time>
      </trkpt>
      <trkpt lat="44.76506" lon="1.48088">
        <ele>375</ele>
        <time>2022-05-22T08:17:44.000Z</time>
      </trkpt>
      <trkpt lat="44.76514" lon="1.48096">
        <ele>375.79998779297</ele>
        <time>2022-05-22T08:17:47.000Z</time>
      </trkpt>
      <trkpt lat="44.76525" lon="1.48107">
        <ele>376.60000610352</ele>
        <time>2022-05-22T08:17:51.000Z</time>
      </trkpt>
      <trkpt lat="44.76528" lon="1.4811">
        <ele>377</ele>
        <time>2022-05-22T08:17:52.000Z</time>
      </trkpt>
      <trkpt lat="44.76534" lon="1.48118">
        <ele>377.60000610352</ele>
        <time>2022-05-22T08:17:55.000Z</time>
      </trkpt>
      <trkpt lat="44.76536" lon="1.48119">
        <ele>377.60000610352</ele>
        <time>2022-05-22T08:17:56.000Z</time>
      </trkpt>
      <trkpt lat="44.76543" lon="1.48114">
        <ele>378</ele>
        <time>2022-05-22T08:17:59.000Z</time>
      </trkpt>
      <trkpt lat="44.76545" lon="1.48111">
        <ele>378</ele>
        <time>2022-05-22T08:18:00.000Z</time>
      </trkpt>
      <trkpt lat="44.76555" lon="1.48092">
        <ele>377.79998779297</ele>
        <time>2022-05-22T08:18:04.000Z</time>
      </trkpt>
      <trkpt lat="44.76558" lon="1.48088">
        <ele>377.79998779297</ele>
        <time>2022-05-22T08:18:05.000Z</time>
      </trkpt>
      <trkpt lat="44.76572" lon="1.48067">
        <ele>376.79998779297</ele>
        <time>2022-05-22T08:18:09.000Z</time>
      </trkpt>
      <trkpt lat="44.76586" lon="1.48048">
        <ele>375.79998779297</ele>
        <time>2022-05-22T08:18:12.000Z</time>
      </trkpt>
      <trkpt lat="44.7659" lon="1.48041">
        <ele>375.39999389648</ele>
        <time>2022-05-22T08:18:13.000Z</time>
      </trkpt>
      <trkpt lat="44.76601" lon="1.48024">
        <ele>374.20001220703</ele>
        <time>2022-05-22T08:18:16.000Z</time>
      </trkpt>
      <trkpt lat="44.7661" lon="1.48011">
        <ele>373.79998779297</ele>
        <time>2022-05-22T08:18:18.000Z</time>
      </trkpt>
      <trkpt lat="44.76618" lon="1.47997">
        <ele>373</ele>
        <time>2022-05-22T08:18:20.000Z</time>
      </trkpt>
      <trkpt lat="44.76633" lon="1.47976">
        <ele>371.79998779297</ele>
        <time>2022-05-22T08:18:23.000Z</time>
      </trkpt>
      <trkpt lat="44.76641" lon="1.47962">
        <ele>370.60000610352</ele>
        <time>2022-05-22T08:18:25.000Z</time>
      </trkpt>
      <trkpt lat="44.76653" lon="1.47943">
        <ele>369.39999389648</ele>
        <time>2022-05-22T08:18:28.000Z</time>
      </trkpt>
      <trkpt lat="44.76663" lon="1.47929">
        <ele>368.60000610352</ele>
        <time>2022-05-22T08:18:31.000Z</time>
      </trkpt>
      <trkpt lat="44.76665" lon="1.47926">
        <ele>368.39999389648</ele>
        <time>2022-05-22T08:18:32.000Z</time>
      </trkpt>
      <trkpt lat="44.76668" lon="1.47924">
        <ele>367.60000610352</ele>
        <time>2022-05-22T08:18:34.000Z</time>
      </trkpt>
      <trkpt lat="44.76669" lon="1.47924">
        <ele>367.20001220703</ele>
        <time>2022-05-22T08:18:35.000Z</time>
      </trkpt>
      <trkpt lat="44.76669" lon="1.47929">
        <ele>366.60000610352</ele>
        <time>2022-05-22T08:18:38.000Z</time>
      </trkpt>
      <trkpt lat="44.76668" lon="1.4793">
        <ele>366.39999389648</ele>
        <time>2022-05-22T08:18:39.000Z</time>
      </trkpt>
      <trkpt lat="44.76665" lon="1.4793">
        <ele>366.20001220703</ele>
        <time>2022-05-22T08:18:40.000Z</time>
      </trkpt>
      <trkpt lat="44.76662" lon="1.47931">
        <ele>366.20001220703</ele>
        <time>2022-05-22T08:18:42.000Z</time>
      </trkpt>
      <trkpt lat="44.7666" lon="1.47935">
        <ele>366</ele>
        <time>2022-05-22T08:18:44.000Z</time>
      </trkpt>
      <trkpt lat="44.76662" lon="1.47943">
        <ele>366</ele>
        <time>2022-05-22T08:18:47.000Z</time>
      </trkpt>
      <trkpt lat="44.76666" lon="1.47946">
        <ele>366.20001220703</ele>
        <time>2022-05-22T08:18:49.000Z</time>
      </trkpt>
      <trkpt lat="44.76677" lon="1.47961">
        <ele>366</ele>
        <time>2022-05-22T08:18:54.000Z</time>
      </trkpt>
      <trkpt lat="44.76687" lon="1.47972">
        <ele>365.20001220703</ele>
        <time>2022-05-22T08:18:59.000Z</time>
      </trkpt>
      <trkpt lat="44.76691" lon="1.47977">
        <ele>364.39999389648</ele>
        <time>2022-05-22T08:19:02.000Z</time>
      </trkpt>
      <trkpt lat="44.76692" lon="1.47978">
        <ele>364</ele>
        <time>2022-05-22T08:19:03.000Z</time>
      </trkpt>
      <trkpt lat="44.76692" lon="1.47978">
        <ele>362.79998779297</ele>
        <time>2022-05-22T08:19:07.000Z</time>
      </trkpt>
      <trkpt lat="44.76699" lon="1.47987">
        <ele>361.79998779297</ele>
        <time>2022-05-22T08:19:14.000Z</time>
      </trkpt>
      <trkpt lat="44.76701" lon="1.47991">
        <ele>361.79998779297</ele>
        <time>2022-05-22T08:19:15.000Z</time>
      </trkpt>
      <trkpt lat="44.76714" lon="1.48003">
        <ele>361.79998779297</ele>
        <time>2022-05-22T08:19:19.000Z</time>
      </trkpt>
      <trkpt lat="44.76723" lon="1.48006">
        <ele>361.60000610352</ele>
        <time>2022-05-22T08:19:21.000Z</time>
      </trkpt>
      <trkpt lat="44.76738" lon="1.48005">
        <ele>361.20001220703</ele>
        <time>2022-05-22T08:19:24.000Z</time>
      </trkpt>
      <trkpt lat="44.76747" lon="1.48004">
        <ele>360.79998779297</ele>
        <time>2022-05-22T08:19:26.000Z</time>
      </trkpt>
      <trkpt lat="44.76755" lon="1.48009">
        <ele>359.79998779297</ele>
        <time>2022-05-22T08:19:28.000Z</time>
      </trkpt>
      <trkpt lat="44.76758" lon="1.48014">
        <ele>359.20001220703</ele>
        <time>2022-05-22T08:19:29.000Z</time>
      </trkpt>
      <trkpt lat="44.76762" lon="1.48019">
        <ele>358.79998779297</ele>
        <time>2022-05-22T08:19:30.000Z</time>
      </trkpt>
      <trkpt lat="44.76771" lon="1.4803">
        <ele>358.20001220703</ele>
        <time>2022-05-22T08:19:32.000Z</time>
      </trkpt>
      <trkpt lat="44.76775" lon="1.48035">
        <ele>357.60000610352</ele>
        <time>2022-05-22T08:19:33.000Z</time>
      </trkpt>
      <trkpt lat="44.76787" lon="1.48049">
        <ele>356.39999389648</ele>
        <time>2022-05-22T08:19:36.000Z</time>
      </trkpt>
      <trkpt lat="44.76792" lon="1.48059">
        <ele>355.20001220703</ele>
        <time>2022-05-22T08:19:38.000Z</time>
      </trkpt>
      <trkpt lat="44.76796" lon="1.48064">
        <ele>354.39999389648</ele>
        <time>2022-05-22T08:19:39.000Z</time>
      </trkpt>
      <trkpt lat="44.76799" lon="1.48068">
        <ele>353.20001220703</ele>
        <time>2022-05-22T08:19:40.000Z</time>
      </trkpt>
      <trkpt lat="44.76802" lon="1.48074">
        <ele>352.20001220703</ele>
        <time>2022-05-22T08:19:41.000Z</time>
      </trkpt>
      <trkpt lat="44.76806" lon="1.4808">
        <ele>351.79998779297</ele>
        <time>2022-05-22T08:19:42.000Z</time>
      </trkpt>
      <trkpt lat="44.7681" lon="1.48085">
        <ele>351.20001220703</ele>
        <time>2022-05-22T08:19:43.000Z</time>
      </trkpt>
      <trkpt lat="44.76816" lon="1.48098">
        <ele>350.39999389648</ele>
        <time>2022-05-22T08:19:46.000Z</time>
      </trkpt>
      <trkpt lat="44.7682" lon="1.48103">
        <ele>349.79998779297</ele>
        <time>2022-05-22T08:19:48.000Z</time>
      </trkpt>
      <trkpt lat="44.76827" lon="1.48111">
        <ele>349.20001220703</ele>
        <time>2022-05-22T08:19:51.000Z</time>
      </trkpt>
      <trkpt lat="44.76831" lon="1.48117">
        <ele>348.39999389648</ele>
        <time>2022-05-22T08:19:53.000Z</time>
      </trkpt>
      <trkpt lat="44.76836" lon="1.48121">
        <ele>348</ele>
        <time>2022-05-22T08:19:55.000Z</time>
      </trkpt>
      <trkpt lat="44.76842" lon="1.48124">
        <ele>347</ele>
        <time>2022-05-22T08:19:57.000Z</time>
      </trkpt>
      <trkpt lat="44.76849" lon="1.48127">
        <ele>346</ele>
        <time>2022-05-22T08:19:59.000Z</time>
      </trkpt>
      <trkpt lat="44.76857" lon="1.48134">
        <ele>344.60000610352</ele>
        <time>2022-05-22T08:20:01.000Z</time>
      </trkpt>
      <trkpt lat="44.76862" lon="1.48137">
        <ele>344</ele>
        <time>2022-05-22T08:20:02.000Z</time>
      </trkpt>
      <trkpt lat="44.76866" lon="1.48141">
        <ele>343.60000610352</ele>
        <time>2022-05-22T08:20:03.000Z</time>
      </trkpt>
      <trkpt lat="44.76873" lon="1.48148">
        <ele>342.39999389648</ele>
        <time>2022-05-22T08:20:05.000Z</time>
      </trkpt>
      <trkpt lat="44.76881" lon="1.48156">
        <ele>341.60000610352</ele>
        <time>2022-05-22T08:20:07.000Z</time>
      </trkpt>
      <trkpt lat="44.76886" lon="1.48161">
        <ele>341.60000610352</ele>
        <time>2022-05-22T08:20:08.000Z</time>
      </trkpt>
      <trkpt lat="44.76891" lon="1.48165">
        <ele>341</ele>
        <time>2022-05-22T08:20:09.000Z</time>
      </trkpt>
      <trkpt lat="44.76895" lon="1.4817">
        <ele>340.79998779297</ele>
        <time>2022-05-22T08:20:10.000Z</time>
      </trkpt>
      <trkpt lat="44.769" lon="1.48174">
        <ele>340.60000610352</ele>
        <time>2022-05-22T08:20:11.000Z</time>
      </trkpt>
      <trkpt lat="44.76904" lon="1.48176">
        <ele>340.39999389648</ele>
        <time>2022-05-22T08:20:12.000Z</time>
      </trkpt>
      <trkpt lat="44.76907" lon="1.48179">
        <ele>340</ele>
        <time>2022-05-22T08:20:13.000Z</time>
      </trkpt>
      <trkpt lat="44.76916" lon="1.48185">
        <ele>339.39999389648</ele>
        <time>2022-05-22T08:20:15.000Z</time>
      </trkpt>
      <trkpt lat="44.76919" lon="1.48188">
        <ele>339</ele>
        <time>2022-05-22T08:20:16.000Z</time>
      </trkpt>
      <trkpt lat="44.76931" lon="1.48203">
        <ele>338.39999389648</ele>
        <time>2022-05-22T08:20:20.000Z</time>
      </trkpt>
      <trkpt lat="44.76934" lon="1.48209">
        <ele>338</ele>
        <time>2022-05-22T08:20:21.000Z</time>
      </trkpt>
      <trkpt lat="44.76936" lon="1.48214">
        <ele>337.79998779297</ele>
        <time>2022-05-22T08:20:22.000Z</time>
      </trkpt>
      <trkpt lat="44.76937" lon="1.48219">
        <ele>337.60000610352</ele>
        <time>2022-05-22T08:20:23.000Z</time>
      </trkpt>
      <trkpt lat="44.76939" lon="1.48221">
        <ele>337.20001220703</ele>
        <time>2022-05-22T08:20:24.000Z</time>
      </trkpt>
      <trkpt lat="44.76943" lon="1.4823">
        <ele>336.60000610352</ele>
        <time>2022-05-22T08:20:26.000Z</time>
      </trkpt>
      <trkpt lat="44.76946" lon="1.48241">
        <ele>335.60000610352</ele>
        <time>2022-05-22T08:20:29.000Z</time>
      </trkpt>
      <trkpt lat="44.76946" lon="1.4825">
        <ele>334.79998779297</ele>
        <time>2022-05-22T08:20:31.000Z</time>
      </trkpt>
      <trkpt lat="44.76945" lon="1.48255">
        <ele>334.20001220703</ele>
        <time>2022-05-22T08:20:32.000Z</time>
      </trkpt>
      <trkpt lat="44.76945" lon="1.48269">
        <ele>333</ele>
        <time>2022-05-22T08:20:35.000Z</time>
      </trkpt>
      <trkpt lat="44.76947" lon="1.48277">
        <ele>331.79998779297</ele>
        <time>2022-05-22T08:20:37.000Z</time>
      </trkpt>
      <trkpt lat="44.7695" lon="1.48284">
        <ele>330.60000610352</ele>
        <time>2022-05-22T08:20:39.000Z</time>
      </trkpt>
      <trkpt lat="44.76953" lon="1.48292">
        <ele>330.20001220703</ele>
        <time>2022-05-22T08:20:41.000Z</time>
      </trkpt>
      <trkpt lat="44.76954" lon="1.48295">
        <ele>329.60000610352</ele>
        <time>2022-05-22T08:20:42.000Z</time>
      </trkpt>
      <trkpt lat="44.76959" lon="1.4831">
        <ele>328</ele>
        <time>2022-05-22T08:20:46.000Z</time>
      </trkpt>
      <trkpt lat="44.7696" lon="1.48318">
        <ele>327</ele>
        <time>2022-05-22T08:20:48.000Z</time>
      </trkpt>
      <trkpt lat="44.76961" lon="1.48326">
        <ele>325.79998779297</ele>
        <time>2022-05-22T08:20:50.000Z</time>
      </trkpt>
      <trkpt lat="44.76962" lon="1.48329">
        <ele>325.20001220703</ele>
        <time>2022-05-22T08:20:51.000Z</time>
      </trkpt>
      <trkpt lat="44.76964" lon="1.48337">
        <ele>324.60000610352</ele>
        <time>2022-05-22T08:20:53.000Z</time>
      </trkpt>
      <trkpt lat="44.76968" lon="1.48349">
        <ele>323</ele>
        <time>2022-05-22T08:20:56.000Z</time>
      </trkpt>
      <trkpt lat="44.7697" lon="1.48356">
        <ele>322</ele>
        <time>2022-05-22T08:20:58.000Z</time>
      </trkpt>
      <trkpt lat="44.76973" lon="1.48367">
        <ele>321</ele>
        <time>2022-05-22T08:21:01.000Z</time>
      </trkpt>
      <trkpt lat="44.76975" lon="1.48373">
        <ele>320.60000610352</ele>
        <time>2022-05-22T08:21:03.000Z</time>
      </trkpt>
      <trkpt lat="44.76979" lon="1.48378">
        <ele>320.20001220703</ele>
        <time>2022-05-22T08:21:05.000Z</time>
      </trkpt>
      <trkpt lat="44.76982" lon="1.48385">
        <ele>319.60000610352</ele>
        <time>2022-05-22T08:21:07.000Z</time>
      </trkpt>
      <trkpt lat="44.76987" lon="1.48397">
        <ele>318.39999389648</ele>
        <time>2022-05-22T08:21:11.000Z</time>
      </trkpt>
      <trkpt lat="44.76991" lon="1.48409">
        <ele>316.79998779297</ele>
        <time>2022-05-22T08:21:15.000Z</time>
      </trkpt>
      <trkpt lat="44.76992" lon="1.48411">
        <ele>316.39999389648</ele>
        <time>2022-05-22T08:21:16.000Z</time>
      </trkpt>
      <trkpt lat="44.76993" lon="1.48414">
        <ele>315.60000610352</ele>
        <time>2022-05-22T08:21:17.000Z</time>
      </trkpt>
      <trkpt lat="44.76997" lon="1.48424">
        <ele>314.60000610352</ele>
        <time>2022-05-22T08:21:20.000Z</time>
      </trkpt>
      <trkpt lat="44.77001" lon="1.48434">
        <ele>313.79998779297</ele>
        <time>2022-05-22T08:21:23.000Z</time>
      </trkpt>
      <trkpt lat="44.77002" lon="1.48436">
        <ele>312.79998779297</ele>
        <time>2022-05-22T08:21:24.000Z</time>
      </trkpt>
      <trkpt lat="44.77003" lon="1.48439">
        <ele>312.60000610352</ele>
        <time>2022-05-22T08:21:25.000Z</time>
      </trkpt>
      <trkpt lat="44.77005" lon="1.48446">
        <ele>311.60000610352</ele>
        <time>2022-05-22T08:21:27.000Z</time>
      </trkpt>
      <trkpt lat="44.77006" lon="1.48456">
        <ele>310.39999389648</ele>
        <time>2022-05-22T08:21:30.000Z</time>
      </trkpt>
      <trkpt lat="44.77006" lon="1.4846">
        <ele>310</ele>
        <time>2022-05-22T08:21:31.000Z</time>
      </trkpt>
      <trkpt lat="44.77005" lon="1.48478">
        <ele>309.39999389648</ele>
        <time>2022-05-22T08:21:35.000Z</time>
      </trkpt>
      <trkpt lat="44.77007" lon="1.48492">
        <ele>308.39999389648</ele>
        <time>2022-05-22T08:21:38.000Z</time>
      </trkpt>
      <trkpt lat="44.7701" lon="1.48509">
        <ele>307.39999389648</ele>
        <time>2022-05-22T08:21:42.000Z</time>
      </trkpt>
      <trkpt lat="44.77011" lon="1.48521">
        <ele>306.20001220703</ele>
        <time>2022-05-22T08:21:45.000Z</time>
      </trkpt>
      <trkpt lat="44.77012" lon="1.48525">
        <ele>306</ele>
        <time>2022-05-22T08:21:46.000Z</time>
      </trkpt>
      <trkpt lat="44.77013" lon="1.48532">
        <ele>305</ele>
        <time>2022-05-22T08:21:48.000Z</time>
      </trkpt>
      <trkpt lat="44.77013" lon="1.48548">
        <ele>303.79998779297</ele>
        <time>2022-05-22T08:21:52.000Z</time>
      </trkpt>
      <trkpt lat="44.77012" lon="1.48552">
        <ele>303.60000610352</ele>
        <time>2022-05-22T08:21:53.000Z</time>
      </trkpt>
      <trkpt lat="44.77011" lon="1.4856">
        <ele>302.20001220703</ele>
        <time>2022-05-22T08:21:55.000Z</time>
      </trkpt>
      <trkpt lat="44.77009" lon="1.48576">
        <ele>301.20001220703</ele>
        <time>2022-05-22T08:21:59.000Z</time>
      </trkpt>
      <trkpt lat="44.77008" lon="1.48584">
        <ele>299.79998779297</ele>
        <time>2022-05-22T08:22:01.000Z</time>
      </trkpt>
      <trkpt lat="44.77005" lon="1.48594">
        <ele>298.39999389648</ele>
        <time>2022-05-22T08:22:04.000Z</time>
      </trkpt>
      <trkpt lat="44.77002" lon="1.48603">
        <ele>297.20001220703</ele>
        <time>2022-05-22T08:22:07.000Z</time>
      </trkpt>
      <trkpt lat="44.76997" lon="1.48611">
        <ele>296</ele>
        <time>2022-05-22T08:22:10.000Z</time>
      </trkpt>
      <trkpt lat="44.76992" lon="1.48619">
        <ele>294.79998779297</ele>
        <time>2022-05-22T08:22:13.000Z</time>
      </trkpt>
      <trkpt lat="44.76989" lon="1.48628">
        <ele>293.79998779297</ele>
        <time>2022-05-22T08:22:16.000Z</time>
      </trkpt>
      <trkpt lat="44.7699" lon="1.48635">
        <ele>292.79998779297</ele>
        <time>2022-05-22T08:22:18.000Z</time>
      </trkpt>
      <trkpt lat="44.76992" lon="1.48639">
        <ele>292</ele>
        <time>2022-05-22T08:22:20.000Z</time>
      </trkpt>
      <trkpt lat="44.76993" lon="1.48642">
        <ele>291.39999389648</ele>
        <time>2022-05-22T08:22:21.000Z</time>
      </trkpt>
      <trkpt lat="44.76997" lon="1.48646">
        <ele>290.60000610352</ele>
        <time>2022-05-22T08:22:23.000Z</time>
      </trkpt>
      <trkpt lat="44.77005" lon="1.4865">
        <ele>289.20001220703</ele>
        <time>2022-05-22T08:22:27.000Z</time>
      </trkpt>
      <trkpt lat="44.77007" lon="1.48652">
        <ele>288.79998779297</ele>
        <time>2022-05-22T08:22:28.000Z</time>
      </trkpt>
      <trkpt lat="44.7701" lon="1.48658">
        <ele>287.60000610352</ele>
        <time>2022-05-22T08:22:30.000Z</time>
      </trkpt>
      <trkpt lat="44.7701" lon="1.48667">
        <ele>286.39999389648</ele>
        <time>2022-05-22T08:22:33.000Z</time>
      </trkpt>
      <trkpt lat="44.7701" lon="1.48673">
        <ele>286</ele>
        <time>2022-05-22T08:22:35.000Z</time>
      </trkpt>
      <trkpt lat="44.7701" lon="1.48677">
        <ele>286</ele>
        <time>2022-05-22T08:22:36.000Z</time>
      </trkpt>
      <trkpt lat="44.77009" lon="1.4868">
        <ele>284.79998779297</ele>
        <time>2022-05-22T08:22:37.000Z</time>
      </trkpt>
      <trkpt lat="44.77008" lon="1.48684">
        <ele>284</ele>
        <time>2022-05-22T08:22:38.000Z</time>
      </trkpt>
      <trkpt lat="44.77008" lon="1.48689">
        <ele>282.79998779297</ele>
        <time>2022-05-22T08:22:39.000Z</time>
      </trkpt>
      <trkpt lat="44.77009" lon="1.48698">
        <ele>281.60000610352</ele>
        <time>2022-05-22T08:22:41.000Z</time>
      </trkpt>
      <trkpt lat="44.7701" lon="1.48707">
        <ele>280.39999389648</ele>
        <time>2022-05-22T08:22:43.000Z</time>
      </trkpt>
      <trkpt lat="44.7701" lon="1.48712">
        <ele>279.79998779297</ele>
        <time>2022-05-22T08:22:44.000Z</time>
      </trkpt>
      <trkpt lat="44.7701" lon="1.48716">
        <ele>279.20001220703</ele>
        <time>2022-05-22T08:22:45.000Z</time>
      </trkpt>
      <trkpt lat="44.77011" lon="1.48724">
        <ele>278</ele>
        <time>2022-05-22T08:22:47.000Z</time>
      </trkpt>
      <trkpt lat="44.77012" lon="1.48729">
        <ele>277.60000610352</ele>
        <time>2022-05-22T08:22:48.000Z</time>
      </trkpt>
      <trkpt lat="44.77012" lon="1.48732">
        <ele>277</ele>
        <time>2022-05-22T08:22:49.000Z</time>
      </trkpt>
      <trkpt lat="44.77017" lon="1.48741">
        <ele>275.60000610352</ele>
        <time>2022-05-22T08:22:52.000Z</time>
      </trkpt>
      <trkpt lat="44.77019" lon="1.4875">
        <ele>274</ele>
        <time>2022-05-22T08:22:54.000Z</time>
      </trkpt>
      <trkpt lat="44.77021" lon="1.48754">
        <ele>273.60000610352</ele>
        <time>2022-05-22T08:22:55.000Z</time>
      </trkpt>
      <trkpt lat="44.77021" lon="1.48757">
        <ele>273</ele>
        <time>2022-05-22T08:22:56.000Z</time>
      </trkpt>
      <trkpt lat="44.77018" lon="1.48769">
        <ele>272.20001220703</ele>
        <time>2022-05-22T08:22:58.000Z</time>
      </trkpt>
      <trkpt lat="44.77016" lon="1.48775">
        <ele>271.60000610352</ele>
        <time>2022-05-22T08:22:59.000Z</time>
      </trkpt>
      <trkpt lat="44.77014" lon="1.4878">
        <ele>270.60000610352</ele>
        <time>2022-05-22T08:23:00.000Z</time>
      </trkpt>
      <trkpt lat="44.77007" lon="1.48788">
        <ele>269.39999389648</ele>
        <time>2022-05-22T08:23:02.000Z</time>
      </trkpt>
      <trkpt lat="44.76999" lon="1.48804">
        <ele>268.20001220703</ele>
        <time>2022-05-22T08:23:05.000Z</time>
      </trkpt>
      <trkpt lat="44.76991" lon="1.48811">
        <ele>267.39999389648</ele>
        <time>2022-05-22T08:23:07.000Z</time>
      </trkpt>
      <trkpt lat="44.76987" lon="1.48813">
        <ele>267.20001220703</ele>
        <time>2022-05-22T08:23:08.000Z</time>
      </trkpt>
      <trkpt lat="44.76977" lon="1.48818">
        <ele>266.20001220703</ele>
        <time>2022-05-22T08:23:11.000Z</time>
      </trkpt>
      <trkpt lat="44.7697" lon="1.48823">
        <ele>265.39999389648</ele>
        <time>2022-05-22T08:23:14.000Z</time>
      </trkpt>
      <trkpt lat="44.76968" lon="1.48825">
        <ele>265.39999389648</ele>
        <time>2022-05-22T08:23:15.000Z</time>
      </trkpt>
      <trkpt lat="44.76967" lon="1.48825">
        <ele>265.20001220703</ele>
        <time>2022-05-22T08:23:16.000Z</time>
      </trkpt>
      <trkpt lat="44.76963" lon="1.48827">
        <ele>265.39999389648</ele>
        <time>2022-05-22T08:23:19.000Z</time>
      </trkpt>
      <trkpt lat="44.76945" lon="1.48836">
        <ele>265.79998779297</ele>
        <time>2022-05-22T08:23:25.000Z</time>
      </trkpt>
      <trkpt lat="44.76919" lon="1.48858">
        <ele>266.39999389648</ele>
        <time>2022-05-22T08:23:33.000Z</time>
      </trkpt>
      <trkpt lat="44.76905" lon="1.48864">
        <ele>267</ele>
        <time>2022-05-22T08:23:38.000Z</time>
      </trkpt>
      <trkpt lat="44.76903" lon="1.48866">
        <ele>267.20001220703</ele>
        <time>2022-05-22T08:23:39.000Z</time>
      </trkpt>
      <trkpt lat="44.76902" lon="1.48868">
        <ele>267.39999389648</ele>
        <time>2022-05-22T08:23:40.000Z</time>
      </trkpt>
      <trkpt lat="44.76898" lon="1.48882">
        <ele>267.39999389648</ele>
        <time>2022-05-22T08:23:44.000Z</time>
      </trkpt>
      <trkpt lat="44.769" lon="1.48887">
        <ele>267.60000610352</ele>
        <time>2022-05-22T08:23:46.000Z</time>
      </trkpt>
      <trkpt lat="44.76902" lon="1.48892">
        <ele>267.39999389648</ele>
        <time>2022-05-22T08:23:48.000Z</time>
      </trkpt>
      <trkpt lat="44.76903" lon="1.48897">
        <ele>267.39999389648</ele>
        <time>2022-05-22T08:23:50.000Z</time>
      </trkpt>
      <trkpt lat="44.76904" lon="1.48898">
        <ele>267.39999389648</ele>
        <time>2022-05-22T08:23:51.000Z</time>
      </trkpt>
      <trkpt lat="44.76911" lon="1.48905">
        <ele>267.20001220703</ele>
        <time>2022-05-22T08:23:55.000Z</time>
      </trkpt>
      <trkpt lat="44.76913" lon="1.48906">
        <ele>267.39999389648</ele>
        <time>2022-05-22T08:23:56.000Z</time>
      </trkpt>
      <trkpt lat="44.76914" lon="1.48907">
        <ele>267.60000610352</ele>
        <time>2022-05-22T08:23:59.000Z</time>
      </trkpt>
      <trkpt lat="44.76914" lon="1.48907">
        <ele>267.79998779297</ele>
        <time>2022-05-22T08:24:16.000Z</time>
      </trkpt>
      <trkpt lat="44.76914" lon="1.48907">
        <ele>267.79998779297</ele>
        <time>2022-05-22T08:24:17.000Z</time>
      </trkpt>
      <trkpt lat="44.76914" lon="1.48907">
        <ele>267.79998779297</ele>
        <time>2022-05-22T08:24:36.000Z</time>
      </trkpt>
      <trkpt lat="44.76914" lon="1.48907">
        <ele>267.79998779297</ele>
        <time>2022-05-22T08:24:40.000Z</time>
      </trkpt>
      <trkpt lat="44.76914" lon="1.48907">
        <ele>267.79998779297</ele>
        <time>2022-05-22T08:24:50.000Z</time>
      </trkpt>
      <trkpt lat="44.76914" lon="1.48907">
        <ele>267.79998779297</ele>
        <time>2022-05-22T08:24:59.000Z</time>
      </trkpt>
      <trkpt lat="44.76914" lon="1.48907">
        <ele>267.60000610352</ele>
        <time>2022-05-22T08:25:08.000Z</time>
      </trkpt>
      <trkpt lat="44.76914" lon="1.48907">
        <ele>267.79998779297</ele>
        <time>2022-05-22T08:25:43.000Z</time>
      </trkpt>
      <trkpt lat="44.76914" lon="1.48907">
        <ele>268.20001220703</ele>
        <time>2022-05-22T08:26:28.000Z</time>
      </trkpt>
      <trkpt lat="44.76914" lon="1.48907">
        <ele>268.20001220703</ele>
        <time>2022-05-22T08:26:35.000Z</time>
      </trkpt>
      <trkpt lat="44.76914" lon="1.48907">
        <ele>268.60000610352</ele>
        <time>2022-05-22T08:27:00.000Z</time>
      </trkpt>
      <trkpt lat="44.76914" lon="1.48907">
        <ele>268.60000610352</ele>
        <time>2022-05-22T08:27:50.000Z</time>
      </trkpt>
      <trkpt lat="44.76914" lon="1.48907">
        <ele>269</ele>
        <time>2022-05-22T08:28:24.000Z</time>
      </trkpt>
      <trkpt lat="44.76914" lon="1.48907">
        <ele>269</ele>
        <time>2022-05-22T08:28:41.000Z</time>
      </trkpt>
      <trkpt lat="44.76914" lon="1.48907">
        <ele>269.20001220703</ele>
        <time>2022-05-22T08:29:52.000Z</time>
      </trkpt>
      <trkpt lat="44.76914" lon="1.48907">
        <ele>269.39999389648</ele>
        <time>2022-05-22T08:30:01.000Z</time>
      </trkpt>
      <trkpt lat="44.76914" lon="1.48907">
        <ele>269.39999389648</ele>
        <time>2022-05-22T08:30:31.000Z</time>
      </trkpt>
      <trkpt lat="44.76914" lon="1.48907">
        <ele>269.60000610352</ele>
        <time>2022-05-22T08:31:11.000Z</time>
      </trkpt>
      <trkpt lat="44.76914" lon="1.48907">
        <ele>269.39999389648</ele>
        <time>2022-05-22T08:31:39.000Z</time>
      </trkpt>
      <trkpt lat="44.76915" lon="1.48907">
        <ele>269.39999389648</ele>
        <time>2022-05-22T08:31:46.000Z</time>
      </trkpt>
      <trkpt lat="44.76918" lon="1.48909">
        <ele>269.39999389648</ele>
        <time>2022-05-22T08:31:48.000Z</time>
      </trkpt>
      <trkpt lat="44.76925" lon="1.48917">
        <ele>269.39999389648</ele>
        <time>2022-05-22T08:31:53.000Z</time>
      </trkpt>
      <trkpt lat="44.76927" lon="1.4892">
        <ele>269.39999389648</ele>
        <time>2022-05-22T08:31:55.000Z</time>
      </trkpt>
      <trkpt lat="44.76936" lon="1.48926">
        <ele>269.79998779297</ele>
        <time>2022-05-22T08:32:01.000Z</time>
      </trkpt>
      <trkpt lat="44.76938" lon="1.48926">
        <ele>270</ele>
        <time>2022-05-22T08:32:03.000Z</time>
      </trkpt>
      <trkpt lat="44.76939" lon="1.48925">
        <ele>270.20001220703</ele>
        <time>2022-05-22T08:32:05.000Z</time>
      </trkpt>
      <trkpt lat="44.76944" lon="1.4892">
        <ele>270.20001220703</ele>
        <time>2022-05-22T08:32:08.000Z</time>
      </trkpt>
      <trkpt lat="44.76948" lon="1.48915">
        <ele>270.39999389648</ele>
        <time>2022-05-22T08:32:10.000Z</time>
      </trkpt>
      <trkpt lat="44.76954" lon="1.4891">
        <ele>270.39999389648</ele>
        <time>2022-05-22T08:32:13.000Z</time>
      </trkpt>
      <trkpt lat="44.76965" lon="1.48898">
        <ele>270.20001220703</ele>
        <time>2022-05-22T08:32:19.000Z</time>
      </trkpt>
      <trkpt lat="44.76971" lon="1.4889">
        <ele>270.20001220703</ele>
        <time>2022-05-22T08:32:23.000Z</time>
      </trkpt>
      <trkpt lat="44.76986" lon="1.4888">
        <ele>269.79998779297</ele>
        <time>2022-05-22T08:32:29.000Z</time>
      </trkpt>
      <trkpt lat="44.77001" lon="1.48873">
        <ele>269.39999389648</ele>
        <time>2022-05-22T08:32:34.000Z</time>
      </trkpt>
      <trkpt lat="44.77004" lon="1.48872">
        <ele>269.39999389648</ele>
        <time>2022-05-22T08:32:35.000Z</time>
      </trkpt>
      <trkpt lat="44.77015" lon="1.48869">
        <ele>269</ele>
        <time>2022-05-22T08:32:38.000Z</time>
      </trkpt>
      <trkpt lat="44.77021" lon="1.48868">
        <ele>268.79998779297</ele>
        <time>2022-05-22T08:32:40.000Z</time>
      </trkpt>
      <trkpt lat="44.7704" lon="1.48866">
        <ele>268.39999389648</ele>
        <time>2022-05-22T08:32:44.000Z</time>
      </trkpt>
      <trkpt lat="44.77045" lon="1.48866">
        <ele>268.20001220703</ele>
        <time>2022-05-22T08:32:45.000Z</time>
      </trkpt>
      <trkpt lat="44.77053" lon="1.48867">
        <ele>267.79998779297</ele>
        <time>2022-05-22T08:32:47.000Z</time>
      </trkpt>
      <trkpt lat="44.77059" lon="1.48869">
        <ele>267.39999389648</ele>
        <time>2022-05-22T08:32:49.000Z</time>
      </trkpt>
      <trkpt lat="44.77086" lon="1.48877">
        <ele>266.79998779297</ele>
        <time>2022-05-22T08:32:54.000Z</time>
      </trkpt>
      <trkpt lat="44.77093" lon="1.4888">
        <ele>266.79998779297</ele>
        <time>2022-05-22T08:32:55.000Z</time>
      </trkpt>
      <trkpt lat="44.77099" lon="1.4888">
        <ele>266.60000610352</ele>
        <time>2022-05-22T08:32:56.000Z</time>
      </trkpt>
      <trkpt lat="44.77118" lon="1.4888">
        <ele>266.20001220703</ele>
        <time>2022-05-22T08:32:59.000Z</time>
      </trkpt>
      <trkpt lat="44.77124" lon="1.48882">
        <ele>266.20001220703</ele>
        <time>2022-05-22T08:33:00.000Z</time>
      </trkpt>
      <trkpt lat="44.77148" lon="1.48886">
        <ele>265.79998779297</ele>
        <time>2022-05-22T08:33:05.000Z</time>
      </trkpt>
      <trkpt lat="44.77158" lon="1.48892">
        <ele>265.39999389648</ele>
        <time>2022-05-22T08:33:08.000Z</time>
      </trkpt>
      <trkpt lat="44.77168" lon="1.48897">
        <ele>264.79998779297</ele>
        <time>2022-05-22T08:33:11.000Z</time>
      </trkpt>
      <trkpt lat="44.77185" lon="1.48904">
        <ele>264</ele>
        <time>2022-05-22T08:33:16.000Z</time>
      </trkpt>
      <trkpt lat="44.77193" lon="1.48906">
        <ele>263.79998779297</ele>
        <time>2022-05-22T08:33:18.000Z</time>
      </trkpt>
      <trkpt lat="44.77217" lon="1.48916">
        <ele>263</ele>
        <time>2022-05-22T08:33:23.000Z</time>
      </trkpt>
      <trkpt lat="44.77222" lon="1.48918">
        <ele>263</ele>
        <time>2022-05-22T08:33:24.000Z</time>
      </trkpt>
      <trkpt lat="44.77233" lon="1.4892">
        <ele>262.60000610352</ele>
        <time>2022-05-22T08:33:26.000Z</time>
      </trkpt>
      <trkpt lat="44.77243" lon="1.48922">
        <ele>262.39999389648</ele>
        <time>2022-05-22T08:33:28.000Z</time>
      </trkpt>
      <trkpt lat="44.77249" lon="1.48923">
        <ele>262.20001220703</ele>
        <time>2022-05-22T08:33:29.000Z</time>
      </trkpt>
      <trkpt lat="44.77255" lon="1.48925">
        <ele>261.79998779297</ele>
        <time>2022-05-22T08:33:30.000Z</time>
      </trkpt>
      <trkpt lat="44.7728" lon="1.48932">
        <ele>261</ele>
        <time>2022-05-22T08:33:34.000Z</time>
      </trkpt>
      <trkpt lat="44.773" lon="1.48941">
        <ele>260.79998779297</ele>
        <time>2022-05-22T08:33:37.000Z</time>
      </trkpt>
      <trkpt lat="44.77305" lon="1.48943">
        <ele>260.79998779297</ele>
        <time>2022-05-22T08:33:38.000Z</time>
      </trkpt>
      <trkpt lat="44.77317" lon="1.48947">
        <ele>260.39999389648</ele>
        <time>2022-05-22T08:33:40.000Z</time>
      </trkpt>
      <trkpt lat="44.77339" lon="1.4895">
        <ele>259.79998779297</ele>
        <time>2022-05-22T08:33:44.000Z</time>
      </trkpt>
      <trkpt lat="44.77344" lon="1.48952">
        <ele>259.60000610352</ele>
        <time>2022-05-22T08:33:45.000Z</time>
      </trkpt>
      <trkpt lat="44.77355" lon="1.48953">
        <ele>259.60000610352</ele>
        <time>2022-05-22T08:33:47.000Z</time>
      </trkpt>
      <trkpt lat="44.77373" lon="1.48959">
        <ele>259.20001220703</ele>
        <time>2022-05-22T08:33:51.000Z</time>
      </trkpt>
      <trkpt lat="44.77382" lon="1.48965">
        <ele>258.60000610352</ele>
        <time>2022-05-22T08:33:53.000Z</time>
      </trkpt>
      <trkpt lat="44.77394" lon="1.48973">
        <ele>258</ele>
        <time>2022-05-22T08:33:56.000Z</time>
      </trkpt>
      <trkpt lat="44.77403" lon="1.48981">
        <ele>257.39999389648</ele>
        <time>2022-05-22T08:33:58.000Z</time>
      </trkpt>
      <trkpt lat="44.77415" lon="1.48991">
        <ele>256.60000610352</ele>
        <time>2022-05-22T08:34:01.000Z</time>
      </trkpt>
      <trkpt lat="44.77418" lon="1.48995">
        <ele>256.20001220703</ele>
        <time>2022-05-22T08:34:02.000Z</time>
      </trkpt>
      <trkpt lat="44.77438" lon="1.49017">
        <ele>255.80000305176</ele>
        <time>2022-05-22T08:34:06.000Z</time>
      </trkpt>
      <trkpt lat="44.77443" lon="1.49022">
        <ele>255.60000610352</ele>
        <time>2022-05-22T08:34:07.000Z</time>
      </trkpt>
      <trkpt lat="44.77456" lon="1.49037">
        <ele>255.19999694824</ele>
        <time>2022-05-22T08:34:10.000Z</time>
      </trkpt>
      <trkpt lat="44.77457" lon="1.49041">
        <ele>255.19999694824</ele>
        <time>2022-05-22T08:34:11.000Z</time>
      </trkpt>
      <trkpt lat="44.77468" lon="1.49053">
        <ele>255</ele>
        <time>2022-05-22T08:34:16.000Z</time>
      </trkpt>
      <trkpt lat="44.77478" lon="1.49065">
        <ele>255.39999389648</ele>
        <time>2022-05-22T08:34:20.000Z</time>
      </trkpt>
      <trkpt lat="44.77481" lon="1.49069">
        <ele>255.39999389648</ele>
        <time>2022-05-22T08:34:21.000Z</time>
      </trkpt>
      <trkpt lat="44.77496" lon="1.49085">
        <ele>255.39999389648</ele>
        <time>2022-05-22T08:34:25.000Z</time>
      </trkpt>
      <trkpt lat="44.775" lon="1.4909">
        <ele>255.39999389648</ele>
        <time>2022-05-22T08:34:26.000Z</time>
      </trkpt>
      <trkpt lat="44.77504" lon="1.49094">
        <ele>255.19999694824</ele>
        <time>2022-05-22T08:34:27.000Z</time>
      </trkpt>
      <trkpt lat="44.77511" lon="1.491">
        <ele>254.80000305176</ele>
        <time>2022-05-22T08:34:29.000Z</time>
      </trkpt>
      <trkpt lat="44.77514" lon="1.49103">
        <ele>254.80000305176</ele>
        <time>2022-05-22T08:34:30.000Z</time>
      </trkpt>
      <trkpt lat="44.77519" lon="1.49107">
        <ele>254.60000610352</ele>
        <time>2022-05-22T08:34:31.000Z</time>
      </trkpt>
      <trkpt lat="44.77527" lon="1.49116">
        <ele>254.39999389648</ele>
        <time>2022-05-22T08:34:33.000Z</time>
      </trkpt>
      <trkpt lat="44.77537" lon="1.49124">
        <ele>254.19999694824</ele>
        <time>2022-05-22T08:34:35.000Z</time>
      </trkpt>
      <trkpt lat="44.77541" lon="1.49127">
        <ele>254</ele>
        <time>2022-05-22T08:34:36.000Z</time>
      </trkpt>
      <trkpt lat="44.77556" lon="1.49138">
        <ele>253.80000305176</ele>
        <time>2022-05-22T08:34:39.000Z</time>
      </trkpt>
      <trkpt lat="44.77564" lon="1.49144">
        <ele>253.39999389648</ele>
        <time>2022-05-22T08:34:41.000Z</time>
      </trkpt>
      <trkpt lat="44.77575" lon="1.49153">
        <ele>253</ele>
        <time>2022-05-22T08:34:43.000Z</time>
      </trkpt>
      <trkpt lat="44.77605" lon="1.49179">
        <ele>251.80000305176</ele>
        <time>2022-05-22T08:34:48.000Z</time>
      </trkpt>
      <trkpt lat="44.77609" lon="1.49183">
        <ele>251.60000610352</ele>
        <time>2022-05-22T08:34:49.000Z</time>
      </trkpt>
      <trkpt lat="44.77624" lon="1.49192">
        <ele>251.19999694824</ele>
        <time>2022-05-22T08:34:52.000Z</time>
      </trkpt>
      <trkpt lat="44.7763" lon="1.49193">
        <ele>251</ele>
        <time>2022-05-22T08:34:53.000Z</time>
      </trkpt>
      <trkpt lat="44.77641" lon="1.49197">
        <ele>250.80000305176</ele>
        <time>2022-05-22T08:34:55.000Z</time>
      </trkpt>
      <trkpt lat="44.77646" lon="1.492">
        <ele>250.80000305176</ele>
        <time>2022-05-22T08:34:56.000Z</time>
      </trkpt>
      <trkpt lat="44.77651" lon="1.49204">
        <ele>250.80000305176</ele>
        <time>2022-05-22T08:34:57.000Z</time>
      </trkpt>
      <trkpt lat="44.77654" lon="1.49208">
        <ele>250.80000305176</ele>
        <time>2022-05-22T08:34:58.000Z</time>
      </trkpt>
      <trkpt lat="44.77659" lon="1.49212">
        <ele>250.80000305176</ele>
        <time>2022-05-22T08:35:00.000Z</time>
      </trkpt>
      <trkpt lat="44.77682" lon="1.49235">
        <ele>250.60000610352</ele>
        <time>2022-05-22T08:35:05.000Z</time>
      </trkpt>
      <trkpt lat="44.77691" lon="1.49246">
        <ele>250.39999389648</ele>
        <time>2022-05-22T08:35:07.000Z</time>
      </trkpt>
      <trkpt lat="44.77708" lon="1.49263">
        <ele>249.60000610352</ele>
        <time>2022-05-22T08:35:10.000Z</time>
      </trkpt>
      <trkpt lat="44.77721" lon="1.49282">
        <ele>249.19999694824</ele>
        <time>2022-05-22T08:35:13.000Z</time>
      </trkpt>
      <trkpt lat="44.77729" lon="1.49294">
        <ele>248.60000610352</ele>
        <time>2022-05-22T08:35:15.000Z</time>
      </trkpt>
      <trkpt lat="44.77733" lon="1.49299">
        <ele>248.19999694824</ele>
        <time>2022-05-22T08:35:16.000Z</time>
      </trkpt>
      <trkpt lat="44.77741" lon="1.49309">
        <ele>248</ele>
        <time>2022-05-22T08:35:18.000Z</time>
      </trkpt>
      <trkpt lat="44.77744" lon="1.49313">
        <ele>248</ele>
        <time>2022-05-22T08:35:19.000Z</time>
      </trkpt>
      <trkpt lat="44.77752" lon="1.49321">
        <ele>247.80000305176</ele>
        <time>2022-05-22T08:35:21.000Z</time>
      </trkpt>
      <trkpt lat="44.7776" lon="1.49329">
        <ele>247.39999389648</ele>
        <time>2022-05-22T08:35:23.000Z</time>
      </trkpt>
      <trkpt lat="44.77764" lon="1.49334">
        <ele>247.39999389648</ele>
        <time>2022-05-22T08:35:24.000Z</time>
      </trkpt>
      <trkpt lat="44.7777" lon="1.49344">
        <ele>247.39999389648</ele>
        <time>2022-05-22T08:35:26.000Z</time>
      </trkpt>
      <trkpt lat="44.77777" lon="1.49355">
        <ele>247.19999694824</ele>
        <time>2022-05-22T08:35:29.000Z</time>
      </trkpt>
      <trkpt lat="44.77791" lon="1.49366">
        <ele>247.39999389648</ele>
        <time>2022-05-22T08:35:34.000Z</time>
      </trkpt>
      <trkpt lat="44.77808" lon="1.4938">
        <ele>246.80000305176</ele>
        <time>2022-05-22T08:35:40.000Z</time>
      </trkpt>
      <trkpt lat="44.77815" lon="1.49403">
        <ele>246.19999694824</ele>
        <time>2022-05-22T08:35:46.000Z</time>
      </trkpt>
      <trkpt lat="44.77819" lon="1.49429">
        <ele>245.39999389648</ele>
        <time>2022-05-22T08:35:51.000Z</time>
      </trkpt>
      <trkpt lat="44.77821" lon="1.49436">
        <ele>245.19999694824</ele>
        <time>2022-05-22T08:35:52.000Z</time>
      </trkpt>
      <trkpt lat="44.77825" lon="1.4945">
        <ele>244</ele>
        <time>2022-05-22T08:35:54.000Z</time>
      </trkpt>
      <trkpt lat="44.77831" lon="1.49462">
        <ele>243.60000610352</ele>
        <time>2022-05-22T08:35:56.000Z</time>
      </trkpt>
      <trkpt lat="44.77837" lon="1.49471">
        <ele>243</ele>
        <time>2022-05-22T08:35:58.000Z</time>
      </trkpt>
      <trkpt lat="44.77846" lon="1.49484">
        <ele>242.60000610352</ele>
        <time>2022-05-22T08:36:01.000Z</time>
      </trkpt>
      <trkpt lat="44.77849" lon="1.49488">
        <ele>242.60000610352</ele>
        <time>2022-05-22T08:36:02.000Z</time>
      </trkpt>
      <trkpt lat="44.77854" lon="1.49498">
        <ele>242.39999389648</ele>
        <time>2022-05-22T08:36:04.000Z</time>
      </trkpt>
      <trkpt lat="44.77858" lon="1.4951">
        <ele>242.19999694824</ele>
        <time>2022-05-22T08:36:06.000Z</time>
      </trkpt>
      <trkpt lat="44.77861" lon="1.49523">
        <ele>241.80000305176</ele>
        <time>2022-05-22T08:36:08.000Z</time>
      </trkpt>
      <trkpt lat="44.77865" lon="1.49542">
        <ele>240.80000305176</ele>
        <time>2022-05-22T08:36:11.000Z</time>
      </trkpt>
      <trkpt lat="44.77868" lon="1.49547">
        <ele>240.19999694824</ele>
        <time>2022-05-22T08:36:12.000Z</time>
      </trkpt>
      <trkpt lat="44.77871" lon="1.49553">
        <ele>239.60000610352</ele>
        <time>2022-05-22T08:36:13.000Z</time>
      </trkpt>
      <trkpt lat="44.77882" lon="1.49558">
        <ele>239</ele>
        <time>2022-05-22T08:36:15.000Z</time>
      </trkpt>
      <trkpt lat="44.77905" lon="1.49561">
        <ele>237.60000610352</ele>
        <time>2022-05-22T08:36:19.000Z</time>
      </trkpt>
      <trkpt lat="44.77911" lon="1.49563">
        <ele>237</ele>
        <time>2022-05-22T08:36:20.000Z</time>
      </trkpt>
      <trkpt lat="44.77915" lon="1.49567">
        <ele>237</ele>
        <time>2022-05-22T08:36:21.000Z</time>
      </trkpt>
      <trkpt lat="44.77921" lon="1.49577">
        <ele>236.60000610352</ele>
        <time>2022-05-22T08:36:23.000Z</time>
      </trkpt>
      <trkpt lat="44.77922" lon="1.49583">
        <ele>236.39999389648</ele>
        <time>2022-05-22T08:36:24.000Z</time>
      </trkpt>
      <trkpt lat="44.77922" lon="1.49589">
        <ele>236.39999389648</ele>
        <time>2022-05-22T08:36:25.000Z</time>
      </trkpt>
      <trkpt lat="44.77921" lon="1.49602">
        <ele>236.39999389648</ele>
        <time>2022-05-22T08:36:27.000Z</time>
      </trkpt>
      <trkpt lat="44.77922" lon="1.49651">
        <ele>236</ele>
        <time>2022-05-22T08:36:34.000Z</time>
      </trkpt>
      <trkpt lat="44.77925" lon="1.49668">
        <ele>235.80000305176</ele>
        <time>2022-05-22T08:36:37.000Z</time>
      </trkpt>
      <trkpt lat="44.77927" lon="1.49682">
        <ele>235.60000610352</ele>
        <time>2022-05-22T08:36:39.000Z</time>
      </trkpt>
      <trkpt lat="44.77932" lon="1.49711">
        <ele>235.39999389648</ele>
        <time>2022-05-22T08:36:43.000Z</time>
      </trkpt>
      <trkpt lat="44.77936" lon="1.49727">
        <ele>235</ele>
        <time>2022-05-22T08:36:45.000Z</time>
      </trkpt>
      <trkpt lat="44.77948" lon="1.49757">
        <ele>234.19999694824</ele>
        <time>2022-05-22T08:36:49.000Z</time>
      </trkpt>
      <trkpt lat="44.77958" lon="1.49778">
        <ele>234</ele>
        <time>2022-05-22T08:36:52.000Z</time>
      </trkpt>
      <trkpt lat="44.77966" lon="1.49789">
        <ele>233.80000305176</ele>
        <time>2022-05-22T08:36:54.000Z</time>
      </trkpt>
      <trkpt lat="44.77979" lon="1.49806">
        <ele>232.80000305176</ele>
        <time>2022-05-22T08:36:57.000Z</time>
      </trkpt>
      <trkpt lat="44.77984" lon="1.49811">
        <ele>232.60000610352</ele>
        <time>2022-05-22T08:36:58.000Z</time>
      </trkpt>
      <trkpt lat="44.77988" lon="1.49816">
        <ele>232.39999389648</ele>
        <time>2022-05-22T08:36:59.000Z</time>
      </trkpt>
      <trkpt lat="44.78003" lon="1.49839">
        <ele>232.19999694824</ele>
        <time>2022-05-22T08:37:03.000Z</time>
      </trkpt>
      <trkpt lat="44.78025" lon="1.49874">
        <ele>231.80000305176</ele>
        <time>2022-05-22T08:37:09.000Z</time>
      </trkpt>
      <trkpt lat="44.7804" lon="1.49898">
        <ele>230.80000305176</ele>
        <time>2022-05-22T08:37:13.000Z</time>
      </trkpt>
      <trkpt lat="44.78044" lon="1.49904">
        <ele>230.60000610352</ele>
        <time>2022-05-22T08:37:14.000Z</time>
      </trkpt>
      <trkpt lat="44.78066" lon="1.49952">
        <ele>229.60000610352</ele>
        <time>2022-05-22T08:37:21.000Z</time>
      </trkpt>
      <trkpt lat="44.7807" lon="1.49958">
        <ele>229.60000610352</ele>
        <time>2022-05-22T08:37:22.000Z</time>
      </trkpt>
      <trkpt lat="44.78084" lon="1.49989">
        <ele>228.80000305176</ele>
        <time>2022-05-22T08:37:26.000Z</time>
      </trkpt>
      <trkpt lat="44.7809" lon="1.50006">
        <ele>228.19999694824</ele>
        <time>2022-05-22T08:37:28.000Z</time>
      </trkpt>
      <trkpt lat="44.78106" lon="1.50037">
        <ele>227</ele>
        <time>2022-05-22T08:37:32.000Z</time>
      </trkpt>
      <trkpt lat="44.7811" lon="1.50044">
        <ele>226.80000305176</ele>
        <time>2022-05-22T08:37:33.000Z</time>
      </trkpt>
      <trkpt lat="44.78123" lon="1.50072">
        <ele>226</ele>
        <time>2022-05-22T08:37:37.000Z</time>
      </trkpt>
      <trkpt lat="44.78128" lon="1.50087">
        <ele>225.80000305176</ele>
        <time>2022-05-22T08:37:39.000Z</time>
      </trkpt>
      <trkpt lat="44.7813" lon="1.50094">
        <ele>225.80000305176</ele>
        <time>2022-05-22T08:37:40.000Z</time>
      </trkpt>
      <trkpt lat="44.78136" lon="1.50125">
        <ele>225.39999389648</ele>
        <time>2022-05-22T08:37:44.000Z</time>
      </trkpt>
      <trkpt lat="44.78141" lon="1.50148">
        <ele>225</ele>
        <time>2022-05-22T08:37:47.000Z</time>
      </trkpt>
      <trkpt lat="44.78144" lon="1.50168">
        <ele>224.80000305176</ele>
        <time>2022-05-22T08:37:50.000Z</time>
      </trkpt>
      <trkpt lat="44.78144" lon="1.50175">
        <ele>224.60000610352</ele>
        <time>2022-05-22T08:37:51.000Z</time>
      </trkpt>
      <trkpt lat="44.7814" lon="1.50195">
        <ele>224.60000610352</ele>
        <time>2022-05-22T08:37:54.000Z</time>
      </trkpt>
      <trkpt lat="44.78138" lon="1.50209">
        <ele>224.39999389648</ele>
        <time>2022-05-22T08:37:56.000Z</time>
      </trkpt>
      <trkpt lat="44.78132" lon="1.5023">
        <ele>223.80000305176</ele>
        <time>2022-05-22T08:37:59.000Z</time>
      </trkpt>
      <trkpt lat="44.78114" lon="1.50278">
        <ele>222.39999389648</ele>
        <time>2022-05-22T08:38:06.000Z</time>
      </trkpt>
      <trkpt lat="44.78092" lon="1.5033">
        <ele>221.60000610352</ele>
        <time>2022-05-22T08:38:14.000Z</time>
      </trkpt>
      <trkpt lat="44.78087" lon="1.50343">
        <ele>221.39999389648</ele>
        <time>2022-05-22T08:38:16.000Z</time>
      </trkpt>
      <trkpt lat="44.78077" lon="1.50377">
        <ele>220.80000305176</ele>
        <time>2022-05-22T08:38:21.000Z</time>
      </trkpt>
      <trkpt lat="44.78071" lon="1.50406">
        <ele>220.39999389648</ele>
        <time>2022-05-22T08:38:26.000Z</time>
      </trkpt>
      <trkpt lat="44.7807" lon="1.50412">
        <ele>220.39999389648</ele>
        <time>2022-05-22T08:38:27.000Z</time>
      </trkpt>
      <trkpt lat="44.78068" lon="1.50424">
        <ele>220.60000610352</ele>
        <time>2022-05-22T08:38:29.000Z</time>
      </trkpt>
      <trkpt lat="44.78066" lon="1.50431">
        <ele>220.39999389648</ele>
        <time>2022-05-22T08:38:30.000Z</time>
      </trkpt>
      <trkpt lat="44.78063" lon="1.50437">
        <ele>220.39999389648</ele>
        <time>2022-05-22T08:38:31.000Z</time>
      </trkpt>
      <trkpt lat="44.78053" lon="1.50454">
        <ele>220.39999389648</ele>
        <time>2022-05-22T08:38:34.000Z</time>
      </trkpt>
      <trkpt lat="44.7805" lon="1.50461">
        <ele>220.39999389648</ele>
        <time>2022-05-22T08:38:35.000Z</time>
      </trkpt>
      <trkpt lat="44.78034" lon="1.50494">
        <ele>219.60000610352</ele>
        <time>2022-05-22T08:38:39.000Z</time>
      </trkpt>
      <trkpt lat="44.78027" lon="1.50513">
        <ele>219.19999694824</ele>
        <time>2022-05-22T08:38:41.000Z</time>
      </trkpt>
      <trkpt lat="44.7801" lon="1.50559">
        <ele>218</ele>
        <time>2022-05-22T08:38:46.000Z</time>
      </trkpt>
      <trkpt lat="44.7799" lon="1.50624">
        <ele>216.80000305176</ele>
        <time>2022-05-22T08:38:53.000Z</time>
      </trkpt>
      <trkpt lat="44.77988" lon="1.50633">
        <ele>216.39999389648</ele>
        <time>2022-05-22T08:38:54.000Z</time>
      </trkpt>
      <trkpt lat="44.77984" lon="1.50641">
        <ele>215.80000305176</ele>
        <time>2022-05-22T08:38:55.000Z</time>
      </trkpt>
      <trkpt lat="44.77981" lon="1.50649">
        <ele>215.60000610352</ele>
        <time>2022-05-22T08:38:56.000Z</time>
      </trkpt>
      <trkpt lat="44.77969" lon="1.50671">
        <ele>215</ele>
        <time>2022-05-22T08:38:59.000Z</time>
      </trkpt>
      <trkpt lat="44.77966" lon="1.50679">
        <ele>215</ele>
        <time>2022-05-22T08:39:00.000Z</time>
      </trkpt>
      <trkpt lat="44.77961" lon="1.50696">
        <ele>214.80000305176</ele>
        <time>2022-05-22T08:39:02.000Z</time>
      </trkpt>
      <trkpt lat="44.7796" lon="1.50705">
        <ele>214.80000305176</ele>
        <time>2022-05-22T08:39:03.000Z</time>
      </trkpt>
      <trkpt lat="44.77953" lon="1.50767">
        <ele>213.39999389648</ele>
        <time>2022-05-22T08:39:10.000Z</time>
      </trkpt>
      <trkpt lat="44.77952" lon="1.50831">
        <ele>212.39999389648</ele>
        <time>2022-05-22T08:39:18.000Z</time>
      </trkpt>
      <trkpt lat="44.77952" lon="1.50884">
        <ele>212</ele>
        <time>2022-05-22T08:39:25.000Z</time>
      </trkpt>
      <trkpt lat="44.77951" lon="1.50892">
        <ele>211.80000305176</ele>
        <time>2022-05-22T08:39:26.000Z</time>
      </trkpt>
      <trkpt lat="44.77943" lon="1.50929">
        <ele>211.80000305176</ele>
        <time>2022-05-22T08:39:31.000Z</time>
      </trkpt>
      <trkpt lat="44.7794" lon="1.50941">
        <ele>211.60000610352</ele>
        <time>2022-05-22T08:39:33.000Z</time>
      </trkpt>
      <trkpt lat="44.77935" lon="1.5097">
        <ele>211.39999389648</ele>
        <time>2022-05-22T08:39:37.000Z</time>
      </trkpt>
      <trkpt lat="44.77933" lon="1.50979">
        <ele>211.19999694824</ele>
        <time>2022-05-22T08:39:38.000Z</time>
      </trkpt>
      <trkpt lat="44.77923" lon="1.51017">
        <ele>210.80000305176</ele>
        <time>2022-05-22T08:39:42.000Z</time>
      </trkpt>
      <trkpt lat="44.77917" lon="1.51046">
        <ele>210</ele>
        <time>2022-05-22T08:39:45.000Z</time>
      </trkpt>
      <trkpt lat="44.77913" lon="1.51074">
        <ele>209.39999389648</ele>
        <time>2022-05-22T08:39:48.000Z</time>
      </trkpt>
      <trkpt lat="44.77912" lon="1.51102">
        <ele>208.60000610352</ele>
        <time>2022-05-22T08:39:51.000Z</time>
      </trkpt>
      <trkpt lat="44.77912" lon="1.51137">
        <ele>208</ele>
        <time>2022-05-22T08:39:55.000Z</time>
      </trkpt>
      <trkpt lat="44.77917" lon="1.51166">
        <ele>207.80000305176</ele>
        <time>2022-05-22T08:39:59.000Z</time>
      </trkpt>
      <trkpt lat="44.77919" lon="1.51172">
        <ele>207.80000305176</ele>
        <time>2022-05-22T08:40:00.000Z</time>
      </trkpt>
      <trkpt lat="44.77928" lon="1.51208">
        <ele>207.80000305176</ele>
        <time>2022-05-22T08:40:06.000Z</time>
      </trkpt>
      <trkpt lat="44.7793" lon="1.5124">
        <ele>207.80000305176</ele>
        <time>2022-05-22T08:40:10.000Z</time>
      </trkpt>
      <trkpt lat="44.7793" lon="1.51248">
        <ele>207.60000610352</ele>
        <time>2022-05-22T08:40:11.000Z</time>
      </trkpt>
      <trkpt lat="44.77933" lon="1.51273">
        <ele>207.39999389648</ele>
        <time>2022-05-22T08:40:14.000Z</time>
      </trkpt>
      <trkpt lat="44.77938" lon="1.51289">
        <ele>207.19999694824</ele>
        <time>2022-05-22T08:40:16.000Z</time>
      </trkpt>
      <trkpt lat="44.77946" lon="1.51309">
        <ele>207.19999694824</ele>
        <time>2022-05-22T08:40:19.000Z</time>
      </trkpt>
      <trkpt lat="44.77951" lon="1.51322">
        <ele>207.19999694824</ele>
        <time>2022-05-22T08:40:21.000Z</time>
      </trkpt>
      <trkpt lat="44.77953" lon="1.51328">
        <ele>206.80000305176</ele>
        <time>2022-05-22T08:40:22.000Z</time>
      </trkpt>
      <trkpt lat="44.77957" lon="1.51342">
        <ele>206.39999389648</ele>
        <time>2022-05-22T08:40:24.000Z</time>
      </trkpt>
      <trkpt lat="44.77962" lon="1.51357">
        <ele>206.39999389648</ele>
        <time>2022-05-22T08:40:26.000Z</time>
      </trkpt>
      <trkpt lat="44.77965" lon="1.51372">
        <ele>206.39999389648</ele>
        <time>2022-05-22T08:40:28.000Z</time>
      </trkpt>
      <trkpt lat="44.7797" lon="1.51388">
        <ele>206.19999694824</ele>
        <time>2022-05-22T08:40:30.000Z</time>
      </trkpt>
      <trkpt lat="44.77983" lon="1.5143">
        <ele>205.80000305176</ele>
        <time>2022-05-22T08:40:35.000Z</time>
      </trkpt>
      <trkpt lat="44.77986" lon="1.51439">
        <ele>205.19999694824</ele>
        <time>2022-05-22T08:40:36.000Z</time>
      </trkpt>
      <trkpt lat="44.7799" lon="1.51447">
        <ele>204.80000305176</ele>
        <time>2022-05-22T08:40:37.000Z</time>
      </trkpt>
      <trkpt lat="44.78004" lon="1.51469">
        <ele>204.19999694824</ele>
        <time>2022-05-22T08:40:40.000Z</time>
      </trkpt>
      <trkpt lat="44.78014" lon="1.51486">
        <ele>204.19999694824</ele>
        <time>2022-05-22T08:40:43.000Z</time>
      </trkpt>
      <trkpt lat="44.7802" lon="1.51497">
        <ele>204</ele>
        <time>2022-05-22T08:40:45.000Z</time>
      </trkpt>
      <trkpt lat="44.78041" lon="1.51545">
        <ele>202.80000305176</ele>
        <time>2022-05-22T08:40:52.000Z</time>
      </trkpt>
      <trkpt lat="44.78044" lon="1.51551">
        <ele>203</ele>
        <time>2022-05-22T08:40:53.000Z</time>
      </trkpt>
      <trkpt lat="44.78063" lon="1.51585">
        <ele>202.39999389648</ele>
        <time>2022-05-22T08:40:58.000Z</time>
      </trkpt>
      <trkpt lat="44.78086" lon="1.51636">
        <ele>201.80000305176</ele>
        <time>2022-05-22T08:41:05.000Z</time>
      </trkpt>
      <trkpt lat="44.78103" lon="1.51661">
        <ele>200.80000305176</ele>
        <time>2022-05-22T08:41:09.000Z</time>
      </trkpt>
      <trkpt lat="44.78115" lon="1.51681">
        <ele>200.19999694824</ele>
        <time>2022-05-22T08:41:12.000Z</time>
      </trkpt>
      <trkpt lat="44.78135" lon="1.51715">
        <ele>199.60000610352</ele>
        <time>2022-05-22T08:41:17.000Z</time>
      </trkpt>
      <trkpt lat="44.78149" lon="1.5174">
        <ele>199.19999694824</ele>
        <time>2022-05-22T08:41:21.000Z</time>
      </trkpt>
      <trkpt lat="44.78168" lon="1.51765">
        <ele>198.80000305176</ele>
        <time>2022-05-22T08:41:26.000Z</time>
      </trkpt>
      <trkpt lat="44.78171" lon="1.51769">
        <ele>198.60000610352</ele>
        <time>2022-05-22T08:41:27.000Z</time>
      </trkpt>
      <trkpt lat="44.78181" lon="1.51779">
        <ele>198.19999694824</ele>
        <time>2022-05-22T08:41:30.000Z</time>
      </trkpt>
      <trkpt lat="44.78184" lon="1.51782">
        <ele>198.19999694824</ele>
        <time>2022-05-22T08:41:31.000Z</time>
      </trkpt>
      <trkpt lat="44.78197" lon="1.51793">
        <ele>198</ele>
        <time>2022-05-22T08:41:34.000Z</time>
      </trkpt>
      <trkpt lat="44.78206" lon="1.51802">
        <ele>198.19999694824</ele>
        <time>2022-05-22T08:41:36.000Z</time>
      </trkpt>
      <trkpt lat="44.78226" lon="1.51828">
        <ele>198.19999694824</ele>
        <time>2022-05-22T08:41:41.000Z</time>
      </trkpt>
      <trkpt lat="44.78229" lon="1.51833">
        <ele>198.19999694824</ele>
        <time>2022-05-22T08:41:42.000Z</time>
      </trkpt>
      <trkpt lat="44.7826" lon="1.51884">
        <ele>198</ele>
        <time>2022-05-22T08:41:50.000Z</time>
      </trkpt>
      <trkpt lat="44.78274" lon="1.51908">
        <ele>197.60000610352</ele>
        <time>2022-05-22T08:41:53.000Z</time>
      </trkpt>
      <trkpt lat="44.78283" lon="1.51924">
        <ele>197</ele>
        <time>2022-05-22T08:41:55.000Z</time>
      </trkpt>
      <trkpt lat="44.78293" lon="1.5194">
        <ele>196.19999694824</ele>
        <time>2022-05-22T08:41:57.000Z</time>
      </trkpt>
      <trkpt lat="44.78308" lon="1.51962">
        <ele>195.39999389648</ele>
        <time>2022-05-22T08:42:00.000Z</time>
      </trkpt>
      <trkpt lat="44.78314" lon="1.51972">
        <ele>195</ele>
        <time>2022-05-22T08:42:01.000Z</time>
      </trkpt>
      <trkpt lat="44.78337" lon="1.52007">
        <ele>193.80000305176</ele>
        <time>2022-05-22T08:42:06.000Z</time>
      </trkpt>
      <trkpt lat="44.78342" lon="1.52016">
        <ele>193.80000305176</ele>
        <time>2022-05-22T08:42:07.000Z</time>
      </trkpt>
      <trkpt lat="44.78359" lon="1.5204">
        <ele>192.60000610352</ele>
        <time>2022-05-22T08:42:11.000Z</time>
      </trkpt>
      <trkpt lat="44.78365" lon="1.52047">
        <ele>192.39999389648</ele>
        <time>2022-05-22T08:42:12.000Z</time>
      </trkpt>
      <trkpt lat="44.78384" lon="1.52068">
        <ele>191.60000610352</ele>
        <time>2022-05-22T08:42:16.000Z</time>
      </trkpt>
      <trkpt lat="44.78394" lon="1.5208">
        <ele>191.39999389648</ele>
        <time>2022-05-22T08:42:18.000Z</time>
      </trkpt>
      <trkpt lat="44.78416" lon="1.52104">
        <ele>190.80000305176</ele>
        <time>2022-05-22T08:42:23.000Z</time>
      </trkpt>
      <trkpt lat="44.78435" lon="1.52129">
        <ele>190.80000305176</ele>
        <time>2022-05-22T08:42:28.000Z</time>
      </trkpt>
      <trkpt lat="44.7844" lon="1.5214">
        <ele>190.60000610352</ele>
        <time>2022-05-22T08:42:30.000Z</time>
      </trkpt>
      <trkpt lat="44.78443" lon="1.52145">
        <ele>190.39999389648</ele>
        <time>2022-05-22T08:42:31.000Z</time>
      </trkpt>
      <trkpt lat="44.78448" lon="1.52157">
        <ele>190.39999389648</ele>
        <time>2022-05-22T08:42:33.000Z</time>
      </trkpt>
      <trkpt lat="44.78455" lon="1.52173">
        <ele>190.19999694824</ele>
        <time>2022-05-22T08:42:36.000Z</time>
      </trkpt>
      <trkpt lat="44.78471" lon="1.52211">
        <ele>189.80000305176</ele>
        <time>2022-05-22T08:42:42.000Z</time>
      </trkpt>
      <trkpt lat="44.7848" lon="1.52226">
        <ele>189.39999389648</ele>
        <time>2022-05-22T08:42:44.000Z</time>
      </trkpt>
      <trkpt lat="44.78491" lon="1.52246">
        <ele>189</ele>
        <time>2022-05-22T08:42:47.000Z</time>
      </trkpt>
      <trkpt lat="44.78496" lon="1.52252">
        <ele>189</ele>
        <time>2022-05-22T08:42:48.000Z</time>
      </trkpt>
      <trkpt lat="44.78516" lon="1.52272">
        <ele>188.80000305176</ele>
        <time>2022-05-22T08:42:52.000Z</time>
      </trkpt>
      <trkpt lat="44.78528" lon="1.52289">
        <ele>188.80000305176</ele>
        <time>2022-05-22T08:42:56.000Z</time>
      </trkpt>
      <trkpt lat="44.78531" lon="1.52295">
        <ele>188.80000305176</ele>
        <time>2022-05-22T08:42:57.000Z</time>
      </trkpt>
      <trkpt lat="44.78533" lon="1.52301">
        <ele>188.60000610352</ele>
        <time>2022-05-22T08:42:58.000Z</time>
      </trkpt>
      <trkpt lat="44.78538" lon="1.52315">
        <ele>188.39999389648</ele>
        <time>2022-05-22T08:43:00.000Z</time>
      </trkpt>
      <trkpt lat="44.78543" lon="1.5233">
        <ele>188.19999694824</ele>
        <time>2022-05-22T08:43:02.000Z</time>
      </trkpt>
      <trkpt lat="44.78554" lon="1.52351">
        <ele>187.80000305176</ele>
        <time>2022-05-22T08:43:05.000Z</time>
      </trkpt>
      <trkpt lat="44.78563" lon="1.52363">
        <ele>187.60000610352</ele>
        <time>2022-05-22T08:43:07.000Z</time>
      </trkpt>
      <trkpt lat="44.78575" lon="1.52383">
        <ele>187.19999694824</ele>
        <time>2022-05-22T08:43:10.000Z</time>
      </trkpt>
      <trkpt lat="44.78589" lon="1.5241">
        <ele>186.39999389648</ele>
        <time>2022-05-22T08:43:14.000Z</time>
      </trkpt>
      <trkpt lat="44.78593" lon="1.52416">
        <ele>186.19999694824</ele>
        <time>2022-05-22T08:43:15.000Z</time>
      </trkpt>
      <trkpt lat="44.78596" lon="1.52421">
        <ele>186</ele>
        <time>2022-05-22T08:43:16.000Z</time>
      </trkpt>
      <trkpt lat="44.78601" lon="1.52427">
        <ele>185.60000610352</ele>
        <time>2022-05-22T08:43:17.000Z</time>
      </trkpt>
      <trkpt lat="44.78606" lon="1.52442">
        <ele>185.19999694824</ele>
        <time>2022-05-22T08:43:19.000Z</time>
      </trkpt>
      <trkpt lat="44.78606" lon="1.52458">
        <ele>185.19999694824</ele>
        <time>2022-05-22T08:43:21.000Z</time>
      </trkpt>
      <trkpt lat="44.78606" lon="1.52476">
        <ele>185</ele>
        <time>2022-05-22T08:43:23.000Z</time>
      </trkpt>
      <trkpt lat="44.78607" lon="1.52484">
        <ele>184.60000610352</ele>
        <time>2022-05-22T08:43:24.000Z</time>
      </trkpt>
      <trkpt lat="44.78611" lon="1.52507">
        <ele>184.19999694824</ele>
        <time>2022-05-22T08:43:27.000Z</time>
      </trkpt>
      <trkpt lat="44.78615" lon="1.52522">
        <ele>184</ele>
        <time>2022-05-22T08:43:29.000Z</time>
      </trkpt>
      <trkpt lat="44.7862" lon="1.52535">
        <ele>183.80000305176</ele>
        <time>2022-05-22T08:43:31.000Z</time>
      </trkpt>
      <trkpt lat="44.78627" lon="1.52549">
        <ele>183.80000305176</ele>
        <time>2022-05-22T08:43:33.000Z</time>
      </trkpt>
      <trkpt lat="44.78643" lon="1.52582">
        <ele>183.60000610352</ele>
        <time>2022-05-22T08:43:38.000Z</time>
      </trkpt>
      <trkpt lat="44.78646" lon="1.52596">
        <ele>183.60000610352</ele>
        <time>2022-05-22T08:43:40.000Z</time>
      </trkpt>
      <trkpt lat="44.78647" lon="1.52603">
        <ele>183.60000610352</ele>
        <time>2022-05-22T08:43:41.000Z</time>
      </trkpt>
      <trkpt lat="44.78648" lon="1.52616">
        <ele>184</ele>
        <time>2022-05-22T08:43:43.000Z</time>
      </trkpt>
      <trkpt lat="44.78649" lon="1.52621">
        <ele>184</ele>
        <time>2022-05-22T08:43:44.000Z</time>
      </trkpt>
      <trkpt lat="44.78652" lon="1.52636">
        <ele>184.39999389648</ele>
        <time>2022-05-22T08:43:47.000Z</time>
      </trkpt>
      <trkpt lat="44.78655" lon="1.52648">
        <ele>184.80000305176</ele>
        <time>2022-05-22T08:43:49.000Z</time>
      </trkpt>
      <trkpt lat="44.78656" lon="1.52652">
        <ele>185.19999694824</ele>
        <time>2022-05-22T08:43:50.000Z</time>
      </trkpt>
      <trkpt lat="44.7866" lon="1.52681">
        <ele>186.19999694824</ele>
        <time>2022-05-22T08:43:55.000Z</time>
      </trkpt>
      <trkpt lat="44.78662" lon="1.52691">
        <ele>186.80000305176</ele>
        <time>2022-05-22T08:43:57.000Z</time>
      </trkpt>
      <trkpt lat="44.78666" lon="1.52704">
        <ele>187.19999694824</ele>
        <time>2022-05-22T08:44:00.000Z</time>
      </trkpt>
      <trkpt lat="44.78668" lon="1.52711">
        <ele>187.60000610352</ele>
        <time>2022-05-22T08:44:02.000Z</time>
      </trkpt>
      <trkpt lat="44.78671" lon="1.52731">
        <ele>188.19999694824</ele>
        <time>2022-05-22T08:44:08.000Z</time>
      </trkpt>
      <trkpt lat="44.78668" lon="1.52739">
        <ele>188.39999389648</ele>
        <time>2022-05-22T08:44:10.000Z</time>
      </trkpt>
      <trkpt lat="44.78658" lon="1.52756">
        <ele>188.80000305176</ele>
        <time>2022-05-22T08:44:15.000Z</time>
      </trkpt>
      <trkpt lat="44.78652" lon="1.52768">
        <ele>189</ele>
        <time>2022-05-22T08:44:19.000Z</time>
      </trkpt>
      <trkpt lat="44.78652" lon="1.5277">
        <ele>189</ele>
        <time>2022-05-22T08:44:20.000Z</time>
      </trkpt>
      <trkpt lat="44.78652" lon="1.52777">
        <ele>189.39999389648</ele>
        <time>2022-05-22T08:44:22.000Z</time>
      </trkpt>
      <trkpt lat="44.78656" lon="1.52789">
        <ele>189.60000610352</ele>
        <time>2022-05-22T08:44:25.000Z</time>
      </trkpt>
      <trkpt lat="44.78679" lon="1.52813">
        <ele>189.39999389648</ele>
        <time>2022-05-22T08:44:31.000Z</time>
      </trkpt>
      <trkpt lat="44.78698" lon="1.52835">
        <ele>188.39999389648</ele>
        <time>2022-05-22T08:44:37.000Z</time>
      </trkpt>
      <trkpt lat="44.7871" lon="1.52846">
        <ele>187.60000610352</ele>
        <time>2022-05-22T08:44:42.000Z</time>
      </trkpt>
      <trkpt lat="44.78729" lon="1.52866">
        <ele>186.80000305176</ele>
        <time>2022-05-22T08:44:50.000Z</time>
      </trkpt>
      <trkpt lat="44.78735" lon="1.52873">
        <ele>186.60000610352</ele>
        <time>2022-05-22T08:44:53.000Z</time>
      </trkpt>
      <trkpt lat="44.7874" lon="1.52877">
        <ele>186.60000610352</ele>
        <time>2022-05-22T08:44:56.000Z</time>
      </trkpt>
      <trkpt lat="44.78746" lon="1.52883">
        <ele>186.39999389648</ele>
        <time>2022-05-22T08:45:00.000Z</time>
      </trkpt>
      <trkpt lat="44.78752" lon="1.52889">
        <ele>186.19999694824</ele>
        <time>2022-05-22T08:45:03.000Z</time>
      </trkpt>
      <trkpt lat="44.78758" lon="1.52895">
        <ele>186</ele>
        <time>2022-05-22T08:45:06.000Z</time>
      </trkpt>
      <trkpt lat="44.78772" lon="1.52905">
        <ele>186.19999694824</ele>
        <time>2022-05-22T08:45:12.000Z</time>
      </trkpt>
      <trkpt lat="44.78778" lon="1.52909">
        <ele>185.80000305176</ele>
        <time>2022-05-22T08:45:14.000Z</time>
      </trkpt>
      <trkpt lat="44.78799" lon="1.52916">
        <ele>185.19999694824</ele>
        <time>2022-05-22T08:45:21.000Z</time>
      </trkpt>
      <trkpt lat="44.78814" lon="1.52917">
        <ele>185</ele>
        <time>2022-05-22T08:45:26.000Z</time>
      </trkpt>
      <trkpt lat="44.78817" lon="1.52917">
        <ele>184.80000305176</ele>
        <time>2022-05-22T08:45:27.000Z</time>
      </trkpt>
      <trkpt lat="44.78823" lon="1.52916">
        <ele>184.60000610352</ele>
        <time>2022-05-22T08:45:29.000Z</time>
      </trkpt>
      <trkpt lat="44.78843" lon="1.52909">
        <ele>183.60000610352</ele>
        <time>2022-05-22T08:45:36.000Z</time>
      </trkpt>
      <trkpt lat="44.78849" lon="1.52904">
        <ele>183.60000610352</ele>
        <time>2022-05-22T08:45:38.000Z</time>
      </trkpt>
      <trkpt lat="44.78864" lon="1.52892">
        <ele>183.39999389648</ele>
        <time>2022-05-22T08:45:42.000Z</time>
      </trkpt>
      <trkpt lat="44.78891" lon="1.52865">
        <ele>182.80000305176</ele>
        <time>2022-05-22T08:45:48.000Z</time>
      </trkpt>
      <trkpt lat="44.78908" lon="1.52852">
        <ele>182</ele>
        <time>2022-05-22T08:45:51.000Z</time>
      </trkpt>
      <trkpt lat="44.78914" lon="1.52849">
        <ele>181.80000305176</ele>
        <time>2022-05-22T08:45:52.000Z</time>
      </trkpt>
      <trkpt lat="44.7892" lon="1.52846">
        <ele>181.19999694824</ele>
        <time>2022-05-22T08:45:53.000Z</time>
      </trkpt>
      <trkpt lat="44.78936" lon="1.5284">
        <ele>180.60000610352</ele>
        <time>2022-05-22T08:45:55.000Z</time>
      </trkpt>
      <trkpt lat="44.7896" lon="1.52837">
        <ele>180</ele>
        <time>2022-05-22T08:45:58.000Z</time>
      </trkpt>
      <trkpt lat="44.78968" lon="1.52836">
        <ele>179.80000305176</ele>
        <time>2022-05-22T08:45:59.000Z</time>
      </trkpt>
      <trkpt lat="44.78992" lon="1.52836">
        <ele>178.39999389648</ele>
        <time>2022-05-22T08:46:02.000Z</time>
      </trkpt>
      <trkpt lat="44.79017" lon="1.52837">
        <ele>177.39999389648</ele>
        <time>2022-05-22T08:46:05.000Z</time>
      </trkpt>
      <trkpt lat="44.79042" lon="1.52839">
        <ele>176.19999694824</ele>
        <time>2022-05-22T08:46:08.000Z</time>
      </trkpt>
      <trkpt lat="44.79064" lon="1.52842">
        <ele>175.19999694824</ele>
        <time>2022-05-22T08:46:11.000Z</time>
      </trkpt>
      <trkpt lat="44.79084" lon="1.52847">
        <ele>174.39999389648</ele>
        <time>2022-05-22T08:46:14.000Z</time>
      </trkpt>
      <trkpt lat="44.79088" lon="1.52849">
        <ele>174.19999694824</ele>
        <time>2022-05-22T08:46:15.000Z</time>
      </trkpt>
      <trkpt lat="44.79094" lon="1.52852">
        <ele>174</ele>
        <time>2022-05-22T08:46:16.000Z</time>
      </trkpt>
      <trkpt lat="44.79108" lon="1.52863">
        <ele>173.39999389648</ele>
        <time>2022-05-22T08:46:19.000Z</time>
      </trkpt>
      <trkpt lat="44.79112" lon="1.52868">
        <ele>173.39999389648</ele>
        <time>2022-05-22T08:46:20.000Z</time>
      </trkpt>
      <trkpt lat="44.79115" lon="1.52873">
        <ele>173.19999694824</ele>
        <time>2022-05-22T08:46:21.000Z</time>
      </trkpt>
      <trkpt lat="44.79119" lon="1.52883">
        <ele>173</ele>
        <time>2022-05-22T08:46:23.000Z</time>
      </trkpt>
      <trkpt lat="44.79122" lon="1.5289">
        <ele>173</ele>
        <time>2022-05-22T08:46:24.000Z</time>
      </trkpt>
      <trkpt lat="44.79123" lon="1.52894">
        <ele>173</ele>
        <time>2022-05-22T08:46:25.000Z</time>
      </trkpt>
      <trkpt lat="44.79126" lon="1.52905">
        <ele>173</ele>
        <time>2022-05-22T08:46:27.000Z</time>
      </trkpt>
      <trkpt lat="44.79129" lon="1.52924">
        <ele>173.39999389648</ele>
        <time>2022-05-22T08:46:30.000Z</time>
      </trkpt>
      <trkpt lat="44.79131" lon="1.52941">
        <ele>173.80000305176</ele>
        <time>2022-05-22T08:46:33.000Z</time>
      </trkpt>
      <trkpt lat="44.79132" lon="1.52946">
        <ele>174</ele>
        <time>2022-05-22T08:46:34.000Z</time>
      </trkpt>
      <trkpt lat="44.79131" lon="1.52959">
        <ele>174.19999694824</ele>
        <time>2022-05-22T08:46:36.000Z</time>
      </trkpt>
      <trkpt lat="44.7913" lon="1.52982">
        <ele>174.60000610352</ele>
        <time>2022-05-22T08:46:40.000Z</time>
      </trkpt>
      <trkpt lat="44.79129" lon="1.53011">
        <ele>175.19999694824</ele>
        <time>2022-05-22T08:46:45.000Z</time>
      </trkpt>
      <trkpt lat="44.7913" lon="1.53017">
        <ele>175.39999389648</ele>
        <time>2022-05-22T08:46:46.000Z</time>
      </trkpt>
      <trkpt lat="44.79132" lon="1.53038">
        <ele>176</ele>
        <time>2022-05-22T08:46:50.000Z</time>
      </trkpt>
      <trkpt lat="44.79137" lon="1.53046">
        <ele>176.19999694824</ele>
        <time>2022-05-22T08:46:52.000Z</time>
      </trkpt>
      <trkpt lat="44.79139" lon="1.5305">
        <ele>176.39999389648</ele>
        <time>2022-05-22T08:46:53.000Z</time>
      </trkpt>
      <trkpt lat="44.79153" lon="1.53067">
        <ele>177</ele>
        <time>2022-05-22T08:46:58.000Z</time>
      </trkpt>
      <trkpt lat="44.79158" lon="1.53074">
        <ele>177.60000610352</ele>
        <time>2022-05-22T08:47:00.000Z</time>
      </trkpt>
      <trkpt lat="44.79174" lon="1.53098">
        <ele>178.39999389648</ele>
        <time>2022-05-22T08:47:06.000Z</time>
      </trkpt>
      <trkpt lat="44.79177" lon="1.53102">
        <ele>178.39999389648</ele>
        <time>2022-05-22T08:47:07.000Z</time>
      </trkpt>
      <trkpt lat="44.7919" lon="1.53123">
        <ele>178.60000610352</ele>
        <time>2022-05-22T08:47:12.000Z</time>
      </trkpt>
      <trkpt lat="44.79197" lon="1.53136">
        <ele>179.19999694824</ele>
        <time>2022-05-22T08:47:15.000Z</time>
      </trkpt>
      <trkpt lat="44.79203" lon="1.53149">
        <ele>180</ele>
        <time>2022-05-22T08:47:18.000Z</time>
      </trkpt>
      <trkpt lat="44.79215" lon="1.53176">
        <ele>180.80000305176</ele>
        <time>2022-05-22T08:47:24.000Z</time>
      </trkpt>
      <trkpt lat="44.79217" lon="1.53181">
        <ele>181.19999694824</ele>
        <time>2022-05-22T08:47:25.000Z</time>
      </trkpt>
      <trkpt lat="44.79226" lon="1.53205">
        <ele>182.39999389648</ele>
        <time>2022-05-22T08:47:30.000Z</time>
      </trkpt>
      <trkpt lat="44.79228" lon="1.53209">
        <ele>182.60000610352</ele>
        <time>2022-05-22T08:47:31.000Z</time>
      </trkpt>
      <trkpt lat="44.79236" lon="1.53239">
        <ele>183.39999389648</ele>
        <time>2022-05-22T08:47:37.000Z</time>
      </trkpt>
      <trkpt lat="44.79237" lon="1.53243">
        <ele>183.39999389648</ele>
        <time>2022-05-22T08:47:38.000Z</time>
      </trkpt>
      <trkpt lat="44.79234" lon="1.53274">
        <ele>184.39999389648</ele>
        <time>2022-05-22T08:47:44.000Z</time>
      </trkpt>
      <trkpt lat="44.79226" lon="1.53291">
        <ele>185.80000305176</ele>
        <time>2022-05-22T08:47:49.000Z</time>
      </trkpt>
      <trkpt lat="44.79222" lon="1.53297">
        <ele>186.39999389648</ele>
        <time>2022-05-22T08:47:51.000Z</time>
      </trkpt>
      <trkpt lat="44.79215" lon="1.53308">
        <ele>186.80000305176</ele>
        <time>2022-05-22T08:47:54.000Z</time>
      </trkpt>
      <trkpt lat="44.79205" lon="1.53326">
        <ele>187.80000305176</ele>
        <time>2022-05-22T08:47:59.000Z</time>
      </trkpt>
      <trkpt lat="44.79203" lon="1.5333">
        <ele>188</ele>
        <time>2022-05-22T08:48:00.000Z</time>
      </trkpt>
      <trkpt lat="44.79193" lon="1.53355">
        <ele>189</ele>
        <time>2022-05-22T08:48:07.000Z</time>
      </trkpt>
      <trkpt lat="44.79187" lon="1.5337">
        <ele>189.80000305176</ele>
        <time>2022-05-22T08:48:12.000Z</time>
      </trkpt>
      <trkpt lat="44.79185" lon="1.53373">
        <ele>190.19999694824</ele>
        <time>2022-05-22T08:48:13.000Z</time>
      </trkpt>
      <trkpt lat="44.79177" lon="1.53399">
        <ele>191.39999389648</ele>
        <time>2022-05-22T08:48:20.000Z</time>
      </trkpt>
      <trkpt lat="44.79169" lon="1.5343">
        <ele>192.39999389648</ele>
        <time>2022-05-22T08:48:27.000Z</time>
      </trkpt>
      <trkpt lat="44.79168" lon="1.5344">
        <ele>192.80000305176</ele>
        <time>2022-05-22T08:48:29.000Z</time>
      </trkpt>
      <trkpt lat="44.79163" lon="1.53457">
        <ele>193.60000610352</ele>
        <time>2022-05-22T08:48:33.000Z</time>
      </trkpt>
      <trkpt lat="44.79162" lon="1.53462">
        <ele>194</ele>
        <time>2022-05-22T08:48:34.000Z</time>
      </trkpt>
      <trkpt lat="44.79151" lon="1.53487">
        <ele>195</ele>
        <time>2022-05-22T08:48:41.000Z</time>
      </trkpt>
      <trkpt lat="44.79144" lon="1.53503">
        <ele>195.80000305176</ele>
        <time>2022-05-22T08:48:46.000Z</time>
      </trkpt>
      <trkpt lat="44.79141" lon="1.53509">
        <ele>196.19999694824</ele>
        <time>2022-05-22T08:48:48.000Z</time>
      </trkpt>
      <trkpt lat="44.79129" lon="1.53526">
        <ele>196.80000305176</ele>
        <time>2022-05-22T08:48:54.000Z</time>
      </trkpt>
      <trkpt lat="44.79124" lon="1.53535">
        <ele>197.19999694824</ele>
        <time>2022-05-22T08:48:57.000Z</time>
      </trkpt>
      <trkpt lat="44.79116" lon="1.53549">
        <ele>198</ele>
        <time>2022-05-22T08:49:02.000Z</time>
      </trkpt>
      <trkpt lat="44.79112" lon="1.53555">
        <ele>198.19999694824</ele>
        <time>2022-05-22T08:49:04.000Z</time>
      </trkpt>
      <trkpt lat="44.791" lon="1.53578">
        <ele>199.19999694824</ele>
        <time>2022-05-22T08:49:11.000Z</time>
      </trkpt>
      <trkpt lat="44.79098" lon="1.53581">
        <ele>199.39999389648</ele>
        <time>2022-05-22T08:49:12.000Z</time>
      </trkpt>
      <trkpt lat="44.79088" lon="1.53607">
        <ele>200.39999389648</ele>
        <time>2022-05-22T08:49:19.000Z</time>
      </trkpt>
      <trkpt lat="44.79086" lon="1.53611">
        <ele>200.39999389648</ele>
        <time>2022-05-22T08:49:20.000Z</time>
      </trkpt>
      <trkpt lat="44.79075" lon="1.53637">
        <ele>201.39999389648</ele>
        <time>2022-05-22T08:49:27.000Z</time>
      </trkpt>
      <trkpt lat="44.79066" lon="1.53662">
        <ele>202.39999389648</ele>
        <time>2022-05-22T08:49:34.000Z</time>
      </trkpt>
      <trkpt lat="44.79064" lon="1.53665">
        <ele>202.60000610352</ele>
        <time>2022-05-22T08:49:35.000Z</time>
      </trkpt>
      <trkpt lat="44.79057" lon="1.53687">
        <ele>203.60000610352</ele>
        <time>2022-05-22T08:49:41.000Z</time>
      </trkpt>
      <trkpt lat="44.79052" lon="1.53705">
        <ele>204.19999694824</ele>
        <time>2022-05-22T08:49:46.000Z</time>
      </trkpt>
      <trkpt lat="44.79049" lon="1.53715">
        <ele>204.60000610352</ele>
        <time>2022-05-22T08:49:49.000Z</time>
      </trkpt>
      <trkpt lat="44.79047" lon="1.53722">
        <ele>205</ele>
        <time>2022-05-22T08:49:51.000Z</time>
      </trkpt>
      <trkpt lat="44.79042" lon="1.53746">
        <ele>205.80000305176</ele>
        <time>2022-05-22T08:49:57.000Z</time>
      </trkpt>
      <trkpt lat="44.79041" lon="1.53749">
        <ele>206</ele>
        <time>2022-05-22T08:49:58.000Z</time>
      </trkpt>
      <trkpt lat="44.79032" lon="1.53773">
        <ele>207</ele>
        <time>2022-05-22T08:50:05.000Z</time>
      </trkpt>
      <trkpt lat="44.79031" lon="1.53776">
        <ele>207</ele>
        <time>2022-05-22T08:50:06.000Z</time>
      </trkpt>
      <trkpt lat="44.79024" lon="1.53799">
        <ele>208</ele>
        <time>2022-05-22T08:50:13.000Z</time>
      </trkpt>
      <trkpt lat="44.79012" lon="1.53825">
        <ele>209.19999694824</ele>
        <time>2022-05-22T08:50:21.000Z</time>
      </trkpt>
      <trkpt lat="44.79" lon="1.53849">
        <ele>210.19999694824</ele>
        <time>2022-05-22T08:50:29.000Z</time>
      </trkpt>
      <trkpt lat="44.78999" lon="1.53852">
        <ele>210.60000610352</ele>
        <time>2022-05-22T08:50:30.000Z</time>
      </trkpt>
      <trkpt lat="44.78988" lon="1.53871">
        <ele>211.60000610352</ele>
        <time>2022-05-22T08:50:37.000Z</time>
      </trkpt>
      <trkpt lat="44.78984" lon="1.53877">
        <ele>211.60000610352</ele>
        <time>2022-05-22T08:50:39.000Z</time>
      </trkpt>
      <trkpt lat="44.78974" lon="1.53896">
        <ele>212.60000610352</ele>
        <time>2022-05-22T08:50:45.000Z</time>
      </trkpt>
      <trkpt lat="44.78973" lon="1.53899">
        <ele>212.60000610352</ele>
        <time>2022-05-22T08:50:46.000Z</time>
      </trkpt>
      <trkpt lat="44.78962" lon="1.53923">
        <ele>213.80000305176</ele>
        <time>2022-05-22T08:50:53.000Z</time>
      </trkpt>
      <trkpt lat="44.78961" lon="1.53926">
        <ele>213.80000305176</ele>
        <time>2022-05-22T08:50:54.000Z</time>
      </trkpt>
      <trkpt lat="44.78955" lon="1.53947">
        <ele>214.80000305176</ele>
        <time>2022-05-22T08:51:00.000Z</time>
      </trkpt>
      <trkpt lat="44.78953" lon="1.53951">
        <ele>215</ele>
        <time>2022-05-22T08:51:01.000Z</time>
      </trkpt>
      <trkpt lat="44.78944" lon="1.53985">
        <ele>216</ele>
        <time>2022-05-22T08:51:10.000Z</time>
      </trkpt>
      <trkpt lat="44.78941" lon="1.54009">
        <ele>216.60000610352</ele>
        <time>2022-05-22T08:51:16.000Z</time>
      </trkpt>
      <trkpt lat="44.78941" lon="1.54013">
        <ele>217</ele>
        <time>2022-05-22T08:51:17.000Z</time>
      </trkpt>
      <trkpt lat="44.78938" lon="1.54041">
        <ele>217.80000305176</ele>
        <time>2022-05-22T08:51:24.000Z</time>
      </trkpt>
      <trkpt lat="44.78938" lon="1.54045">
        <ele>218</ele>
        <time>2022-05-22T08:51:25.000Z</time>
      </trkpt>
      <trkpt lat="44.78936" lon="1.54071">
        <ele>219.19999694824</ele>
        <time>2022-05-22T08:51:32.000Z</time>
      </trkpt>
      <trkpt lat="44.78936" lon="1.54075">
        <ele>219.39999389648</ele>
        <time>2022-05-22T08:51:33.000Z</time>
      </trkpt>
      <trkpt lat="44.78935" lon="1.54099">
        <ele>220.39999389648</ele>
        <time>2022-05-22T08:51:39.000Z</time>
      </trkpt>
      <trkpt lat="44.78934" lon="1.54119">
        <ele>221.19999694824</ele>
        <time>2022-05-22T08:51:44.000Z</time>
      </trkpt>
      <trkpt lat="44.78934" lon="1.54127">
        <ele>221.60000610352</ele>
        <time>2022-05-22T08:51:46.000Z</time>
      </trkpt>
      <trkpt lat="44.78937" lon="1.54151">
        <ele>222.60000610352</ele>
        <time>2022-05-22T08:51:52.000Z</time>
      </trkpt>
      <trkpt lat="44.78937" lon="1.54155">
        <ele>222.80000305176</ele>
        <time>2022-05-22T08:51:53.000Z</time>
      </trkpt>
      <trkpt lat="44.78943" lon="1.54181">
        <ele>223.80000305176</ele>
        <time>2022-05-22T08:52:00.000Z</time>
      </trkpt>
      <trkpt lat="44.78944" lon="1.54183">
        <ele>223.80000305176</ele>
        <time>2022-05-22T08:52:01.000Z</time>
      </trkpt>
      <trkpt lat="44.78959" lon="1.54211">
        <ele>224.80000305176</ele>
        <time>2022-05-22T08:52:09.000Z</time>
      </trkpt>
      <trkpt lat="44.78961" lon="1.54213">
        <ele>225.19999694824</ele>
        <time>2022-05-22T08:52:10.000Z</time>
      </trkpt>
      <trkpt lat="44.78975" lon="1.54222">
        <ele>226</ele>
        <time>2022-05-22T08:52:15.000Z</time>
      </trkpt>
      <trkpt lat="44.7898" lon="1.54224">
        <ele>226.39999389648</ele>
        <time>2022-05-22T08:52:17.000Z</time>
      </trkpt>
      <trkpt lat="44.78996" lon="1.54223">
        <ele>227.19999694824</ele>
        <time>2022-05-22T08:52:22.000Z</time>
      </trkpt>
      <trkpt lat="44.79001" lon="1.54222">
        <ele>227.60000610352</ele>
        <time>2022-05-22T08:52:24.000Z</time>
      </trkpt>
      <trkpt lat="44.79009" lon="1.54218">
        <ele>228.19999694824</ele>
        <time>2022-05-22T08:52:27.000Z</time>
      </trkpt>
      <trkpt lat="44.79011" lon="1.54217">
        <ele>228.19999694824</ele>
        <time>2022-05-22T08:52:28.000Z</time>
      </trkpt>
      <trkpt lat="44.79019" lon="1.54212">
        <ele>228.80000305176</ele>
        <time>2022-05-22T08:52:31.000Z</time>
      </trkpt>
      <trkpt lat="44.7903" lon="1.54207">
        <ele>229.39999389648</ele>
        <time>2022-05-22T08:52:35.000Z</time>
      </trkpt>
      <trkpt lat="44.79038" lon="1.54203">
        <ele>229.80000305176</ele>
        <time>2022-05-22T08:52:38.000Z</time>
      </trkpt>
      <trkpt lat="44.79052" lon="1.542">
        <ele>230.19999694824</ele>
        <time>2022-05-22T08:52:43.000Z</time>
      </trkpt>
      <trkpt lat="44.79059" lon="1.54199">
        <ele>231.19999694824</ele>
        <time>2022-05-22T08:52:46.000Z</time>
      </trkpt>
      <trkpt lat="44.79064" lon="1.54199">
        <ele>231.80000305176</ele>
        <time>2022-05-22T08:52:48.000Z</time>
      </trkpt>
      <trkpt lat="44.79075" lon="1.542">
        <ele>232.39999389648</ele>
        <time>2022-05-22T08:52:52.000Z</time>
      </trkpt>
      <trkpt lat="44.7908" lon="1.54201">
        <ele>232.60000610352</ele>
        <time>2022-05-22T08:52:54.000Z</time>
      </trkpt>
      <trkpt lat="44.79093" lon="1.54205">
        <ele>233.39999389648</ele>
        <time>2022-05-22T08:52:58.000Z</time>
      </trkpt>
      <trkpt lat="44.79104" lon="1.54208">
        <ele>233.80000305176</ele>
        <time>2022-05-22T08:53:01.000Z</time>
      </trkpt>
      <trkpt lat="44.79125" lon="1.54216">
        <ele>234.60000610352</ele>
        <time>2022-05-22T08:53:07.000Z</time>
      </trkpt>
      <trkpt lat="44.79127" lon="1.54217">
        <ele>234.60000610352</ele>
        <time>2022-05-22T08:53:08.000Z</time>
      </trkpt>
      <trkpt lat="44.7914" lon="1.54222">
        <ele>235.60000610352</ele>
        <time>2022-05-22T08:53:12.000Z</time>
      </trkpt>
      <trkpt lat="44.79146" lon="1.54225">
        <ele>235.80000305176</ele>
        <time>2022-05-22T08:53:14.000Z</time>
      </trkpt>
      <trkpt lat="44.79164" lon="1.54232">
        <ele>236.80000305176</ele>
        <time>2022-05-22T08:53:19.000Z</time>
      </trkpt>
      <trkpt lat="44.79174" lon="1.54238">
        <ele>237.60000610352</ele>
        <time>2022-05-22T08:53:23.000Z</time>
      </trkpt>
      <trkpt lat="44.79179" lon="1.54241">
        <ele>237.80000305176</ele>
        <time>2022-05-22T08:53:25.000Z</time>
      </trkpt>
      <trkpt lat="44.79195" lon="1.54252">
        <ele>238.80000305176</ele>
        <time>2022-05-22T08:53:31.000Z</time>
      </trkpt>
      <trkpt lat="44.79198" lon="1.54254">
        <ele>239</ele>
        <time>2022-05-22T08:53:32.000Z</time>
      </trkpt>
      <trkpt lat="44.79217" lon="1.54268">
        <ele>240</ele>
        <time>2022-05-22T08:53:40.000Z</time>
      </trkpt>
      <trkpt lat="44.79224" lon="1.54273">
        <ele>240.39999389648</ele>
        <time>2022-05-22T08:53:43.000Z</time>
      </trkpt>
      <trkpt lat="44.79233" lon="1.5428">
        <ele>241.19999694824</ele>
        <time>2022-05-22T08:53:47.000Z</time>
      </trkpt>
      <trkpt lat="44.79245" lon="1.54288">
        <ele>242</ele>
        <time>2022-05-22T08:53:52.000Z</time>
      </trkpt>
      <trkpt lat="44.79249" lon="1.5429">
        <ele>242.39999389648</ele>
        <time>2022-05-22T08:53:54.000Z</time>
      </trkpt>
      <trkpt lat="44.79261" lon="1.54298">
        <ele>243</ele>
        <time>2022-05-22T08:54:00.000Z</time>
      </trkpt>
      <trkpt lat="44.79268" lon="1.543">
        <ele>243.60000610352</ele>
        <time>2022-05-22T08:54:03.000Z</time>
      </trkpt>
      <trkpt lat="44.79277" lon="1.54303">
        <ele>244.19999694824</ele>
        <time>2022-05-22T08:54:07.000Z</time>
      </trkpt>
      <trkpt lat="44.79285" lon="1.54305">
        <ele>244.60000610352</ele>
        <time>2022-05-22T08:54:10.000Z</time>
      </trkpt>
      <trkpt lat="44.79296" lon="1.54306">
        <ele>245</ele>
        <time>2022-05-22T08:54:14.000Z</time>
      </trkpt>
      <trkpt lat="44.79308" lon="1.54307">
        <ele>245.60000610352</ele>
        <time>2022-05-22T08:54:18.000Z</time>
      </trkpt>
      <trkpt lat="44.79316" lon="1.54308">
        <ele>246</ele>
        <time>2022-05-22T08:54:21.000Z</time>
      </trkpt>
      <trkpt lat="44.79337" lon="1.54311">
        <ele>246.80000305176</ele>
        <time>2022-05-22T08:54:28.000Z</time>
      </trkpt>
      <trkpt lat="44.79339" lon="1.54311">
        <ele>247</ele>
        <time>2022-05-22T08:54:29.000Z</time>
      </trkpt>
      <trkpt lat="44.79359" lon="1.54317">
        <ele>247.80000305176</ele>
        <time>2022-05-22T08:54:34.000Z</time>
      </trkpt>
      <trkpt lat="44.79362" lon="1.54317">
        <ele>248</ele>
        <time>2022-05-22T08:54:35.000Z</time>
      </trkpt>
      <trkpt lat="44.79382" lon="1.54326">
        <ele>249</ele>
        <time>2022-05-22T08:54:43.000Z</time>
      </trkpt>
      <trkpt lat="44.79397" lon="1.54331">
        <ele>250</ele>
        <time>2022-05-22T08:54:48.000Z</time>
      </trkpt>
      <trkpt lat="44.7941" lon="1.54336">
        <ele>250.60000610352</ele>
        <time>2022-05-22T08:54:53.000Z</time>
      </trkpt>
      <trkpt lat="44.79417" lon="1.54339">
        <ele>251.19999694824</ele>
        <time>2022-05-22T08:54:56.000Z</time>
      </trkpt>
      <trkpt lat="44.79438" lon="1.54347">
        <ele>252.19999694824</ele>
        <time>2022-05-22T08:55:03.000Z</time>
      </trkpt>
      <trkpt lat="44.79448" lon="1.54351">
        <ele>252.39999389648</ele>
        <time>2022-05-22T08:55:06.000Z</time>
      </trkpt>
      <trkpt lat="44.79456" lon="1.54353">
        <ele>253.39999389648</ele>
        <time>2022-05-22T08:55:09.000Z</time>
      </trkpt>
      <trkpt lat="44.79467" lon="1.54357">
        <ele>254</ele>
        <time>2022-05-22T08:55:12.000Z</time>
      </trkpt>
      <trkpt lat="44.79477" lon="1.54361">
        <ele>254.39999389648</ele>
        <time>2022-05-22T08:55:15.000Z</time>
      </trkpt>
      <trkpt lat="44.79488" lon="1.54367">
        <ele>255.19999694824</ele>
        <time>2022-05-22T08:55:19.000Z</time>
      </trkpt>
      <trkpt lat="44.79495" lon="1.54369">
        <ele>255.60000610352</ele>
        <time>2022-05-22T08:55:21.000Z</time>
      </trkpt>
      <trkpt lat="44.79508" lon="1.54374">
        <ele>256.60000610352</ele>
        <time>2022-05-22T08:55:25.000Z</time>
      </trkpt>
      <trkpt lat="44.7952" lon="1.54378">
        <ele>257.20001220703</ele>
        <time>2022-05-22T08:55:29.000Z</time>
      </trkpt>
      <trkpt lat="44.79526" lon="1.54381">
        <ele>257.60000610352</ele>
        <time>2022-05-22T08:55:31.000Z</time>
      </trkpt>
      <trkpt lat="44.79535" lon="1.54384">
        <ele>258.39999389648</ele>
        <time>2022-05-22T08:55:34.000Z</time>
      </trkpt>
      <trkpt lat="44.79541" lon="1.54386">
        <ele>258.79998779297</ele>
        <time>2022-05-22T08:55:36.000Z</time>
      </trkpt>
      <trkpt lat="44.79561" lon="1.54395">
        <ele>259.79998779297</ele>
        <time>2022-05-22T08:55:43.000Z</time>
      </trkpt>
      <trkpt lat="44.79564" lon="1.54396">
        <ele>260</ele>
        <time>2022-05-22T08:55:44.000Z</time>
      </trkpt>
      <trkpt lat="44.79579" lon="1.54402">
        <ele>261</ele>
        <time>2022-05-22T08:55:49.000Z</time>
      </trkpt>
      <trkpt lat="44.7959" lon="1.54406">
        <ele>261.60000610352</ele>
        <time>2022-05-22T08:55:52.000Z</time>
      </trkpt>
      <trkpt lat="44.79593" lon="1.54407">
        <ele>262</ele>
        <time>2022-05-22T08:55:53.000Z</time>
      </trkpt>
      <trkpt lat="44.79608" lon="1.54416">
        <ele>263.39999389648</ele>
        <time>2022-05-22T08:55:58.000Z</time>
      </trkpt>
      <trkpt lat="44.79609" lon="1.54418">
        <ele>263.39999389648</ele>
        <time>2022-05-22T08:55:59.000Z</time>
      </trkpt>
      <trkpt lat="44.7962" lon="1.5442">
        <ele>264.20001220703</ele>
        <time>2022-05-22T08:56:03.000Z</time>
      </trkpt>
      <trkpt lat="44.79624" lon="1.54418">
        <ele>264.39999389648</ele>
        <time>2022-05-22T08:56:04.000Z</time>
      </trkpt>
      <trkpt lat="44.79637" lon="1.54408">
        <ele>264.79998779297</ele>
        <time>2022-05-22T08:56:08.000Z</time>
      </trkpt>
      <trkpt lat="44.79651" lon="1.54401">
        <ele>265.39999389648</ele>
        <time>2022-05-22T08:56:12.000Z</time>
      </trkpt>
      <trkpt lat="44.79653" lon="1.54403">
        <ele>265.39999389648</ele>
        <time>2022-05-22T08:56:13.000Z</time>
      </trkpt>
      <trkpt lat="44.79661" lon="1.54419">
        <ele>265.79998779297</ele>
        <time>2022-05-22T08:56:17.000Z</time>
      </trkpt>
      <trkpt lat="44.79683" lon="1.54457">
        <ele>266.60000610352</ele>
        <time>2022-05-22T08:56:26.000Z</time>
      </trkpt>
      <trkpt lat="44.79691" lon="1.54481">
        <ele>267.39999389648</ele>
        <time>2022-05-22T08:56:31.000Z</time>
      </trkpt>
      <trkpt lat="44.79693" lon="1.54489">
        <ele>267.79998779297</ele>
        <time>2022-05-22T08:56:33.000Z</time>
      </trkpt>
      <trkpt lat="44.79695" lon="1.54509">
        <ele>267.79998779297</ele>
        <time>2022-05-22T08:56:38.000Z</time>
      </trkpt>
      <trkpt lat="44.79697" lon="1.54522">
        <ele>267.79998779297</ele>
        <time>2022-05-22T08:56:42.000Z</time>
      </trkpt>
      <trkpt lat="44.79698" lon="1.54527">
        <ele>267.60000610352</ele>
        <time>2022-05-22T08:56:44.000Z</time>
      </trkpt>
      <trkpt lat="44.79702" lon="1.54549">
        <ele>267.39999389648</ele>
        <time>2022-05-22T08:56:50.000Z</time>
      </trkpt>
      <trkpt lat="44.79703" lon="1.5456">
        <ele>267.39999389648</ele>
        <time>2022-05-22T08:56:53.000Z</time>
      </trkpt>
      <trkpt lat="44.79707" lon="1.54591">
        <ele>267</ele>
        <time>2022-05-22T08:57:00.000Z</time>
      </trkpt>
      <trkpt lat="44.79707" lon="1.54596">
        <ele>266.79998779297</ele>
        <time>2022-05-22T08:57:01.000Z</time>
      </trkpt>
      <trkpt lat="44.79708" lon="1.54601">
        <ele>266.79998779297</ele>
        <time>2022-05-22T08:57:02.000Z</time>
      </trkpt>
      <trkpt lat="44.79709" lon="1.5464">
        <ele>265.79998779297</ele>
        <time>2022-05-22T08:57:09.000Z</time>
      </trkpt>
      <trkpt lat="44.79708" lon="1.54646">
        <ele>265.79998779297</ele>
        <time>2022-05-22T08:57:10.000Z</time>
      </trkpt>
      <trkpt lat="44.79704" lon="1.54666">
        <ele>264.60000610352</ele>
        <time>2022-05-22T08:57:14.000Z</time>
      </trkpt>
      <trkpt lat="44.79702" lon="1.54683">
        <ele>263.39999389648</ele>
        <time>2022-05-22T08:57:17.000Z</time>
      </trkpt>
      <trkpt lat="44.79701" lon="1.54693">
        <ele>262.79998779297</ele>
        <time>2022-05-22T08:57:19.000Z</time>
      </trkpt>
      <trkpt lat="44.797" lon="1.54698">
        <ele>262.20001220703</ele>
        <time>2022-05-22T08:57:20.000Z</time>
      </trkpt>
      <trkpt lat="44.79699" lon="1.54708">
        <ele>261.39999389648</ele>
        <time>2022-05-22T08:57:22.000Z</time>
      </trkpt>
      <trkpt lat="44.79699" lon="1.54719">
        <ele>259.79998779297</ele>
        <time>2022-05-22T08:57:24.000Z</time>
      </trkpt>
      <trkpt lat="44.79699" lon="1.54738">
        <ele>258.39999389648</ele>
        <time>2022-05-22T08:57:27.000Z</time>
      </trkpt>
      <trkpt lat="44.79701" lon="1.54753">
        <ele>257</ele>
        <time>2022-05-22T08:57:29.000Z</time>
      </trkpt>
      <trkpt lat="44.79701" lon="1.54772">
        <ele>255.60000610352</ele>
        <time>2022-05-22T08:57:32.000Z</time>
      </trkpt>
      <trkpt lat="44.79701" lon="1.54778">
        <ele>254.19999694824</ele>
        <time>2022-05-22T08:57:33.000Z</time>
      </trkpt>
      <trkpt lat="44.79701" lon="1.54789">
        <ele>252.39999389648</ele>
        <time>2022-05-22T08:57:35.000Z</time>
      </trkpt>
      <trkpt lat="44.79703" lon="1.548">
        <ele>250.39999389648</ele>
        <time>2022-05-22T08:57:37.000Z</time>
      </trkpt>
      <trkpt lat="44.79706" lon="1.5481">
        <ele>248.19999694824</ele>
        <time>2022-05-22T08:57:39.000Z</time>
      </trkpt>
      <trkpt lat="44.79709" lon="1.54815">
        <ele>246.60000610352</ele>
        <time>2022-05-22T08:57:40.000Z</time>
      </trkpt>
      <trkpt lat="44.79714" lon="1.54823">
        <ele>244.80000305176</ele>
        <time>2022-05-22T08:57:42.000Z</time>
      </trkpt>
      <trkpt lat="44.79719" lon="1.54833">
        <ele>243.39999389648</ele>
        <time>2022-05-22T08:57:44.000Z</time>
      </trkpt>
      <trkpt lat="44.79724" lon="1.5484">
        <ele>241.39999389648</ele>
        <time>2022-05-22T08:57:46.000Z</time>
      </trkpt>
      <trkpt lat="44.79726" lon="1.54845">
        <ele>240.19999694824</ele>
        <time>2022-05-22T08:57:47.000Z</time>
      </trkpt>
      <trkpt lat="44.79729" lon="1.54851">
        <ele>239.60000610352</ele>
        <time>2022-05-22T08:57:48.000Z</time>
      </trkpt>
      <trkpt lat="44.79731" lon="1.54857">
        <ele>238.60000610352</ele>
        <time>2022-05-22T08:57:49.000Z</time>
      </trkpt>
      <trkpt lat="44.79737" lon="1.54867">
        <ele>237</ele>
        <time>2022-05-22T08:57:51.000Z</time>
      </trkpt>
      <trkpt lat="44.79746" lon="1.54881">
        <ele>235.39999389648</ele>
        <time>2022-05-22T08:57:53.000Z</time>
      </trkpt>
      <trkpt lat="44.79751" lon="1.54887">
        <ele>234.19999694824</ele>
        <time>2022-05-22T08:57:54.000Z</time>
      </trkpt>
      <trkpt lat="44.79755" lon="1.54893">
        <ele>233.39999389648</ele>
        <time>2022-05-22T08:57:55.000Z</time>
      </trkpt>
      <trkpt lat="44.79759" lon="1.54899">
        <ele>231.39999389648</ele>
        <time>2022-05-22T08:57:56.000Z</time>
      </trkpt>
      <trkpt lat="44.79764" lon="1.54905">
        <ele>230.80000305176</ele>
        <time>2022-05-22T08:57:57.000Z</time>
      </trkpt>
      <trkpt lat="44.79769" lon="1.54909">
        <ele>229.60000610352</ele>
        <time>2022-05-22T08:57:58.000Z</time>
      </trkpt>
      <trkpt lat="44.79772" lon="1.54914">
        <ele>228.39999389648</ele>
        <time>2022-05-22T08:57:59.000Z</time>
      </trkpt>
      <trkpt lat="44.79777" lon="1.54918">
        <ele>228</ele>
        <time>2022-05-22T08:58:00.000Z</time>
      </trkpt>
      <trkpt lat="44.79782" lon="1.54924">
        <ele>226.39999389648</ele>
        <time>2022-05-22T08:58:01.000Z</time>
      </trkpt>
      <trkpt lat="44.7979" lon="1.54934">
        <ele>224.19999694824</ele>
        <time>2022-05-22T08:58:03.000Z</time>
      </trkpt>
      <trkpt lat="44.79796" lon="1.54938">
        <ele>223.60000610352</ele>
        <time>2022-05-22T08:58:04.000Z</time>
      </trkpt>
      <trkpt lat="44.79799" lon="1.54943">
        <ele>222.80000305176</ele>
        <time>2022-05-22T08:58:05.000Z</time>
      </trkpt>
      <trkpt lat="44.79801" lon="1.54949">
        <ele>222.19999694824</ele>
        <time>2022-05-22T08:58:06.000Z</time>
      </trkpt>
      <trkpt lat="44.79805" lon="1.54961">
        <ele>220.60000610352</ele>
        <time>2022-05-22T08:58:08.000Z</time>
      </trkpt>
      <trkpt lat="44.79806" lon="1.54966">
        <ele>220.19999694824</ele>
        <time>2022-05-22T08:58:09.000Z</time>
      </trkpt>
      <trkpt lat="44.79805" lon="1.54971">
        <ele>219.39999389648</ele>
        <time>2022-05-22T08:58:10.000Z</time>
      </trkpt>
      <trkpt lat="44.79805" lon="1.5498">
        <ele>218.19999694824</ele>
        <time>2022-05-22T08:58:12.000Z</time>
      </trkpt>
      <trkpt lat="44.79805" lon="1.54985">
        <ele>217</ele>
        <time>2022-05-22T08:58:13.000Z</time>
      </trkpt>
      <trkpt lat="44.79804" lon="1.54996">
        <ele>215.60000610352</ele>
        <time>2022-05-22T08:58:15.000Z</time>
      </trkpt>
      <trkpt lat="44.798" lon="1.55009">
        <ele>214.80000305176</ele>
        <time>2022-05-22T08:58:17.000Z</time>
      </trkpt>
      <trkpt lat="44.79796" lon="1.55016">
        <ele>214</ele>
        <time>2022-05-22T08:58:18.000Z</time>
      </trkpt>
      <trkpt lat="44.79789" lon="1.55031">
        <ele>212.60000610352</ele>
        <time>2022-05-22T08:58:20.000Z</time>
      </trkpt>
      <trkpt lat="44.79782" lon="1.55047">
        <ele>211.80000305176</ele>
        <time>2022-05-22T08:58:22.000Z</time>
      </trkpt>
      <trkpt lat="44.79778" lon="1.55054">
        <ele>211.60000610352</ele>
        <time>2022-05-22T08:58:23.000Z</time>
      </trkpt>
      <trkpt lat="44.79775" lon="1.55062">
        <ele>210.60000610352</ele>
        <time>2022-05-22T08:58:24.000Z</time>
      </trkpt>
      <trkpt lat="44.79772" lon="1.55068">
        <ele>209.80000305176</ele>
        <time>2022-05-22T08:58:25.000Z</time>
      </trkpt>
      <trkpt lat="44.79767" lon="1.55074">
        <ele>209.60000610352</ele>
        <time>2022-05-22T08:58:26.000Z</time>
      </trkpt>
      <trkpt lat="44.79764" lon="1.55083">
        <ele>208.19999694824</ele>
        <time>2022-05-22T08:58:27.000Z</time>
      </trkpt>
      <trkpt lat="44.79755" lon="1.55097">
        <ele>207.19999694824</ele>
        <time>2022-05-22T08:58:29.000Z</time>
      </trkpt>
      <trkpt lat="44.79751" lon="1.55104">
        <ele>206.60000610352</ele>
        <time>2022-05-22T08:58:30.000Z</time>
      </trkpt>
      <trkpt lat="44.79744" lon="1.55123">
        <ele>204.60000610352</ele>
        <time>2022-05-22T08:58:32.000Z</time>
      </trkpt>
      <trkpt lat="44.79737" lon="1.55141">
        <ele>203.19999694824</ele>
        <time>2022-05-22T08:58:34.000Z</time>
      </trkpt>
      <trkpt lat="44.79734" lon="1.55149">
        <ele>203</ele>
        <time>2022-05-22T08:58:35.000Z</time>
      </trkpt>
      <trkpt lat="44.7973" lon="1.55157">
        <ele>202</ele>
        <time>2022-05-22T08:58:36.000Z</time>
      </trkpt>
      <trkpt lat="44.79725" lon="1.55171">
        <ele>200.80000305176</ele>
        <time>2022-05-22T08:58:38.000Z</time>
      </trkpt>
      <trkpt lat="44.7972" lon="1.55186">
        <ele>199.19999694824</ele>
        <time>2022-05-22T08:58:40.000Z</time>
      </trkpt>
      <trkpt lat="44.79714" lon="1.55201">
        <ele>198.19999694824</ele>
        <time>2022-05-22T08:58:42.000Z</time>
      </trkpt>
      <trkpt lat="44.7971" lon="1.55217">
        <ele>196.60000610352</ele>
        <time>2022-05-22T08:58:44.000Z</time>
      </trkpt>
      <trkpt lat="44.79706" lon="1.55235">
        <ele>195.60000610352</ele>
        <time>2022-05-22T08:58:46.000Z</time>
      </trkpt>
      <trkpt lat="44.79705" lon="1.55243">
        <ele>195.39999389648</ele>
        <time>2022-05-22T08:58:47.000Z</time>
      </trkpt>
      <trkpt lat="44.79705" lon="1.55253">
        <ele>194</ele>
        <time>2022-05-22T08:58:48.000Z</time>
      </trkpt>
      <trkpt lat="44.79703" lon="1.55273">
        <ele>193</ele>
        <time>2022-05-22T08:58:50.000Z</time>
      </trkpt>
      <trkpt lat="44.79702" lon="1.55284">
        <ele>191.80000305176</ele>
        <time>2022-05-22T08:58:51.000Z</time>
      </trkpt>
      <trkpt lat="44.797" lon="1.55304">
        <ele>190.39999389648</ele>
        <time>2022-05-22T08:58:53.000Z</time>
      </trkpt>
      <trkpt lat="44.79701" lon="1.55321">
        <ele>189.19999694824</ele>
        <time>2022-05-22T08:58:55.000Z</time>
      </trkpt>
      <trkpt lat="44.79701" lon="1.55328">
        <ele>188.19999694824</ele>
        <time>2022-05-22T08:58:56.000Z</time>
      </trkpt>
      <trkpt lat="44.79702" lon="1.55346">
        <ele>187</ele>
        <time>2022-05-22T08:58:58.000Z</time>
      </trkpt>
      <trkpt lat="44.79702" lon="1.55364">
        <ele>185.39999389648</ele>
        <time>2022-05-22T08:59:00.000Z</time>
      </trkpt>
      <trkpt lat="44.79703" lon="1.55383">
        <ele>184.19999694824</ele>
        <time>2022-05-22T08:59:02.000Z</time>
      </trkpt>
      <trkpt lat="44.79706" lon="1.55402">
        <ele>183.39999389648</ele>
        <time>2022-05-22T08:59:04.000Z</time>
      </trkpt>
      <trkpt lat="44.79708" lon="1.55412">
        <ele>182.80000305176</ele>
        <time>2022-05-22T08:59:05.000Z</time>
      </trkpt>
      <trkpt lat="44.79711" lon="1.55421">
        <ele>182.39999389648</ele>
        <time>2022-05-22T08:59:06.000Z</time>
      </trkpt>
      <trkpt lat="44.79714" lon="1.5543">
        <ele>181.60000610352</ele>
        <time>2022-05-22T08:59:07.000Z</time>
      </trkpt>
      <trkpt lat="44.7972" lon="1.55446">
        <ele>180.19999694824</ele>
        <time>2022-05-22T08:59:09.000Z</time>
      </trkpt>
      <trkpt lat="44.79724" lon="1.55452">
        <ele>179.60000610352</ele>
        <time>2022-05-22T08:59:10.000Z</time>
      </trkpt>
      <trkpt lat="44.79728" lon="1.55458">
        <ele>179.19999694824</ele>
        <time>2022-05-22T08:59:11.000Z</time>
      </trkpt>
      <trkpt lat="44.79737" lon="1.5547">
        <ele>178.19999694824</ele>
        <time>2022-05-22T08:59:13.000Z</time>
      </trkpt>
      <trkpt lat="44.79741" lon="1.55476">
        <ele>177.39999389648</ele>
        <time>2022-05-22T08:59:14.000Z</time>
      </trkpt>
      <trkpt lat="44.79746" lon="1.55483">
        <ele>176.80000305176</ele>
        <time>2022-05-22T08:59:15.000Z</time>
      </trkpt>
      <trkpt lat="44.79751" lon="1.5549">
        <ele>176.60000610352</ele>
        <time>2022-05-22T08:59:16.000Z</time>
      </trkpt>
      <trkpt lat="44.7976" lon="1.55504">
        <ele>176.19999694824</ele>
        <time>2022-05-22T08:59:18.000Z</time>
      </trkpt>
      <trkpt lat="44.79765" lon="1.5551">
        <ele>175.80000305176</ele>
        <time>2022-05-22T08:59:19.000Z</time>
      </trkpt>
      <trkpt lat="44.79771" lon="1.55516">
        <ele>175.19999694824</ele>
        <time>2022-05-22T08:59:20.000Z</time>
      </trkpt>
      <trkpt lat="44.79778" lon="1.55522">
        <ele>174</ele>
        <time>2022-05-22T08:59:21.000Z</time>
      </trkpt>
      <trkpt lat="44.79791" lon="1.55533">
        <ele>172.60000610352</ele>
        <time>2022-05-22T08:59:23.000Z</time>
      </trkpt>
      <trkpt lat="44.79797" lon="1.55539">
        <ele>172.19999694824</ele>
        <time>2022-05-22T08:59:24.000Z</time>
      </trkpt>
      <trkpt lat="44.79807" lon="1.5555">
        <ele>171.60000610352</ele>
        <time>2022-05-22T08:59:26.000Z</time>
      </trkpt>
      <trkpt lat="44.79813" lon="1.55555">
        <ele>171.19999694824</ele>
        <time>2022-05-22T08:59:27.000Z</time>
      </trkpt>
      <trkpt lat="44.79819" lon="1.55561">
        <ele>170.39999389648</ele>
        <time>2022-05-22T08:59:28.000Z</time>
      </trkpt>
      <trkpt lat="44.79825" lon="1.55566">
        <ele>169</ele>
        <time>2022-05-22T08:59:29.000Z</time>
      </trkpt>
      <trkpt lat="44.79835" lon="1.55577">
        <ele>167</ele>
        <time>2022-05-22T08:59:31.000Z</time>
      </trkpt>
      <trkpt lat="44.79845" lon="1.55587">
        <ele>165.60000610352</ele>
        <time>2022-05-22T08:59:33.000Z</time>
      </trkpt>
      <trkpt lat="44.79854" lon="1.55596">
        <ele>164.60000610352</ele>
        <time>2022-05-22T08:59:35.000Z</time>
      </trkpt>
      <trkpt lat="44.79867" lon="1.55609">
        <ele>162.80000305176</ele>
        <time>2022-05-22T08:59:38.000Z</time>
      </trkpt>
      <trkpt lat="44.79875" lon="1.55617">
        <ele>161.39999389648</ele>
        <time>2022-05-22T08:59:40.000Z</time>
      </trkpt>
      <trkpt lat="44.79885" lon="1.55623">
        <ele>160</ele>
        <time>2022-05-22T08:59:42.000Z</time>
      </trkpt>
      <trkpt lat="44.79899" lon="1.5563">
        <ele>158.80000305176</ele>
        <time>2022-05-22T08:59:45.000Z</time>
      </trkpt>
      <trkpt lat="44.79909" lon="1.55636">
        <ele>158.19999694824</ele>
        <time>2022-05-22T08:59:47.000Z</time>
      </trkpt>
      <trkpt lat="44.79922" lon="1.55641">
        <ele>157.80000305176</ele>
        <time>2022-05-22T08:59:49.000Z</time>
      </trkpt>
      <trkpt lat="44.79928" lon="1.55645">
        <ele>156.60000610352</ele>
        <time>2022-05-22T08:59:50.000Z</time>
      </trkpt>
      <trkpt lat="44.79937" lon="1.55649">
        <ele>155</ele>
        <time>2022-05-22T08:59:52.000Z</time>
      </trkpt>
      <trkpt lat="44.79942" lon="1.55651">
        <ele>154</ele>
        <time>2022-05-22T08:59:53.000Z</time>
      </trkpt>
      <trkpt lat="44.79946" lon="1.55655">
        <ele>153.39999389648</ele>
        <time>2022-05-22T08:59:54.000Z</time>
      </trkpt>
      <trkpt lat="44.79949" lon="1.55659">
        <ele>152.80000305176</ele>
        <time>2022-05-22T08:59:55.000Z</time>
      </trkpt>
      <trkpt lat="44.79952" lon="1.55665">
        <ele>152.60000610352</ele>
        <time>2022-05-22T08:59:56.000Z</time>
      </trkpt>
      <trkpt lat="44.79957" lon="1.55678">
        <ele>152</ele>
        <time>2022-05-22T08:59:58.000Z</time>
      </trkpt>
      <trkpt lat="44.79959" lon="1.55684">
        <ele>151.39999389648</ele>
        <time>2022-05-22T08:59:59.000Z</time>
      </trkpt>
      <trkpt lat="44.79962" lon="1.5569">
        <ele>150.60000610352</ele>
        <time>2022-05-22T09:00:00.000Z</time>
      </trkpt>
      <trkpt lat="44.79966" lon="1.55695">
        <ele>150.19999694824</ele>
        <time>2022-05-22T09:00:01.000Z</time>
      </trkpt>
      <trkpt lat="44.79969" lon="1.557">
        <ele>149.39999389648</ele>
        <time>2022-05-22T09:00:02.000Z</time>
      </trkpt>
      <trkpt lat="44.79972" lon="1.55702">
        <ele>149.39999389648</ele>
        <time>2022-05-22T09:00:03.000Z</time>
      </trkpt>
      <trkpt lat="44.79974" lon="1.55703">
        <ele>149.19999694824</ele>
        <time>2022-05-22T09:00:04.000Z</time>
      </trkpt>
      <trkpt lat="44.79977" lon="1.55701">
        <ele>148.60000610352</ele>
        <time>2022-05-22T09:00:05.000Z</time>
      </trkpt>
      <trkpt lat="44.79981" lon="1.55696">
        <ele>148</ele>
        <time>2022-05-22T09:00:07.000Z</time>
      </trkpt>
      <trkpt lat="44.79986" lon="1.5569">
        <ele>147.60000610352</ele>
        <time>2022-05-22T09:00:10.000Z</time>
      </trkpt>
      <trkpt lat="44.79988" lon="1.55689">
        <ele>147.39999389648</ele>
        <time>2022-05-22T09:00:11.000Z</time>
      </trkpt>
      <trkpt lat="44.79993" lon="1.55689">
        <ele>147.39999389648</ele>
        <time>2022-05-22T09:00:13.000Z</time>
      </trkpt>
      <trkpt lat="44.8001" lon="1.55698">
        <ele>147</ele>
        <time>2022-05-22T09:00:19.000Z</time>
      </trkpt>
      <trkpt lat="44.80014" lon="1.557">
        <ele>147.19999694824</ele>
        <time>2022-05-22T09:00:20.000Z</time>
      </trkpt>
      <trkpt lat="44.80025" lon="1.55709">
        <ele>147</ele>
        <time>2022-05-22T09:00:23.000Z</time>
      </trkpt>
      <trkpt lat="44.80034" lon="1.55715">
        <ele>146.80000305176</ele>
        <time>2022-05-22T09:00:25.000Z</time>
      </trkpt>
      <trkpt lat="44.80043" lon="1.55721">
        <ele>146.60000610352</ele>
        <time>2022-05-22T09:00:27.000Z</time>
      </trkpt>
      <trkpt lat="44.80053" lon="1.55725">
        <ele>146.39999389648</ele>
        <time>2022-05-22T09:00:29.000Z</time>
      </trkpt>
      <trkpt lat="44.80058" lon="1.55727">
        <ele>146.19999694824</ele>
        <time>2022-05-22T09:00:30.000Z</time>
      </trkpt>
      <trkpt lat="44.80064" lon="1.55729">
        <ele>146</ele>
        <time>2022-05-22T09:00:31.000Z</time>
      </trkpt>
      <trkpt lat="44.80083" lon="1.55733">
        <ele>145.60000610352</ele>
        <time>2022-05-22T09:00:34.000Z</time>
      </trkpt>
      <trkpt lat="44.80089" lon="1.55733">
        <ele>145.19999694824</ele>
        <time>2022-05-22T09:00:35.000Z</time>
      </trkpt>
      <trkpt lat="44.80096" lon="1.55731">
        <ele>145.19999694824</ele>
        <time>2022-05-22T09:00:36.000Z</time>
      </trkpt>
      <trkpt lat="44.80102" lon="1.55728">
        <ele>144.80000305176</ele>
        <time>2022-05-22T09:00:37.000Z</time>
      </trkpt>
      <trkpt lat="44.80108" lon="1.55723">
        <ele>144.19999694824</ele>
        <time>2022-05-22T09:00:38.000Z</time>
      </trkpt>
      <trkpt lat="44.80119" lon="1.5571">
        <ele>143.80000305176</ele>
        <time>2022-05-22T09:00:40.000Z</time>
      </trkpt>
      <trkpt lat="44.80124" lon="1.55702">
        <ele>143.60000610352</ele>
        <time>2022-05-22T09:00:41.000Z</time>
      </trkpt>
      <trkpt lat="44.80129" lon="1.55694">
        <ele>143.39999389648</ele>
        <time>2022-05-22T09:00:42.000Z</time>
      </trkpt>
      <trkpt lat="44.80141" lon="1.55681">
        <ele>142.39999389648</ele>
        <time>2022-05-22T09:00:44.000Z</time>
      </trkpt>
      <trkpt lat="44.80155" lon="1.55671">
        <ele>141.80000305176</ele>
        <time>2022-05-22T09:00:46.000Z</time>
      </trkpt>
      <trkpt lat="44.8017" lon="1.55665">
        <ele>141.39999389648</ele>
        <time>2022-05-22T09:00:48.000Z</time>
      </trkpt>
      <trkpt lat="44.80217" lon="1.55644">
        <ele>140</ele>
        <time>2022-05-22T09:00:54.000Z</time>
      </trkpt>
      <trkpt lat="44.80225" lon="1.55641">
        <ele>140</ele>
        <time>2022-05-22T09:00:55.000Z</time>
      </trkpt>
      <trkpt lat="44.80241" lon="1.55638">
        <ele>139</ele>
        <time>2022-05-22T09:00:57.000Z</time>
      </trkpt>
      <trkpt lat="44.80276" lon="1.55635">
        <ele>138</ele>
        <time>2022-05-22T09:01:01.000Z</time>
      </trkpt>
      <trkpt lat="44.80285" lon="1.55635">
        <ele>137.60000610352</ele>
        <time>2022-05-22T09:01:02.000Z</time>
      </trkpt>
      <trkpt lat="44.8032" lon="1.55634">
        <ele>136.39999389648</ele>
        <time>2022-05-22T09:01:06.000Z</time>
      </trkpt>
      <trkpt lat="44.80348" lon="1.55633">
        <ele>135</ele>
        <time>2022-05-22T09:01:09.000Z</time>
      </trkpt>
      <trkpt lat="44.80365" lon="1.55632">
        <ele>134.19999694824</ele>
        <time>2022-05-22T09:01:11.000Z</time>
      </trkpt>
      <trkpt lat="44.80381" lon="1.55631">
        <ele>133.60000610352</ele>
        <time>2022-05-22T09:01:13.000Z</time>
      </trkpt>
      <trkpt lat="44.80389" lon="1.55632">
        <ele>133.19999694824</ele>
        <time>2022-05-22T09:01:14.000Z</time>
      </trkpt>
      <trkpt lat="44.80397" lon="1.55634">
        <ele>132.80000305176</ele>
        <time>2022-05-22T09:01:15.000Z</time>
      </trkpt>
      <trkpt lat="44.80403" lon="1.55636">
        <ele>132.60000610352</ele>
        <time>2022-05-22T09:01:16.000Z</time>
      </trkpt>
      <trkpt lat="44.80411" lon="1.55647">
        <ele>131.80000305176</ele>
        <time>2022-05-22T09:01:18.000Z</time>
      </trkpt>
      <trkpt lat="44.80413" lon="1.55654">
        <ele>131.39999389648</ele>
        <time>2022-05-22T09:01:19.000Z</time>
      </trkpt>
      <trkpt lat="44.80413" lon="1.55661">
        <ele>130.39999389648</ele>
        <time>2022-05-22T09:01:20.000Z</time>
      </trkpt>
      <trkpt lat="44.80413" lon="1.55668">
        <ele>129.80000305176</ele>
        <time>2022-05-22T09:01:21.000Z</time>
      </trkpt>
      <trkpt lat="44.80409" lon="1.55707">
        <ele>128.80000305176</ele>
        <time>2022-05-22T09:01:27.000Z</time>
      </trkpt>
      <trkpt lat="44.80405" lon="1.55725">
        <ele>128.39999389648</ele>
        <time>2022-05-22T09:01:30.000Z</time>
      </trkpt>
      <trkpt lat="44.80401" lon="1.55736">
        <ele>128.39999389648</ele>
        <time>2022-05-22T09:01:32.000Z</time>
      </trkpt>
      <trkpt lat="44.804" lon="1.5574">
        <ele>128.39999389648</ele>
        <time>2022-05-22T09:01:33.000Z</time>
      </trkpt>
      <trkpt lat="44.80401" lon="1.55745">
        <ele>128.39999389648</ele>
        <time>2022-05-22T09:01:34.000Z</time>
      </trkpt>
      <trkpt lat="44.80404" lon="1.55751">
        <ele>128.39999389648</ele>
        <time>2022-05-22T09:01:36.000Z</time>
      </trkpt>
      <trkpt lat="44.80406" lon="1.55754">
        <ele>128.19999694824</ele>
        <time>2022-05-22T09:01:37.000Z</time>
      </trkpt>
      <trkpt lat="44.80403" lon="1.55757">
        <ele>128.19999694824</ele>
        <time>2022-05-22T09:01:39.000Z</time>
      </trkpt>
      <trkpt lat="44.80403" lon="1.55757">
        <ele>128</ele>
        <time>2022-05-22T09:01:43.000Z</time>
      </trkpt>
      <trkpt lat="44.80403" lon="1.55758">
        <ele>128</ele>
        <time>2022-05-22T09:01:53.000Z</time>
      </trkpt>
      <trkpt lat="44.80403" lon="1.55758">
        <ele>128</ele>
        <time>2022-05-22T09:01:58.000Z</time>
      </trkpt>
      <trkpt lat="44.80403" lon="1.55758">
        <ele>128.19999694824</ele>
        <time>2022-05-22T09:02:20.000Z</time>
      </trkpt>
      <trkpt lat="44.80403" lon="1.55758">
        <ele>127.80000305176</ele>
        <time>2022-05-22T09:02:42.000Z</time>
      </trkpt>
      <trkpt lat="44.80403" lon="1.55758">
        <ele>127.40000152588</ele>
        <time>2022-05-22T09:03:10.000Z</time>
      </trkpt>
      <trkpt lat="44.80397" lon="1.55756">
        <ele>127.59999847412</ele>
        <time>2022-05-22T09:03:36.000Z</time>
      </trkpt>
      <trkpt lat="44.80386" lon="1.55757">
        <ele>127.80000305176</ele>
        <time>2022-05-22T09:03:41.000Z</time>
      </trkpt>
      <trkpt lat="44.80375" lon="1.55766">
        <ele>127.59999847412</ele>
        <time>2022-05-22T09:03:47.000Z</time>
      </trkpt>
      <trkpt lat="44.8036" lon="1.55776">
        <ele>127.59999847412</ele>
        <time>2022-05-22T09:03:52.000Z</time>
      </trkpt>
      <trkpt lat="44.80337" lon="1.55793">
        <ele>127.59999847412</ele>
        <time>2022-05-22T09:03:59.000Z</time>
      </trkpt>
      <trkpt lat="44.80302" lon="1.55819">
        <ele>128</ele>
        <time>2022-05-22T09:04:10.000Z</time>
      </trkpt>
      <trkpt lat="44.80282" lon="1.55833">
        <ele>127.80000305176</ele>
        <time>2022-05-22T09:04:16.000Z</time>
      </trkpt>
      <trkpt lat="44.80278" lon="1.55835">
        <ele>127.80000305176</ele>
        <time>2022-05-22T09:04:17.000Z</time>
      </trkpt>
      <trkpt lat="44.80252" lon="1.55856">
        <ele>127.80000305176</ele>
        <time>2022-05-22T09:04:25.000Z</time>
      </trkpt>
      <trkpt lat="44.80226" lon="1.55876">
        <ele>127.80000305176</ele>
        <time>2022-05-22T09:04:33.000Z</time>
      </trkpt>
      <trkpt lat="44.80222" lon="1.5588">
        <ele>127.80000305176</ele>
        <time>2022-05-22T09:04:34.000Z</time>
      </trkpt>
      <trkpt lat="44.80202" lon="1.55895">
        <ele>127.80000305176</ele>
        <time>2022-05-22T09:04:39.000Z</time>
      </trkpt>
      <trkpt lat="44.80161" lon="1.55926">
        <ele>127.59999847412</ele>
        <time>2022-05-22T09:04:50.000Z</time>
      </trkpt>
      <trkpt lat="44.80134" lon="1.55946">
        <ele>127.40000152588</ele>
        <time>2022-05-22T09:04:57.000Z</time>
      </trkpt>
      <trkpt lat="44.80099" lon="1.55968">
        <ele>127.59999847412</ele>
        <time>2022-05-22T09:05:06.000Z</time>
      </trkpt>
      <trkpt lat="44.80056" lon="1.55984">
        <ele>127.80000305176</ele>
        <time>2022-05-22T09:05:16.000Z</time>
      </trkpt>
      <trkpt lat="44.80034" lon="1.56003">
        <ele>127.80000305176</ele>
        <time>2022-05-22T09:05:23.000Z</time>
      </trkpt>
      <trkpt lat="44.80013" lon="1.56015">
        <ele>127.59999847412</ele>
        <time>2022-05-22T09:05:28.000Z</time>
      </trkpt>
      <trkpt lat="44.80009" lon="1.56019">
        <ele>127.19999694824</ele>
        <time>2022-05-22T09:05:29.000Z</time>
      </trkpt>
      <trkpt lat="44.80005" lon="1.56026">
        <ele>127</ele>
        <time>2022-05-22T09:05:30.000Z</time>
      </trkpt>
      <trkpt lat="44.80002" lon="1.56033">
        <ele>126.80000305176</ele>
        <time>2022-05-22T09:05:31.000Z</time>
      </trkpt>
      <trkpt lat="44.79995" lon="1.56049">
        <ele>126</ele>
        <time>2022-05-22T09:05:34.000Z</time>
      </trkpt>
      <trkpt lat="44.79993" lon="1.56052">
        <ele>125.80000305176</ele>
        <time>2022-05-22T09:05:35.000Z</time>
      </trkpt>
      <trkpt lat="44.79988" lon="1.56063">
        <ele>125.80000305176</ele>
        <time>2022-05-22T09:05:37.000Z</time>
      </trkpt>
      <trkpt lat="44.79979" lon="1.56077">
        <ele>125.59999847412</ele>
        <time>2022-05-22T09:05:40.000Z</time>
      </trkpt>
      <trkpt lat="44.79975" lon="1.56081">
        <ele>125.40000152588</ele>
        <time>2022-05-22T09:05:41.000Z</time>
      </trkpt>
      <trkpt lat="44.7997" lon="1.56083">
        <ele>125.40000152588</ele>
        <time>2022-05-22T09:05:42.000Z</time>
      </trkpt>
      <trkpt lat="44.7996" lon="1.56077">
        <ele>125.40000152588</ele>
        <time>2022-05-22T09:05:44.000Z</time>
      </trkpt>
      <trkpt lat="44.79945" lon="1.56054">
        <ele>125</ele>
        <time>2022-05-22T09:05:48.000Z</time>
      </trkpt>
      <trkpt lat="44.79942" lon="1.56048">
        <ele>124.80000305176</ele>
        <time>2022-05-22T09:05:49.000Z</time>
      </trkpt>
      <trkpt lat="44.7993" lon="1.56026">
        <ele>124.19999694824</ele>
        <time>2022-05-22T09:05:53.000Z</time>
      </trkpt>
      <trkpt lat="44.79924" lon="1.56019">
        <ele>124</ele>
        <time>2022-05-22T09:05:55.000Z</time>
      </trkpt>
      <trkpt lat="44.79919" lon="1.56018">
        <ele>124</ele>
        <time>2022-05-22T09:05:56.000Z</time>
      </trkpt>
      <trkpt lat="44.79911" lon="1.5602">
        <ele>123.59999847412</ele>
        <time>2022-05-22T09:05:58.000Z</time>
      </trkpt>
      <trkpt lat="44.79906" lon="1.56027">
        <ele>123.59999847412</ele>
        <time>2022-05-22T09:06:00.000Z</time>
      </trkpt>
      <trkpt lat="44.799" lon="1.56035">
        <ele>123.59999847412</ele>
        <time>2022-05-22T09:06:02.000Z</time>
      </trkpt>
      <trkpt lat="44.79884" lon="1.56056">
        <ele>123.80000305176</ele>
        <time>2022-05-22T09:06:08.000Z</time>
      </trkpt>
      <trkpt lat="44.79875" lon="1.5607">
        <ele>124</ele>
        <time>2022-05-22T09:06:13.000Z</time>
      </trkpt>
      <trkpt lat="44.79866" lon="1.56084">
        <ele>124.19999694824</ele>
        <time>2022-05-22T09:06:18.000Z</time>
      </trkpt>
      <trkpt lat="44.79857" lon="1.56097">
        <ele>124.59999847412</ele>
        <time>2022-05-22T09:06:23.000Z</time>
      </trkpt>
      <trkpt lat="44.7985" lon="1.56104">
        <ele>125.40000152588</ele>
        <time>2022-05-22T09:06:26.000Z</time>
      </trkpt>
      <trkpt lat="44.79846" lon="1.56108">
        <ele>125.59999847412</ele>
        <time>2022-05-22T09:06:27.000Z</time>
      </trkpt>
      <trkpt lat="44.79825" lon="1.56124">
        <ele>125.80000305176</ele>
        <time>2022-05-22T09:06:32.000Z</time>
      </trkpt>
      <trkpt lat="44.79821" lon="1.56128">
        <ele>126</ele>
        <time>2022-05-22T09:06:33.000Z</time>
      </trkpt>
      <trkpt lat="44.79798" lon="1.56151">
        <ele>126.59999847412</ele>
        <time>2022-05-22T09:06:39.000Z</time>
      </trkpt>
      <trkpt lat="44.79776" lon="1.56187">
        <ele>126.19999694824</ele>
        <time>2022-05-22T09:06:47.000Z</time>
      </trkpt>
      <trkpt lat="44.79754" lon="1.56227">
        <ele>125.80000305176</ele>
        <time>2022-05-22T09:06:54.000Z</time>
      </trkpt>
      <trkpt lat="44.79743" lon="1.56249">
        <ele>125.40000152588</ele>
        <time>2022-05-22T09:06:59.000Z</time>
      </trkpt>
      <trkpt lat="44.79735" lon="1.56269">
        <ele>124.80000305176</ele>
        <time>2022-05-22T09:07:05.000Z</time>
      </trkpt>
      <trkpt lat="44.79726" lon="1.56296">
        <ele>124.59999847412</ele>
        <time>2022-05-22T09:07:12.000Z</time>
      </trkpt>
      <trkpt lat="44.79725" lon="1.56299">
        <ele>124.59999847412</ele>
        <time>2022-05-22T09:07:13.000Z</time>
      </trkpt>
      <trkpt lat="44.79721" lon="1.56306">
        <ele>124.59999847412</ele>
        <time>2022-05-22T09:07:16.000Z</time>
      </trkpt>
      <trkpt lat="44.79709" lon="1.56321">
        <ele>125</ele>
        <time>2022-05-22T09:07:22.000Z</time>
      </trkpt>
      <trkpt lat="44.79695" lon="1.56345">
        <ele>125.19999694824</ele>
        <time>2022-05-22T09:07:28.000Z</time>
      </trkpt>
      <trkpt lat="44.79682" lon="1.56367">
        <ele>125.40000152588</ele>
        <time>2022-05-22T09:07:35.000Z</time>
      </trkpt>
      <trkpt lat="44.79674" lon="1.56387">
        <ele>125.59999847412</ele>
        <time>2022-05-22T09:07:41.000Z</time>
      </trkpt>
      <trkpt lat="44.79669" lon="1.56394">
        <ele>126</ele>
        <time>2022-05-22T09:07:44.000Z</time>
      </trkpt>
      <trkpt lat="44.79668" lon="1.56396">
        <ele>126.40000152588</ele>
        <time>2022-05-22T09:07:45.000Z</time>
      </trkpt>
      <trkpt lat="44.79666" lon="1.56399">
        <ele>126.40000152588</ele>
        <time>2022-05-22T09:07:46.000Z</time>
      </trkpt>
      <trkpt lat="44.79662" lon="1.56403">
        <ele>127.40000152588</ele>
        <time>2022-05-22T09:07:48.000Z</time>
      </trkpt>
      <trkpt lat="44.79653" lon="1.56412">
        <ele>128.39999389648</ele>
        <time>2022-05-22T09:07:52.000Z</time>
      </trkpt>
      <trkpt lat="44.79647" lon="1.56416">
        <ele>128.39999389648</ele>
        <time>2022-05-22T09:07:54.000Z</time>
      </trkpt>
      <trkpt lat="44.79625" lon="1.56432">
        <ele>128.19999694824</ele>
        <time>2022-05-22T09:08:00.000Z</time>
      </trkpt>
      <trkpt lat="44.7962" lon="1.56437">
        <ele>128</ele>
        <time>2022-05-22T09:08:01.000Z</time>
      </trkpt>
      <trkpt lat="44.79602" lon="1.56458">
        <ele>127.19999694824</ele>
        <time>2022-05-22T09:08:05.000Z</time>
      </trkpt>
      <trkpt lat="44.796" lon="1.56462">
        <ele>126.80000305176</ele>
        <time>2022-05-22T09:08:06.000Z</time>
      </trkpt>
      <trkpt lat="44.79597" lon="1.56469">
        <ele>126.59999847412</ele>
        <time>2022-05-22T09:08:08.000Z</time>
      </trkpt>
      <trkpt lat="44.79591" lon="1.56478">
        <ele>126.40000152588</ele>
        <time>2022-05-22T09:08:11.000Z</time>
      </trkpt>
      <trkpt lat="44.79586" lon="1.56487">
        <ele>126.40000152588</ele>
        <time>2022-05-22T09:08:14.000Z</time>
      </trkpt>
      <trkpt lat="44.79578" lon="1.56505">
        <ele>126.80000305176</ele>
        <time>2022-05-22T09:08:19.000Z</time>
      </trkpt>
      <trkpt lat="44.79569" lon="1.56526">
        <ele>126.80000305176</ele>
        <time>2022-05-22T09:08:24.000Z</time>
      </trkpt>
      <trkpt lat="44.79562" lon="1.56533">
        <ele>126.59999847412</ele>
        <time>2022-05-22T09:08:26.000Z</time>
      </trkpt>
      <trkpt lat="44.79552" lon="1.56537">
        <ele>126.40000152588</ele>
        <time>2022-05-22T09:08:28.000Z</time>
      </trkpt>
      <trkpt lat="44.79548" lon="1.56539">
        <ele>126.40000152588</ele>
        <time>2022-05-22T09:08:29.000Z</time>
      </trkpt>
      <trkpt lat="44.79543" lon="1.56544">
        <ele>126.40000152588</ele>
        <time>2022-05-22T09:08:31.000Z</time>
      </trkpt>
      <trkpt lat="44.79527" lon="1.5656">
        <ele>126.80000305176</ele>
        <time>2022-05-22T09:08:37.000Z</time>
      </trkpt>
      <trkpt lat="44.79523" lon="1.56565">
        <ele>127.40000152588</ele>
        <time>2022-05-22T09:08:40.000Z</time>
      </trkpt>
      <trkpt lat="44.79518" lon="1.56567">
        <ele>128.19999694824</ele>
        <time>2022-05-22T09:08:42.000Z</time>
      </trkpt>
      <trkpt lat="44.79515" lon="1.5657">
        <ele>128.39999389648</ele>
        <time>2022-05-22T09:08:43.000Z</time>
      </trkpt>
      <trkpt lat="44.79512" lon="1.56573">
        <ele>129</ele>
        <time>2022-05-22T09:08:44.000Z</time>
      </trkpt>
      <trkpt lat="44.79507" lon="1.56576">
        <ele>129.60000610352</ele>
        <time>2022-05-22T09:08:46.000Z</time>
      </trkpt>
      <trkpt lat="44.79505" lon="1.56578">
        <ele>129.80000305176</ele>
        <time>2022-05-22T09:08:47.000Z</time>
      </trkpt>
      <trkpt lat="44.79503" lon="1.5658">
        <ele>130.19999694824</ele>
        <time>2022-05-22T09:08:48.000Z</time>
      </trkpt>
      <trkpt lat="44.79497" lon="1.56585">
        <ele>131.19999694824</ele>
        <time>2022-05-22T09:08:51.000Z</time>
      </trkpt>
      <trkpt lat="44.79494" lon="1.56589">
        <ele>132.19999694824</ele>
        <time>2022-05-22T09:08:54.000Z</time>
      </trkpt>
      <trkpt lat="44.79493" lon="1.56591">
        <ele>132.39999389648</ele>
        <time>2022-05-22T09:08:55.000Z</time>
      </trkpt>
      <trkpt lat="44.79489" lon="1.56596">
        <ele>133</ele>
        <time>2022-05-22T09:08:58.000Z</time>
      </trkpt>
      <trkpt lat="44.79485" lon="1.56602">
        <ele>133.80000305176</ele>
        <time>2022-05-22T09:09:01.000Z</time>
      </trkpt>
      <trkpt lat="44.79483" lon="1.56604">
        <ele>134.39999389648</ele>
        <time>2022-05-22T09:09:03.000Z</time>
      </trkpt>
      <trkpt lat="44.7948" lon="1.56608">
        <ele>134.80000305176</ele>
        <time>2022-05-22T09:09:05.000Z</time>
      </trkpt>
      <trkpt lat="44.79476" lon="1.56615">
        <ele>135.80000305176</ele>
        <time>2022-05-22T09:09:08.000Z</time>
      </trkpt>
      <trkpt lat="44.79475" lon="1.56617">
        <ele>136</ele>
        <time>2022-05-22T09:09:09.000Z</time>
      </trkpt>
      <trkpt lat="44.7947" lon="1.56629">
        <ele>136.60000610352</ele>
        <time>2022-05-22T09:09:14.000Z</time>
      </trkpt>
      <trkpt lat="44.79469" lon="1.56635">
        <ele>137.39999389648</ele>
        <time>2022-05-22T09:09:16.000Z</time>
      </trkpt>
      <trkpt lat="44.79468" lon="1.56647">
        <ele>138.19999694824</ele>
        <time>2022-05-22T09:09:21.000Z</time>
      </trkpt>
      <trkpt lat="44.79469" lon="1.56652">
        <ele>138.60000610352</ele>
        <time>2022-05-22T09:09:23.000Z</time>
      </trkpt>
      <trkpt lat="44.7947" lon="1.56663">
        <ele>139.80000305176</ele>
        <time>2022-05-22T09:09:28.000Z</time>
      </trkpt>
      <trkpt lat="44.79472" lon="1.56673">
        <ele>140.80000305176</ele>
        <time>2022-05-22T09:09:32.000Z</time>
      </trkpt>
      <trkpt lat="44.79473" lon="1.56679">
        <ele>141.39999389648</ele>
        <time>2022-05-22T09:09:35.000Z</time>
      </trkpt>
      <trkpt lat="44.79478" lon="1.5669">
        <ele>142</ele>
        <time>2022-05-22T09:09:39.000Z</time>
      </trkpt>
      <trkpt lat="44.7948" lon="1.56692">
        <ele>142.19999694824</ele>
        <time>2022-05-22T09:09:40.000Z</time>
      </trkpt>
      <trkpt lat="44.79484" lon="1.56698">
        <ele>143.19999694824</ele>
        <time>2022-05-22T09:09:42.000Z</time>
      </trkpt>
      <trkpt lat="44.7949" lon="1.56704">
        <ele>143.60000610352</ele>
        <time>2022-05-22T09:09:45.000Z</time>
      </trkpt>
      <trkpt lat="44.79493" lon="1.56709">
        <ele>144.39999389648</ele>
        <time>2022-05-22T09:09:47.000Z</time>
      </trkpt>
      <trkpt lat="44.79497" lon="1.56716">
        <ele>145.80000305176</ele>
        <time>2022-05-22T09:09:51.000Z</time>
      </trkpt>
      <trkpt lat="44.79498" lon="1.56718">
        <ele>147.19999694824</ele>
        <time>2022-05-22T09:09:55.000Z</time>
      </trkpt>
      <trkpt lat="44.79498" lon="1.56719">
        <ele>147.60000610352</ele>
        <time>2022-05-22T09:09:57.000Z</time>
      </trkpt>
      <trkpt lat="44.79503" lon="1.56723">
        <ele>148.19999694824</ele>
        <time>2022-05-22T09:10:05.000Z</time>
      </trkpt>
      <trkpt lat="44.79503" lon="1.56724">
        <ele>148.39999389648</ele>
        <time>2022-05-22T09:10:07.000Z</time>
      </trkpt>
      <trkpt lat="44.79506" lon="1.56729">
        <ele>149.60000610352</ele>
        <time>2022-05-22T09:10:15.000Z</time>
      </trkpt>
      <trkpt lat="44.79509" lon="1.56732">
        <ele>150</ele>
        <time>2022-05-22T09:10:22.000Z</time>
      </trkpt>
      <trkpt lat="44.79518" lon="1.56743">
        <ele>150.19999694824</ele>
        <time>2022-05-22T09:10:27.000Z</time>
      </trkpt>
      <trkpt lat="44.79522" lon="1.56747">
        <ele>150.60000610352</ele>
        <time>2022-05-22T09:10:29.000Z</time>
      </trkpt>
      <trkpt lat="44.79529" lon="1.56757">
        <ele>151.80000305176</ele>
        <time>2022-05-22T09:10:33.000Z</time>
      </trkpt>
      <trkpt lat="44.79531" lon="1.56759">
        <ele>152.19999694824</ele>
        <time>2022-05-22T09:10:34.000Z</time>
      </trkpt>
      <trkpt lat="44.79536" lon="1.56765">
        <ele>153.19999694824</ele>
        <time>2022-05-22T09:10:37.000Z</time>
      </trkpt>
      <trkpt lat="44.7954" lon="1.56772">
        <ele>154.19999694824</ele>
        <time>2022-05-22T09:10:40.000Z</time>
      </trkpt>
      <trkpt lat="44.79542" lon="1.56775">
        <ele>154.60000610352</ele>
        <time>2022-05-22T09:10:41.000Z</time>
      </trkpt>
      <trkpt lat="44.7955" lon="1.56788">
        <ele>155.19999694824</ele>
        <time>2022-05-22T09:10:47.000Z</time>
      </trkpt>
      <trkpt lat="44.79552" lon="1.56789">
        <ele>155.19999694824</ele>
        <time>2022-05-22T09:10:54.000Z</time>
      </trkpt>
      <trkpt lat="44.79553" lon="1.56791">
        <ele>154</ele>
        <time>2022-05-22T09:11:06.000Z</time>
      </trkpt>
      <trkpt lat="44.79553" lon="1.56791">
        <ele>153.39999389648</ele>
        <time>2022-05-22T09:11:11.000Z</time>
      </trkpt>
      <trkpt lat="44.79554" lon="1.56791">
        <ele>153.19999694824</ele>
        <time>2022-05-22T09:11:13.000Z</time>
      </trkpt>
      <trkpt lat="44.79571" lon="1.5681">
        <ele>153</ele>
        <time>2022-05-22T09:11:18.000Z</time>
      </trkpt>
      <trkpt lat="44.79582" lon="1.56822">
        <ele>152.39999389648</ele>
        <time>2022-05-22T09:11:21.000Z</time>
      </trkpt>
      <trkpt lat="44.79585" lon="1.56826">
        <ele>152.39999389648</ele>
        <time>2022-05-22T09:11:22.000Z</time>
      </trkpt>
      <trkpt lat="44.79586" lon="1.56829">
        <ele>152.39999389648</ele>
        <time>2022-05-22T09:11:23.000Z</time>
      </trkpt>
      <trkpt lat="44.7959" lon="1.56852">
        <ele>152.39999389648</ele>
        <time>2022-05-22T09:11:28.000Z</time>
      </trkpt>
      <trkpt lat="44.7959" lon="1.56857">
        <ele>152.39999389648</ele>
        <time>2022-05-22T09:11:29.000Z</time>
      </trkpt>
      <trkpt lat="44.79601" lon="1.56894">
        <ele>152.60000610352</ele>
        <time>2022-05-22T09:11:37.000Z</time>
      </trkpt>
      <trkpt lat="44.79601" lon="1.56907">
        <ele>153</ele>
        <time>2022-05-22T09:11:40.000Z</time>
      </trkpt>
      <trkpt lat="44.79599" lon="1.56912">
        <ele>153.19999694824</ele>
        <time>2022-05-22T09:11:41.000Z</time>
      </trkpt>
      <trkpt lat="44.79592" lon="1.56931">
        <ele>153.39999389648</ele>
        <time>2022-05-22T09:11:46.000Z</time>
      </trkpt>
      <trkpt lat="44.79589" lon="1.56957">
        <ele>153</ele>
        <time>2022-05-22T09:11:52.000Z</time>
      </trkpt>
      <trkpt lat="44.79592" lon="1.56973">
        <ele>152.39999389648</ele>
        <time>2022-05-22T09:11:55.000Z</time>
      </trkpt>
      <trkpt lat="44.79591" lon="1.56978">
        <ele>152.19999694824</ele>
        <time>2022-05-22T09:11:56.000Z</time>
      </trkpt>
      <trkpt lat="44.79579" lon="1.56993">
        <ele>151.80000305176</ele>
        <time>2022-05-22T09:12:00.000Z</time>
      </trkpt>
      <trkpt lat="44.79572" lon="1.57001">
        <ele>151</ele>
        <time>2022-05-22T09:12:02.000Z</time>
      </trkpt>
      <trkpt lat="44.79568" lon="1.57005">
        <ele>150.80000305176</ele>
        <time>2022-05-22T09:12:03.000Z</time>
      </trkpt>
      <trkpt lat="44.79555" lon="1.57025">
        <ele>149.80000305176</ele>
        <time>2022-05-22T09:12:07.000Z</time>
      </trkpt>
      <trkpt lat="44.79542" lon="1.57042">
        <ele>148.60000610352</ele>
        <time>2022-05-22T09:12:11.000Z</time>
      </trkpt>
      <trkpt lat="44.79536" lon="1.5705">
        <ele>147.39999389648</ele>
        <time>2022-05-22T09:12:13.000Z</time>
      </trkpt>
      <trkpt lat="44.79533" lon="1.57053">
        <ele>147</ele>
        <time>2022-05-22T09:12:14.000Z</time>
      </trkpt>
      <trkpt lat="44.79526" lon="1.57061">
        <ele>146.60000610352</ele>
        <time>2022-05-22T09:12:16.000Z</time>
      </trkpt>
      <trkpt lat="44.79522" lon="1.57066">
        <ele>146</ele>
        <time>2022-05-22T09:12:17.000Z</time>
      </trkpt>
      <trkpt lat="44.79509" lon="1.57082">
        <ele>145</ele>
        <time>2022-05-22T09:12:21.000Z</time>
      </trkpt>
      <trkpt lat="44.795" lon="1.57095">
        <ele>144.60000610352</ele>
        <time>2022-05-22T09:12:24.000Z</time>
      </trkpt>
      <trkpt lat="44.79491" lon="1.57107">
        <ele>144.39999389648</ele>
        <time>2022-05-22T09:12:27.000Z</time>
      </trkpt>
      <trkpt lat="44.79484" lon="1.57118">
        <ele>144.39999389648</ele>
        <time>2022-05-22T09:12:30.000Z</time>
      </trkpt>
      <trkpt lat="44.79472" lon="1.57136">
        <ele>144.19999694824</ele>
        <time>2022-05-22T09:12:35.000Z</time>
      </trkpt>
      <trkpt lat="44.79472" lon="1.57139">
        <ele>144.60000610352</ele>
        <time>2022-05-22T09:12:38.000Z</time>
      </trkpt>
      <trkpt lat="44.79472" lon="1.57139">
        <ele>144.60000610352</ele>
        <time>2022-05-22T09:12:41.000Z</time>
      </trkpt>
      <trkpt lat="44.79472" lon="1.57139">
        <ele>144.60000610352</ele>
        <time>2022-05-22T09:12:46.000Z</time>
      </trkpt>
      <trkpt lat="44.79472" lon="1.57139">
        <ele>144.19999694824</ele>
        <time>2022-05-22T09:12:52.000Z</time>
      </trkpt>
      <trkpt lat="44.79472" lon="1.57139">
        <ele>144</ele>
        <time>2022-05-22T09:12:54.000Z</time>
      </trkpt>
      <trkpt lat="44.79472" lon="1.57139">
        <ele>143.80000305176</ele>
        <time>2022-05-22T09:13:09.000Z</time>
      </trkpt>
      <trkpt lat="44.79472" lon="1.57139">
        <ele>143.60000610352</ele>
        <time>2022-05-22T09:13:20.000Z</time>
      </trkpt>
      <trkpt lat="44.79472" lon="1.57139">
        <ele>143.80000305176</ele>
        <time>2022-05-22T09:13:31.000Z</time>
      </trkpt>
      <trkpt lat="44.79472" lon="1.57139">
        <ele>143.39999389648</ele>
        <time>2022-05-22T09:14:07.000Z</time>
      </trkpt>
      <trkpt lat="44.79472" lon="1.57139">
        <ele>143.19999694824</ele>
        <time>2022-05-22T09:14:19.000Z</time>
      </trkpt>
      <trkpt lat="44.79472" lon="1.57139">
        <ele>143.39999389648</ele>
        <time>2022-05-22T09:14:20.000Z</time>
      </trkpt>
      <trkpt lat="44.79472" lon="1.57139">
        <ele>143</ele>
        <time>2022-05-22T09:14:49.000Z</time>
      </trkpt>
      <trkpt lat="44.79471" lon="1.57139">
        <ele>143</ele>
        <time>2022-05-22T09:15:00.000Z</time>
      </trkpt>
      <trkpt lat="44.79471" lon="1.57139">
        <ele>143.19999694824</ele>
        <time>2022-05-22T09:15:03.000Z</time>
      </trkpt>
      <trkpt lat="44.7947" lon="1.57139">
        <ele>143.19999694824</ele>
        <time>2022-05-22T09:15:16.000Z</time>
      </trkpt>
      <trkpt lat="44.7947" lon="1.57139">
        <ele>143.19999694824</ele>
        <time>2022-05-22T09:15:18.000Z</time>
      </trkpt>
      <trkpt lat="44.79464" lon="1.57146">
        <ele>143.19999694824</ele>
        <time>2022-05-22T09:15:21.000Z</time>
      </trkpt>
      <trkpt lat="44.79443" lon="1.57167">
        <ele>142.80000305176</ele>
        <time>2022-05-22T09:15:28.000Z</time>
      </trkpt>
      <trkpt lat="44.7943" lon="1.57181">
        <ele>142.39999389648</ele>
        <time>2022-05-22T09:15:32.000Z</time>
      </trkpt>
      <trkpt lat="44.79424" lon="1.57188">
        <ele>142.19999694824</ele>
        <time>2022-05-22T09:15:34.000Z</time>
      </trkpt>
      <trkpt lat="44.79409" lon="1.57201">
        <ele>141.39999389648</ele>
        <time>2022-05-22T09:15:39.000Z</time>
      </trkpt>
      <trkpt lat="44.79407" lon="1.57203">
        <ele>141.19999694824</ele>
        <time>2022-05-22T09:15:40.000Z</time>
      </trkpt>
      <trkpt lat="44.7939" lon="1.57231">
        <ele>140.39999389648</ele>
        <time>2022-05-22T09:15:47.000Z</time>
      </trkpt>
      <trkpt lat="44.79389" lon="1.57235">
        <ele>140.39999389648</ele>
        <time>2022-05-22T09:15:48.000Z</time>
      </trkpt>
      <trkpt lat="44.79387" lon="1.57238">
        <ele>140.39999389648</ele>
        <time>2022-05-22T09:15:49.000Z</time>
      </trkpt>
      <trkpt lat="44.79374" lon="1.57259">
        <ele>139.80000305176</ele>
        <time>2022-05-22T09:15:55.000Z</time>
      </trkpt>
      <trkpt lat="44.79363" lon="1.57291">
        <ele>139.39999389648</ele>
        <time>2022-05-22T09:16:02.000Z</time>
      </trkpt>
      <trkpt lat="44.79353" lon="1.57316">
        <ele>140.19999694824</ele>
        <time>2022-05-22T09:16:08.000Z</time>
      </trkpt>
      <trkpt lat="44.79348" lon="1.57326">
        <ele>140.19999694824</ele>
        <time>2022-05-22T09:16:10.000Z</time>
      </trkpt>
      <trkpt lat="44.7934" lon="1.57345">
        <ele>140.19999694824</ele>
        <time>2022-05-22T09:16:13.000Z</time>
      </trkpt>
      <trkpt lat="44.79333" lon="1.57367">
        <ele>139.39999389648</ele>
        <time>2022-05-22T09:16:16.000Z</time>
      </trkpt>
      <trkpt lat="44.79332" lon="1.57376">
        <ele>139</ele>
        <time>2022-05-22T09:16:17.000Z</time>
      </trkpt>
      <trkpt lat="44.79331" lon="1.57384">
        <ele>138.60000610352</ele>
        <time>2022-05-22T09:16:18.000Z</time>
      </trkpt>
      <trkpt lat="44.79329" lon="1.574">
        <ele>138.19999694824</ele>
        <time>2022-05-22T09:16:20.000Z</time>
      </trkpt>
      <trkpt lat="44.79324" lon="1.57414">
        <ele>138</ele>
        <time>2022-05-22T09:16:22.000Z</time>
      </trkpt>
      <trkpt lat="44.79321" lon="1.57422">
        <ele>137.60000610352</ele>
        <time>2022-05-22T09:16:23.000Z</time>
      </trkpt>
      <trkpt lat="44.79311" lon="1.57442">
        <ele>136.60000610352</ele>
        <time>2022-05-22T09:16:26.000Z</time>
      </trkpt>
      <trkpt lat="44.79307" lon="1.57448">
        <ele>136</ele>
        <time>2022-05-22T09:16:27.000Z</time>
      </trkpt>
      <trkpt lat="44.79303" lon="1.57454">
        <ele>135.60000610352</ele>
        <time>2022-05-22T09:16:28.000Z</time>
      </trkpt>
      <trkpt lat="44.79295" lon="1.57464">
        <ele>135.19999694824</ele>
        <time>2022-05-22T09:16:30.000Z</time>
      </trkpt>
      <trkpt lat="44.79287" lon="1.57472">
        <ele>135</ele>
        <time>2022-05-22T09:16:32.000Z</time>
      </trkpt>
      <trkpt lat="44.79277" lon="1.57485">
        <ele>135.39999389648</ele>
        <time>2022-05-22T09:16:35.000Z</time>
      </trkpt>
      <trkpt lat="44.79272" lon="1.57493">
        <ele>135.80000305176</ele>
        <time>2022-05-22T09:16:37.000Z</time>
      </trkpt>
      <trkpt lat="44.79267" lon="1.57502">
        <ele>136.60000610352</ele>
        <time>2022-05-22T09:16:39.000Z</time>
      </trkpt>
      <trkpt lat="44.79261" lon="1.57513">
        <ele>137.60000610352</ele>
        <time>2022-05-22T09:16:42.000Z</time>
      </trkpt>
      <trkpt lat="44.79253" lon="1.57527">
        <ele>139.39999389648</ele>
        <time>2022-05-22T09:16:46.000Z</time>
      </trkpt>
      <trkpt lat="44.7925" lon="1.57531">
        <ele>140</ele>
        <time>2022-05-22T09:16:47.000Z</time>
      </trkpt>
      <trkpt lat="44.79245" lon="1.57537">
        <ele>140.60000610352</ele>
        <time>2022-05-22T09:16:49.000Z</time>
      </trkpt>
      <trkpt lat="44.79229" lon="1.57561">
        <ele>141.80000305176</ele>
        <time>2022-05-22T09:16:55.000Z</time>
      </trkpt>
      <trkpt lat="44.79212" lon="1.5759">
        <ele>143</ele>
        <time>2022-05-22T09:17:03.000Z</time>
      </trkpt>
      <trkpt lat="44.79208" lon="1.57598">
        <ele>143.39999389648</ele>
        <time>2022-05-22T09:17:05.000Z</time>
      </trkpt>
      <trkpt lat="44.79195" lon="1.57626">
        <ele>143.80000305176</ele>
        <time>2022-05-22T09:17:12.000Z</time>
      </trkpt>
      <trkpt lat="44.79192" lon="1.57634">
        <ele>144</ele>
        <time>2022-05-22T09:17:14.000Z</time>
      </trkpt>
      <trkpt lat="44.79185" lon="1.5766">
        <ele>145.19999694824</ele>
        <time>2022-05-22T09:17:20.000Z</time>
      </trkpt>
      <trkpt lat="44.79184" lon="1.57664">
        <ele>145.39999389648</ele>
        <time>2022-05-22T09:17:21.000Z</time>
      </trkpt>
      <trkpt lat="44.7918" lon="1.57688">
        <ele>146.39999389648</ele>
        <time>2022-05-22T09:17:27.000Z</time>
      </trkpt>
      <trkpt lat="44.79173" lon="1.57715">
        <ele>147.19999694824</ele>
        <time>2022-05-22T09:17:34.000Z</time>
      </trkpt>
      <trkpt lat="44.79172" lon="1.57719">
        <ele>147.80000305176</ele>
        <time>2022-05-22T09:17:35.000Z</time>
      </trkpt>
      <trkpt lat="44.79169" lon="1.57734">
        <ele>148.80000305176</ele>
        <time>2022-05-22T09:17:39.000Z</time>
      </trkpt>
      <trkpt lat="44.79168" lon="1.57745">
        <ele>149.39999389648</ele>
        <time>2022-05-22T09:17:42.000Z</time>
      </trkpt>
      <trkpt lat="44.79165" lon="1.57761">
        <ele>150</ele>
        <time>2022-05-22T09:17:46.000Z</time>
      </trkpt>
      <trkpt lat="44.79161" lon="1.57776">
        <ele>151.19999694824</ele>
        <time>2022-05-22T09:17:50.000Z</time>
      </trkpt>
      <trkpt lat="44.79154" lon="1.57789">
        <ele>152.19999694824</ele>
        <time>2022-05-22T09:17:54.000Z</time>
      </trkpt>
      <trkpt lat="44.79146" lon="1.57805">
        <ele>152.60000610352</ele>
        <time>2022-05-22T09:17:59.000Z</time>
      </trkpt>
      <trkpt lat="44.79138" lon="1.57831">
        <ele>152.19999694824</ele>
        <time>2022-05-22T09:18:06.000Z</time>
      </trkpt>
      <trkpt lat="44.79132" lon="1.57864">
        <ele>151.39999389648</ele>
        <time>2022-05-22T09:18:11.000Z</time>
      </trkpt>
      <trkpt lat="44.79132" lon="1.57871">
        <ele>151.19999694824</ele>
        <time>2022-05-22T09:18:12.000Z</time>
      </trkpt>
      <trkpt lat="44.79132" lon="1.57879">
        <ele>151</ele>
        <time>2022-05-22T09:18:13.000Z</time>
      </trkpt>
      <trkpt lat="44.79134" lon="1.57921">
        <ele>150.60000610352</ele>
        <time>2022-05-22T09:18:18.000Z</time>
      </trkpt>
      <trkpt lat="44.79137" lon="1.57953">
        <ele>150.19999694824</ele>
        <time>2022-05-22T09:18:22.000Z</time>
      </trkpt>
      <trkpt lat="44.79138" lon="1.57968">
        <ele>150</ele>
        <time>2022-05-22T09:18:24.000Z</time>
      </trkpt>
      <trkpt lat="44.79139" lon="1.57974">
        <ele>150</ele>
        <time>2022-05-22T09:18:25.000Z</time>
      </trkpt>
      <trkpt lat="44.79142" lon="1.58004">
        <ele>150</ele>
        <time>2022-05-22T09:18:30.000Z</time>
      </trkpt>
      <trkpt lat="44.79142" lon="1.58054">
        <ele>150.19999694824</ele>
        <time>2022-05-22T09:18:37.000Z</time>
      </trkpt>
      <trkpt lat="44.79143" lon="1.58084">
        <ele>150.19999694824</ele>
        <time>2022-05-22T09:18:41.000Z</time>
      </trkpt>
      <trkpt lat="44.79146" lon="1.58113">
        <ele>149.80000305176</ele>
        <time>2022-05-22T09:18:45.000Z</time>
      </trkpt>
      <trkpt lat="44.79147" lon="1.5812">
        <ele>149.60000610352</ele>
        <time>2022-05-22T09:18:46.000Z</time>
      </trkpt>
      <trkpt lat="44.79156" lon="1.58162">
        <ele>149.19999694824</ele>
        <time>2022-05-22T09:18:52.000Z</time>
      </trkpt>
      <trkpt lat="44.79158" lon="1.58176">
        <ele>149.19999694824</ele>
        <time>2022-05-22T09:18:54.000Z</time>
      </trkpt>
      <trkpt lat="44.79161" lon="1.5819">
        <ele>149</ele>
        <time>2022-05-22T09:18:56.000Z</time>
      </trkpt>
      <trkpt lat="44.79164" lon="1.58215">
        <ele>148.39999389648</ele>
        <time>2022-05-22T09:19:00.000Z</time>
      </trkpt>
      <trkpt lat="44.79166" lon="1.5822">
        <ele>148</ele>
        <time>2022-05-22T09:19:01.000Z</time>
      </trkpt>
      <trkpt lat="44.7917" lon="1.58228">
        <ele>147.60000610352</ele>
        <time>2022-05-22T09:19:03.000Z</time>
      </trkpt>
      <trkpt lat="44.79177" lon="1.58234">
        <ele>147</ele>
        <time>2022-05-22T09:19:05.000Z</time>
      </trkpt>
      <trkpt lat="44.79185" lon="1.58241">
        <ele>146.39999389648</ele>
        <time>2022-05-22T09:19:07.000Z</time>
      </trkpt>
      <trkpt lat="44.79191" lon="1.58254">
        <ele>145.19999694824</ele>
        <time>2022-05-22T09:19:09.000Z</time>
      </trkpt>
      <trkpt lat="44.79192" lon="1.58268">
        <ele>144.60000610352</ele>
        <time>2022-05-22T09:19:11.000Z</time>
      </trkpt>
      <trkpt lat="44.7919" lon="1.58275">
        <ele>144.19999694824</ele>
        <time>2022-05-22T09:19:12.000Z</time>
      </trkpt>
      <trkpt lat="44.79187" lon="1.58281">
        <ele>144.19999694824</ele>
        <time>2022-05-22T09:19:13.000Z</time>
      </trkpt>
      <trkpt lat="44.7918" lon="1.58299">
        <ele>144.19999694824</ele>
        <time>2022-05-22T09:19:17.000Z</time>
      </trkpt>
      <trkpt lat="44.79176" lon="1.58309">
        <ele>144.39999389648</ele>
        <time>2022-05-22T09:19:20.000Z</time>
      </trkpt>
      <trkpt lat="44.79172" lon="1.5832">
        <ele>145</ele>
        <time>2022-05-22T09:19:23.000Z</time>
      </trkpt>
      <trkpt lat="44.79171" lon="1.58325">
        <ele>145.60000610352</ele>
        <time>2022-05-22T09:19:24.000Z</time>
      </trkpt>
      <trkpt lat="44.79169" lon="1.58338">
        <ele>147</ele>
        <time>2022-05-22T09:19:27.000Z</time>
      </trkpt>
      <trkpt lat="44.79169" lon="1.58353">
        <ele>147.80000305176</ele>
        <time>2022-05-22T09:19:30.000Z</time>
      </trkpt>
      <trkpt lat="44.7917" lon="1.58363">
        <ele>148.19999694824</ele>
        <time>2022-05-22T09:19:32.000Z</time>
      </trkpt>
      <trkpt lat="44.79173" lon="1.58396">
        <ele>149.19999694824</ele>
        <time>2022-05-22T09:19:38.000Z</time>
      </trkpt>
      <trkpt lat="44.79175" lon="1.58419">
        <ele>150.39999389648</ele>
        <time>2022-05-22T09:19:42.000Z</time>
      </trkpt>
      <trkpt lat="44.79177" lon="1.5843">
        <ele>150.60000610352</ele>
        <time>2022-05-22T09:19:44.000Z</time>
      </trkpt>
      <trkpt lat="44.79182" lon="1.58452">
        <ele>151</ele>
        <time>2022-05-22T09:19:48.000Z</time>
      </trkpt>
      <trkpt lat="44.79184" lon="1.58463">
        <ele>151.39999389648</ele>
        <time>2022-05-22T09:19:50.000Z</time>
      </trkpt>
      <trkpt lat="44.79192" lon="1.58495">
        <ele>152.60000610352</ele>
        <time>2022-05-22T09:19:56.000Z</time>
      </trkpt>
      <trkpt lat="44.79194" lon="1.58501">
        <ele>152.80000305176</ele>
        <time>2022-05-22T09:19:57.000Z</time>
      </trkpt>
      <trkpt lat="44.792" lon="1.58523">
        <ele>153.80000305176</ele>
        <time>2022-05-22T09:20:01.000Z</time>
      </trkpt>
      <trkpt lat="44.79204" lon="1.58533">
        <ele>154.19999694824</ele>
        <time>2022-05-22T09:20:03.000Z</time>
      </trkpt>
      <trkpt lat="44.79217" lon="1.58558">
        <ele>154.80000305176</ele>
        <time>2022-05-22T09:20:08.000Z</time>
      </trkpt>
      <trkpt lat="44.79222" lon="1.58569">
        <ele>155</ele>
        <time>2022-05-22T09:20:10.000Z</time>
      </trkpt>
      <trkpt lat="44.79224" lon="1.58574">
        <ele>155</ele>
        <time>2022-05-22T09:20:11.000Z</time>
      </trkpt>
      <trkpt lat="44.79237" lon="1.58605">
        <ele>155.80000305176</ele>
        <time>2022-05-22T09:20:18.000Z</time>
      </trkpt>
      <trkpt lat="44.79242" lon="1.58624">
        <ele>156.19999694824</ele>
        <time>2022-05-22T09:20:22.000Z</time>
      </trkpt>
      <trkpt lat="44.79247" lon="1.5865">
        <ele>156.60000610352</ele>
        <time>2022-05-22T09:20:27.000Z</time>
      </trkpt>
      <trkpt lat="44.79251" lon="1.5867">
        <ele>157.39999389648</ele>
        <time>2022-05-22T09:20:31.000Z</time>
      </trkpt>
      <trkpt lat="44.79255" lon="1.5869">
        <ele>157.80000305176</ele>
        <time>2022-05-22T09:20:35.000Z</time>
      </trkpt>
      <trkpt lat="44.79258" lon="1.58711">
        <ele>158.60000610352</ele>
        <time>2022-05-22T09:20:39.000Z</time>
      </trkpt>
      <trkpt lat="44.79262" lon="1.58742">
        <ele>159.80000305176</ele>
        <time>2022-05-22T09:20:45.000Z</time>
      </trkpt>
      <trkpt lat="44.79266" lon="1.58774">
        <ele>160.80000305176</ele>
        <time>2022-05-22T09:20:52.000Z</time>
      </trkpt>
      <trkpt lat="44.79268" lon="1.58803">
        <ele>162</ele>
        <time>2022-05-22T09:20:59.000Z</time>
      </trkpt>
      <trkpt lat="44.79269" lon="1.58811">
        <ele>162.39999389648</ele>
        <time>2022-05-22T09:21:01.000Z</time>
      </trkpt>
      <trkpt lat="44.7927" lon="1.58825">
        <ele>163</ele>
        <time>2022-05-22T09:21:04.000Z</time>
      </trkpt>
      <trkpt lat="44.79272" lon="1.58842">
        <ele>164.19999694824</ele>
        <time>2022-05-22T09:21:08.000Z</time>
      </trkpt>
      <trkpt lat="44.79273" lon="1.5885">
        <ele>165</ele>
        <time>2022-05-22T09:21:10.000Z</time>
      </trkpt>
      <trkpt lat="44.79274" lon="1.58859">
        <ele>165.39999389648</ele>
        <time>2022-05-22T09:21:12.000Z</time>
      </trkpt>
      <trkpt lat="44.79275" lon="1.58894">
        <ele>166.19999694824</ele>
        <time>2022-05-22T09:21:20.000Z</time>
      </trkpt>
      <trkpt lat="44.79275" lon="1.58904">
        <ele>166.39999389648</ele>
        <time>2022-05-22T09:21:22.000Z</time>
      </trkpt>
      <trkpt lat="44.79275" lon="1.58922">
        <ele>167.60000610352</ele>
        <time>2022-05-22T09:21:26.000Z</time>
      </trkpt>
      <trkpt lat="44.79275" lon="1.58937">
        <ele>168.60000610352</ele>
        <time>2022-05-22T09:21:29.000Z</time>
      </trkpt>
      <trkpt lat="44.79277" lon="1.58967">
        <ele>169.60000610352</ele>
        <time>2022-05-22T09:21:35.000Z</time>
      </trkpt>
      <trkpt lat="44.79279" lon="1.58985">
        <ele>171</ele>
        <time>2022-05-22T09:21:39.000Z</time>
      </trkpt>
      <trkpt lat="44.7928" lon="1.58995">
        <ele>171.39999389648</ele>
        <time>2022-05-22T09:21:41.000Z</time>
      </trkpt>
      <trkpt lat="44.79281" lon="1.59009">
        <ele>172.39999389648</ele>
        <time>2022-05-22T09:21:44.000Z</time>
      </trkpt>
      <trkpt lat="44.7928" lon="1.59041">
        <ele>173.60000610352</ele>
        <time>2022-05-22T09:21:50.000Z</time>
      </trkpt>
      <trkpt lat="44.7928" lon="1.59047">
        <ele>173.80000305176</ele>
        <time>2022-05-22T09:21:51.000Z</time>
      </trkpt>
      <trkpt lat="44.79278" lon="1.59077">
        <ele>174.80000305176</ele>
        <time>2022-05-22T09:21:57.000Z</time>
      </trkpt>
      <trkpt lat="44.79278" lon="1.59086">
        <ele>175.19999694824</ele>
        <time>2022-05-22T09:21:59.000Z</time>
      </trkpt>
      <trkpt lat="44.79276" lon="1.59102">
        <ele>176</ele>
        <time>2022-05-22T09:22:03.000Z</time>
      </trkpt>
      <trkpt lat="44.79277" lon="1.5911">
        <ele>176.19999694824</ele>
        <time>2022-05-22T09:22:05.000Z</time>
      </trkpt>
      <trkpt lat="44.7928" lon="1.59128">
        <ele>176.80000305176</ele>
        <time>2022-05-22T09:22:11.000Z</time>
      </trkpt>
      <trkpt lat="44.79281" lon="1.59132">
        <ele>177</ele>
        <time>2022-05-22T09:22:12.000Z</time>
      </trkpt>
      <trkpt lat="44.79284" lon="1.5915">
        <ele>178</ele>
        <time>2022-05-22T09:22:19.000Z</time>
      </trkpt>
      <trkpt lat="44.79283" lon="1.59158">
        <ele>178.19999694824</ele>
        <time>2022-05-22T09:22:22.000Z</time>
      </trkpt>
      <trkpt lat="44.79283" lon="1.59158">
        <ele>178</ele>
        <time>2022-05-22T09:22:23.000Z</time>
      </trkpt>
      <trkpt lat="44.79284" lon="1.59156">
        <ele>177.80000305176</ele>
        <time>2022-05-22T09:22:32.000Z</time>
      </trkpt>
      <trkpt lat="44.79286" lon="1.59153">
        <ele>177.80000305176</ele>
        <time>2022-05-22T09:22:38.000Z</time>
      </trkpt>
      <trkpt lat="44.79286" lon="1.59153">
        <ele>177.80000305176</ele>
        <time>2022-05-22T09:22:39.000Z</time>
      </trkpt>
      <trkpt lat="44.79286" lon="1.59153">
        <ele>177.60000610352</ele>
        <time>2022-05-22T09:22:45.000Z</time>
      </trkpt>
      <trkpt lat="44.79286" lon="1.59153">
        <ele>177.80000305176</ele>
        <time>2022-05-22T09:22:53.000Z</time>
      </trkpt>
      <trkpt lat="44.79286" lon="1.59153">
        <ele>177.60000610352</ele>
        <time>2022-05-22T09:23:05.000Z</time>
      </trkpt>
      <trkpt lat="44.79286" lon="1.59153">
        <ele>177.60000610352</ele>
        <time>2022-05-22T09:23:16.000Z</time>
      </trkpt>
      <trkpt lat="44.79286" lon="1.59153">
        <ele>177.60000610352</ele>
        <time>2022-05-22T09:23:19.000Z</time>
      </trkpt>
      <trkpt lat="44.79286" lon="1.59153">
        <ele>177.60000610352</ele>
        <time>2022-05-22T09:23:38.000Z</time>
      </trkpt>
      <trkpt lat="44.79286" lon="1.59153">
        <ele>177.39999389648</ele>
        <time>2022-05-22T09:23:45.000Z</time>
      </trkpt>
      <trkpt lat="44.79286" lon="1.59153">
        <ele>177.60000610352</ele>
        <time>2022-05-22T09:24:09.000Z</time>
      </trkpt>
      <trkpt lat="44.79286" lon="1.59153">
        <ele>177.80000305176</ele>
        <time>2022-05-22T09:24:17.000Z</time>
      </trkpt>
      <trkpt lat="44.79286" lon="1.59153">
        <ele>177.80000305176</ele>
        <time>2022-05-22T09:24:21.000Z</time>
      </trkpt>
      <trkpt lat="44.79286" lon="1.59149">
        <ele>177.60000610352</ele>
        <time>2022-05-22T09:24:38.000Z</time>
      </trkpt>
      <trkpt lat="44.79287" lon="1.59149">
        <ele>177.60000610352</ele>
        <time>2022-05-22T09:25:04.000Z</time>
      </trkpt>
      <trkpt lat="44.79287" lon="1.59149">
        <ele>177.60000610352</ele>
        <time>2022-05-22T09:25:16.000Z</time>
      </trkpt>
      <trkpt lat="44.79287" lon="1.59149">
        <ele>177.60000610352</ele>
        <time>2022-05-22T09:25:25.000Z</time>
      </trkpt>
      <trkpt lat="44.79287" lon="1.59149">
        <ele>178</ele>
        <time>2022-05-22T09:26:08.000Z</time>
      </trkpt>
      <trkpt lat="44.79287" lon="1.59149">
        <ele>178.19999694824</ele>
        <time>2022-05-22T09:26:29.000Z</time>
      </trkpt>
      <trkpt lat="44.79287" lon="1.59149">
        <ele>178.19999694824</ele>
        <time>2022-05-22T09:26:30.000Z</time>
      </trkpt>
      <trkpt lat="44.79287" lon="1.59149">
        <ele>178</ele>
        <time>2022-05-22T09:26:58.000Z</time>
      </trkpt>
      <trkpt lat="44.79287" lon="1.59149">
        <ele>178</ele>
        <time>2022-05-22T09:27:01.000Z</time>
      </trkpt>
      <trkpt lat="44.79287" lon="1.59149">
        <ele>178.19999694824</ele>
        <time>2022-05-22T09:27:32.000Z</time>
      </trkpt>
      <trkpt lat="44.79287" lon="1.59149">
        <ele>178.19999694824</ele>
        <time>2022-05-22T09:28:03.000Z</time>
      </trkpt>
      <trkpt lat="44.79287" lon="1.59149">
        <ele>178.39999389648</ele>
        <time>2022-05-22T09:28:26.000Z</time>
      </trkpt>
      <trkpt lat="44.79287" lon="1.59149">
        <ele>178.60000610352</ele>
        <time>2022-05-22T09:29:10.000Z</time>
      </trkpt>
      <trkpt lat="44.79286" lon="1.59149">
        <ele>178.39999389648</ele>
        <time>2022-05-22T09:29:45.000Z</time>
      </trkpt>
      <trkpt lat="44.79286" lon="1.59153">
        <ele>178.39999389648</ele>
        <time>2022-05-22T09:29:48.000Z</time>
      </trkpt>
      <trkpt lat="44.79284" lon="1.59161">
        <ele>178.19999694824</ele>
        <time>2022-05-22T09:29:50.000Z</time>
      </trkpt>
      <trkpt lat="44.79278" lon="1.59187">
        <ele>178.19999694824</ele>
        <time>2022-05-22T09:29:54.000Z</time>
      </trkpt>
      <trkpt lat="44.79269" lon="1.59217">
        <ele>177.39999389648</ele>
        <time>2022-05-22T09:29:58.000Z</time>
      </trkpt>
      <trkpt lat="44.79265" lon="1.59233">
        <ele>176.80000305176</ele>
        <time>2022-05-22T09:30:00.000Z</time>
      </trkpt>
      <trkpt lat="44.7926" lon="1.59261">
        <ele>176.19999694824</ele>
        <time>2022-05-22T09:30:03.000Z</time>
      </trkpt>
      <trkpt lat="44.79258" lon="1.59281">
        <ele>175.19999694824</ele>
        <time>2022-05-22T09:30:05.000Z</time>
      </trkpt>
      <trkpt lat="44.79257" lon="1.59291">
        <ele>174.60000610352</ele>
        <time>2022-05-22T09:30:06.000Z</time>
      </trkpt>
      <trkpt lat="44.79255" lon="1.59314">
        <ele>173.60000610352</ele>
        <time>2022-05-22T09:30:08.000Z</time>
      </trkpt>
      <trkpt lat="44.79256" lon="1.59338">
        <ele>173</ele>
        <time>2022-05-22T09:30:10.000Z</time>
      </trkpt>
      <trkpt lat="44.79257" lon="1.59363">
        <ele>172</ele>
        <time>2022-05-22T09:30:12.000Z</time>
      </trkpt>
      <trkpt lat="44.79259" lon="1.59386">
        <ele>170.80000305176</ele>
        <time>2022-05-22T09:30:14.000Z</time>
      </trkpt>
      <trkpt lat="44.79262" lon="1.59408">
        <ele>169.80000305176</ele>
        <time>2022-05-22T09:30:16.000Z</time>
      </trkpt>
      <trkpt lat="44.79265" lon="1.59419">
        <ele>169.39999389648</ele>
        <time>2022-05-22T09:30:17.000Z</time>
      </trkpt>
      <trkpt lat="44.79273" lon="1.59442">
        <ele>168</ele>
        <time>2022-05-22T09:30:19.000Z</time>
      </trkpt>
      <trkpt lat="44.79282" lon="1.59465">
        <ele>166.60000610352</ele>
        <time>2022-05-22T09:30:21.000Z</time>
      </trkpt>
      <trkpt lat="44.79288" lon="1.59477">
        <ele>165.39999389648</ele>
        <time>2022-05-22T09:30:22.000Z</time>
      </trkpt>
      <trkpt lat="44.79296" lon="1.59495">
        <ele>164.19999694824</ele>
        <time>2022-05-22T09:30:24.000Z</time>
      </trkpt>
      <trkpt lat="44.79305" lon="1.59516">
        <ele>163.39999389648</ele>
        <time>2022-05-22T09:30:26.000Z</time>
      </trkpt>
      <trkpt lat="44.79309" lon="1.59524">
        <ele>163</ele>
        <time>2022-05-22T09:30:27.000Z</time>
      </trkpt>
      <trkpt lat="44.79314" lon="1.59533">
        <ele>162.80000305176</ele>
        <time>2022-05-22T09:30:28.000Z</time>
      </trkpt>
      <trkpt lat="44.79318" lon="1.59539">
        <ele>161.60000610352</ele>
        <time>2022-05-22T09:30:29.000Z</time>
      </trkpt>
      <trkpt lat="44.79326" lon="1.59549">
        <ele>161.19999694824</ele>
        <time>2022-05-22T09:30:30.000Z</time>
      </trkpt>
      <trkpt lat="44.79332" lon="1.59557">
        <ele>160.39999389648</ele>
        <time>2022-05-22T09:30:31.000Z</time>
      </trkpt>
      <trkpt lat="44.79355" lon="1.59579">
        <ele>159</ele>
        <time>2022-05-22T09:30:34.000Z</time>
      </trkpt>
      <trkpt lat="44.79362" lon="1.59586">
        <ele>158.60000610352</ele>
        <time>2022-05-22T09:30:35.000Z</time>
      </trkpt>
      <trkpt lat="44.7937" lon="1.59593">
        <ele>157.19999694824</ele>
        <time>2022-05-22T09:30:36.000Z</time>
      </trkpt>
      <trkpt lat="44.79384" lon="1.59606">
        <ele>155.60000610352</ele>
        <time>2022-05-22T09:30:38.000Z</time>
      </trkpt>
      <trkpt lat="44.79392" lon="1.59611">
        <ele>154.60000610352</ele>
        <time>2022-05-22T09:30:39.000Z</time>
      </trkpt>
      <trkpt lat="44.79399" lon="1.59616">
        <ele>154.19999694824</ele>
        <time>2022-05-22T09:30:40.000Z</time>
      </trkpt>
      <trkpt lat="44.79406" lon="1.5962">
        <ele>153.39999389648</ele>
        <time>2022-05-22T09:30:41.000Z</time>
      </trkpt>
      <trkpt lat="44.79411" lon="1.59622">
        <ele>153</ele>
        <time>2022-05-22T09:30:42.000Z</time>
      </trkpt>
      <trkpt lat="44.79416" lon="1.59621">
        <ele>151.19999694824</ele>
        <time>2022-05-22T09:30:43.000Z</time>
      </trkpt>
      <trkpt lat="44.79421" lon="1.59619">
        <ele>150.19999694824</ele>
        <time>2022-05-22T09:30:44.000Z</time>
      </trkpt>
      <trkpt lat="44.79429" lon="1.5961">
        <ele>148.39999389648</ele>
        <time>2022-05-22T09:30:46.000Z</time>
      </trkpt>
      <trkpt lat="44.79434" lon="1.59604">
        <ele>147.80000305176</ele>
        <time>2022-05-22T09:30:47.000Z</time>
      </trkpt>
      <trkpt lat="44.79438" lon="1.59599">
        <ele>146.80000305176</ele>
        <time>2022-05-22T09:30:48.000Z</time>
      </trkpt>
      <trkpt lat="44.79449" lon="1.59585">
        <ele>145.60000610352</ele>
        <time>2022-05-22T09:30:51.000Z</time>
      </trkpt>
      <trkpt lat="44.79453" lon="1.59583">
        <ele>145.39999389648</ele>
        <time>2022-05-22T09:30:52.000Z</time>
      </trkpt>
      <trkpt lat="44.79464" lon="1.59582">
        <ele>144.60000610352</ele>
        <time>2022-05-22T09:30:55.000Z</time>
      </trkpt>
      <trkpt lat="44.79467" lon="1.59583">
        <ele>144.60000610352</ele>
        <time>2022-05-22T09:30:56.000Z</time>
      </trkpt>
      <trkpt lat="44.79487" lon="1.59592">
        <ele>144.80000305176</ele>
        <time>2022-05-22T09:31:01.000Z</time>
      </trkpt>
      <trkpt lat="44.79491" lon="1.59594">
        <ele>145</ele>
        <time>2022-05-22T09:31:02.000Z</time>
      </trkpt>
      <trkpt lat="44.79508" lon="1.59605">
        <ele>145.39999389648</ele>
        <time>2022-05-22T09:31:07.000Z</time>
      </trkpt>
      <trkpt lat="44.79517" lon="1.59611">
        <ele>145.60000610352</ele>
        <time>2022-05-22T09:31:10.000Z</time>
      </trkpt>
      <trkpt lat="44.79533" lon="1.59625">
        <ele>146.60000610352</ele>
        <time>2022-05-22T09:31:15.000Z</time>
      </trkpt>
      <trkpt lat="44.7954" lon="1.59631">
        <ele>146.80000305176</ele>
        <time>2022-05-22T09:31:17.000Z</time>
      </trkpt>
      <trkpt lat="44.79557" lon="1.59646">
        <ele>147</ele>
        <time>2022-05-22T09:31:22.000Z</time>
      </trkpt>
      <trkpt lat="44.79572" lon="1.59661">
        <ele>147.19999694824</ele>
        <time>2022-05-22T09:31:26.000Z</time>
      </trkpt>
      <trkpt lat="44.79579" lon="1.59668">
        <ele>147.39999389648</ele>
        <time>2022-05-22T09:31:28.000Z</time>
      </trkpt>
      <trkpt lat="44.79605" lon="1.59697">
        <ele>148</ele>
        <time>2022-05-22T09:31:36.000Z</time>
      </trkpt>
      <trkpt lat="44.79615" lon="1.59716">
        <ele>148.60000610352</ele>
        <time>2022-05-22T09:31:40.000Z</time>
      </trkpt>
      <trkpt lat="44.79618" lon="1.59725">
        <ele>148.80000305176</ele>
        <time>2022-05-22T09:31:42.000Z</time>
      </trkpt>
      <trkpt lat="44.79619" lon="1.5973">
        <ele>149</ele>
        <time>2022-05-22T09:31:43.000Z</time>
      </trkpt>
      <trkpt lat="44.79625" lon="1.59756">
        <ele>149.19999694824</ele>
        <time>2022-05-22T09:31:48.000Z</time>
      </trkpt>
      <trkpt lat="44.79626" lon="1.59772">
        <ele>149.39999389648</ele>
        <time>2022-05-22T09:31:51.000Z</time>
      </trkpt>
      <trkpt lat="44.79625" lon="1.59788">
        <ele>149.60000610352</ele>
        <time>2022-05-22T09:31:54.000Z</time>
      </trkpt>
      <trkpt lat="44.79623" lon="1.59799">
        <ele>149.60000610352</ele>
        <time>2022-05-22T09:31:56.000Z</time>
      </trkpt>
      <trkpt lat="44.79616" lon="1.59826">
        <ele>150.19999694824</ele>
        <time>2022-05-22T09:32:01.000Z</time>
      </trkpt>
      <trkpt lat="44.79614" lon="1.59832">
        <ele>150.19999694824</ele>
        <time>2022-05-22T09:32:02.000Z</time>
      </trkpt>
      <trkpt lat="44.7961" lon="1.59842">
        <ele>150.39999389648</ele>
        <time>2022-05-22T09:32:04.000Z</time>
      </trkpt>
      <trkpt lat="44.79601" lon="1.59858">
        <ele>150.19999694824</ele>
        <time>2022-05-22T09:32:08.000Z</time>
      </trkpt>
      <trkpt lat="44.79584" lon="1.5988">
        <ele>150</ele>
        <time>2022-05-22T09:32:14.000Z</time>
      </trkpt>
      <trkpt lat="44.7958" lon="1.59884">
        <ele>150</ele>
        <time>2022-05-22T09:32:15.000Z</time>
      </trkpt>
      <trkpt lat="44.79548" lon="1.59906">
        <ele>150.39999389648</ele>
        <time>2022-05-22T09:32:22.000Z</time>
      </trkpt>
      <trkpt lat="44.7954" lon="1.59912">
        <ele>150.39999389648</ele>
        <time>2022-05-22T09:32:24.000Z</time>
      </trkpt>
      <trkpt lat="44.79527" lon="1.59917">
        <ele>150.19999694824</ele>
        <time>2022-05-22T09:32:28.000Z</time>
      </trkpt>
      <trkpt lat="44.79507" lon="1.5993">
        <ele>150.80000305176</ele>
        <time>2022-05-22T09:32:33.000Z</time>
      </trkpt>
      <trkpt lat="44.79498" lon="1.59935">
        <ele>151</ele>
        <time>2022-05-22T09:32:35.000Z</time>
      </trkpt>
      <trkpt lat="44.79484" lon="1.59946">
        <ele>151.19999694824</ele>
        <time>2022-05-22T09:32:38.000Z</time>
      </trkpt>
      <trkpt lat="44.7947" lon="1.59956">
        <ele>151.19999694824</ele>
        <time>2022-05-22T09:32:41.000Z</time>
      </trkpt>
      <trkpt lat="44.79462" lon="1.59966">
        <ele>151.19999694824</ele>
        <time>2022-05-22T09:32:43.000Z</time>
      </trkpt>
      <trkpt lat="44.79458" lon="1.59971">
        <ele>150.80000305176</ele>
        <time>2022-05-22T09:32:44.000Z</time>
      </trkpt>
      <trkpt lat="44.79442" lon="1.60002">
        <ele>150.19999694824</ele>
        <time>2022-05-22T09:32:49.000Z</time>
      </trkpt>
      <trkpt lat="44.79437" lon="1.60016">
        <ele>150</ele>
        <time>2022-05-22T09:32:51.000Z</time>
      </trkpt>
      <trkpt lat="44.79436" lon="1.60023">
        <ele>149.80000305176</ele>
        <time>2022-05-22T09:32:52.000Z</time>
      </trkpt>
      <trkpt lat="44.79433" lon="1.60037">
        <ele>149.60000610352</ele>
        <time>2022-05-22T09:32:54.000Z</time>
      </trkpt>
      <trkpt lat="44.79432" lon="1.60045">
        <ele>149.39999389648</ele>
        <time>2022-05-22T09:32:55.000Z</time>
      </trkpt>
      <trkpt lat="44.7943" lon="1.60093">
        <ele>149</ele>
        <time>2022-05-22T09:33:01.000Z</time>
      </trkpt>
      <trkpt lat="44.79432" lon="1.60107">
        <ele>148.80000305176</ele>
        <time>2022-05-22T09:33:03.000Z</time>
      </trkpt>
      <trkpt lat="44.79434" lon="1.60114">
        <ele>148.60000610352</ele>
        <time>2022-05-22T09:33:04.000Z</time>
      </trkpt>
      <trkpt lat="44.79436" lon="1.60121">
        <ele>148.60000610352</ele>
        <time>2022-05-22T09:33:05.000Z</time>
      </trkpt>
      <trkpt lat="44.79443" lon="1.60132">
        <ele>148.19999694824</ele>
        <time>2022-05-22T09:33:07.000Z</time>
      </trkpt>
      <trkpt lat="44.7945" lon="1.60142">
        <ele>147.39999389648</ele>
        <time>2022-05-22T09:33:09.000Z</time>
      </trkpt>
      <trkpt lat="44.79453" lon="1.60147">
        <ele>147.19999694824</ele>
        <time>2022-05-22T09:33:10.000Z</time>
      </trkpt>
      <trkpt lat="44.7946" lon="1.60157">
        <ele>146.80000305176</ele>
        <time>2022-05-22T09:33:12.000Z</time>
      </trkpt>
      <trkpt lat="44.79461" lon="1.60162">
        <ele>146.60000610352</ele>
        <time>2022-05-22T09:33:13.000Z</time>
      </trkpt>
      <trkpt lat="44.79475" lon="1.60198">
        <ele>146.60000610352</ele>
        <time>2022-05-22T09:33:19.000Z</time>
      </trkpt>
      <trkpt lat="44.79478" lon="1.60204">
        <ele>146.60000610352</ele>
        <time>2022-05-22T09:33:20.000Z</time>
      </trkpt>
      <trkpt lat="44.79495" lon="1.60243">
        <ele>147</ele>
        <time>2022-05-22T09:33:27.000Z</time>
      </trkpt>
      <trkpt lat="44.79511" lon="1.60274">
        <ele>147.19999694824</ele>
        <time>2022-05-22T09:33:34.000Z</time>
      </trkpt>
      <trkpt lat="44.79527" lon="1.60303">
        <ele>147.39999389648</ele>
        <time>2022-05-22T09:33:41.000Z</time>
      </trkpt>
      <trkpt lat="44.79538" lon="1.60326">
        <ele>147.60000610352</ele>
        <time>2022-05-22T09:33:46.000Z</time>
      </trkpt>
      <trkpt lat="44.79542" lon="1.60336">
        <ele>147.60000610352</ele>
        <time>2022-05-22T09:33:48.000Z</time>
      </trkpt>
      <trkpt lat="44.7956" lon="1.60368">
        <ele>147.80000305176</ele>
        <time>2022-05-22T09:33:55.000Z</time>
      </trkpt>
      <trkpt lat="44.79574" lon="1.60401">
        <ele>148.19999694824</ele>
        <time>2022-05-22T09:34:02.000Z</time>
      </trkpt>
      <trkpt lat="44.79576" lon="1.60428">
        <ele>148.60000610352</ele>
        <time>2022-05-22T09:34:07.000Z</time>
      </trkpt>
      <trkpt lat="44.79571" lon="1.60467">
        <ele>149</ele>
        <time>2022-05-22T09:34:13.000Z</time>
      </trkpt>
      <trkpt lat="44.79566" lon="1.60494">
        <ele>149.39999389648</ele>
        <time>2022-05-22T09:34:17.000Z</time>
      </trkpt>
      <trkpt lat="44.7956" lon="1.60516">
        <ele>149.39999389648</ele>
        <time>2022-05-22T09:34:21.000Z</time>
      </trkpt>
      <trkpt lat="44.79541" lon="1.60559">
        <ele>148.80000305176</ele>
        <time>2022-05-22T09:34:29.000Z</time>
      </trkpt>
      <trkpt lat="44.79527" lon="1.60591">
        <ele>149</ele>
        <time>2022-05-22T09:34:35.000Z</time>
      </trkpt>
      <trkpt lat="44.79524" lon="1.60596">
        <ele>149</ele>
        <time>2022-05-22T09:34:36.000Z</time>
      </trkpt>
      <trkpt lat="44.79522" lon="1.60601">
        <ele>149</ele>
        <time>2022-05-22T09:34:37.000Z</time>
      </trkpt>
      <trkpt lat="44.79504" lon="1.60646">
        <ele>148.80000305176</ele>
        <time>2022-05-22T09:34:45.000Z</time>
      </trkpt>
      <trkpt lat="44.79501" lon="1.60658">
        <ele>148.80000305176</ele>
        <time>2022-05-22T09:34:47.000Z</time>
      </trkpt>
      <trkpt lat="44.79496" lon="1.60678">
        <ele>149</ele>
        <time>2022-05-22T09:34:51.000Z</time>
      </trkpt>
      <trkpt lat="44.79494" lon="1.60719">
        <ele>149.19999694824</ele>
        <time>2022-05-22T09:34:58.000Z</time>
      </trkpt>
      <trkpt lat="44.79494" lon="1.60725">
        <ele>149.19999694824</ele>
        <time>2022-05-22T09:34:59.000Z</time>
      </trkpt>
      <trkpt lat="44.79497" lon="1.60737">
        <ele>149.19999694824</ele>
        <time>2022-05-22T09:35:01.000Z</time>
      </trkpt>
      <trkpt lat="44.795" lon="1.60748">
        <ele>149.39999389648</ele>
        <time>2022-05-22T09:35:03.000Z</time>
      </trkpt>
      <trkpt lat="44.79502" lon="1.60753">
        <ele>149.39999389648</ele>
        <time>2022-05-22T09:35:04.000Z</time>
      </trkpt>
      <trkpt lat="44.79508" lon="1.60769">
        <ele>149.60000610352</ele>
        <time>2022-05-22T09:35:07.000Z</time>
      </trkpt>
      <trkpt lat="44.79514" lon="1.60778">
        <ele>149.60000610352</ele>
        <time>2022-05-22T09:35:09.000Z</time>
      </trkpt>
      <trkpt lat="44.79525" lon="1.60792">
        <ele>149.80000305176</ele>
        <time>2022-05-22T09:35:12.000Z</time>
      </trkpt>
      <trkpt lat="44.79537" lon="1.60805">
        <ele>150</ele>
        <time>2022-05-22T09:35:15.000Z</time>
      </trkpt>
      <trkpt lat="44.79552" lon="1.6082">
        <ele>149.80000305176</ele>
        <time>2022-05-22T09:35:19.000Z</time>
      </trkpt>
      <trkpt lat="44.79563" lon="1.60828">
        <ele>149.80000305176</ele>
        <time>2022-05-22T09:35:22.000Z</time>
      </trkpt>
      <trkpt lat="44.79583" lon="1.60847">
        <ele>149.80000305176</ele>
        <time>2022-05-22T09:35:28.000Z</time>
      </trkpt>
      <trkpt lat="44.79605" lon="1.6087">
        <ele>150.19999694824</ele>
        <time>2022-05-22T09:35:34.000Z</time>
      </trkpt>
      <trkpt lat="44.79613" lon="1.60878">
        <ele>150.19999694824</ele>
        <time>2022-05-22T09:35:36.000Z</time>
      </trkpt>
      <trkpt lat="44.79631" lon="1.60894">
        <ele>150.19999694824</ele>
        <time>2022-05-22T09:35:40.000Z</time>
      </trkpt>
      <trkpt lat="44.79642" lon="1.60908">
        <ele>150</ele>
        <time>2022-05-22T09:35:43.000Z</time>
      </trkpt>
      <trkpt lat="44.79665" lon="1.60934">
        <ele>149.80000305176</ele>
        <time>2022-05-22T09:35:49.000Z</time>
      </trkpt>
      <trkpt lat="44.79692" lon="1.6097">
        <ele>149.80000305176</ele>
        <time>2022-05-22T09:35:57.000Z</time>
      </trkpt>
      <trkpt lat="44.7971" lon="1.60996">
        <ele>150.19999694824</ele>
        <time>2022-05-22T09:36:03.000Z</time>
      </trkpt>
      <trkpt lat="44.79712" lon="1.61">
        <ele>150</ele>
        <time>2022-05-22T09:36:04.000Z</time>
      </trkpt>
      <trkpt lat="44.79717" lon="1.61009">
        <ele>150.19999694824</ele>
        <time>2022-05-22T09:36:06.000Z</time>
      </trkpt>
      <trkpt lat="44.79722" lon="1.61024">
        <ele>150.80000305176</ele>
        <time>2022-05-22T09:36:10.000Z</time>
      </trkpt>
      <trkpt lat="44.79722" lon="1.61049">
        <ele>151</ele>
        <time>2022-05-22T09:36:15.000Z</time>
      </trkpt>
      <trkpt lat="44.79715" lon="1.61076">
        <ele>151.19999694824</ele>
        <time>2022-05-22T09:36:19.000Z</time>
      </trkpt>
      <trkpt lat="44.79712" lon="1.61088">
        <ele>151.19999694824</ele>
        <time>2022-05-22T09:36:21.000Z</time>
      </trkpt>
      <trkpt lat="44.79702" lon="1.6114">
        <ele>151</ele>
        <time>2022-05-22T09:36:30.000Z</time>
      </trkpt>
      <trkpt lat="44.79693" lon="1.61193">
        <ele>151.39999389648</ele>
        <time>2022-05-22T09:36:38.000Z</time>
      </trkpt>
      <trkpt lat="44.79682" lon="1.61231">
        <ele>151.60000610352</ele>
        <time>2022-05-22T09:36:45.000Z</time>
      </trkpt>
      <trkpt lat="44.79674" lon="1.61247">
        <ele>151.80000305176</ele>
        <time>2022-05-22T09:36:50.000Z</time>
      </trkpt>
      <trkpt lat="44.79673" lon="1.61247">
        <ele>151.80000305176</ele>
        <time>2022-05-22T09:36:51.000Z</time>
      </trkpt>
      <trkpt lat="44.79672" lon="1.61247">
        <ele>152</ele>
        <time>2022-05-22T09:36:54.000Z</time>
      </trkpt>
      <trkpt lat="44.79672" lon="1.61247">
        <ele>151.80000305176</ele>
        <time>2022-05-22T09:37:09.000Z</time>
      </trkpt>
      <trkpt lat="44.79672" lon="1.61247">
        <ele>151.60000610352</ele>
        <time>2022-05-22T09:37:22.000Z</time>
      </trkpt>
      <trkpt lat="44.79672" lon="1.61247">
        <ele>151.39999389648</ele>
        <time>2022-05-22T09:37:39.000Z</time>
      </trkpt>
      <trkpt lat="44.79672" lon="1.61247">
        <ele>151.39999389648</ele>
        <time>2022-05-22T09:37:44.000Z</time>
      </trkpt>
      <trkpt lat="44.79672" lon="1.61247">
        <ele>151.39999389648</ele>
        <time>2022-05-22T09:37:51.000Z</time>
      </trkpt>
      <trkpt lat="44.79672" lon="1.61247">
        <ele>151.60000610352</ele>
        <time>2022-05-22T09:37:57.000Z</time>
      </trkpt>
      <trkpt lat="44.79672" lon="1.61248">
        <ele>151.60000610352</ele>
        <time>2022-05-22T09:38:28.000Z</time>
      </trkpt>
      <trkpt lat="44.79667" lon="1.61257">
        <ele>151.60000610352</ele>
        <time>2022-05-22T09:38:31.000Z</time>
      </trkpt>
      <trkpt lat="44.79655" lon="1.61279">
        <ele>151.80000305176</ele>
        <time>2022-05-22T09:38:36.000Z</time>
      </trkpt>
      <trkpt lat="44.79652" lon="1.61285">
        <ele>151.80000305176</ele>
        <time>2022-05-22T09:38:37.000Z</time>
      </trkpt>
      <trkpt lat="44.79642" lon="1.61306">
        <ele>152.60000610352</ele>
        <time>2022-05-22T09:38:41.000Z</time>
      </trkpt>
      <trkpt lat="44.79634" lon="1.6132">
        <ele>152.80000305176</ele>
        <time>2022-05-22T09:38:44.000Z</time>
      </trkpt>
      <trkpt lat="44.79632" lon="1.61325">
        <ele>153</ele>
        <time>2022-05-22T09:38:45.000Z</time>
      </trkpt>
      <trkpt lat="44.79624" lon="1.61357">
        <ele>153.19999694824</ele>
        <time>2022-05-22T09:38:50.000Z</time>
      </trkpt>
      <trkpt lat="44.79618" lon="1.61394">
        <ele>153.39999389648</ele>
        <time>2022-05-22T09:38:56.000Z</time>
      </trkpt>
      <trkpt lat="44.79618" lon="1.61401">
        <ele>153.39999389648</ele>
        <time>2022-05-22T09:38:57.000Z</time>
      </trkpt>
      <trkpt lat="44.79622" lon="1.61431">
        <ele>153.60000610352</ele>
        <time>2022-05-22T09:39:01.000Z</time>
      </trkpt>
      <trkpt lat="44.79626" lon="1.61444">
        <ele>153.80000305176</ele>
        <time>2022-05-22T09:39:03.000Z</time>
      </trkpt>
      <trkpt lat="44.79645" lon="1.61498">
        <ele>154.19999694824</ele>
        <time>2022-05-22T09:39:11.000Z</time>
      </trkpt>
      <trkpt lat="44.79654" lon="1.6152">
        <ele>154.39999389648</ele>
        <time>2022-05-22T09:39:14.000Z</time>
      </trkpt>
      <trkpt lat="44.79659" lon="1.61534">
        <ele>154.60000610352</ele>
        <time>2022-05-22T09:39:16.000Z</time>
      </trkpt>
      <trkpt lat="44.79686" lon="1.61602">
        <ele>154.39999389648</ele>
        <time>2022-05-22T09:39:25.000Z</time>
      </trkpt>
      <trkpt lat="44.79691" lon="1.61613">
        <ele>154</ele>
        <time>2022-05-22T09:39:27.000Z</time>
      </trkpt>
      <trkpt lat="44.797" lon="1.61637">
        <ele>153.80000305176</ele>
        <time>2022-05-22T09:39:32.000Z</time>
      </trkpt>
      <trkpt lat="44.797" lon="1.6164">
        <ele>153.60000610352</ele>
        <time>2022-05-22T09:39:33.000Z</time>
      </trkpt>
      <trkpt lat="44.797" lon="1.61653">
        <ele>153.60000610352</ele>
        <time>2022-05-22T09:39:36.000Z</time>
      </trkpt>
      <trkpt lat="44.79705" lon="1.61658">
        <ele>153.60000610352</ele>
        <time>2022-05-22T09:39:39.000Z</time>
      </trkpt>
      <trkpt lat="44.7971" lon="1.6167">
        <ele>153.39999389648</ele>
        <time>2022-05-22T09:39:45.000Z</time>
      </trkpt>
      <trkpt lat="44.79717" lon="1.6169">
        <ele>153.39999389648</ele>
        <time>2022-05-22T09:39:50.000Z</time>
      </trkpt>
      <trkpt lat="44.79721" lon="1.61701">
        <ele>153.39999389648</ele>
        <time>2022-05-22T09:39:53.000Z</time>
      </trkpt>
      <trkpt lat="44.79724" lon="1.61705">
        <ele>153.19999694824</ele>
        <time>2022-05-22T09:39:55.000Z</time>
      </trkpt>
      <trkpt lat="44.79727" lon="1.61706">
        <ele>153.19999694824</ele>
        <time>2022-05-22T09:39:59.000Z</time>
      </trkpt>
      <trkpt lat="44.79727" lon="1.61706">
        <ele>153.39999389648</ele>
        <time>2022-05-22T09:40:07.000Z</time>
      </trkpt>
      <trkpt lat="44.79727" lon="1.61706">
        <ele>153</ele>
        <time>2022-05-22T09:40:33.000Z</time>
      </trkpt>
      <trkpt lat="44.79727" lon="1.61706">
        <ele>153</ele>
        <time>2022-05-22T09:41:06.000Z</time>
      </trkpt>
      <trkpt lat="44.79724" lon="1.61702">
        <ele>153.39999389648</ele>
        <time>2022-05-22T09:41:29.000Z</time>
      </trkpt>
      <trkpt lat="44.79721" lon="1.61698">
        <ele>153.19999694824</ele>
        <time>2022-05-22T09:41:32.000Z</time>
      </trkpt>
      <trkpt lat="44.79719" lon="1.61694">
        <ele>153.39999389648</ele>
        <time>2022-05-22T09:41:34.000Z</time>
      </trkpt>
      <trkpt lat="44.79712" lon="1.61676">
        <ele>153.19999694824</ele>
        <time>2022-05-22T09:41:39.000Z</time>
      </trkpt>
      <trkpt lat="44.79711" lon="1.61671">
        <ele>153.19999694824</ele>
        <time>2022-05-22T09:41:40.000Z</time>
      </trkpt>
      <trkpt lat="44.79702" lon="1.61641">
        <ele>153.60000610352</ele>
        <time>2022-05-22T09:41:46.000Z</time>
      </trkpt>
      <trkpt lat="44.79693" lon="1.6162">
        <ele>153.80000305176</ele>
        <time>2022-05-22T09:41:51.000Z</time>
      </trkpt>
      <trkpt lat="44.79697" lon="1.6161">
        <ele>154</ele>
        <time>2022-05-22T09:41:54.000Z</time>
      </trkpt>
      <trkpt lat="44.797" lon="1.6161">
        <ele>154</ele>
        <time>2022-05-22T09:41:55.000Z</time>
      </trkpt>
      <trkpt lat="44.79703" lon="1.61611">
        <ele>154.19999694824</ele>
        <time>2022-05-22T09:41:57.000Z</time>
      </trkpt>
      <trkpt lat="44.79708" lon="1.61615">
        <ele>155</ele>
        <time>2022-05-22T09:42:00.000Z</time>
      </trkpt>
      <trkpt lat="44.79716" lon="1.6162">
        <ele>156.39999389648</ele>
        <time>2022-05-22T09:42:04.000Z</time>
      </trkpt>
      <trkpt lat="44.7972" lon="1.61624">
        <ele>157</ele>
        <time>2022-05-22T09:42:06.000Z</time>
      </trkpt>
      <trkpt lat="44.79725" lon="1.61627">
        <ele>157.39999389648</ele>
        <time>2022-05-22T09:42:08.000Z</time>
      </trkpt>
      <trkpt lat="44.79731" lon="1.61633">
        <ele>158.60000610352</ele>
        <time>2022-05-22T09:42:11.000Z</time>
      </trkpt>
      <trkpt lat="44.79738" lon="1.61638">
        <ele>160</ele>
        <time>2022-05-22T09:42:14.000Z</time>
      </trkpt>
      <trkpt lat="44.79742" lon="1.61643">
        <ele>160.80000305176</ele>
        <time>2022-05-22T09:42:16.000Z</time>
      </trkpt>
      <trkpt lat="44.79744" lon="1.61645">
        <ele>161.39999389648</ele>
        <time>2022-05-22T09:42:17.000Z</time>
      </trkpt>
      <trkpt lat="44.79751" lon="1.61656">
        <ele>162.60000610352</ele>
        <time>2022-05-22T09:42:21.000Z</time>
      </trkpt>
      <trkpt lat="44.79754" lon="1.61662">
        <ele>162.80000305176</ele>
        <time>2022-05-22T09:42:23.000Z</time>
      </trkpt>
      <trkpt lat="44.79759" lon="1.61669">
        <ele>163.60000610352</ele>
        <time>2022-05-22T09:42:26.000Z</time>
      </trkpt>
      <trkpt lat="44.79765" lon="1.61678">
        <ele>164.19999694824</ele>
        <time>2022-05-22T09:42:30.000Z</time>
      </trkpt>
      <trkpt lat="44.79774" lon="1.61686">
        <ele>164.80000305176</ele>
        <time>2022-05-22T09:42:34.000Z</time>
      </trkpt>
      <trkpt lat="44.79776" lon="1.61688">
        <ele>165</ele>
        <time>2022-05-22T09:42:35.000Z</time>
      </trkpt>
      <trkpt lat="44.79779" lon="1.61689">
        <ele>165.60000610352</ele>
        <time>2022-05-22T09:42:36.000Z</time>
      </trkpt>
      <trkpt lat="44.79781" lon="1.61689">
        <ele>165.80000305176</ele>
        <time>2022-05-22T09:42:37.000Z</time>
      </trkpt>
      <trkpt lat="44.79786" lon="1.61693">
        <ele>167</ele>
        <time>2022-05-22T09:42:40.000Z</time>
      </trkpt>
      <trkpt lat="44.79788" lon="1.61694">
        <ele>167.60000610352</ele>
        <time>2022-05-22T09:42:41.000Z</time>
      </trkpt>
      <trkpt lat="44.79792" lon="1.61696">
        <ele>168</ele>
        <time>2022-05-22T09:42:43.000Z</time>
      </trkpt>
      <trkpt lat="44.79798" lon="1.61702">
        <ele>169.19999694824</ele>
        <time>2022-05-22T09:42:47.000Z</time>
      </trkpt>
      <trkpt lat="44.79804" lon="1.61708">
        <ele>170.19999694824</ele>
        <time>2022-05-22T09:42:51.000Z</time>
      </trkpt>
      <trkpt lat="44.79807" lon="1.61711">
        <ele>171.19999694824</ele>
        <time>2022-05-22T09:42:53.000Z</time>
      </trkpt>
      <trkpt lat="44.79811" lon="1.61713">
        <ele>172</ele>
        <time>2022-05-22T09:42:55.000Z</time>
      </trkpt>
      <trkpt lat="44.79815" lon="1.61715">
        <ele>172.60000610352</ele>
        <time>2022-05-22T09:42:57.000Z</time>
      </trkpt>
      <trkpt lat="44.7982" lon="1.61719">
        <ele>173.80000305176</ele>
        <time>2022-05-22T09:43:00.000Z</time>
      </trkpt>
      <trkpt lat="44.79823" lon="1.61723">
        <ele>174.60000610352</ele>
        <time>2022-05-22T09:43:02.000Z</time>
      </trkpt>
      <trkpt lat="44.79825" lon="1.61727">
        <ele>175.19999694824</ele>
        <time>2022-05-22T09:43:04.000Z</time>
      </trkpt>
      <trkpt lat="44.7983" lon="1.6173">
        <ele>176.39999389648</ele>
        <time>2022-05-22T09:43:07.000Z</time>
      </trkpt>
      <trkpt lat="44.79834" lon="1.61734">
        <ele>177.60000610352</ele>
        <time>2022-05-22T09:43:10.000Z</time>
      </trkpt>
      <trkpt lat="44.79839" lon="1.61739">
        <ele>178.80000305176</ele>
        <time>2022-05-22T09:43:14.000Z</time>
      </trkpt>
      <trkpt lat="44.79848" lon="1.61746">
        <ele>179.80000305176</ele>
        <time>2022-05-22T09:43:20.000Z</time>
      </trkpt>
      <trkpt lat="44.7985" lon="1.61747">
        <ele>180</ele>
        <time>2022-05-22T09:43:21.000Z</time>
      </trkpt>
      <trkpt lat="44.79853" lon="1.6175">
        <ele>180.19999694824</ele>
        <time>2022-05-22T09:43:23.000Z</time>
      </trkpt>
      <trkpt lat="44.79859" lon="1.61753">
        <ele>180.60000610352</ele>
        <time>2022-05-22T09:43:26.000Z</time>
      </trkpt>
      <trkpt lat="44.79865" lon="1.61754">
        <ele>181</ele>
        <time>2022-05-22T09:43:29.000Z</time>
      </trkpt>
      <trkpt lat="44.7987" lon="1.61756">
        <ele>181.19999694824</ele>
        <time>2022-05-22T09:43:31.000Z</time>
      </trkpt>
      <trkpt lat="44.79875" lon="1.61761">
        <ele>181.60000610352</ele>
        <time>2022-05-22T09:43:34.000Z</time>
      </trkpt>
      <trkpt lat="44.79881" lon="1.61766">
        <ele>182</ele>
        <time>2022-05-22T09:43:37.000Z</time>
      </trkpt>
      <trkpt lat="44.79883" lon="1.61768">
        <ele>182.19999694824</ele>
        <time>2022-05-22T09:43:38.000Z</time>
      </trkpt>
      <trkpt lat="44.79886" lon="1.61771">
        <ele>182.60000610352</ele>
        <time>2022-05-22T09:43:40.000Z</time>
      </trkpt>
      <trkpt lat="44.79891" lon="1.61772">
        <ele>182.80000305176</ele>
        <time>2022-05-22T09:43:42.000Z</time>
      </trkpt>
      <trkpt lat="44.79894" lon="1.61773">
        <ele>183.19999694824</ele>
        <time>2022-05-22T09:43:43.000Z</time>
      </trkpt>
      <trkpt lat="44.79904" lon="1.61781">
        <ele>183.60000610352</ele>
        <time>2022-05-22T09:43:48.000Z</time>
      </trkpt>
      <trkpt lat="44.79915" lon="1.61782">
        <ele>183.60000610352</ele>
        <time>2022-05-22T09:43:53.000Z</time>
      </trkpt>
      <trkpt lat="44.79915" lon="1.61782">
        <ele>183.60000610352</ele>
        <time>2022-05-22T09:43:54.000Z</time>
      </trkpt>
      <trkpt lat="44.79915" lon="1.61782">
        <ele>183.60000610352</ele>
        <time>2022-05-22T09:44:00.000Z</time>
      </trkpt>
      <trkpt lat="44.79915" lon="1.61782">
        <ele>184.19999694824</ele>
        <time>2022-05-22T09:44:04.000Z</time>
      </trkpt>
      <trkpt lat="44.79915" lon="1.61782">
        <ele>184.39999389648</ele>
        <time>2022-05-22T09:44:07.000Z</time>
      </trkpt>
      <trkpt lat="44.79915" lon="1.61782">
        <ele>183.80000305176</ele>
        <time>2022-05-22T09:44:11.000Z</time>
      </trkpt>
      <trkpt lat="44.79915" lon="1.61782">
        <ele>183.60000610352</ele>
        <time>2022-05-22T09:44:16.000Z</time>
      </trkpt>
      <trkpt lat="44.79917" lon="1.61783">
        <ele>183.60000610352</ele>
        <time>2022-05-22T09:44:22.000Z</time>
      </trkpt>
      <trkpt lat="44.7992" lon="1.61786">
        <ele>183.60000610352</ele>
        <time>2022-05-22T09:44:24.000Z</time>
      </trkpt>
      <trkpt lat="44.79921" lon="1.61788">
        <ele>183.60000610352</ele>
        <time>2022-05-22T09:44:25.000Z</time>
      </trkpt>
      <trkpt lat="44.79926" lon="1.61796">
        <ele>183.60000610352</ele>
        <time>2022-05-22T09:44:29.000Z</time>
      </trkpt>
      <trkpt lat="44.79932" lon="1.61802">
        <ele>183.19999694824</ele>
        <time>2022-05-22T09:44:32.000Z</time>
      </trkpt>
      <trkpt lat="44.79936" lon="1.61805">
        <ele>183.19999694824</ele>
        <time>2022-05-22T09:44:34.000Z</time>
      </trkpt>
      <trkpt lat="44.79948" lon="1.61808">
        <ele>183.19999694824</ele>
        <time>2022-05-22T09:44:39.000Z</time>
      </trkpt>
      <trkpt lat="44.7995" lon="1.61809">
        <ele>183.19999694824</ele>
        <time>2022-05-22T09:44:40.000Z</time>
      </trkpt>
      <trkpt lat="44.79959" lon="1.61813">
        <ele>183.19999694824</ele>
        <time>2022-05-22T09:44:44.000Z</time>
      </trkpt>
      <trkpt lat="44.79959" lon="1.61813">
        <ele>183.19999694824</ele>
        <time>2022-05-22T09:44:46.000Z</time>
      </trkpt>
      <trkpt lat="44.79959" lon="1.61814">
        <ele>183.19999694824</ele>
        <time>2022-05-22T09:44:53.000Z</time>
      </trkpt>
      <trkpt lat="44.7996" lon="1.61816">
        <ele>183.19999694824</ele>
        <time>2022-05-22T09:44:55.000Z</time>
      </trkpt>
      <trkpt lat="44.79963" lon="1.61822">
        <ele>183.19999694824</ele>
        <time>2022-05-22T09:44:58.000Z</time>
      </trkpt>
      <trkpt lat="44.79964" lon="1.61823">
        <ele>183.19999694824</ele>
        <time>2022-05-22T09:44:59.000Z</time>
      </trkpt>
      <trkpt lat="44.79971" lon="1.61823">
        <ele>183</ele>
        <time>2022-05-22T09:45:03.000Z</time>
      </trkpt>
      <trkpt lat="44.79977" lon="1.61828">
        <ele>183</ele>
        <time>2022-05-22T09:45:08.000Z</time>
      </trkpt>
      <trkpt lat="44.79979" lon="1.61828">
        <ele>183</ele>
        <time>2022-05-22T09:45:09.000Z</time>
      </trkpt>
      <trkpt lat="44.79982" lon="1.61829">
        <ele>183.19999694824</ele>
        <time>2022-05-22T09:45:11.000Z</time>
      </trkpt>
      <trkpt lat="44.79995" lon="1.61829">
        <ele>184</ele>
        <time>2022-05-22T09:45:17.000Z</time>
      </trkpt>
      <trkpt lat="44.80007" lon="1.61832">
        <ele>184.80000305176</ele>
        <time>2022-05-22T09:45:23.000Z</time>
      </trkpt>
      <trkpt lat="44.80009" lon="1.61834">
        <ele>185</ele>
        <time>2022-05-22T09:45:24.000Z</time>
      </trkpt>
      <trkpt lat="44.8001" lon="1.61835">
        <ele>185.19999694824</ele>
        <time>2022-05-22T09:45:25.000Z</time>
      </trkpt>
      <trkpt lat="44.80014" lon="1.61841">
        <ele>185.39999389648</ele>
        <time>2022-05-22T09:45:28.000Z</time>
      </trkpt>
      <trkpt lat="44.8002" lon="1.61846">
        <ele>185.39999389648</ele>
        <time>2022-05-22T09:45:31.000Z</time>
      </trkpt>
      <trkpt lat="44.80024" lon="1.61846">
        <ele>185.60000610352</ele>
        <time>2022-05-22T09:45:34.000Z</time>
      </trkpt>
      <trkpt lat="44.8003" lon="1.61846">
        <ele>186</ele>
        <time>2022-05-22T09:45:37.000Z</time>
      </trkpt>
      <trkpt lat="44.80033" lon="1.61849">
        <ele>186.19999694824</ele>
        <time>2022-05-22T09:45:39.000Z</time>
      </trkpt>
      <trkpt lat="44.80035" lon="1.61851">
        <ele>186.19999694824</ele>
        <time>2022-05-22T09:45:41.000Z</time>
      </trkpt>
      <trkpt lat="44.80047" lon="1.61861">
        <ele>186.39999389648</ele>
        <time>2022-05-22T09:45:49.000Z</time>
      </trkpt>
      <trkpt lat="44.80057" lon="1.61869">
        <ele>186.60000610352</ele>
        <time>2022-05-22T09:45:56.000Z</time>
      </trkpt>
      <trkpt lat="44.80062" lon="1.61872">
        <ele>187</ele>
        <time>2022-05-22T09:46:00.000Z</time>
      </trkpt>
      <trkpt lat="44.80063" lon="1.61873">
        <ele>187</ele>
        <time>2022-05-22T09:46:02.000Z</time>
      </trkpt>
      <trkpt lat="44.80063" lon="1.61873">
        <ele>187.19999694824</ele>
        <time>2022-05-22T09:46:06.000Z</time>
      </trkpt>
      <trkpt lat="44.80062" lon="1.61872">
        <ele>187.19999694824</ele>
        <time>2022-05-22T09:46:11.000Z</time>
      </trkpt>
      <trkpt lat="44.80065" lon="1.61875">
        <ele>187.19999694824</ele>
        <time>2022-05-22T09:46:24.000Z</time>
      </trkpt>
      <trkpt lat="44.80075" lon="1.61882">
        <ele>187.19999694824</ele>
        <time>2022-05-22T09:46:31.000Z</time>
      </trkpt>
      <trkpt lat="44.80084" lon="1.61893">
        <ele>187.60000610352</ele>
        <time>2022-05-22T09:46:39.000Z</time>
      </trkpt>
      <trkpt lat="44.80087" lon="1.61894">
        <ele>187.60000610352</ele>
        <time>2022-05-22T09:46:41.000Z</time>
      </trkpt>
      <trkpt lat="44.8009" lon="1.61897">
        <ele>188</ele>
        <time>2022-05-22T09:46:44.000Z</time>
      </trkpt>
      <trkpt lat="44.80093" lon="1.61899">
        <ele>188.19999694824</ele>
        <time>2022-05-22T09:46:46.000Z</time>
      </trkpt>
      <trkpt lat="44.80101" lon="1.61909">
        <ele>188.39999389648</ele>
        <time>2022-05-22T09:46:53.000Z</time>
      </trkpt>
      <trkpt lat="44.80116" lon="1.61925">
        <ele>189</ele>
        <time>2022-05-22T09:47:02.000Z</time>
      </trkpt>
      <trkpt lat="44.80118" lon="1.61928">
        <ele>189</ele>
        <time>2022-05-22T09:47:03.000Z</time>
      </trkpt>
      <trkpt lat="44.80119" lon="1.6193">
        <ele>189.19999694824</ele>
        <time>2022-05-22T09:47:04.000Z</time>
      </trkpt>
      <trkpt lat="44.80123" lon="1.61936">
        <ele>189.60000610352</ele>
        <time>2022-05-22T09:47:07.000Z</time>
      </trkpt>
      <trkpt lat="44.80135" lon="1.61949">
        <ele>190.39999389648</ele>
        <time>2022-05-22T09:47:15.000Z</time>
      </trkpt>
      <trkpt lat="44.80136" lon="1.61951">
        <ele>190.60000610352</ele>
        <time>2022-05-22T09:47:16.000Z</time>
      </trkpt>
      <trkpt lat="44.80141" lon="1.61956">
        <ele>190.80000305176</ele>
        <time>2022-05-22T09:47:20.000Z</time>
      </trkpt>
      <trkpt lat="44.80146" lon="1.61968">
        <ele>191.19999694824</ele>
        <time>2022-05-22T09:47:25.000Z</time>
      </trkpt>
      <trkpt lat="44.80148" lon="1.61972">
        <ele>191.39999389648</ele>
        <time>2022-05-22T09:47:27.000Z</time>
      </trkpt>
      <trkpt lat="44.80156" lon="1.61984">
        <ele>192.60000610352</ele>
        <time>2022-05-22T09:47:33.000Z</time>
      </trkpt>
      <trkpt lat="44.80165" lon="1.61997">
        <ele>193.60000610352</ele>
        <time>2022-05-22T09:47:40.000Z</time>
      </trkpt>
      <trkpt lat="44.80167" lon="1.61999">
        <ele>193.60000610352</ele>
        <time>2022-05-22T09:47:41.000Z</time>
      </trkpt>
      <trkpt lat="44.80175" lon="1.62011">
        <ele>194.60000610352</ele>
        <time>2022-05-22T09:47:47.000Z</time>
      </trkpt>
      <trkpt lat="44.80179" lon="1.62014">
        <ele>195.19999694824</ele>
        <time>2022-05-22T09:47:49.000Z</time>
      </trkpt>
      <trkpt lat="44.80183" lon="1.6202">
        <ele>195.80000305176</ele>
        <time>2022-05-22T09:47:52.000Z</time>
      </trkpt>
      <trkpt lat="44.80193" lon="1.62032">
        <ele>196.39999389648</ele>
        <time>2022-05-22T09:47:58.000Z</time>
      </trkpt>
      <trkpt lat="44.80198" lon="1.62037">
        <ele>196.80000305176</ele>
        <time>2022-05-22T09:48:01.000Z</time>
      </trkpt>
      <trkpt lat="44.80209" lon="1.62049">
        <ele>197.80000305176</ele>
        <time>2022-05-22T09:48:07.000Z</time>
      </trkpt>
      <trkpt lat="44.80217" lon="1.62059">
        <ele>199</ele>
        <time>2022-05-22T09:48:12.000Z</time>
      </trkpt>
      <trkpt lat="44.80223" lon="1.62068">
        <ele>199.80000305176</ele>
        <time>2022-05-22T09:48:16.000Z</time>
      </trkpt>
      <trkpt lat="44.80226" lon="1.62072">
        <ele>200.19999694824</ele>
        <time>2022-05-22T09:48:18.000Z</time>
      </trkpt>
      <trkpt lat="44.80235" lon="1.62082">
        <ele>201.39999389648</ele>
        <time>2022-05-22T09:48:23.000Z</time>
      </trkpt>
      <trkpt lat="44.80245" lon="1.62094">
        <ele>202.19999694824</ele>
        <time>2022-05-22T09:48:29.000Z</time>
      </trkpt>
      <trkpt lat="44.8025" lon="1.621">
        <ele>202.60000610352</ele>
        <time>2022-05-22T09:48:32.000Z</time>
      </trkpt>
      <trkpt lat="44.80255" lon="1.6211">
        <ele>203.19999694824</ele>
        <time>2022-05-22T09:48:36.000Z</time>
      </trkpt>
      <trkpt lat="44.80257" lon="1.62115">
        <ele>203.80000305176</ele>
        <time>2022-05-22T09:48:38.000Z</time>
      </trkpt>
      <trkpt lat="44.80266" lon="1.62132">
        <ele>204.80000305176</ele>
        <time>2022-05-22T09:48:45.000Z</time>
      </trkpt>
      <trkpt lat="44.80269" lon="1.62137">
        <ele>205.19999694824</ele>
        <time>2022-05-22T09:48:47.000Z</time>
      </trkpt>
      <trkpt lat="44.80277" lon="1.62147">
        <ele>206.19999694824</ele>
        <time>2022-05-22T09:48:52.000Z</time>
      </trkpt>
      <trkpt lat="44.80285" lon="1.62158">
        <ele>207</ele>
        <time>2022-05-22T09:48:57.000Z</time>
      </trkpt>
      <trkpt lat="44.80289" lon="1.62163">
        <ele>207.39999389648</ele>
        <time>2022-05-22T09:48:59.000Z</time>
      </trkpt>
      <trkpt lat="44.80296" lon="1.62176">
        <ele>208.39999389648</ele>
        <time>2022-05-22T09:49:04.000Z</time>
      </trkpt>
      <trkpt lat="44.80297" lon="1.62178">
        <ele>208.60000610352</ele>
        <time>2022-05-22T09:49:05.000Z</time>
      </trkpt>
      <trkpt lat="44.80302" lon="1.62184">
        <ele>209.60000610352</ele>
        <time>2022-05-22T09:49:08.000Z</time>
      </trkpt>
      <trkpt lat="44.80307" lon="1.6219">
        <ele>211</ele>
        <time>2022-05-22T09:49:11.000Z</time>
      </trkpt>
      <trkpt lat="44.80311" lon="1.62196">
        <ele>212.19999694824</ele>
        <time>2022-05-22T09:49:14.000Z</time>
      </trkpt>
      <trkpt lat="44.80313" lon="1.62198">
        <ele>212.39999389648</ele>
        <time>2022-05-22T09:49:15.000Z</time>
      </trkpt>
      <trkpt lat="44.80317" lon="1.62205">
        <ele>213.60000610352</ele>
        <time>2022-05-22T09:49:18.000Z</time>
      </trkpt>
      <trkpt lat="44.80321" lon="1.62211">
        <ele>214.80000305176</ele>
        <time>2022-05-22T09:49:21.000Z</time>
      </trkpt>
      <trkpt lat="44.80325" lon="1.62218">
        <ele>215.39999389648</ele>
        <time>2022-05-22T09:49:24.000Z</time>
      </trkpt>
      <trkpt lat="44.80328" lon="1.62222">
        <ele>216.19999694824</ele>
        <time>2022-05-22T09:49:26.000Z</time>
      </trkpt>
      <trkpt lat="44.80334" lon="1.62231">
        <ele>217.60000610352</ele>
        <time>2022-05-22T09:49:30.000Z</time>
      </trkpt>
      <trkpt lat="44.8034" lon="1.62238">
        <ele>218.80000305176</ele>
        <time>2022-05-22T09:49:34.000Z</time>
      </trkpt>
      <trkpt lat="44.80341" lon="1.6224">
        <ele>219.19999694824</ele>
        <time>2022-05-22T09:49:35.000Z</time>
      </trkpt>
      <trkpt lat="44.80345" lon="1.62247">
        <ele>220.19999694824</ele>
        <time>2022-05-22T09:49:38.000Z</time>
      </trkpt>
      <trkpt lat="44.80351" lon="1.62254">
        <ele>221</ele>
        <time>2022-05-22T09:49:42.000Z</time>
      </trkpt>
      <trkpt lat="44.80352" lon="1.62257">
        <ele>221.19999694824</ele>
        <time>2022-05-22T09:49:43.000Z</time>
      </trkpt>
      <trkpt lat="44.80357" lon="1.62265">
        <ele>222.39999389648</ele>
        <time>2022-05-22T09:49:47.000Z</time>
      </trkpt>
      <trkpt lat="44.80362" lon="1.62274">
        <ele>223.39999389648</ele>
        <time>2022-05-22T09:49:51.000Z</time>
      </trkpt>
      <trkpt lat="44.80363" lon="1.62277">
        <ele>224</ele>
        <time>2022-05-22T09:49:52.000Z</time>
      </trkpt>
      <trkpt lat="44.80367" lon="1.62283">
        <ele>225</ele>
        <time>2022-05-22T09:49:55.000Z</time>
      </trkpt>
      <trkpt lat="44.80372" lon="1.62292">
        <ele>226.39999389648</ele>
        <time>2022-05-22T09:49:59.000Z</time>
      </trkpt>
      <trkpt lat="44.80374" lon="1.62296">
        <ele>227</ele>
        <time>2022-05-22T09:50:01.000Z</time>
      </trkpt>
      <trkpt lat="44.80377" lon="1.62303">
        <ele>227.80000305176</ele>
        <time>2022-05-22T09:50:04.000Z</time>
      </trkpt>
      <trkpt lat="44.80383" lon="1.62311">
        <ele>228.80000305176</ele>
        <time>2022-05-22T09:50:08.000Z</time>
      </trkpt>
      <trkpt lat="44.80386" lon="1.62318">
        <ele>229.80000305176</ele>
        <time>2022-05-22T09:50:11.000Z</time>
      </trkpt>
      <trkpt lat="44.80389" lon="1.62325">
        <ele>231</ele>
        <time>2022-05-22T09:50:14.000Z</time>
      </trkpt>
      <trkpt lat="44.80393" lon="1.62335">
        <ele>232.19999694824</ele>
        <time>2022-05-22T09:50:18.000Z</time>
      </trkpt>
      <trkpt lat="44.80396" lon="1.62344">
        <ele>233.60000610352</ele>
        <time>2022-05-22T09:50:22.000Z</time>
      </trkpt>
      <trkpt lat="44.80398" lon="1.62352">
        <ele>234.60000610352</ele>
        <time>2022-05-22T09:50:25.000Z</time>
      </trkpt>
      <trkpt lat="44.80399" lon="1.62357">
        <ele>235</ele>
        <time>2022-05-22T09:50:27.000Z</time>
      </trkpt>
      <trkpt lat="44.80401" lon="1.62363">
        <ele>235.60000610352</ele>
        <time>2022-05-22T09:50:29.000Z</time>
      </trkpt>
      <trkpt lat="44.80402" lon="1.62372">
        <ele>236.80000305176</ele>
        <time>2022-05-22T09:50:33.000Z</time>
      </trkpt>
      <trkpt lat="44.80405" lon="1.62384">
        <ele>237.60000610352</ele>
        <time>2022-05-22T09:50:37.000Z</time>
      </trkpt>
      <trkpt lat="44.80405" lon="1.62386">
        <ele>238</ele>
        <time>2022-05-22T09:50:38.000Z</time>
      </trkpt>
      <trkpt lat="44.80406" lon="1.62394">
        <ele>239.39999389648</ele>
        <time>2022-05-22T09:50:41.000Z</time>
      </trkpt>
      <trkpt lat="44.80407" lon="1.62402">
        <ele>240.39999389648</ele>
        <time>2022-05-22T09:50:44.000Z</time>
      </trkpt>
      <trkpt lat="44.80408" lon="1.62405">
        <ele>240.60000610352</ele>
        <time>2022-05-22T09:50:45.000Z</time>
      </trkpt>
      <trkpt lat="44.80409" lon="1.62423">
        <ele>241.80000305176</ele>
        <time>2022-05-22T09:50:51.000Z</time>
      </trkpt>
      <trkpt lat="44.8041" lon="1.62425">
        <ele>242.39999389648</ele>
        <time>2022-05-22T09:50:52.000Z</time>
      </trkpt>
      <trkpt lat="44.80411" lon="1.62431">
        <ele>242.80000305176</ele>
        <time>2022-05-22T09:50:54.000Z</time>
      </trkpt>
      <trkpt lat="44.80412" lon="1.62446">
        <ele>244</ele>
        <time>2022-05-22T09:50:59.000Z</time>
      </trkpt>
      <trkpt lat="44.80413" lon="1.62452">
        <ele>244.80000305176</ele>
        <time>2022-05-22T09:51:01.000Z</time>
      </trkpt>
      <trkpt lat="44.80413" lon="1.62455">
        <ele>245.39999389648</ele>
        <time>2022-05-22T09:51:02.000Z</time>
      </trkpt>
      <trkpt lat="44.80411" lon="1.62465">
        <ele>246.39999389648</ele>
        <time>2022-05-22T09:51:06.000Z</time>
      </trkpt>
      <trkpt lat="44.80411" lon="1.62471">
        <ele>247</ele>
        <time>2022-05-22T09:51:08.000Z</time>
      </trkpt>
      <trkpt lat="44.80411" lon="1.62476">
        <ele>247.80000305176</ele>
        <time>2022-05-22T09:51:10.000Z</time>
      </trkpt>
      <trkpt lat="44.80411" lon="1.62488">
        <ele>249</ele>
        <time>2022-05-22T09:51:14.000Z</time>
      </trkpt>
      <trkpt lat="44.80411" lon="1.62496">
        <ele>249.80000305176</ele>
        <time>2022-05-22T09:51:17.000Z</time>
      </trkpt>
      <trkpt lat="44.80411" lon="1.62499">
        <ele>250</ele>
        <time>2022-05-22T09:51:18.000Z</time>
      </trkpt>
      <trkpt lat="44.80411" lon="1.6251">
        <ele>251.19999694824</ele>
        <time>2022-05-22T09:51:22.000Z</time>
      </trkpt>
      <trkpt lat="44.80411" lon="1.6252">
        <ele>252.60000610352</ele>
        <time>2022-05-22T09:51:26.000Z</time>
      </trkpt>
      <trkpt lat="44.80411" lon="1.62523">
        <ele>252.80000305176</ele>
        <time>2022-05-22T09:51:27.000Z</time>
      </trkpt>
      <trkpt lat="44.8041" lon="1.62528">
        <ele>253.60000610352</ele>
        <time>2022-05-22T09:51:29.000Z</time>
      </trkpt>
      <trkpt lat="44.8041" lon="1.62542">
        <ele>255</ele>
        <time>2022-05-22T09:51:34.000Z</time>
      </trkpt>
      <trkpt lat="44.8041" lon="1.62551">
        <ele>256</ele>
        <time>2022-05-22T09:51:38.000Z</time>
      </trkpt>
      <trkpt lat="44.8041" lon="1.62559">
        <ele>257</ele>
        <time>2022-05-22T09:51:41.000Z</time>
      </trkpt>
      <trkpt lat="44.8041" lon="1.6257">
        <ele>258.39999389648</ele>
        <time>2022-05-22T09:51:45.000Z</time>
      </trkpt>
      <trkpt lat="44.8041" lon="1.62577">
        <ele>259.39999389648</ele>
        <time>2022-05-22T09:51:48.000Z</time>
      </trkpt>
      <trkpt lat="44.80409" lon="1.62587">
        <ele>260.60000610352</ele>
        <time>2022-05-22T09:51:52.000Z</time>
      </trkpt>
      <trkpt lat="44.80409" lon="1.62592">
        <ele>261.39999389648</ele>
        <time>2022-05-22T09:51:54.000Z</time>
      </trkpt>
      <trkpt lat="44.80409" lon="1.62594">
        <ele>261.79998779297</ele>
        <time>2022-05-22T09:51:55.000Z</time>
      </trkpt>
      <trkpt lat="44.80409" lon="1.62603">
        <ele>262.60000610352</ele>
        <time>2022-05-22T09:51:59.000Z</time>
      </trkpt>
      <trkpt lat="44.80408" lon="1.62607">
        <ele>263</ele>
        <time>2022-05-22T09:52:01.000Z</time>
      </trkpt>
      <trkpt lat="44.80408" lon="1.62611">
        <ele>263.79998779297</ele>
        <time>2022-05-22T09:52:03.000Z</time>
      </trkpt>
      <trkpt lat="44.80408" lon="1.62615">
        <ele>264</ele>
        <time>2022-05-22T09:52:05.000Z</time>
      </trkpt>
      <trkpt lat="44.80408" lon="1.62619">
        <ele>264.20001220703</ele>
        <time>2022-05-22T09:52:07.000Z</time>
      </trkpt>
      <trkpt lat="44.80408" lon="1.6262">
        <ele>264.60000610352</ele>
        <time>2022-05-22T09:52:08.000Z</time>
      </trkpt>
      <trkpt lat="44.80406" lon="1.62627">
        <ele>264.79998779297</ele>
        <time>2022-05-22T09:52:11.000Z</time>
      </trkpt>
      <trkpt lat="44.80403" lon="1.62634">
        <ele>265.39999389648</ele>
        <time>2022-05-22T09:52:14.000Z</time>
      </trkpt>
      <trkpt lat="44.804" lon="1.62645">
        <ele>266</ele>
        <time>2022-05-22T09:52:19.000Z</time>
      </trkpt>
      <trkpt lat="44.80398" lon="1.6266">
        <ele>266.60000610352</ele>
        <time>2022-05-22T09:52:25.000Z</time>
      </trkpt>
      <trkpt lat="44.80397" lon="1.62666">
        <ele>266.79998779297</ele>
        <time>2022-05-22T09:52:27.000Z</time>
      </trkpt>
      <trkpt lat="44.80396" lon="1.62678">
        <ele>267.60000610352</ele>
        <time>2022-05-22T09:52:32.000Z</time>
      </trkpt>
      <trkpt lat="44.80395" lon="1.62686">
        <ele>268</ele>
        <time>2022-05-22T09:52:35.000Z</time>
      </trkpt>
      <trkpt lat="44.80395" lon="1.62692">
        <ele>268.60000610352</ele>
        <time>2022-05-22T09:52:37.000Z</time>
      </trkpt>
      <trkpt lat="44.80393" lon="1.62703">
        <ele>269.39999389648</ele>
        <time>2022-05-22T09:52:42.000Z</time>
      </trkpt>
      <trkpt lat="44.80394" lon="1.62705">
        <ele>269.60000610352</ele>
        <time>2022-05-22T09:52:43.000Z</time>
      </trkpt>
      <trkpt lat="44.80392" lon="1.6271">
        <ele>269.79998779297</ele>
        <time>2022-05-22T09:52:46.000Z</time>
      </trkpt>
      <trkpt lat="44.8039" lon="1.6271">
        <ele>269.79998779297</ele>
        <time>2022-05-22T09:52:47.000Z</time>
      </trkpt>
      <trkpt lat="44.80379" lon="1.62707">
        <ele>269.79998779297</ele>
        <time>2022-05-22T09:52:51.000Z</time>
      </trkpt>
      <trkpt lat="44.80365" lon="1.627">
        <ele>269.79998779297</ele>
        <time>2022-05-22T09:52:56.000Z</time>
      </trkpt>
      <trkpt lat="44.80362" lon="1.62699">
        <ele>269.79998779297</ele>
        <time>2022-05-22T09:52:57.000Z</time>
      </trkpt>
      <trkpt lat="44.80353" lon="1.62693">
        <ele>269.60000610352</ele>
        <time>2022-05-22T09:53:02.000Z</time>
      </trkpt>
      <trkpt lat="44.80353" lon="1.62693">
        <ele>269.79998779297</ele>
        <time>2022-05-22T09:53:06.000Z</time>
      </trkpt>
      <trkpt lat="44.80353" lon="1.62693">
        <ele>269.60000610352</ele>
        <time>2022-05-22T09:53:14.000Z</time>
      </trkpt>
      <trkpt lat="44.80353" lon="1.62693">
        <ele>269.60000610352</ele>
        <time>2022-05-22T09:53:19.000Z</time>
      </trkpt>
      <trkpt lat="44.80353" lon="1.62693">
        <ele>269.39999389648</ele>
        <time>2022-05-22T09:53:24.000Z</time>
      </trkpt>
      <trkpt lat="44.80353" lon="1.62693">
        <ele>269.60000610352</ele>
        <time>2022-05-22T09:53:36.000Z</time>
      </trkpt>
      <trkpt lat="44.80353" lon="1.62693">
        <ele>269.39999389648</ele>
        <time>2022-05-22T09:53:43.000Z</time>
      </trkpt>
      <trkpt lat="44.80353" lon="1.62693">
        <ele>269.20001220703</ele>
        <time>2022-05-22T09:53:47.000Z</time>
      </trkpt>
      <trkpt lat="44.80353" lon="1.62693">
        <ele>269</ele>
        <time>2022-05-22T09:54:19.000Z</time>
      </trkpt>
      <trkpt lat="44.80353" lon="1.62693">
        <ele>269.39999389648</ele>
        <time>2022-05-22T09:54:50.000Z</time>
      </trkpt>
      <trkpt lat="44.80353" lon="1.62693">
        <ele>269.39999389648</ele>
        <time>2022-05-22T09:54:57.000Z</time>
      </trkpt>
      <trkpt lat="44.80353" lon="1.62693">
        <ele>269.39999389648</ele>
        <time>2022-05-22T09:55:14.000Z</time>
      </trkpt>
      <trkpt lat="44.80353" lon="1.62693">
        <ele>269.20001220703</ele>
        <time>2022-05-22T09:55:37.000Z</time>
      </trkpt>
      <trkpt lat="44.80354" lon="1.62693">
        <ele>269.39999389648</ele>
        <time>2022-05-22T09:56:11.000Z</time>
      </trkpt>
      <trkpt lat="44.80356" lon="1.62693">
        <ele>269.39999389648</ele>
        <time>2022-05-22T09:56:12.000Z</time>
      </trkpt>
      <trkpt lat="44.80361" lon="1.62694">
        <ele>269.20001220703</ele>
        <time>2022-05-22T09:56:16.000Z</time>
      </trkpt>
      <trkpt lat="44.80365" lon="1.62696">
        <ele>269.20001220703</ele>
        <time>2022-05-22T09:56:18.000Z</time>
      </trkpt>
      <trkpt lat="44.80375" lon="1.62698">
        <ele>269.20001220703</ele>
        <time>2022-05-22T09:56:23.000Z</time>
      </trkpt>
      <trkpt lat="44.80383" lon="1.62697">
        <ele>269.20001220703</ele>
        <time>2022-05-22T09:56:25.000Z</time>
      </trkpt>
      <trkpt lat="44.80393" lon="1.627">
        <ele>269.39999389648</ele>
        <time>2022-05-22T09:56:30.000Z</time>
      </trkpt>
      <trkpt lat="44.80407" lon="1.62699">
        <ele>269.79998779297</ele>
        <time>2022-05-22T09:56:36.000Z</time>
      </trkpt>
      <trkpt lat="44.80421" lon="1.62701">
        <ele>270</ele>
        <time>2022-05-22T09:56:42.000Z</time>
      </trkpt>
      <trkpt lat="44.80436" lon="1.627">
        <ele>270</ele>
        <time>2022-05-22T09:56:48.000Z</time>
      </trkpt>
      <trkpt lat="44.80447" lon="1.62698">
        <ele>270</ele>
        <time>2022-05-22T09:56:52.000Z</time>
      </trkpt>
      <trkpt lat="44.80447" lon="1.62698">
        <ele>270</ele>
        <time>2022-05-22T09:56:53.000Z</time>
      </trkpt>
      <trkpt lat="44.80454" lon="1.62701">
        <ele>269.79998779297</ele>
        <time>2022-05-22T09:56:56.000Z</time>
      </trkpt>
      <trkpt lat="44.8046" lon="1.627">
        <ele>269.60000610352</ele>
        <time>2022-05-22T09:56:59.000Z</time>
      </trkpt>
      <trkpt lat="44.80466" lon="1.62699">
        <ele>269.60000610352</ele>
        <time>2022-05-22T09:57:02.000Z</time>
      </trkpt>
      <trkpt lat="44.80468" lon="1.62699">
        <ele>269.60000610352</ele>
        <time>2022-05-22T09:57:03.000Z</time>
      </trkpt>
      <trkpt lat="44.80469" lon="1.62698">
        <ele>269.39999389648</ele>
        <time>2022-05-22T09:57:04.000Z</time>
      </trkpt>
      <trkpt lat="44.80478" lon="1.62683">
        <ele>269.39999389648</ele>
        <time>2022-05-22T09:57:09.000Z</time>
      </trkpt>
      <trkpt lat="44.80485" lon="1.62658">
        <ele>270</ele>
        <time>2022-05-22T09:57:15.000Z</time>
      </trkpt>
      <trkpt lat="44.80491" lon="1.62626">
        <ele>270.79998779297</ele>
        <time>2022-05-22T09:57:23.000Z</time>
      </trkpt>
      <trkpt lat="44.80494" lon="1.62601">
        <ele>271.39999389648</ele>
        <time>2022-05-22T09:57:29.000Z</time>
      </trkpt>
      <trkpt lat="44.80495" lon="1.6259">
        <ele>271.39999389648</ele>
        <time>2022-05-22T09:57:32.000Z</time>
      </trkpt>
      <trkpt lat="44.80497" lon="1.62568">
        <ele>272.20001220703</ele>
        <time>2022-05-22T09:57:40.000Z</time>
      </trkpt>
      <trkpt lat="44.80494" lon="1.62544">
        <ele>272.39999389648</ele>
        <time>2022-05-22T09:57:47.000Z</time>
      </trkpt>
      <trkpt lat="44.80493" lon="1.6254">
        <ele>272.39999389648</ele>
        <time>2022-05-22T09:57:49.000Z</time>
      </trkpt>
      <trkpt lat="44.80491" lon="1.62538">
        <ele>272.60000610352</ele>
        <time>2022-05-22T09:57:51.000Z</time>
      </trkpt>
      <trkpt lat="44.80489" lon="1.62537">
        <ele>272.60000610352</ele>
        <time>2022-05-22T09:57:53.000Z</time>
      </trkpt>
      <trkpt lat="44.80488" lon="1.62538">
        <ele>272.79998779297</ele>
        <time>2022-05-22T09:57:54.000Z</time>
      </trkpt>
      <trkpt lat="44.80488" lon="1.6254">
        <ele>272.60000610352</ele>
        <time>2022-05-22T09:57:56.000Z</time>
      </trkpt>
      <trkpt lat="44.80488" lon="1.62543">
        <ele>272.79998779297</ele>
        <time>2022-05-22T09:57:58.000Z</time>
      </trkpt>
      <trkpt lat="44.80488" lon="1.62556">
        <ele>272.79998779297</ele>
        <time>2022-05-22T09:58:02.000Z</time>
      </trkpt>
      <trkpt lat="44.80484" lon="1.62579">
        <ele>272.79998779297</ele>
        <time>2022-05-22T09:58:09.000Z</time>
      </trkpt>
      <trkpt lat="44.80479" lon="1.62579">
        <ele>272.79998779297</ele>
        <time>2022-05-22T09:58:11.000Z</time>
      </trkpt>
      <trkpt lat="44.80475" lon="1.62573">
        <ele>272.60000610352</ele>
        <time>2022-05-22T09:58:13.000Z</time>
      </trkpt>
      <trkpt lat="44.80472" lon="1.62557">
        <ele>272.39999389648</ele>
        <time>2022-05-22T09:58:17.000Z</time>
      </trkpt>
      <trkpt lat="44.80475" lon="1.62539">
        <ele>272.39999389648</ele>
        <time>2022-05-22T09:58:21.000Z</time>
      </trkpt>
      <trkpt lat="44.80472" lon="1.62531">
        <ele>272.39999389648</ele>
        <time>2022-05-22T09:58:23.000Z</time>
      </trkpt>
      <trkpt lat="44.8047" lon="1.62523">
        <ele>272.60000610352</ele>
        <time>2022-05-22T09:58:25.000Z</time>
      </trkpt>
      <trkpt lat="44.80471" lon="1.62517">
        <ele>272.60000610352</ele>
        <time>2022-05-22T09:58:27.000Z</time>
      </trkpt>
      <trkpt lat="44.80471" lon="1.62511">
        <ele>273</ele>
        <time>2022-05-22T09:58:32.000Z</time>
      </trkpt>
      <trkpt lat="44.8047" lon="1.62507">
        <ele>273.20001220703</ele>
        <time>2022-05-22T09:58:40.000Z</time>
      </trkpt>
      <trkpt lat="44.80469" lon="1.62505">
        <ele>273.20001220703</ele>
        <time>2022-05-22T09:58:49.000Z</time>
      </trkpt>
      <trkpt lat="44.80469" lon="1.62505">
        <ele>273.39999389648</ele>
        <time>2022-05-22T09:59:30.000Z</time>
      </trkpt>
      <trkpt lat="44.80469" lon="1.62505">
        <ele>273.20001220703</ele>
        <time>2022-05-22T09:59:59.000Z</time>
      </trkpt>
      <trkpt lat="44.80469" lon="1.62505">
        <ele>273.60000610352</ele>
        <time>2022-05-22T10:00:06.000Z</time>
      </trkpt>
      <trkpt lat="44.80469" lon="1.62505">
        <ele>273.39999389648</ele>
        <time>2022-05-22T10:00:14.000Z</time>
      </trkpt>
      <trkpt lat="44.80469" lon="1.62505">
        <ele>274</ele>
        <time>2022-05-22T10:00:43.000Z</time>
      </trkpt>
      <trkpt lat="44.80469" lon="1.62505">
        <ele>273.79998779297</ele>
        <time>2022-05-22T10:00:55.000Z</time>
      </trkpt>
      <trkpt lat="44.80469" lon="1.62505">
        <ele>274.39999389648</ele>
        <time>2022-05-22T10:01:28.000Z</time>
      </trkpt>
      <trkpt lat="44.80469" lon="1.62505">
        <ele>274</ele>
        <time>2022-05-22T10:02:06.000Z</time>
      </trkpt>
      <trkpt lat="44.80469" lon="1.62505">
        <ele>274</ele>
        <time>2022-05-22T10:02:10.000Z</time>
      </trkpt>
      <trkpt lat="44.80469" lon="1.62505">
        <ele>274.20001220703</ele>
        <time>2022-05-22T10:02:18.000Z</time>
      </trkpt>
      <trkpt lat="44.80469" lon="1.62505">
        <ele>274.20001220703</ele>
        <time>2022-05-22T10:02:50.000Z</time>
      </trkpt>
      <trkpt lat="44.80469" lon="1.62505">
        <ele>274.20001220703</ele>
        <time>2022-05-22T10:03:24.000Z</time>
      </trkpt>
      <trkpt lat="44.80469" lon="1.62505">
        <ele>274.20001220703</ele>
        <time>2022-05-22T10:03:29.000Z</time>
      </trkpt>
      <trkpt lat="44.80469" lon="1.62505">
        <ele>274.60000610352</ele>
        <time>2022-05-22T10:05:13.000Z</time>
      </trkpt>
      <trkpt lat="44.80469" lon="1.62505">
        <ele>274.60000610352</ele>
        <time>2022-05-22T10:05:14.000Z</time>
      </trkpt>
      <trkpt lat="44.80469" lon="1.62505">
        <ele>274.79998779297</ele>
        <time>2022-05-22T10:05:18.000Z</time>
      </trkpt>
      <trkpt lat="44.80469" lon="1.62505">
        <ele>274.60000610352</ele>
        <time>2022-05-22T10:06:23.000Z</time>
      </trkpt>
      <trkpt lat="44.80469" lon="1.62505">
        <ele>275</ele>
        <time>2022-05-22T10:06:45.000Z</time>
      </trkpt>
      <trkpt lat="44.80469" lon="1.62505">
        <ele>275</ele>
        <time>2022-05-22T10:06:53.000Z</time>
      </trkpt>
      <trkpt lat="44.80469" lon="1.62505">
        <ele>274.79998779297</ele>
        <time>2022-05-22T10:07:28.000Z</time>
      </trkpt>
      <trkpt lat="44.80469" lon="1.62505">
        <ele>274.79998779297</ele>
        <time>2022-05-22T10:07:47.000Z</time>
      </trkpt>
      <trkpt lat="44.80469" lon="1.62505">
        <ele>274.79998779297</ele>
        <time>2022-05-22T10:07:52.000Z</time>
      </trkpt>
      <trkpt lat="44.80469" lon="1.62505">
        <ele>274.60000610352</ele>
        <time>2022-05-22T10:08:42.000Z</time>
      </trkpt>
      <trkpt lat="44.80469" lon="1.62505">
        <ele>274.60000610352</ele>
        <time>2022-05-22T10:08:48.000Z</time>
      </trkpt>
      <trkpt lat="44.80469" lon="1.62505">
        <ele>274.79998779297</ele>
        <time>2022-05-22T10:09:14.000Z</time>
      </trkpt>
      <trkpt lat="44.80469" lon="1.62505">
        <ele>274.79998779297</ele>
        <time>2022-05-22T10:09:30.000Z</time>
      </trkpt>
      <trkpt lat="44.80469" lon="1.62505">
        <ele>275</ele>
        <time>2022-05-22T10:10:08.000Z</time>
      </trkpt>
      <trkpt lat="44.80469" lon="1.62505">
        <ele>275.79998779297</ele>
        <time>2022-05-22T10:11:35.000Z</time>
      </trkpt>
      <trkpt lat="44.80469" lon="1.62505">
        <ele>275.39999389648</ele>
        <time>2022-05-22T10:12:19.000Z</time>
      </trkpt>
      <trkpt lat="44.80469" lon="1.62505">
        <ele>275.60000610352</ele>
        <time>2022-05-22T10:12:32.000Z</time>
      </trkpt>
      <trkpt lat="44.80469" lon="1.62505">
        <ele>275.79998779297</ele>
        <time>2022-05-22T10:13:09.000Z</time>
      </trkpt>
      <trkpt lat="44.80469" lon="1.62505">
        <ele>275.60000610352</ele>
        <time>2022-05-22T10:13:28.000Z</time>
      </trkpt>
      <trkpt lat="44.80469" lon="1.62505">
        <ele>275.79998779297</ele>
        <time>2022-05-22T10:14:14.000Z</time>
      </trkpt>
      <trkpt lat="44.80469" lon="1.62505">
        <ele>275.79998779297</ele>
        <time>2022-05-22T10:14:28.000Z</time>
      </trkpt>
      <trkpt lat="44.80469" lon="1.62505">
        <ele>276</ele>
        <time>2022-05-22T10:15:23.000Z</time>
      </trkpt>
      <trkpt lat="44.80469" lon="1.62505">
        <ele>275.60000610352</ele>
        <time>2022-05-22T10:15:33.000Z</time>
      </trkpt>
      <trkpt lat="44.80469" lon="1.62505">
        <ele>275.79998779297</ele>
        <time>2022-05-22T10:16:03.000Z</time>
      </trkpt>
      <trkpt lat="44.80469" lon="1.62505">
        <ele>276</ele>
        <time>2022-05-22T10:18:31.000Z</time>
      </trkpt>
      <trkpt lat="44.80469" lon="1.62505">
        <ele>276.20001220703</ele>
        <time>2022-05-22T10:18:52.000Z</time>
      </trkpt>
      <trkpt lat="44.80469" lon="1.62505">
        <ele>276</ele>
        <time>2022-05-22T10:19:27.000Z</time>
      </trkpt>
      <trkpt lat="44.80469" lon="1.62505">
        <ele>276.39999389648</ele>
        <time>2022-05-22T10:19:50.000Z</time>
      </trkpt>
      <trkpt lat="44.80469" lon="1.62505">
        <ele>277</ele>
        <time>2022-05-22T10:22:17.000Z</time>
      </trkpt>
      <trkpt lat="44.80469" lon="1.62505">
        <ele>277.20001220703</ele>
        <time>2022-05-22T10:22:57.000Z</time>
      </trkpt>
      <trkpt lat="44.80469" lon="1.62505">
        <ele>277.20001220703</ele>
        <time>2022-05-22T10:23:35.000Z</time>
      </trkpt>
      <trkpt lat="44.80469" lon="1.62505">
        <ele>277.20001220703</ele>
        <time>2022-05-22T10:23:48.000Z</time>
      </trkpt>
      <trkpt lat="44.80469" lon="1.62505">
        <ele>278.20001220703</ele>
        <time>2022-05-22T10:27:15.000Z</time>
      </trkpt>
      <trkpt lat="44.80469" lon="1.62505">
        <ele>278</ele>
        <time>2022-05-22T10:27:35.000Z</time>
      </trkpt>
      <trkpt lat="44.80469" lon="1.62505">
        <ele>279</ele>
        <time>2022-05-22T10:29:33.000Z</time>
      </trkpt>
      <trkpt lat="44.80469" lon="1.62505">
        <ele>279.39999389648</ele>
        <time>2022-05-22T10:31:52.000Z</time>
      </trkpt>
      <trkpt lat="44.80469" lon="1.62505">
        <ele>280</ele>
        <time>2022-05-22T10:33:04.000Z</time>
      </trkpt>
      <trkpt lat="44.80469" lon="1.62505">
        <ele>280</ele>
        <time>2022-05-22T10:33:05.000Z</time>
      </trkpt>
      <trkpt lat="44.80469" lon="1.62505">
        <ele>280</ele>
        <time>2022-05-22T10:33:49.000Z</time>
      </trkpt>
      <trkpt lat="44.80469" lon="1.62505">
        <ele>280.20001220703</ele>
        <time>2022-05-22T10:34:15.000Z</time>
      </trkpt>
      <trkpt lat="44.80469" lon="1.62505">
        <ele>280</ele>
        <time>2022-05-22T10:34:28.000Z</time>
      </trkpt>
      <trkpt lat="44.80469" lon="1.62505">
        <ele>280</ele>
        <time>2022-05-22T10:35:00.000Z</time>
      </trkpt>
      <trkpt lat="44.80469" lon="1.62505">
        <ele>280</ele>
        <time>2022-05-22T10:35:16.000Z</time>
      </trkpt>
      <trkpt lat="44.80469" lon="1.62505">
        <ele>280.20001220703</ele>
        <time>2022-05-22T10:36:11.000Z</time>
      </trkpt>
      <trkpt lat="44.80469" lon="1.62505">
        <ele>280.20001220703</ele>
        <time>2022-05-22T10:36:12.000Z</time>
      </trkpt>
      <trkpt lat="44.80469" lon="1.62505">
        <ele>280.39999389648</ele>
        <time>2022-05-22T10:36:27.000Z</time>
      </trkpt>
      <trkpt lat="44.80469" lon="1.62505">
        <ele>280.39999389648</ele>
        <time>2022-05-22T10:36:45.000Z</time>
      </trkpt>
      <trkpt lat="44.80469" lon="1.62505">
        <ele>280.60000610352</ele>
        <time>2022-05-22T10:37:08.000Z</time>
      </trkpt>
      <trkpt lat="44.80469" lon="1.62505">
        <ele>280.60000610352</ele>
        <time>2022-05-22T10:37:53.000Z</time>
      </trkpt>
      <trkpt lat="44.80469" lon="1.62505">
        <ele>280.60000610352</ele>
        <time>2022-05-22T10:38:03.000Z</time>
      </trkpt>
      <trkpt lat="44.80469" lon="1.62505">
        <ele>280.79998779297</ele>
        <time>2022-05-22T10:38:34.000Z</time>
      </trkpt>
      <trkpt lat="44.80469" lon="1.62505">
        <ele>280.60000610352</ele>
        <time>2022-05-22T10:41:45.000Z</time>
      </trkpt>
      <trkpt lat="44.80469" lon="1.62505">
        <ele>280.60000610352</ele>
        <time>2022-05-22T10:41:59.000Z</time>
      </trkpt>
      <trkpt lat="44.80469" lon="1.62505">
        <ele>280.60000610352</ele>
        <time>2022-05-22T10:42:22.000Z</time>
      </trkpt>
      <trkpt lat="44.80469" lon="1.62505">
        <ele>281.20001220703</ele>
        <time>2022-05-22T10:43:26.000Z</time>
      </trkpt>
      <trkpt lat="44.80469" lon="1.62505">
        <ele>280.79998779297</ele>
        <time>2022-05-22T10:44:53.000Z</time>
      </trkpt>
      <trkpt lat="44.80469" lon="1.62505">
        <ele>281.20001220703</ele>
        <time>2022-05-22T10:46:09.000Z</time>
      </trkpt>
      <trkpt lat="44.80469" lon="1.62505">
        <ele>281.20001220703</ele>
        <time>2022-05-22T10:47:07.000Z</time>
      </trkpt>
      <trkpt lat="44.80469" lon="1.62505">
        <ele>281.60000610352</ele>
        <time>2022-05-22T10:48:40.000Z</time>
      </trkpt>
      <trkpt lat="44.80469" lon="1.62505">
        <ele>281.60000610352</ele>
        <time>2022-05-22T10:48:41.000Z</time>
      </trkpt>
      <trkpt lat="44.80469" lon="1.62505">
        <ele>281.60000610352</ele>
        <time>2022-05-22T10:49:07.000Z</time>
      </trkpt>
      <trkpt lat="44.80469" lon="1.62505">
        <ele>281.60000610352</ele>
        <time>2022-05-22T10:49:13.000Z</time>
      </trkpt>
      <trkpt lat="44.80469" lon="1.62505">
        <ele>282.20001220703</ele>
        <time>2022-05-22T10:50:12.000Z</time>
      </trkpt>
      <trkpt lat="44.80469" lon="1.62505">
        <ele>282.20001220703</ele>
        <time>2022-05-22T10:50:13.000Z</time>
      </trkpt>
      <trkpt lat="44.80469" lon="1.62505">
        <ele>282.60000610352</ele>
        <time>2022-05-22T10:51:36.000Z</time>
      </trkpt>
      <trkpt lat="44.80469" lon="1.62505">
        <ele>282.20001220703</ele>
        <time>2022-05-22T10:51:50.000Z</time>
      </trkpt>
      <trkpt lat="44.80469" lon="1.62505">
        <ele>282.60000610352</ele>
        <time>2022-05-22T10:52:00.000Z</time>
      </trkpt>
      <trkpt lat="44.80469" lon="1.62505">
        <ele>282.60000610352</ele>
        <time>2022-05-22T10:52:21.000Z</time>
      </trkpt>
      <trkpt lat="44.80469" lon="1.62505">
        <ele>282.79998779297</ele>
        <time>2022-05-22T10:52:37.000Z</time>
      </trkpt>
      <trkpt lat="44.80469" lon="1.62505">
        <ele>282.79998779297</ele>
        <time>2022-05-22T10:52:54.000Z</time>
      </trkpt>
      <trkpt lat="44.80469" lon="1.62505">
        <ele>282.79998779297</ele>
        <time>2022-05-22T10:52:55.000Z</time>
      </trkpt>
      <trkpt lat="44.80469" lon="1.62505">
        <ele>282.60000610352</ele>
        <time>2022-05-22T10:53:11.000Z</time>
      </trkpt>
      <trkpt lat="44.80469" lon="1.62505">
        <ele>283</ele>
        <time>2022-05-22T10:53:41.000Z</time>
      </trkpt>
      <trkpt lat="44.80469" lon="1.62505">
        <ele>283</ele>
        <time>2022-05-22T10:53:49.000Z</time>
      </trkpt>
      <trkpt lat="44.80469" lon="1.62505">
        <ele>283</ele>
        <time>2022-05-22T10:53:56.000Z</time>
      </trkpt>
      <trkpt lat="44.80469" lon="1.62505">
        <ele>283</ele>
        <time>2022-05-22T10:54:06.000Z</time>
      </trkpt>
      <trkpt lat="44.80469" lon="1.62505">
        <ele>282.79998779297</ele>
        <time>2022-05-22T10:54:34.000Z</time>
      </trkpt>
      <trkpt lat="44.80469" lon="1.62505">
        <ele>283.20001220703</ele>
        <time>2022-05-22T10:54:42.000Z</time>
      </trkpt>
      <trkpt lat="44.80469" lon="1.62505">
        <ele>283.20001220703</ele>
        <time>2022-05-22T10:55:13.000Z</time>
      </trkpt>
      <trkpt lat="44.80469" lon="1.62505">
        <ele>283.60000610352</ele>
        <time>2022-05-22T10:55:59.000Z</time>
      </trkpt>
      <trkpt lat="44.80469" lon="1.62505">
        <ele>283.60000610352</ele>
        <time>2022-05-22T10:56:45.000Z</time>
      </trkpt>
      <trkpt lat="44.80469" lon="1.62505">
        <ele>283.79998779297</ele>
        <time>2022-05-22T10:56:52.000Z</time>
      </trkpt>
      <trkpt lat="44.80469" lon="1.62505">
        <ele>283.79998779297</ele>
        <time>2022-05-22T10:57:37.000Z</time>
      </trkpt>
      <trkpt lat="44.80469" lon="1.62505">
        <ele>284.20001220703</ele>
        <time>2022-05-22T10:58:38.000Z</time>
      </trkpt>
      <trkpt lat="44.80469" lon="1.62505">
        <ele>284</ele>
        <time>2022-05-22T10:58:55.000Z</time>
      </trkpt>
      <trkpt lat="44.80469" lon="1.62505">
        <ele>283.79998779297</ele>
        <time>2022-05-22T10:59:05.000Z</time>
      </trkpt>
      <trkpt lat="44.80469" lon="1.62505">
        <ele>284.20001220703</ele>
        <time>2022-05-22T10:59:39.000Z</time>
      </trkpt>
      <trkpt lat="44.80469" lon="1.62505">
        <ele>284</ele>
        <time>2022-05-22T11:00:08.000Z</time>
      </trkpt>
      <trkpt lat="44.80469" lon="1.62505">
        <ele>284.20001220703</ele>
        <time>2022-05-22T11:01:36.000Z</time>
      </trkpt>
      <trkpt lat="44.80469" lon="1.62505">
        <ele>284.20001220703</ele>
        <time>2022-05-22T11:01:50.000Z</time>
      </trkpt>
      <trkpt lat="44.80469" lon="1.62505">
        <ele>284.20001220703</ele>
        <time>2022-05-22T11:02:29.000Z</time>
      </trkpt>
      <trkpt lat="44.80469" lon="1.62505">
        <ele>284.39999389648</ele>
        <time>2022-05-22T11:02:49.000Z</time>
      </trkpt>
      <trkpt lat="44.80469" lon="1.62505">
        <ele>284.60000610352</ele>
        <time>2022-05-22T11:03:08.000Z</time>
      </trkpt>
      <trkpt lat="44.80469" lon="1.62505">
        <ele>284.60000610352</ele>
        <time>2022-05-22T11:05:47.000Z</time>
      </trkpt>
      <trkpt lat="44.80469" lon="1.62505">
        <ele>284.39999389648</ele>
        <time>2022-05-22T11:06:11.000Z</time>
      </trkpt>
      <trkpt lat="44.80469" lon="1.62505">
        <ele>284.20001220703</ele>
        <time>2022-05-22T11:06:28.000Z</time>
      </trkpt>
      <trkpt lat="44.80469" lon="1.62505">
        <ele>284.20001220703</ele>
        <time>2022-05-22T11:06:33.000Z</time>
      </trkpt>
      <trkpt lat="44.80469" lon="1.62505">
        <ele>284.20001220703</ele>
        <time>2022-05-22T11:06:45.000Z</time>
      </trkpt>
      <trkpt lat="44.80469" lon="1.62505">
        <ele>284.20001220703</ele>
        <time>2022-05-22T11:08:20.000Z</time>
      </trkpt>
      <trkpt lat="44.80469" lon="1.62505">
        <ele>284.20001220703</ele>
        <time>2022-05-22T11:08:31.000Z</time>
      </trkpt>
      <trkpt lat="44.80469" lon="1.62505">
        <ele>284.20001220703</ele>
        <time>2022-05-22T11:08:58.000Z</time>
      </trkpt>
      <trkpt lat="44.80469" lon="1.62505">
        <ele>284.79998779297</ele>
        <time>2022-05-22T11:09:45.000Z</time>
      </trkpt>
      <trkpt lat="44.80469" lon="1.62505">
        <ele>286.20001220703</ele>
        <time>2022-05-22T11:11:10.000Z</time>
      </trkpt>
      <trkpt lat="44.8047" lon="1.62506">
        <ele>286.60000610352</ele>
        <time>2022-05-22T11:11:22.000Z</time>
      </trkpt>
      <trkpt lat="44.8047" lon="1.62506">
        <ele>286.79998779297</ele>
        <time>2022-05-22T11:11:32.000Z</time>
      </trkpt>
      <trkpt lat="44.8047" lon="1.62506">
        <ele>286.79998779297</ele>
        <time>2022-05-22T11:11:49.000Z</time>
      </trkpt>
      <trkpt lat="44.8047" lon="1.62506">
        <ele>287.60000610352</ele>
        <time>2022-05-22T11:12:19.000Z</time>
      </trkpt>
      <trkpt lat="44.80467" lon="1.62512">
        <ele>287.39999389648</ele>
        <time>2022-05-22T11:12:36.000Z</time>
      </trkpt>
      <trkpt lat="44.80466" lon="1.62515">
        <ele>287.39999389648</ele>
        <time>2022-05-22T11:12:37.000Z</time>
      </trkpt>
      <trkpt lat="44.80461" lon="1.62533">
        <ele>287.60000610352</ele>
        <time>2022-05-22T11:12:43.000Z</time>
      </trkpt>
      <trkpt lat="44.80459" lon="1.62546">
        <ele>287.79998779297</ele>
        <time>2022-05-22T11:12:47.000Z</time>
      </trkpt>
      <trkpt lat="44.80458" lon="1.62557">
        <ele>287.39999389648</ele>
        <time>2022-05-22T11:12:51.000Z</time>
      </trkpt>
      <trkpt lat="44.80462" lon="1.62568">
        <ele>287.60000610352</ele>
        <time>2022-05-22T11:12:55.000Z</time>
      </trkpt>
      <trkpt lat="44.80464" lon="1.6257">
        <ele>287.39999389648</ele>
        <time>2022-05-22T11:12:56.000Z</time>
      </trkpt>
      <trkpt lat="44.80478" lon="1.62576">
        <ele>287.60000610352</ele>
        <time>2022-05-22T11:13:02.000Z</time>
      </trkpt>
      <trkpt lat="44.80484" lon="1.62582">
        <ele>287.79998779297</ele>
        <time>2022-05-22T11:13:07.000Z</time>
      </trkpt>
      <trkpt lat="44.80484" lon="1.62584">
        <ele>287.79998779297</ele>
        <time>2022-05-22T11:13:08.000Z</time>
      </trkpt>
      <trkpt lat="44.80484" lon="1.62586">
        <ele>287.79998779297</ele>
        <time>2022-05-22T11:13:09.000Z</time>
      </trkpt>
      <trkpt lat="44.80481" lon="1.62596">
        <ele>287.60000610352</ele>
        <time>2022-05-22T11:13:14.000Z</time>
      </trkpt>
      <trkpt lat="44.80482" lon="1.62606">
        <ele>287.39999389648</ele>
        <time>2022-05-22T11:13:18.000Z</time>
      </trkpt>
      <trkpt lat="44.80484" lon="1.62608">
        <ele>287.39999389648</ele>
        <time>2022-05-22T11:13:20.000Z</time>
      </trkpt>
      <trkpt lat="44.80488" lon="1.62609">
        <ele>287.39999389648</ele>
        <time>2022-05-22T11:13:23.000Z</time>
      </trkpt>
      <trkpt lat="44.80489" lon="1.62613">
        <ele>287.39999389648</ele>
        <time>2022-05-22T11:13:25.000Z</time>
      </trkpt>
      <trkpt lat="44.8049" lon="1.62617">
        <ele>287.39999389648</ele>
        <time>2022-05-22T11:13:26.000Z</time>
      </trkpt>
      <trkpt lat="44.80491" lon="1.62621">
        <ele>287.39999389648</ele>
        <time>2022-05-22T11:13:27.000Z</time>
      </trkpt>
      <trkpt lat="44.80496" lon="1.62629">
        <ele>287.39999389648</ele>
        <time>2022-05-22T11:13:29.000Z</time>
      </trkpt>
      <trkpt lat="44.8051" lon="1.62638">
        <ele>287.20001220703</ele>
        <time>2022-05-22T11:13:33.000Z</time>
      </trkpt>
      <trkpt lat="44.8053" lon="1.62646">
        <ele>286.79998779297</ele>
        <time>2022-05-22T11:13:38.000Z</time>
      </trkpt>
      <trkpt lat="44.80538" lon="1.62648">
        <ele>286.79998779297</ele>
        <time>2022-05-22T11:13:40.000Z</time>
      </trkpt>
      <trkpt lat="44.80542" lon="1.62648">
        <ele>286.60000610352</ele>
        <time>2022-05-22T11:13:41.000Z</time>
      </trkpt>
      <trkpt lat="44.80546" lon="1.62649">
        <ele>286.60000610352</ele>
        <time>2022-05-22T11:13:42.000Z</time>
      </trkpt>
      <trkpt lat="44.80563" lon="1.62653">
        <ele>286.60000610352</ele>
        <time>2022-05-22T11:13:47.000Z</time>
      </trkpt>
      <trkpt lat="44.80571" lon="1.62642">
        <ele>286.60000610352</ele>
        <time>2022-05-22T11:13:51.000Z</time>
      </trkpt>
      <trkpt lat="44.80587" lon="1.62631">
        <ele>287.20001220703</ele>
        <time>2022-05-22T11:13:58.000Z</time>
      </trkpt>
      <trkpt lat="44.80592" lon="1.62628">
        <ele>287.79998779297</ele>
        <time>2022-05-22T11:14:02.000Z</time>
      </trkpt>
      <trkpt lat="44.80595" lon="1.62627">
        <ele>288</ele>
        <time>2022-05-22T11:14:04.000Z</time>
      </trkpt>
      <trkpt lat="44.80605" lon="1.6262">
        <ele>288.39999389648</ele>
        <time>2022-05-22T11:14:11.000Z</time>
      </trkpt>
      <trkpt lat="44.80613" lon="1.62613">
        <ele>288.60000610352</ele>
        <time>2022-05-22T11:14:18.000Z</time>
      </trkpt>
      <trkpt lat="44.80614" lon="1.62612">
        <ele>288.60000610352</ele>
        <time>2022-05-22T11:14:19.000Z</time>
      </trkpt>
      <trkpt lat="44.80623" lon="1.62605">
        <ele>288.79998779297</ele>
        <time>2022-05-22T11:14:24.000Z</time>
      </trkpt>
      <trkpt lat="44.80638" lon="1.6259">
        <ele>289.79998779297</ele>
        <time>2022-05-22T11:14:33.000Z</time>
      </trkpt>
      <trkpt lat="44.8064" lon="1.62588">
        <ele>290</ele>
        <time>2022-05-22T11:14:38.000Z</time>
      </trkpt>
      <trkpt lat="44.8064" lon="1.62588">
        <ele>290</ele>
        <time>2022-05-22T11:14:40.000Z</time>
      </trkpt>
      <trkpt lat="44.8064" lon="1.62588">
        <ele>290</ele>
        <time>2022-05-22T11:14:56.000Z</time>
      </trkpt>
      <trkpt lat="44.8064" lon="1.62588">
        <ele>289.60000610352</ele>
        <time>2022-05-22T11:15:18.000Z</time>
      </trkpt>
      <trkpt lat="44.8064" lon="1.62588">
        <ele>289.60000610352</ele>
        <time>2022-05-22T11:15:32.000Z</time>
      </trkpt>
      <trkpt lat="44.8064" lon="1.62588">
        <ele>289.39999389648</ele>
        <time>2022-05-22T11:15:39.000Z</time>
      </trkpt>
      <trkpt lat="44.8064" lon="1.62588">
        <ele>289.39999389648</ele>
        <time>2022-05-22T11:15:44.000Z</time>
      </trkpt>
      <trkpt lat="44.80639" lon="1.6259">
        <ele>289.39999389648</ele>
        <time>2022-05-22T11:15:47.000Z</time>
      </trkpt>
      <trkpt lat="44.80638" lon="1.62591">
        <ele>289.39999389648</ele>
        <time>2022-05-22T11:15:51.000Z</time>
      </trkpt>
      <trkpt lat="44.80637" lon="1.62591">
        <ele>289.39999389648</ele>
        <time>2022-05-22T11:15:52.000Z</time>
      </trkpt>
      <trkpt lat="44.80634" lon="1.62592">
        <ele>289.60000610352</ele>
        <time>2022-05-22T11:15:54.000Z</time>
      </trkpt>
      <trkpt lat="44.80633" lon="1.62598">
        <ele>289.60000610352</ele>
        <time>2022-05-22T11:15:57.000Z</time>
      </trkpt>
      <trkpt lat="44.80636" lon="1.62599">
        <ele>289.60000610352</ele>
        <time>2022-05-22T11:15:59.000Z</time>
      </trkpt>
      <trkpt lat="44.80641" lon="1.62595">
        <ele>289.60000610352</ele>
        <time>2022-05-22T11:16:01.000Z</time>
      </trkpt>
      <trkpt lat="44.80657" lon="1.62585">
        <ele>289.39999389648</ele>
        <time>2022-05-22T11:16:07.000Z</time>
      </trkpt>
      <trkpt lat="44.80679" lon="1.62578">
        <ele>289.79998779297</ele>
        <time>2022-05-22T11:16:14.000Z</time>
      </trkpt>
      <trkpt lat="44.80712" lon="1.62568">
        <ele>289.79998779297</ele>
        <time>2022-05-22T11:16:23.000Z</time>
      </trkpt>
      <trkpt lat="44.80745" lon="1.62554">
        <ele>289.60000610352</ele>
        <time>2022-05-22T11:16:31.000Z</time>
      </trkpt>
      <trkpt lat="44.8077" lon="1.62539">
        <ele>289.39999389648</ele>
        <time>2022-05-22T11:16:36.000Z</time>
      </trkpt>
      <trkpt lat="44.80788" lon="1.62528">
        <ele>288.79998779297</ele>
        <time>2022-05-22T11:16:39.000Z</time>
      </trkpt>
      <trkpt lat="44.80809" lon="1.62515">
        <ele>287.60000610352</ele>
        <time>2022-05-22T11:16:42.000Z</time>
      </trkpt>
      <trkpt lat="44.8085" lon="1.62491">
        <ele>286.20001220703</ele>
        <time>2022-05-22T11:16:47.000Z</time>
      </trkpt>
      <trkpt lat="44.80859" lon="1.62486">
        <ele>286</ele>
        <time>2022-05-22T11:16:48.000Z</time>
      </trkpt>
      <trkpt lat="44.80877" lon="1.62475">
        <ele>285</ele>
        <time>2022-05-22T11:16:50.000Z</time>
      </trkpt>
      <trkpt lat="44.80906" lon="1.62459">
        <ele>283.60000610352</ele>
        <time>2022-05-22T11:16:53.000Z</time>
      </trkpt>
      <trkpt lat="44.80916" lon="1.62455">
        <ele>282.79998779297</ele>
        <time>2022-05-22T11:16:54.000Z</time>
      </trkpt>
      <trkpt lat="44.80925" lon="1.62453">
        <ele>282.20001220703</ele>
        <time>2022-05-22T11:16:55.000Z</time>
      </trkpt>
      <trkpt lat="44.80962" lon="1.62445">
        <ele>280.79998779297</ele>
        <time>2022-05-22T11:16:59.000Z</time>
      </trkpt>
      <trkpt lat="44.8097" lon="1.62444">
        <ele>280.39999389648</ele>
        <time>2022-05-22T11:17:00.000Z</time>
      </trkpt>
      <trkpt lat="44.80987" lon="1.6244">
        <ele>279.60000610352</ele>
        <time>2022-05-22T11:17:02.000Z</time>
      </trkpt>
      <trkpt lat="44.81035" lon="1.62433">
        <ele>278.60000610352</ele>
        <time>2022-05-22T11:17:08.000Z</time>
      </trkpt>
      <trkpt lat="44.8106" lon="1.62436">
        <ele>278.20001220703</ele>
        <time>2022-05-22T11:17:11.000Z</time>
      </trkpt>
      <trkpt lat="44.81068" lon="1.62439">
        <ele>278.20001220703</ele>
        <time>2022-05-22T11:17:12.000Z</time>
      </trkpt>
      <trkpt lat="44.81085" lon="1.62449">
        <ele>277.39999389648</ele>
        <time>2022-05-22T11:17:14.000Z</time>
      </trkpt>
      <trkpt lat="44.81112" lon="1.62466">
        <ele>276.39999389648</ele>
        <time>2022-05-22T11:17:17.000Z</time>
      </trkpt>
      <trkpt lat="44.81121" lon="1.62473">
        <ele>276</ele>
        <time>2022-05-22T11:17:18.000Z</time>
      </trkpt>
      <trkpt lat="44.81149" lon="1.62492">
        <ele>274.39999389648</ele>
        <time>2022-05-22T11:17:21.000Z</time>
      </trkpt>
      <trkpt lat="44.81168" lon="1.62504">
        <ele>274</ele>
        <time>2022-05-22T11:17:23.000Z</time>
      </trkpt>
      <trkpt lat="44.81187" lon="1.62517">
        <ele>272.79998779297</ele>
        <time>2022-05-22T11:17:25.000Z</time>
      </trkpt>
      <trkpt lat="44.81214" lon="1.62535">
        <ele>271.39999389648</ele>
        <time>2022-05-22T11:17:28.000Z</time>
      </trkpt>
      <trkpt lat="44.8124" lon="1.62552">
        <ele>270.39999389648</ele>
        <time>2022-05-22T11:17:31.000Z</time>
      </trkpt>
      <trkpt lat="44.81269" lon="1.62572">
        <ele>269.20001220703</ele>
        <time>2022-05-22T11:17:35.000Z</time>
      </trkpt>
      <trkpt lat="44.81282" lon="1.62581">
        <ele>269</ele>
        <time>2022-05-22T11:17:37.000Z</time>
      </trkpt>
      <trkpt lat="44.81309" lon="1.62597">
        <ele>268.79998779297</ele>
        <time>2022-05-22T11:17:42.000Z</time>
      </trkpt>
      <trkpt lat="44.81326" lon="1.62606">
        <ele>269</ele>
        <time>2022-05-22T11:17:47.000Z</time>
      </trkpt>
      <trkpt lat="44.81338" lon="1.62607">
        <ele>269.20001220703</ele>
        <time>2022-05-22T11:17:51.000Z</time>
      </trkpt>
      <trkpt lat="44.81346" lon="1.6261">
        <ele>269.60000610352</ele>
        <time>2022-05-22T11:17:54.000Z</time>
      </trkpt>
      <trkpt lat="44.81348" lon="1.62613">
        <ele>269.79998779297</ele>
        <time>2022-05-22T11:17:55.000Z</time>
      </trkpt>
      <trkpt lat="44.81349" lon="1.62622">
        <ele>270.20001220703</ele>
        <time>2022-05-22T11:17:57.000Z</time>
      </trkpt>
      <trkpt lat="44.81349" lon="1.62632">
        <ele>270.20001220703</ele>
        <time>2022-05-22T11:17:59.000Z</time>
      </trkpt>
      <trkpt lat="44.81348" lon="1.62655">
        <ele>270.39999389648</ele>
        <time>2022-05-22T11:18:03.000Z</time>
      </trkpt>
      <trkpt lat="44.8135" lon="1.62683">
        <ele>270.20001220703</ele>
        <time>2022-05-22T11:18:08.000Z</time>
      </trkpt>
      <trkpt lat="44.81357" lon="1.62705">
        <ele>270</ele>
        <time>2022-05-22T11:18:13.000Z</time>
      </trkpt>
      <trkpt lat="44.81366" lon="1.62726">
        <ele>270.20001220703</ele>
        <time>2022-05-22T11:18:18.000Z</time>
      </trkpt>
      <trkpt lat="44.81372" lon="1.62739">
        <ele>270.20001220703</ele>
        <time>2022-05-22T11:18:21.000Z</time>
      </trkpt>
      <trkpt lat="44.81378" lon="1.62757">
        <ele>270.60000610352</ele>
        <time>2022-05-22T11:18:25.000Z</time>
      </trkpt>
      <trkpt lat="44.81384" lon="1.62774">
        <ele>270.79998779297</ele>
        <time>2022-05-22T11:18:29.000Z</time>
      </trkpt>
      <trkpt lat="44.81393" lon="1.628">
        <ele>271</ele>
        <time>2022-05-22T11:18:35.000Z</time>
      </trkpt>
      <trkpt lat="44.81406" lon="1.62833">
        <ele>270.79998779297</ele>
        <time>2022-05-22T11:18:43.000Z</time>
      </trkpt>
      <trkpt lat="44.81418" lon="1.62834">
        <ele>270.79998779297</ele>
        <time>2022-05-22T11:18:47.000Z</time>
      </trkpt>
      <trkpt lat="44.81437" lon="1.62823">
        <ele>271.39999389648</ele>
        <time>2022-05-22T11:18:54.000Z</time>
      </trkpt>
      <trkpt lat="44.81445" lon="1.62818">
        <ele>271.60000610352</ele>
        <time>2022-05-22T11:18:57.000Z</time>
      </trkpt>
      <trkpt lat="44.81456" lon="1.62816">
        <ele>272.60000610352</ele>
        <time>2022-05-22T11:19:01.000Z</time>
      </trkpt>
      <trkpt lat="44.81464" lon="1.62817">
        <ele>273</ele>
        <time>2022-05-22T11:19:04.000Z</time>
      </trkpt>
      <trkpt lat="44.81479" lon="1.62821">
        <ele>273.20001220703</ele>
        <time>2022-05-22T11:19:09.000Z</time>
      </trkpt>
      <trkpt lat="44.815" lon="1.6281">
        <ele>273.39999389648</ele>
        <time>2022-05-22T11:19:15.000Z</time>
      </trkpt>
      <trkpt lat="44.81502" lon="1.62808">
        <ele>273.60000610352</ele>
        <time>2022-05-22T11:19:16.000Z</time>
      </trkpt>
      <trkpt lat="44.81516" lon="1.62795">
        <ele>274</ele>
        <time>2022-05-22T11:19:22.000Z</time>
      </trkpt>
      <trkpt lat="44.81531" lon="1.62804">
        <ele>274.20001220703</ele>
        <time>2022-05-22T11:19:28.000Z</time>
      </trkpt>
      <trkpt lat="44.81548" lon="1.62818">
        <ele>273.79998779297</ele>
        <time>2022-05-22T11:19:33.000Z</time>
      </trkpt>
      <trkpt lat="44.81571" lon="1.62832">
        <ele>273.20001220703</ele>
        <time>2022-05-22T11:19:37.000Z</time>
      </trkpt>
      <trkpt lat="44.81596" lon="1.62844">
        <ele>272.39999389648</ele>
        <time>2022-05-22T11:19:40.000Z</time>
      </trkpt>
      <trkpt lat="44.81604" lon="1.6285">
        <ele>272.20001220703</ele>
        <time>2022-05-22T11:19:41.000Z</time>
      </trkpt>
      <trkpt lat="44.81613" lon="1.62855">
        <ele>271</ele>
        <time>2022-05-22T11:19:42.000Z</time>
      </trkpt>
      <trkpt lat="44.8163" lon="1.62867">
        <ele>269.60000610352</ele>
        <time>2022-05-22T11:19:44.000Z</time>
      </trkpt>
      <trkpt lat="44.81647" lon="1.62879">
        <ele>268.39999389648</ele>
        <time>2022-05-22T11:19:46.000Z</time>
      </trkpt>
      <trkpt lat="44.81678" lon="1.62899">
        <ele>267.20001220703</ele>
        <time>2022-05-22T11:19:50.000Z</time>
      </trkpt>
      <trkpt lat="44.81714" lon="1.62912">
        <ele>266</ele>
        <time>2022-05-22T11:19:55.000Z</time>
      </trkpt>
      <trkpt lat="44.81738" lon="1.62922">
        <ele>265.79998779297</ele>
        <time>2022-05-22T11:19:59.000Z</time>
      </trkpt>
      <trkpt lat="44.81748" lon="1.62927">
        <ele>265.60000610352</ele>
        <time>2022-05-22T11:20:01.000Z</time>
      </trkpt>
      <trkpt lat="44.81772" lon="1.62942">
        <ele>265.39999389648</ele>
        <time>2022-05-22T11:20:07.000Z</time>
      </trkpt>
      <trkpt lat="44.81798" lon="1.62961">
        <ele>265.79998779297</ele>
        <time>2022-05-22T11:20:14.000Z</time>
      </trkpt>
      <trkpt lat="44.8184" lon="1.62992">
        <ele>266.79998779297</ele>
        <time>2022-05-22T11:20:25.000Z</time>
      </trkpt>
      <trkpt lat="44.81869" lon="1.63012">
        <ele>267.20001220703</ele>
        <time>2022-05-22T11:20:33.000Z</time>
      </trkpt>
      <trkpt lat="44.8188" lon="1.63019">
        <ele>267.39999389648</ele>
        <time>2022-05-22T11:20:36.000Z</time>
      </trkpt>
      <trkpt lat="44.81898" lon="1.63029">
        <ele>268</ele>
        <time>2022-05-22T11:20:41.000Z</time>
      </trkpt>
      <trkpt lat="44.81904" lon="1.63033">
        <ele>268.20001220703</ele>
        <time>2022-05-22T11:20:43.000Z</time>
      </trkpt>
      <trkpt lat="44.81918" lon="1.63042">
        <ele>269</ele>
        <time>2022-05-22T11:20:47.000Z</time>
      </trkpt>
      <trkpt lat="44.81921" lon="1.63044">
        <ele>269</ele>
        <time>2022-05-22T11:20:48.000Z</time>
      </trkpt>
      <trkpt lat="44.81935" lon="1.63052">
        <ele>269.39999389648</ele>
        <time>2022-05-22T11:20:52.000Z</time>
      </trkpt>
      <trkpt lat="44.81953" lon="1.63063">
        <ele>270</ele>
        <time>2022-05-22T11:20:58.000Z</time>
      </trkpt>
      <trkpt lat="44.8196" lon="1.63068">
        <ele>270.20001220703</ele>
        <time>2022-05-22T11:21:00.000Z</time>
      </trkpt>
      <trkpt lat="44.81964" lon="1.6307">
        <ele>270.39999389648</ele>
        <time>2022-05-22T11:21:01.000Z</time>
      </trkpt>
      <trkpt lat="44.81986" lon="1.63085">
        <ele>271.39999389648</ele>
        <time>2022-05-22T11:21:07.000Z</time>
      </trkpt>
      <trkpt lat="44.8199" lon="1.63086">
        <ele>271.60000610352</ele>
        <time>2022-05-22T11:21:08.000Z</time>
      </trkpt>
      <trkpt lat="44.82006" lon="1.63094">
        <ele>272.60000610352</ele>
        <time>2022-05-22T11:21:13.000Z</time>
      </trkpt>
      <trkpt lat="44.82021" lon="1.63101">
        <ele>273</ele>
        <time>2022-05-22T11:21:17.000Z</time>
      </trkpt>
      <trkpt lat="44.82032" lon="1.63106">
        <ele>273.79998779297</ele>
        <time>2022-05-22T11:21:20.000Z</time>
      </trkpt>
      <trkpt lat="44.82049" lon="1.63119">
        <ele>274.39999389648</ele>
        <time>2022-05-22T11:21:25.000Z</time>
      </trkpt>
      <trkpt lat="44.82059" lon="1.63128">
        <ele>274.79998779297</ele>
        <time>2022-05-22T11:21:28.000Z</time>
      </trkpt>
      <trkpt lat="44.82071" lon="1.6314">
        <ele>275.60000610352</ele>
        <time>2022-05-22T11:21:32.000Z</time>
      </trkpt>
      <trkpt lat="44.82074" lon="1.63143">
        <ele>275.79998779297</ele>
        <time>2022-05-22T11:21:33.000Z</time>
      </trkpt>
      <trkpt lat="44.82095" lon="1.63159">
        <ele>276.79998779297</ele>
        <time>2022-05-22T11:21:39.000Z</time>
      </trkpt>
      <trkpt lat="44.82099" lon="1.63161">
        <ele>277</ele>
        <time>2022-05-22T11:21:40.000Z</time>
      </trkpt>
      <trkpt lat="44.82124" lon="1.63169">
        <ele>277.60000610352</ele>
        <time>2022-05-22T11:21:47.000Z</time>
      </trkpt>
      <trkpt lat="44.82131" lon="1.6317">
        <ele>278.20001220703</ele>
        <time>2022-05-22T11:21:49.000Z</time>
      </trkpt>
      <trkpt lat="44.82147" lon="1.63174">
        <ele>279.20001220703</ele>
        <time>2022-05-22T11:21:54.000Z</time>
      </trkpt>
      <trkpt lat="44.82154" lon="1.63176">
        <ele>280</ele>
        <time>2022-05-22T11:21:56.000Z</time>
      </trkpt>
      <trkpt lat="44.82157" lon="1.63177">
        <ele>280.20001220703</ele>
        <time>2022-05-22T11:21:57.000Z</time>
      </trkpt>
      <trkpt lat="44.82173" lon="1.63182">
        <ele>281.20001220703</ele>
        <time>2022-05-22T11:22:02.000Z</time>
      </trkpt>
      <trkpt lat="44.82187" lon="1.63187">
        <ele>282</ele>
        <time>2022-05-22T11:22:06.000Z</time>
      </trkpt>
      <trkpt lat="44.82198" lon="1.63191">
        <ele>282.20001220703</ele>
        <time>2022-05-22T11:22:09.000Z</time>
      </trkpt>
      <trkpt lat="44.8222" lon="1.632">
        <ele>282.79998779297</ele>
        <time>2022-05-22T11:22:15.000Z</time>
      </trkpt>
      <trkpt lat="44.82231" lon="1.63203">
        <ele>283.20001220703</ele>
        <time>2022-05-22T11:22:18.000Z</time>
      </trkpt>
      <trkpt lat="44.82253" lon="1.63204">
        <ele>284.20001220703</ele>
        <time>2022-05-22T11:22:24.000Z</time>
      </trkpt>
      <trkpt lat="44.82256" lon="1.63205">
        <ele>284.39999389648</ele>
        <time>2022-05-22T11:22:25.000Z</time>
      </trkpt>
      <trkpt lat="44.82274" lon="1.63206">
        <ele>285.79998779297</ele>
        <time>2022-05-22T11:22:30.000Z</time>
      </trkpt>
      <trkpt lat="44.82285" lon="1.6321">
        <ele>287.20001220703</ele>
        <time>2022-05-22T11:22:33.000Z</time>
      </trkpt>
      <trkpt lat="44.82288" lon="1.63211">
        <ele>287.39999389648</ele>
        <time>2022-05-22T11:22:34.000Z</time>
      </trkpt>
      <trkpt lat="44.82292" lon="1.63213">
        <ele>288</ele>
        <time>2022-05-22T11:22:36.000Z</time>
      </trkpt>
      <trkpt lat="44.82292" lon="1.63214">
        <ele>288.60000610352</ele>
        <time>2022-05-22T11:22:37.000Z</time>
      </trkpt>
      <trkpt lat="44.82292" lon="1.63212">
        <ele>289.60000610352</ele>
        <time>2022-05-22T11:22:42.000Z</time>
      </trkpt>
      <trkpt lat="44.82293" lon="1.63212">
        <ele>289.79998779297</ele>
        <time>2022-05-22T11:22:43.000Z</time>
      </trkpt>
      <trkpt lat="44.82293" lon="1.63212">
        <ele>289.20001220703</ele>
        <time>2022-05-22T11:23:05.000Z</time>
      </trkpt>
      <trkpt lat="44.82293" lon="1.63212">
        <ele>289.20001220703</ele>
        <time>2022-05-22T11:23:14.000Z</time>
      </trkpt>
      <trkpt lat="44.82293" lon="1.63212">
        <ele>289.20001220703</ele>
        <time>2022-05-22T11:23:19.000Z</time>
      </trkpt>
      <trkpt lat="44.82293" lon="1.63212">
        <ele>289.20001220703</ele>
        <time>2022-05-22T11:23:26.000Z</time>
      </trkpt>
      <trkpt lat="44.82293" lon="1.63212">
        <ele>289.20001220703</ele>
        <time>2022-05-22T11:23:37.000Z</time>
      </trkpt>
      <trkpt lat="44.82296" lon="1.63214">
        <ele>290</ele>
        <time>2022-05-22T11:23:45.000Z</time>
      </trkpt>
      <trkpt lat="44.82296" lon="1.63214">
        <ele>290.20001220703</ele>
        <time>2022-05-22T11:23:47.000Z</time>
      </trkpt>
      <trkpt lat="44.82304" lon="1.63217">
        <ele>290.20001220703</ele>
        <time>2022-05-22T11:23:50.000Z</time>
      </trkpt>
      <trkpt lat="44.82321" lon="1.63225">
        <ele>290.60000610352</ele>
        <time>2022-05-22T11:23:55.000Z</time>
      </trkpt>
      <trkpt lat="44.82325" lon="1.63226">
        <ele>290.79998779297</ele>
        <time>2022-05-22T11:23:56.000Z</time>
      </trkpt>
      <trkpt lat="44.8234" lon="1.63231">
        <ele>291.79998779297</ele>
        <time>2022-05-22T11:24:00.000Z</time>
      </trkpt>
      <trkpt lat="44.82351" lon="1.63236">
        <ele>292.20001220703</ele>
        <time>2022-05-22T11:24:03.000Z</time>
      </trkpt>
      <trkpt lat="44.82355" lon="1.63237">
        <ele>292.60000610352</ele>
        <time>2022-05-22T11:24:04.000Z</time>
      </trkpt>
      <trkpt lat="44.82363" lon="1.6324">
        <ele>293.20001220703</ele>
        <time>2022-05-22T11:24:06.000Z</time>
      </trkpt>
      <trkpt lat="44.82382" lon="1.63249">
        <ele>294</ele>
        <time>2022-05-22T11:24:11.000Z</time>
      </trkpt>
      <trkpt lat="44.82401" lon="1.63256">
        <ele>294</ele>
        <time>2022-05-22T11:24:15.000Z</time>
      </trkpt>
      <trkpt lat="44.82405" lon="1.63257">
        <ele>294</ele>
        <time>2022-05-22T11:24:16.000Z</time>
      </trkpt>
      <trkpt lat="44.8241" lon="1.63255">
        <ele>294</ele>
        <time>2022-05-22T11:24:17.000Z</time>
      </trkpt>
      <trkpt lat="44.82418" lon="1.63248">
        <ele>293.39999389648</ele>
        <time>2022-05-22T11:24:19.000Z</time>
      </trkpt>
      <trkpt lat="44.82443" lon="1.63217">
        <ele>292.79998779297</ele>
        <time>2022-05-22T11:24:25.000Z</time>
      </trkpt>
      <trkpt lat="44.82481" lon="1.63172">
        <ele>292.60000610352</ele>
        <time>2022-05-22T11:24:33.000Z</time>
      </trkpt>
      <trkpt lat="44.82524" lon="1.63124">
        <ele>293.20001220703</ele>
        <time>2022-05-22T11:24:42.000Z</time>
      </trkpt>
      <trkpt lat="44.82534" lon="1.63115">
        <ele>293.20001220703</ele>
        <time>2022-05-22T11:24:44.000Z</time>
      </trkpt>
      <trkpt lat="44.82561" lon="1.63095">
        <ele>293.39999389648</ele>
        <time>2022-05-22T11:24:50.000Z</time>
      </trkpt>
      <trkpt lat="44.82602" lon="1.63067">
        <ele>293.79998779297</ele>
        <time>2022-05-22T11:24:58.000Z</time>
      </trkpt>
      <trkpt lat="44.82647" lon="1.63029">
        <ele>293.79998779297</ele>
        <time>2022-05-22T11:25:07.000Z</time>
      </trkpt>
      <trkpt lat="44.82674" lon="1.62992">
        <ele>293.39999389648</ele>
        <time>2022-05-22T11:25:13.000Z</time>
      </trkpt>
      <trkpt lat="44.82678" lon="1.62984">
        <ele>293.39999389648</ele>
        <time>2022-05-22T11:25:14.000Z</time>
      </trkpt>
      <trkpt lat="44.8269" lon="1.62949">
        <ele>293.20001220703</ele>
        <time>2022-05-22T11:25:18.000Z</time>
      </trkpt>
      <trkpt lat="44.82697" lon="1.62896">
        <ele>292.20001220703</ele>
        <time>2022-05-22T11:25:23.000Z</time>
      </trkpt>
      <trkpt lat="44.82709" lon="1.62839">
        <ele>290.79998779297</ele>
        <time>2022-05-22T11:25:28.000Z</time>
      </trkpt>
      <trkpt lat="44.82713" lon="1.62828">
        <ele>290.60000610352</ele>
        <time>2022-05-22T11:25:29.000Z</time>
      </trkpt>
      <trkpt lat="44.82729" lon="1.62798">
        <ele>290</ele>
        <time>2022-05-22T11:25:32.000Z</time>
      </trkpt>
      <trkpt lat="44.82734" lon="1.62788">
        <ele>289.39999389648</ele>
        <time>2022-05-22T11:25:33.000Z</time>
      </trkpt>
      <trkpt lat="44.82755" lon="1.6275">
        <ele>288.20001220703</ele>
        <time>2022-05-22T11:25:37.000Z</time>
      </trkpt>
      <trkpt lat="44.8278" lon="1.62705">
        <ele>287.39999389648</ele>
        <time>2022-05-22T11:25:42.000Z</time>
      </trkpt>
      <trkpt lat="44.82793" lon="1.6268">
        <ele>287.20001220703</ele>
        <time>2022-05-22T11:25:45.000Z</time>
      </trkpt>
      <trkpt lat="44.8281" lon="1.62648">
        <ele>286.79998779297</ele>
        <time>2022-05-22T11:25:49.000Z</time>
      </trkpt>
      <trkpt lat="44.82832" lon="1.62608">
        <ele>286.79998779297</ele>
        <time>2022-05-22T11:25:55.000Z</time>
      </trkpt>
      <trkpt lat="44.82842" lon="1.62589">
        <ele>287</ele>
        <time>2022-05-22T11:25:58.000Z</time>
      </trkpt>
      <trkpt lat="44.82855" lon="1.62565">
        <ele>287.79998779297</ele>
        <time>2022-05-22T11:26:02.000Z</time>
      </trkpt>
      <trkpt lat="44.8286" lon="1.62555">
        <ele>288.20001220703</ele>
        <time>2022-05-22T11:26:04.000Z</time>
      </trkpt>
      <trkpt lat="44.82875" lon="1.6253">
        <ele>289</ele>
        <time>2022-05-22T11:26:09.000Z</time>
      </trkpt>
      <trkpt lat="44.82878" lon="1.62524">
        <ele>289</ele>
        <time>2022-05-22T11:26:10.000Z</time>
      </trkpt>
      <trkpt lat="44.82884" lon="1.62513">
        <ele>289.20001220703</ele>
        <time>2022-05-22T11:26:12.000Z</time>
      </trkpt>
      <trkpt lat="44.829" lon="1.62485">
        <ele>290.60000610352</ele>
        <time>2022-05-22T11:26:17.000Z</time>
      </trkpt>
      <trkpt lat="44.82903" lon="1.62479">
        <ele>290.60000610352</ele>
        <time>2022-05-22T11:26:18.000Z</time>
      </trkpt>
      <trkpt lat="44.82919" lon="1.6245">
        <ele>291.60000610352</ele>
        <time>2022-05-22T11:26:23.000Z</time>
      </trkpt>
      <trkpt lat="44.82933" lon="1.62421">
        <ele>292.39999389648</ele>
        <time>2022-05-22T11:26:28.000Z</time>
      </trkpt>
      <trkpt lat="44.82939" lon="1.62406">
        <ele>292.60000610352</ele>
        <time>2022-05-22T11:26:31.000Z</time>
      </trkpt>
      <trkpt lat="44.82945" lon="1.624">
        <ele>292.79998779297</ele>
        <time>2022-05-22T11:26:33.000Z</time>
      </trkpt>
      <trkpt lat="44.82958" lon="1.62396">
        <ele>293.20001220703</ele>
        <time>2022-05-22T11:26:36.000Z</time>
      </trkpt>
      <trkpt lat="44.82967" lon="1.62397">
        <ele>293.60000610352</ele>
        <time>2022-05-22T11:26:38.000Z</time>
      </trkpt>
      <trkpt lat="44.82975" lon="1.62398">
        <ele>294</ele>
        <time>2022-05-22T11:26:40.000Z</time>
      </trkpt>
      <trkpt lat="44.82991" lon="1.62402">
        <ele>294.79998779297</ele>
        <time>2022-05-22T11:26:44.000Z</time>
      </trkpt>
      <trkpt lat="44.82995" lon="1.62405">
        <ele>295</ele>
        <time>2022-05-22T11:26:45.000Z</time>
      </trkpt>
      <trkpt lat="44.82999" lon="1.62408">
        <ele>295.39999389648</ele>
        <time>2022-05-22T11:26:46.000Z</time>
      </trkpt>
      <trkpt lat="44.8301" lon="1.6242">
        <ele>295.79998779297</ele>
        <time>2022-05-22T11:26:49.000Z</time>
      </trkpt>
      <trkpt lat="44.83014" lon="1.62422">
        <ele>296</ele>
        <time>2022-05-22T11:26:50.000Z</time>
      </trkpt>
      <trkpt lat="44.83018" lon="1.62424">
        <ele>296.39999389648</ele>
        <time>2022-05-22T11:26:51.000Z</time>
      </trkpt>
      <trkpt lat="44.83035" lon="1.62427">
        <ele>296.79998779297</ele>
        <time>2022-05-22T11:26:55.000Z</time>
      </trkpt>
      <trkpt lat="44.83046" lon="1.62428">
        <ele>296.79998779297</ele>
        <time>2022-05-22T11:26:58.000Z</time>
      </trkpt>
      <trkpt lat="44.83053" lon="1.6243">
        <ele>296.79998779297</ele>
        <time>2022-05-22T11:27:00.000Z</time>
      </trkpt>
      <trkpt lat="44.83083" lon="1.62433">
        <ele>296.20001220703</ele>
        <time>2022-05-22T11:27:07.000Z</time>
      </trkpt>
      <trkpt lat="44.83104" lon="1.62438">
        <ele>295</ele>
        <time>2022-05-22T11:27:13.000Z</time>
      </trkpt>
      <trkpt lat="44.83107" lon="1.62439">
        <ele>294.79998779297</ele>
        <time>2022-05-22T11:27:14.000Z</time>
      </trkpt>
      <trkpt lat="44.83108" lon="1.6244">
        <ele>294.79998779297</ele>
        <time>2022-05-22T11:27:15.000Z</time>
      </trkpt>
      <trkpt lat="44.83109" lon="1.62441">
        <ele>294.39999389648</ele>
        <time>2022-05-22T11:27:16.000Z</time>
      </trkpt>
      <trkpt lat="44.83109" lon="1.62441">
        <ele>293.79998779297</ele>
        <time>2022-05-22T11:27:20.000Z</time>
      </trkpt>
      <trkpt lat="44.83109" lon="1.62441">
        <ele>293.60000610352</ele>
        <time>2022-05-22T11:27:21.000Z</time>
      </trkpt>
      <trkpt lat="44.83109" lon="1.62441">
        <ele>292.79998779297</ele>
        <time>2022-05-22T11:27:30.000Z</time>
      </trkpt>
      <trkpt lat="44.83109" lon="1.62441">
        <ele>292.79998779297</ele>
        <time>2022-05-22T11:27:31.000Z</time>
      </trkpt>
      <trkpt lat="44.83109" lon="1.62441">
        <ele>292.79998779297</ele>
        <time>2022-05-22T11:27:35.000Z</time>
      </trkpt>
      <trkpt lat="44.83109" lon="1.62441">
        <ele>292.60000610352</ele>
        <time>2022-05-22T11:27:45.000Z</time>
      </trkpt>
      <trkpt lat="44.83109" lon="1.62441">
        <ele>292.60000610352</ele>
        <time>2022-05-22T11:27:55.000Z</time>
      </trkpt>
      <trkpt lat="44.83109" lon="1.62441">
        <ele>293</ele>
        <time>2022-05-22T11:28:54.000Z</time>
      </trkpt>
      <trkpt lat="44.83109" lon="1.62441">
        <ele>293.20001220703</ele>
        <time>2022-05-22T11:29:17.000Z</time>
      </trkpt>
      <trkpt lat="44.8311" lon="1.62439">
        <ele>293.60000610352</ele>
        <time>2022-05-22T11:29:31.000Z</time>
      </trkpt>
      <trkpt lat="44.83122" lon="1.62436">
        <ele>293.60000610352</ele>
        <time>2022-05-22T11:29:35.000Z</time>
      </trkpt>
      <trkpt lat="44.83135" lon="1.62433">
        <ele>293.39999389648</ele>
        <time>2022-05-22T11:29:38.000Z</time>
      </trkpt>
      <trkpt lat="44.8315" lon="1.62432">
        <ele>292.79998779297</ele>
        <time>2022-05-22T11:29:41.000Z</time>
      </trkpt>
      <trkpt lat="44.83179" lon="1.62429">
        <ele>291.39999389648</ele>
        <time>2022-05-22T11:29:46.000Z</time>
      </trkpt>
      <trkpt lat="44.83185" lon="1.6243">
        <ele>291.20001220703</ele>
        <time>2022-05-22T11:29:47.000Z</time>
      </trkpt>
      <trkpt lat="44.83198" lon="1.6243">
        <ele>290.20001220703</ele>
        <time>2022-05-22T11:29:49.000Z</time>
      </trkpt>
      <trkpt lat="44.83214" lon="1.62431">
        <ele>289</ele>
        <time>2022-05-22T11:29:52.000Z</time>
      </trkpt>
      <trkpt lat="44.83223" lon="1.6243">
        <ele>287.60000610352</ele>
        <time>2022-05-22T11:29:54.000Z</time>
      </trkpt>
      <trkpt lat="44.83227" lon="1.6243">
        <ele>286.60000610352</ele>
        <time>2022-05-22T11:29:55.000Z</time>
      </trkpt>
      <trkpt lat="44.83237" lon="1.62428">
        <ele>285.60000610352</ele>
        <time>2022-05-22T11:29:57.000Z</time>
      </trkpt>
      <trkpt lat="44.83245" lon="1.62423">
        <ele>284.60000610352</ele>
        <time>2022-05-22T11:29:59.000Z</time>
      </trkpt>
      <trkpt lat="44.83249" lon="1.62419">
        <ele>283.79998779297</ele>
        <time>2022-05-22T11:30:00.000Z</time>
      </trkpt>
      <trkpt lat="44.83252" lon="1.62415">
        <ele>282.60000610352</ele>
        <time>2022-05-22T11:30:01.000Z</time>
      </trkpt>
      <trkpt lat="44.83258" lon="1.62404">
        <ele>281.20001220703</ele>
        <time>2022-05-22T11:30:03.000Z</time>
      </trkpt>
      <trkpt lat="44.83267" lon="1.62388">
        <ele>280.20001220703</ele>
        <time>2022-05-22T11:30:05.000Z</time>
      </trkpt>
      <trkpt lat="44.83272" lon="1.62381">
        <ele>280</ele>
        <time>2022-05-22T11:30:06.000Z</time>
      </trkpt>
      <trkpt lat="44.83279" lon="1.62367">
        <ele>278.60000610352</ele>
        <time>2022-05-22T11:30:08.000Z</time>
      </trkpt>
      <trkpt lat="44.83283" lon="1.62357">
        <ele>278.20001220703</ele>
        <time>2022-05-22T11:30:09.000Z</time>
      </trkpt>
      <trkpt lat="44.83287" lon="1.62348">
        <ele>277.20001220703</ele>
        <time>2022-05-22T11:30:10.000Z</time>
      </trkpt>
      <trkpt lat="44.83294" lon="1.6233">
        <ele>275.39999389648</ele>
        <time>2022-05-22T11:30:12.000Z</time>
      </trkpt>
      <trkpt lat="44.83298" lon="1.62322">
        <ele>274.20001220703</ele>
        <time>2022-05-22T11:30:13.000Z</time>
      </trkpt>
      <trkpt lat="44.83309" lon="1.6231">
        <ele>272.39999389648</ele>
        <time>2022-05-22T11:30:15.000Z</time>
      </trkpt>
      <trkpt lat="44.83315" lon="1.62305">
        <ele>271.79998779297</ele>
        <time>2022-05-22T11:30:16.000Z</time>
      </trkpt>
      <trkpt lat="44.83321" lon="1.623">
        <ele>270.60000610352</ele>
        <time>2022-05-22T11:30:17.000Z</time>
      </trkpt>
      <trkpt lat="44.83334" lon="1.62288">
        <ele>269</ele>
        <time>2022-05-22T11:30:19.000Z</time>
      </trkpt>
      <trkpt lat="44.83341" lon="1.62281">
        <ele>268</ele>
        <time>2022-05-22T11:30:20.000Z</time>
      </trkpt>
      <trkpt lat="44.83347" lon="1.62274">
        <ele>267.79998779297</ele>
        <time>2022-05-22T11:30:21.000Z</time>
      </trkpt>
      <trkpt lat="44.83354" lon="1.62266">
        <ele>267</ele>
        <time>2022-05-22T11:30:22.000Z</time>
      </trkpt>
      <trkpt lat="44.83366" lon="1.62249">
        <ele>265.60000610352</ele>
        <time>2022-05-22T11:30:24.000Z</time>
      </trkpt>
      <trkpt lat="44.83371" lon="1.6224">
        <ele>265</ele>
        <time>2022-05-22T11:30:25.000Z</time>
      </trkpt>
      <trkpt lat="44.8338" lon="1.62224">
        <ele>264.39999389648</ele>
        <time>2022-05-22T11:30:27.000Z</time>
      </trkpt>
      <trkpt lat="44.83395" lon="1.62198">
        <ele>262.60000610352</ele>
        <time>2022-05-22T11:30:30.000Z</time>
      </trkpt>
      <trkpt lat="44.83405" lon="1.62186">
        <ele>260.79998779297</ele>
        <time>2022-05-22T11:30:32.000Z</time>
      </trkpt>
      <trkpt lat="44.83412" lon="1.62178">
        <ele>260.39999389648</ele>
        <time>2022-05-22T11:30:33.000Z</time>
      </trkpt>
      <trkpt lat="44.83417" lon="1.62174">
        <ele>259.39999389648</ele>
        <time>2022-05-22T11:30:34.000Z</time>
      </trkpt>
      <trkpt lat="44.83422" lon="1.62171">
        <ele>259</ele>
        <time>2022-05-22T11:30:35.000Z</time>
      </trkpt>
      <trkpt lat="44.83427" lon="1.6217">
        <ele>258.20001220703</ele>
        <time>2022-05-22T11:30:36.000Z</time>
      </trkpt>
      <trkpt lat="44.83432" lon="1.62169">
        <ele>257.20001220703</ele>
        <time>2022-05-22T11:30:37.000Z</time>
      </trkpt>
      <trkpt lat="44.83437" lon="1.62169">
        <ele>256.79998779297</ele>
        <time>2022-05-22T11:30:38.000Z</time>
      </trkpt>
      <trkpt lat="44.83443" lon="1.62169">
        <ele>256.20001220703</ele>
        <time>2022-05-22T11:30:39.000Z</time>
      </trkpt>
      <trkpt lat="44.83455" lon="1.6217">
        <ele>255.39999389648</ele>
        <time>2022-05-22T11:30:41.000Z</time>
      </trkpt>
      <trkpt lat="44.83461" lon="1.6217">
        <ele>255</ele>
        <time>2022-05-22T11:30:42.000Z</time>
      </trkpt>
      <trkpt lat="44.83474" lon="1.62174">
        <ele>254.39999389648</ele>
        <time>2022-05-22T11:30:44.000Z</time>
      </trkpt>
      <trkpt lat="44.83503" lon="1.62184">
        <ele>253.19999694824</ele>
        <time>2022-05-22T11:30:48.000Z</time>
      </trkpt>
      <trkpt lat="44.83517" lon="1.6219">
        <ele>252.60000610352</ele>
        <time>2022-05-22T11:30:50.000Z</time>
      </trkpt>
      <trkpt lat="44.83523" lon="1.62192">
        <ele>252</ele>
        <time>2022-05-22T11:30:51.000Z</time>
      </trkpt>
      <trkpt lat="44.83536" lon="1.62199">
        <ele>250.80000305176</ele>
        <time>2022-05-22T11:30:53.000Z</time>
      </trkpt>
      <trkpt lat="44.83549" lon="1.62209">
        <ele>249.60000610352</ele>
        <time>2022-05-22T11:30:55.000Z</time>
      </trkpt>
      <trkpt lat="44.83571" lon="1.62228">
        <ele>248.60000610352</ele>
        <time>2022-05-22T11:30:59.000Z</time>
      </trkpt>
      <trkpt lat="44.83576" lon="1.62231">
        <ele>247.19999694824</ele>
        <time>2022-05-22T11:31:00.000Z</time>
      </trkpt>
      <trkpt lat="44.8358" lon="1.62234">
        <ele>246.60000610352</ele>
        <time>2022-05-22T11:31:01.000Z</time>
      </trkpt>
      <trkpt lat="44.83585" lon="1.62236">
        <ele>246.19999694824</ele>
        <time>2022-05-22T11:31:02.000Z</time>
      </trkpt>
      <trkpt lat="44.83603" lon="1.6224">
        <ele>245.39999389648</ele>
        <time>2022-05-22T11:31:05.000Z</time>
      </trkpt>
      <trkpt lat="44.8361" lon="1.6224">
        <ele>245</ele>
        <time>2022-05-22T11:31:06.000Z</time>
      </trkpt>
      <trkpt lat="44.8363" lon="1.62243">
        <ele>243.80000305176</ele>
        <time>2022-05-22T11:31:09.000Z</time>
      </trkpt>
      <trkpt lat="44.83642" lon="1.62247">
        <ele>242.80000305176</ele>
        <time>2022-05-22T11:31:11.000Z</time>
      </trkpt>
      <trkpt lat="44.83655" lon="1.62248">
        <ele>242.39999389648</ele>
        <time>2022-05-22T11:31:13.000Z</time>
      </trkpt>
      <trkpt lat="44.83682" lon="1.62248">
        <ele>241.39999389648</ele>
        <time>2022-05-22T11:31:17.000Z</time>
      </trkpt>
      <trkpt lat="44.83709" lon="1.62251">
        <ele>240.80000305176</ele>
        <time>2022-05-22T11:31:21.000Z</time>
      </trkpt>
      <trkpt lat="44.83722" lon="1.62257">
        <ele>240.39999389648</ele>
        <time>2022-05-22T11:31:23.000Z</time>
      </trkpt>
      <trkpt lat="44.8375" lon="1.6227">
        <ele>240</ele>
        <time>2022-05-22T11:31:27.000Z</time>
      </trkpt>
      <trkpt lat="44.83773" lon="1.62277">
        <ele>239.19999694824</ele>
        <time>2022-05-22T11:31:30.000Z</time>
      </trkpt>
      <trkpt lat="44.83787" lon="1.62281">
        <ele>238.60000610352</ele>
        <time>2022-05-22T11:31:32.000Z</time>
      </trkpt>
      <trkpt lat="44.83801" lon="1.62286">
        <ele>237.60000610352</ele>
        <time>2022-05-22T11:31:34.000Z</time>
      </trkpt>
      <trkpt lat="44.83829" lon="1.623">
        <ele>236.39999389648</ele>
        <time>2022-05-22T11:31:38.000Z</time>
      </trkpt>
      <trkpt lat="44.83836" lon="1.62303">
        <ele>236</ele>
        <time>2022-05-22T11:31:39.000Z</time>
      </trkpt>
      <trkpt lat="44.83843" lon="1.62306">
        <ele>235.39999389648</ele>
        <time>2022-05-22T11:31:40.000Z</time>
      </trkpt>
      <trkpt lat="44.83849" lon="1.62308">
        <ele>235.39999389648</ele>
        <time>2022-05-22T11:31:41.000Z</time>
      </trkpt>
      <trkpt lat="44.83862" lon="1.6231">
        <ele>234.80000305176</ele>
        <time>2022-05-22T11:31:43.000Z</time>
      </trkpt>
      <trkpt lat="44.83868" lon="1.62312">
        <ele>234.19999694824</ele>
        <time>2022-05-22T11:31:44.000Z</time>
      </trkpt>
      <trkpt lat="44.83874" lon="1.62314">
        <ele>234</ele>
        <time>2022-05-22T11:31:45.000Z</time>
      </trkpt>
      <trkpt lat="44.83885" lon="1.62319">
        <ele>233</ele>
        <time>2022-05-22T11:31:47.000Z</time>
      </trkpt>
      <trkpt lat="44.83897" lon="1.62326">
        <ele>232.19999694824</ele>
        <time>2022-05-22T11:31:49.000Z</time>
      </trkpt>
      <trkpt lat="44.83909" lon="1.62333">
        <ele>231.80000305176</ele>
        <time>2022-05-22T11:31:51.000Z</time>
      </trkpt>
      <trkpt lat="44.8392" lon="1.62343">
        <ele>231</ele>
        <time>2022-05-22T11:31:53.000Z</time>
      </trkpt>
      <trkpt lat="44.83926" lon="1.6235">
        <ele>230.60000610352</ele>
        <time>2022-05-22T11:31:54.000Z</time>
      </trkpt>
      <trkpt lat="44.83931" lon="1.62357">
        <ele>230.39999389648</ele>
        <time>2022-05-22T11:31:55.000Z</time>
      </trkpt>
      <trkpt lat="44.83939" lon="1.6237">
        <ele>230</ele>
        <time>2022-05-22T11:31:57.000Z</time>
      </trkpt>
      <trkpt lat="44.83941" lon="1.62377">
        <ele>228.60000610352</ele>
        <time>2022-05-22T11:31:58.000Z</time>
      </trkpt>
      <trkpt lat="44.83943" lon="1.62386">
        <ele>227.80000305176</ele>
        <time>2022-05-22T11:31:59.000Z</time>
      </trkpt>
      <trkpt lat="44.83944" lon="1.62394">
        <ele>227.60000610352</ele>
        <time>2022-05-22T11:32:00.000Z</time>
      </trkpt>
      <trkpt lat="44.83948" lon="1.62413">
        <ele>226.19999694824</ele>
        <time>2022-05-22T11:32:02.000Z</time>
      </trkpt>
      <trkpt lat="44.83953" lon="1.62433">
        <ele>225.19999694824</ele>
        <time>2022-05-22T11:32:04.000Z</time>
      </trkpt>
      <trkpt lat="44.83957" lon="1.62442">
        <ele>225</ele>
        <time>2022-05-22T11:32:05.000Z</time>
      </trkpt>
      <trkpt lat="44.8396" lon="1.62451">
        <ele>224.60000610352</ele>
        <time>2022-05-22T11:32:06.000Z</time>
      </trkpt>
      <trkpt lat="44.83968" lon="1.62466">
        <ele>224.19999694824</ele>
        <time>2022-05-22T11:32:08.000Z</time>
      </trkpt>
      <trkpt lat="44.83972" lon="1.62474">
        <ele>223.80000305176</ele>
        <time>2022-05-22T11:32:09.000Z</time>
      </trkpt>
      <trkpt lat="44.83976" lon="1.62482">
        <ele>222.80000305176</ele>
        <time>2022-05-22T11:32:10.000Z</time>
      </trkpt>
      <trkpt lat="44.83981" lon="1.62488">
        <ele>221.80000305176</ele>
        <time>2022-05-22T11:32:11.000Z</time>
      </trkpt>
      <trkpt lat="44.83986" lon="1.62495">
        <ele>221.60000610352</ele>
        <time>2022-05-22T11:32:12.000Z</time>
      </trkpt>
      <trkpt lat="44.83992" lon="1.62501">
        <ele>221</ele>
        <time>2022-05-22T11:32:13.000Z</time>
      </trkpt>
      <trkpt lat="44.83997" lon="1.62507">
        <ele>220.80000305176</ele>
        <time>2022-05-22T11:32:14.000Z</time>
      </trkpt>
      <trkpt lat="44.84009" lon="1.62517">
        <ele>219</ele>
        <time>2022-05-22T11:32:16.000Z</time>
      </trkpt>
      <trkpt lat="44.84021" lon="1.62523">
        <ele>218</ele>
        <time>2022-05-22T11:32:18.000Z</time>
      </trkpt>
      <trkpt lat="44.84025" lon="1.62526">
        <ele>218</ele>
        <time>2022-05-22T11:32:19.000Z</time>
      </trkpt>
      <trkpt lat="44.84031" lon="1.62529">
        <ele>217.60000610352</ele>
        <time>2022-05-22T11:32:20.000Z</time>
      </trkpt>
      <trkpt lat="44.84045" lon="1.62535">
        <ele>216.60000610352</ele>
        <time>2022-05-22T11:32:23.000Z</time>
      </trkpt>
      <trkpt lat="44.84063" lon="1.62547">
        <ele>216.19999694824</ele>
        <time>2022-05-22T11:32:28.000Z</time>
      </trkpt>
      <trkpt lat="44.84077" lon="1.62551">
        <ele>216.39999389648</ele>
        <time>2022-05-22T11:32:31.000Z</time>
      </trkpt>
      <trkpt lat="44.84093" lon="1.62552">
        <ele>216.39999389648</ele>
        <time>2022-05-22T11:32:34.000Z</time>
      </trkpt>
      <trkpt lat="44.84099" lon="1.62552">
        <ele>216.60000610352</ele>
        <time>2022-05-22T11:32:35.000Z</time>
      </trkpt>
      <trkpt lat="44.8412" lon="1.62547">
        <ele>216.19999694824</ele>
        <time>2022-05-22T11:32:39.000Z</time>
      </trkpt>
      <trkpt lat="44.8417" lon="1.62536">
        <ele>215.39999389648</ele>
        <time>2022-05-22T11:32:48.000Z</time>
      </trkpt>
      <trkpt lat="44.84208" lon="1.62542">
        <ele>214.19999694824</ele>
        <time>2022-05-22T11:32:54.000Z</time>
      </trkpt>
      <trkpt lat="44.84258" lon="1.62553">
        <ele>213.19999694824</ele>
        <time>2022-05-22T11:33:01.000Z</time>
      </trkpt>
      <trkpt lat="44.84306" lon="1.62565">
        <ele>212</ele>
        <time>2022-05-22T11:33:08.000Z</time>
      </trkpt>
      <trkpt lat="44.84318" lon="1.62568">
        <ele>211.60000610352</ele>
        <time>2022-05-22T11:33:10.000Z</time>
      </trkpt>
      <trkpt lat="44.84348" lon="1.62576">
        <ele>210.80000305176</ele>
        <time>2022-05-22T11:33:14.000Z</time>
      </trkpt>
      <trkpt lat="44.84377" lon="1.62589">
        <ele>210.19999694824</ele>
        <time>2022-05-22T11:33:18.000Z</time>
      </trkpt>
      <trkpt lat="44.84397" lon="1.62604">
        <ele>209.80000305176</ele>
        <time>2022-05-22T11:33:21.000Z</time>
      </trkpt>
      <trkpt lat="44.84423" lon="1.62623">
        <ele>209.19999694824</ele>
        <time>2022-05-22T11:33:25.000Z</time>
      </trkpt>
      <trkpt lat="44.84439" lon="1.62634">
        <ele>208.80000305176</ele>
        <time>2022-05-22T11:33:28.000Z</time>
      </trkpt>
      <trkpt lat="44.84443" lon="1.62635">
        <ele>208.80000305176</ele>
        <time>2022-05-22T11:33:29.000Z</time>
      </trkpt>
      <trkpt lat="44.84447" lon="1.62635">
        <ele>208.60000610352</ele>
        <time>2022-05-22T11:33:30.000Z</time>
      </trkpt>
      <trkpt lat="44.84456" lon="1.62631">
        <ele>208.60000610352</ele>
        <time>2022-05-22T11:33:33.000Z</time>
      </trkpt>
      <trkpt lat="44.8447" lon="1.62619">
        <ele>209.80000305176</ele>
        <time>2022-05-22T11:33:38.000Z</time>
      </trkpt>
      <trkpt lat="44.84471" lon="1.62617">
        <ele>210.19999694824</ele>
        <time>2022-05-22T11:33:39.000Z</time>
      </trkpt>
      <trkpt lat="44.84476" lon="1.62613">
        <ele>211</ele>
        <time>2022-05-22T11:33:41.000Z</time>
      </trkpt>
      <trkpt lat="44.84477" lon="1.62611">
        <ele>211.39999389648</ele>
        <time>2022-05-22T11:33:42.000Z</time>
      </trkpt>
      <trkpt lat="44.8448" lon="1.62608">
        <ele>211.60000610352</ele>
        <time>2022-05-22T11:33:43.000Z</time>
      </trkpt>
      <trkpt lat="44.84484" lon="1.62602">
        <ele>213.19999694824</ele>
        <time>2022-05-22T11:33:45.000Z</time>
      </trkpt>
      <trkpt lat="44.84491" lon="1.62592">
        <ele>214.19999694824</ele>
        <time>2022-05-22T11:33:48.000Z</time>
      </trkpt>
      <trkpt lat="44.84493" lon="1.62589">
        <ele>215.39999389648</ele>
        <time>2022-05-22T11:33:49.000Z</time>
      </trkpt>
      <trkpt lat="44.84496" lon="1.62587">
        <ele>215.60000610352</ele>
        <time>2022-05-22T11:33:50.000Z</time>
      </trkpt>
      <trkpt lat="44.84501" lon="1.62581">
        <ele>216.39999389648</ele>
        <time>2022-05-22T11:33:52.000Z</time>
      </trkpt>
      <trkpt lat="44.8451" lon="1.62574">
        <ele>217.60000610352</ele>
        <time>2022-05-22T11:33:55.000Z</time>
      </trkpt>
      <trkpt lat="44.84516" lon="1.62569">
        <ele>218.80000305176</ele>
        <time>2022-05-22T11:33:57.000Z</time>
      </trkpt>
      <trkpt lat="44.84526" lon="1.62563">
        <ele>220.19999694824</ele>
        <time>2022-05-22T11:34:01.000Z</time>
      </trkpt>
      <trkpt lat="44.84533" lon="1.62561">
        <ele>221.80000305176</ele>
        <time>2022-05-22T11:34:04.000Z</time>
      </trkpt>
      <trkpt lat="44.84543" lon="1.62557">
        <ele>223.19999694824</ele>
        <time>2022-05-22T11:34:08.000Z</time>
      </trkpt>
      <trkpt lat="44.84548" lon="1.62556">
        <ele>224.19999694824</ele>
        <time>2022-05-22T11:34:10.000Z</time>
      </trkpt>
      <trkpt lat="44.84553" lon="1.62555">
        <ele>225.19999694824</ele>
        <time>2022-05-22T11:34:12.000Z</time>
      </trkpt>
      <trkpt lat="44.84561" lon="1.62554">
        <ele>226.39999389648</ele>
        <time>2022-05-22T11:34:15.000Z</time>
      </trkpt>
      <trkpt lat="44.84566" lon="1.62553">
        <ele>226.60000610352</ele>
        <time>2022-05-22T11:34:17.000Z</time>
      </trkpt>
      <trkpt lat="44.84572" lon="1.62552">
        <ele>227.39999389648</ele>
        <time>2022-05-22T11:34:19.000Z</time>
      </trkpt>
      <trkpt lat="44.84578" lon="1.62552">
        <ele>228.60000610352</ele>
        <time>2022-05-22T11:34:21.000Z</time>
      </trkpt>
      <trkpt lat="44.84586" lon="1.6255">
        <ele>229.60000610352</ele>
        <time>2022-05-22T11:34:24.000Z</time>
      </trkpt>
      <trkpt lat="44.84589" lon="1.62551">
        <ele>230</ele>
        <time>2022-05-22T11:34:25.000Z</time>
      </trkpt>
      <trkpt lat="44.84591" lon="1.62551">
        <ele>230.60000610352</ele>
        <time>2022-05-22T11:34:26.000Z</time>
      </trkpt>
      <trkpt lat="44.84607" lon="1.62553">
        <ele>232.19999694824</ele>
        <time>2022-05-22T11:34:33.000Z</time>
      </trkpt>
      <trkpt lat="44.84618" lon="1.62553">
        <ele>233.39999389648</ele>
        <time>2022-05-22T11:34:37.000Z</time>
      </trkpt>
      <trkpt lat="44.84625" lon="1.62553">
        <ele>234</ele>
        <time>2022-05-22T11:34:40.000Z</time>
      </trkpt>
      <trkpt lat="44.84638" lon="1.62554">
        <ele>234.80000305176</ele>
        <time>2022-05-22T11:34:44.000Z</time>
      </trkpt>
      <trkpt lat="44.84648" lon="1.62557">
        <ele>235.39999389648</ele>
        <time>2022-05-22T11:34:47.000Z</time>
      </trkpt>
      <trkpt lat="44.84668" lon="1.62565">
        <ele>235.80000305176</ele>
        <time>2022-05-22T11:34:53.000Z</time>
      </trkpt>
      <trkpt lat="44.84678" lon="1.6257">
        <ele>236.19999694824</ele>
        <time>2022-05-22T11:34:56.000Z</time>
      </trkpt>
      <trkpt lat="44.84691" lon="1.62579">
        <ele>237.19999694824</ele>
        <time>2022-05-22T11:35:01.000Z</time>
      </trkpt>
      <trkpt lat="44.84693" lon="1.62581">
        <ele>237.60000610352</ele>
        <time>2022-05-22T11:35:02.000Z</time>
      </trkpt>
      <trkpt lat="44.84704" lon="1.62587">
        <ele>238.19999694824</ele>
        <time>2022-05-22T11:35:06.000Z</time>
      </trkpt>
      <trkpt lat="44.8471" lon="1.6259">
        <ele>238.39999389648</ele>
        <time>2022-05-22T11:35:08.000Z</time>
      </trkpt>
      <trkpt lat="44.8474" lon="1.62597">
        <ele>238.60000610352</ele>
        <time>2022-05-22T11:35:16.000Z</time>
      </trkpt>
      <trkpt lat="44.8477" lon="1.626">
        <ele>239.19999694824</ele>
        <time>2022-05-22T11:35:24.000Z</time>
      </trkpt>
      <trkpt lat="44.84777" lon="1.62601">
        <ele>239.39999389648</ele>
        <time>2022-05-22T11:35:26.000Z</time>
      </trkpt>
      <trkpt lat="44.84793" lon="1.62601">
        <ele>240.39999389648</ele>
        <time>2022-05-22T11:35:31.000Z</time>
      </trkpt>
      <trkpt lat="44.84797" lon="1.62601">
        <ele>240.60000610352</ele>
        <time>2022-05-22T11:35:32.000Z</time>
      </trkpt>
      <trkpt lat="44.84813" lon="1.62601">
        <ele>241.60000610352</ele>
        <time>2022-05-22T11:35:37.000Z</time>
      </trkpt>
      <trkpt lat="44.84821" lon="1.62601">
        <ele>242.80000305176</ele>
        <time>2022-05-22T11:35:40.000Z</time>
      </trkpt>
      <trkpt lat="44.84835" lon="1.62602">
        <ele>244</ele>
        <time>2022-05-22T11:35:45.000Z</time>
      </trkpt>
      <trkpt lat="44.84847" lon="1.626">
        <ele>245.19999694824</ele>
        <time>2022-05-22T11:35:49.000Z</time>
      </trkpt>
      <trkpt lat="44.84855" lon="1.62597">
        <ele>246.19999694824</ele>
        <time>2022-05-22T11:35:52.000Z</time>
      </trkpt>
      <trkpt lat="44.84866" lon="1.62595">
        <ele>247.39999389648</ele>
        <time>2022-05-22T11:35:56.000Z</time>
      </trkpt>
      <trkpt lat="44.84868" lon="1.62595">
        <ele>247.80000305176</ele>
        <time>2022-05-22T11:35:57.000Z</time>
      </trkpt>
      <trkpt lat="44.8488" lon="1.62593">
        <ele>248.80000305176</ele>
        <time>2022-05-22T11:36:02.000Z</time>
      </trkpt>
      <trkpt lat="44.84882" lon="1.62593">
        <ele>248.80000305176</ele>
        <time>2022-05-22T11:36:03.000Z</time>
      </trkpt>
      <trkpt lat="44.84888" lon="1.62592">
        <ele>249.39999389648</ele>
        <time>2022-05-22T11:36:06.000Z</time>
      </trkpt>
      <trkpt lat="44.84897" lon="1.6259">
        <ele>249.60000610352</ele>
        <time>2022-05-22T11:36:10.000Z</time>
      </trkpt>
      <trkpt lat="44.84901" lon="1.62589">
        <ele>250</ele>
        <time>2022-05-22T11:36:12.000Z</time>
      </trkpt>
      <trkpt lat="44.8492" lon="1.62583">
        <ele>251</ele>
        <time>2022-05-22T11:36:20.000Z</time>
      </trkpt>
      <trkpt lat="44.84941" lon="1.62578">
        <ele>251.60000610352</ele>
        <time>2022-05-22T11:36:30.000Z</time>
      </trkpt>
      <trkpt lat="44.84947" lon="1.62576">
        <ele>252</ele>
        <time>2022-05-22T11:36:33.000Z</time>
      </trkpt>
      <trkpt lat="44.84953" lon="1.62575">
        <ele>252.39999389648</ele>
        <time>2022-05-22T11:36:36.000Z</time>
      </trkpt>
      <trkpt lat="44.84965" lon="1.62571">
        <ele>253.19999694824</ele>
        <time>2022-05-22T11:36:42.000Z</time>
      </trkpt>
      <trkpt lat="44.84969" lon="1.62569">
        <ele>253.80000305176</ele>
        <time>2022-05-22T11:36:44.000Z</time>
      </trkpt>
      <trkpt lat="44.84975" lon="1.62568">
        <ele>254.19999694824</ele>
        <time>2022-05-22T11:36:47.000Z</time>
      </trkpt>
      <trkpt lat="44.84988" lon="1.62564">
        <ele>255</ele>
        <time>2022-05-22T11:36:53.000Z</time>
      </trkpt>
      <trkpt lat="44.84996" lon="1.62561">
        <ele>255.39999389648</ele>
        <time>2022-05-22T11:36:56.000Z</time>
      </trkpt>
      <trkpt lat="44.8501" lon="1.62559">
        <ele>256</ele>
        <time>2022-05-22T11:37:02.000Z</time>
      </trkpt>
      <trkpt lat="44.85023" lon="1.62558">
        <ele>256.60000610352</ele>
        <time>2022-05-22T11:37:07.000Z</time>
      </trkpt>
      <trkpt lat="44.85028" lon="1.62559">
        <ele>256.79998779297</ele>
        <time>2022-05-22T11:37:09.000Z</time>
      </trkpt>
      <trkpt lat="44.85042" lon="1.62562">
        <ele>257.60000610352</ele>
        <time>2022-05-22T11:37:14.000Z</time>
      </trkpt>
      <trkpt lat="44.85049" lon="1.62563">
        <ele>258</ele>
        <time>2022-05-22T11:37:16.000Z</time>
      </trkpt>
      <trkpt lat="44.85055" lon="1.62562">
        <ele>258.20001220703</ele>
        <time>2022-05-22T11:37:18.000Z</time>
      </trkpt>
      <trkpt lat="44.85067" lon="1.62562">
        <ele>258.79998779297</ele>
        <time>2022-05-22T11:37:21.000Z</time>
      </trkpt>
      <trkpt lat="44.85084" lon="1.6256">
        <ele>259</ele>
        <time>2022-05-22T11:37:25.000Z</time>
      </trkpt>
      <trkpt lat="44.8511" lon="1.62559">
        <ele>260</ele>
        <time>2022-05-22T11:37:31.000Z</time>
      </trkpt>
      <trkpt lat="44.85133" lon="1.62558">
        <ele>260</ele>
        <time>2022-05-22T11:37:36.000Z</time>
      </trkpt>
      <trkpt lat="44.85141" lon="1.62555">
        <ele>260</ele>
        <time>2022-05-22T11:37:38.000Z</time>
      </trkpt>
      <trkpt lat="44.8516" lon="1.62548">
        <ele>260.20001220703</ele>
        <time>2022-05-22T11:37:44.000Z</time>
      </trkpt>
      <trkpt lat="44.85185" lon="1.62546">
        <ele>260.20001220703</ele>
        <time>2022-05-22T11:37:50.000Z</time>
      </trkpt>
      <trkpt lat="44.85213" lon="1.62544">
        <ele>260</ele>
        <time>2022-05-22T11:37:56.000Z</time>
      </trkpt>
      <trkpt lat="44.85218" lon="1.62543">
        <ele>260</ele>
        <time>2022-05-22T11:37:57.000Z</time>
      </trkpt>
      <trkpt lat="44.85248" lon="1.62535">
        <ele>260.20001220703</ele>
        <time>2022-05-22T11:38:04.000Z</time>
      </trkpt>
      <trkpt lat="44.85265" lon="1.62534">
        <ele>260.60000610352</ele>
        <time>2022-05-22T11:38:08.000Z</time>
      </trkpt>
      <trkpt lat="44.85278" lon="1.62536">
        <ele>260.60000610352</ele>
        <time>2022-05-22T11:38:11.000Z</time>
      </trkpt>
      <trkpt lat="44.85296" lon="1.62541">
        <ele>260.79998779297</ele>
        <time>2022-05-22T11:38:16.000Z</time>
      </trkpt>
      <trkpt lat="44.85314" lon="1.62555">
        <ele>261.20001220703</ele>
        <time>2022-05-22T11:38:21.000Z</time>
      </trkpt>
      <trkpt lat="44.85354" lon="1.62572">
        <ele>261.79998779297</ele>
        <time>2022-05-22T11:38:30.000Z</time>
      </trkpt>
      <trkpt lat="44.85366" lon="1.62575">
        <ele>262.20001220703</ele>
        <time>2022-05-22T11:38:33.000Z</time>
      </trkpt>
      <trkpt lat="44.8537" lon="1.62577">
        <ele>262.20001220703</ele>
        <time>2022-05-22T11:38:34.000Z</time>
      </trkpt>
      <trkpt lat="44.85385" lon="1.62581">
        <ele>262.39999389648</ele>
        <time>2022-05-22T11:38:38.000Z</time>
      </trkpt>
      <trkpt lat="44.8539" lon="1.62582">
        <ele>262.60000610352</ele>
        <time>2022-05-22T11:38:39.000Z</time>
      </trkpt>
      <trkpt lat="44.85412" lon="1.62589">
        <ele>263</ele>
        <time>2022-05-22T11:38:44.000Z</time>
      </trkpt>
      <trkpt lat="44.85426" lon="1.62596">
        <ele>263.20001220703</ele>
        <time>2022-05-22T11:38:49.000Z</time>
      </trkpt>
      <trkpt lat="44.85428" lon="1.62596">
        <ele>263.20001220703</ele>
        <time>2022-05-22T11:38:50.000Z</time>
      </trkpt>
      <trkpt lat="44.85439" lon="1.62596">
        <ele>263.79998779297</ele>
        <time>2022-05-22T11:38:55.000Z</time>
      </trkpt>
      <trkpt lat="44.85458" lon="1.626">
        <ele>264.20001220703</ele>
        <time>2022-05-22T11:39:02.000Z</time>
      </trkpt>
      <trkpt lat="44.85462" lon="1.626">
        <ele>264.39999389648</ele>
        <time>2022-05-22T11:39:03.000Z</time>
      </trkpt>
      <trkpt lat="44.85482" lon="1.62604">
        <ele>264.79998779297</ele>
        <time>2022-05-22T11:39:09.000Z</time>
      </trkpt>
      <trkpt lat="44.85494" lon="1.62608">
        <ele>265</ele>
        <time>2022-05-22T11:39:13.000Z</time>
      </trkpt>
      <trkpt lat="44.85494" lon="1.62609">
        <ele>265.20001220703</ele>
        <time>2022-05-22T11:39:14.000Z</time>
      </trkpt>
      <trkpt lat="44.85494" lon="1.62609">
        <ele>265.39999389648</ele>
        <time>2022-05-22T11:39:15.000Z</time>
      </trkpt>
      <trkpt lat="44.85494" lon="1.62609">
        <ele>265.79998779297</ele>
        <time>2022-05-22T11:39:18.000Z</time>
      </trkpt>
      <trkpt lat="44.85501" lon="1.62609">
        <ele>266</ele>
        <time>2022-05-22T11:39:20.000Z</time>
      </trkpt>
      <trkpt lat="44.8551" lon="1.62606">
        <ele>266.20001220703</ele>
        <time>2022-05-22T11:39:22.000Z</time>
      </trkpt>
      <trkpt lat="44.85514" lon="1.62606">
        <ele>266.20001220703</ele>
        <time>2022-05-22T11:39:23.000Z</time>
      </trkpt>
      <trkpt lat="44.85528" lon="1.62604">
        <ele>266.39999389648</ele>
        <time>2022-05-22T11:39:26.000Z</time>
      </trkpt>
      <trkpt lat="44.85538" lon="1.62602">
        <ele>266.60000610352</ele>
        <time>2022-05-22T11:39:28.000Z</time>
      </trkpt>
      <trkpt lat="44.85561" lon="1.62595">
        <ele>267</ele>
        <time>2022-05-22T11:39:33.000Z</time>
      </trkpt>
      <trkpt lat="44.85568" lon="1.62592">
        <ele>267.39999389648</ele>
        <time>2022-05-22T11:39:35.000Z</time>
      </trkpt>
      <trkpt lat="44.85588" lon="1.62591">
        <ele>268.20001220703</ele>
        <time>2022-05-22T11:39:39.000Z</time>
      </trkpt>
      <trkpt lat="44.8561" lon="1.62592">
        <ele>268.20001220703</ele>
        <time>2022-05-22T11:39:44.000Z</time>
      </trkpt>
      <trkpt lat="44.85639" lon="1.62594">
        <ele>267.20001220703</ele>
        <time>2022-05-22T11:39:51.000Z</time>
      </trkpt>
      <trkpt lat="44.85657" lon="1.62593">
        <ele>266.60000610352</ele>
        <time>2022-05-22T11:39:55.000Z</time>
      </trkpt>
      <trkpt lat="44.85667" lon="1.62592">
        <ele>266.39999389648</ele>
        <time>2022-05-22T11:39:58.000Z</time>
      </trkpt>
      <trkpt lat="44.85696" lon="1.62591">
        <ele>266.39999389648</ele>
        <time>2022-05-22T11:40:05.000Z</time>
      </trkpt>
      <trkpt lat="44.85722" lon="1.62592">
        <ele>266.60000610352</ele>
        <time>2022-05-22T11:40:12.000Z</time>
      </trkpt>
      <trkpt lat="44.85744" lon="1.62597">
        <ele>267.39999389648</ele>
        <time>2022-05-22T11:40:18.000Z</time>
      </trkpt>
      <trkpt lat="44.85749" lon="1.62597">
        <ele>267.79998779297</ele>
        <time>2022-05-22T11:40:19.000Z</time>
      </trkpt>
      <trkpt lat="44.85774" lon="1.62602">
        <ele>268.39999389648</ele>
        <time>2022-05-22T11:40:26.000Z</time>
      </trkpt>
      <trkpt lat="44.85784" lon="1.62603">
        <ele>269</ele>
        <time>2022-05-22T11:40:29.000Z</time>
      </trkpt>
      <trkpt lat="44.858" lon="1.62604">
        <ele>270.20001220703</ele>
        <time>2022-05-22T11:40:33.000Z</time>
      </trkpt>
      <trkpt lat="44.85824" lon="1.62607">
        <ele>271.20001220703</ele>
        <time>2022-05-22T11:40:39.000Z</time>
      </trkpt>
      <trkpt lat="44.85827" lon="1.62607">
        <ele>271.39999389648</ele>
        <time>2022-05-22T11:40:40.000Z</time>
      </trkpt>
      <trkpt lat="44.85836" lon="1.62608">
        <ele>272.20001220703</ele>
        <time>2022-05-22T11:40:43.000Z</time>
      </trkpt>
      <trkpt lat="44.85846" lon="1.6261">
        <ele>272.79998779297</ele>
        <time>2022-05-22T11:40:46.000Z</time>
      </trkpt>
      <trkpt lat="44.85858" lon="1.62613">
        <ele>273.39999389648</ele>
        <time>2022-05-22T11:40:49.000Z</time>
      </trkpt>
      <trkpt lat="44.85869" lon="1.62616">
        <ele>273.79998779297</ele>
        <time>2022-05-22T11:40:52.000Z</time>
      </trkpt>
      <trkpt lat="44.85887" lon="1.62618">
        <ele>274.39999389648</ele>
        <time>2022-05-22T11:40:57.000Z</time>
      </trkpt>
      <trkpt lat="44.85891" lon="1.62619">
        <ele>274.60000610352</ele>
        <time>2022-05-22T11:40:58.000Z</time>
      </trkpt>
      <trkpt lat="44.85913" lon="1.62618">
        <ele>275</ele>
        <time>2022-05-22T11:41:04.000Z</time>
      </trkpt>
      <trkpt lat="44.85932" lon="1.62616">
        <ele>275.39999389648</ele>
        <time>2022-05-22T11:41:09.000Z</time>
      </trkpt>
      <trkpt lat="44.85939" lon="1.62616">
        <ele>275.60000610352</ele>
        <time>2022-05-22T11:41:11.000Z</time>
      </trkpt>
      <trkpt lat="44.85959" lon="1.62615">
        <ele>275.60000610352</ele>
        <time>2022-05-22T11:41:18.000Z</time>
      </trkpt>
      <trkpt lat="44.85973" lon="1.62613">
        <ele>274.79998779297</ele>
        <time>2022-05-22T11:41:23.000Z</time>
      </trkpt>
      <trkpt lat="44.85986" lon="1.6261">
        <ele>274.39999389648</ele>
        <time>2022-05-22T11:41:26.000Z</time>
      </trkpt>
      <trkpt lat="44.8599" lon="1.62607">
        <ele>274.39999389648</ele>
        <time>2022-05-22T11:41:27.000Z</time>
      </trkpt>
      <trkpt lat="44.85994" lon="1.62606">
        <ele>274.39999389648</ele>
        <time>2022-05-22T11:41:28.000Z</time>
      </trkpt>
      <trkpt lat="44.86029" lon="1.62587">
        <ele>272.79998779297</ele>
        <time>2022-05-22T11:41:35.000Z</time>
      </trkpt>
      <trkpt lat="44.86047" lon="1.62577">
        <ele>271.79998779297</ele>
        <time>2022-05-22T11:41:38.000Z</time>
      </trkpt>
      <trkpt lat="44.86066" lon="1.62566">
        <ele>271</ele>
        <time>2022-05-22T11:41:41.000Z</time>
      </trkpt>
      <trkpt lat="44.86073" lon="1.62563">
        <ele>270.60000610352</ele>
        <time>2022-05-22T11:41:42.000Z</time>
      </trkpt>
      <trkpt lat="44.86105" lon="1.62547">
        <ele>269.20001220703</ele>
        <time>2022-05-22T11:41:46.000Z</time>
      </trkpt>
      <trkpt lat="44.86121" lon="1.6254">
        <ele>268.79998779297</ele>
        <time>2022-05-22T11:41:48.000Z</time>
      </trkpt>
      <trkpt lat="44.86136" lon="1.62534">
        <ele>268.20001220703</ele>
        <time>2022-05-22T11:41:50.000Z</time>
      </trkpt>
      <trkpt lat="44.86151" lon="1.62532">
        <ele>267</ele>
        <time>2022-05-22T11:41:52.000Z</time>
      </trkpt>
      <trkpt lat="44.86183" lon="1.62528">
        <ele>266</ele>
        <time>2022-05-22T11:41:57.000Z</time>
      </trkpt>
      <trkpt lat="44.86195" lon="1.62524">
        <ele>265.79998779297</ele>
        <time>2022-05-22T11:41:59.000Z</time>
      </trkpt>
      <trkpt lat="44.86224" lon="1.62512">
        <ele>265</ele>
        <time>2022-05-22T11:42:04.000Z</time>
      </trkpt>
      <trkpt lat="44.86228" lon="1.6251">
        <ele>264.60000610352</ele>
        <time>2022-05-22T11:42:05.000Z</time>
      </trkpt>
      <trkpt lat="44.86249" lon="1.62498">
        <ele>263.60000610352</ele>
        <time>2022-05-22T11:42:09.000Z</time>
      </trkpt>
      <trkpt lat="44.86255" lon="1.62496">
        <ele>263.60000610352</ele>
        <time>2022-05-22T11:42:10.000Z</time>
      </trkpt>
      <trkpt lat="44.86279" lon="1.62493">
        <ele>263.39999389648</ele>
        <time>2022-05-22T11:42:15.000Z</time>
      </trkpt>
      <trkpt lat="44.86284" lon="1.62493">
        <ele>263.39999389648</ele>
        <time>2022-05-22T11:42:16.000Z</time>
      </trkpt>
      <trkpt lat="44.86302" lon="1.62493">
        <ele>263.20001220703</ele>
        <time>2022-05-22T11:42:20.000Z</time>
      </trkpt>
      <trkpt lat="44.86311" lon="1.62493">
        <ele>263.20001220703</ele>
        <time>2022-05-22T11:42:22.000Z</time>
      </trkpt>
      <trkpt lat="44.86317" lon="1.62494">
        <ele>263.20001220703</ele>
        <time>2022-05-22T11:42:23.000Z</time>
      </trkpt>
      <trkpt lat="44.8634" lon="1.62495">
        <ele>263.60000610352</ele>
        <time>2022-05-22T11:42:28.000Z</time>
      </trkpt>
      <trkpt lat="44.86349" lon="1.62496">
        <ele>264.39999389648</ele>
        <time>2022-05-22T11:42:30.000Z</time>
      </trkpt>
      <trkpt lat="44.86354" lon="1.62496">
        <ele>264.79998779297</ele>
        <time>2022-05-22T11:42:32.000Z</time>
      </trkpt>
      <trkpt lat="44.86359" lon="1.62499">
        <ele>265</ele>
        <time>2022-05-22T11:42:34.000Z</time>
      </trkpt>
      <trkpt lat="44.86376" lon="1.62502">
        <ele>265.20001220703</ele>
        <time>2022-05-22T11:42:40.000Z</time>
      </trkpt>
      <trkpt lat="44.8639" lon="1.625">
        <ele>266.20001220703</ele>
        <time>2022-05-22T11:42:44.000Z</time>
      </trkpt>
      <trkpt lat="44.86402" lon="1.625">
        <ele>267</ele>
        <time>2022-05-22T11:42:47.000Z</time>
      </trkpt>
      <trkpt lat="44.86418" lon="1.62499">
        <ele>267.20001220703</ele>
        <time>2022-05-22T11:42:51.000Z</time>
      </trkpt>
      <trkpt lat="44.8643" lon="1.62498">
        <ele>267.20001220703</ele>
        <time>2022-05-22T11:42:54.000Z</time>
      </trkpt>
      <trkpt lat="44.86459" lon="1.62491">
        <ele>267.79998779297</ele>
        <time>2022-05-22T11:43:01.000Z</time>
      </trkpt>
      <trkpt lat="44.86473" lon="1.62487">
        <ele>268</ele>
        <time>2022-05-22T11:43:05.000Z</time>
      </trkpt>
      <trkpt lat="44.86485" lon="1.62483">
        <ele>268.20001220703</ele>
        <time>2022-05-22T11:43:08.000Z</time>
      </trkpt>
      <trkpt lat="44.86506" lon="1.62476">
        <ele>269</ele>
        <time>2022-05-22T11:43:13.000Z</time>
      </trkpt>
      <trkpt lat="44.86525" lon="1.6247">
        <ele>269.20001220703</ele>
        <time>2022-05-22T11:43:18.000Z</time>
      </trkpt>
      <trkpt lat="44.86534" lon="1.62467">
        <ele>269.39999389648</ele>
        <time>2022-05-22T11:43:20.000Z</time>
      </trkpt>
      <trkpt lat="44.86561" lon="1.62456">
        <ele>269.60000610352</ele>
        <time>2022-05-22T11:43:27.000Z</time>
      </trkpt>
      <trkpt lat="44.8658" lon="1.62446">
        <ele>269.60000610352</ele>
        <time>2022-05-22T11:43:32.000Z</time>
      </trkpt>
      <trkpt lat="44.86604" lon="1.62436">
        <ele>269.79998779297</ele>
        <time>2022-05-22T11:43:39.000Z</time>
      </trkpt>
      <trkpt lat="44.86634" lon="1.62424">
        <ele>269.79998779297</ele>
        <time>2022-05-22T11:43:47.000Z</time>
      </trkpt>
      <trkpt lat="44.8665" lon="1.62415">
        <ele>269.39999389648</ele>
        <time>2022-05-22T11:43:51.000Z</time>
      </trkpt>
      <trkpt lat="44.86664" lon="1.62409">
        <ele>268.79998779297</ele>
        <time>2022-05-22T11:43:54.000Z</time>
      </trkpt>
      <trkpt lat="44.867" lon="1.62397">
        <ele>268.60000610352</ele>
        <time>2022-05-22T11:44:02.000Z</time>
      </trkpt>
      <trkpt lat="44.86723" lon="1.62394">
        <ele>268.39999389648</ele>
        <time>2022-05-22T11:44:08.000Z</time>
      </trkpt>
      <trkpt lat="44.86728" lon="1.62393">
        <ele>268.39999389648</ele>
        <time>2022-05-22T11:44:09.000Z</time>
      </trkpt>
      <trkpt lat="44.86748" lon="1.62389">
        <ele>268.20001220703</ele>
        <time>2022-05-22T11:44:13.000Z</time>
      </trkpt>
      <trkpt lat="44.86765" lon="1.62387">
        <ele>268.60000610352</ele>
        <time>2022-05-22T11:44:16.000Z</time>
      </trkpt>
      <trkpt lat="44.86784" lon="1.62384">
        <ele>269.20001220703</ele>
        <time>2022-05-22T11:44:20.000Z</time>
      </trkpt>
      <trkpt lat="44.86796" lon="1.6238">
        <ele>269.60000610352</ele>
        <time>2022-05-22T11:44:23.000Z</time>
      </trkpt>
      <trkpt lat="44.86806" lon="1.62377">
        <ele>269.79998779297</ele>
        <time>2022-05-22T11:44:25.000Z</time>
      </trkpt>
      <trkpt lat="44.86813" lon="1.62375">
        <ele>270</ele>
        <time>2022-05-22T11:44:27.000Z</time>
      </trkpt>
      <trkpt lat="44.86835" lon="1.6237">
        <ele>270.79998779297</ele>
        <time>2022-05-22T11:44:33.000Z</time>
      </trkpt>
      <trkpt lat="44.86839" lon="1.62369">
        <ele>271</ele>
        <time>2022-05-22T11:44:34.000Z</time>
      </trkpt>
      <trkpt lat="44.86852" lon="1.62365">
        <ele>271.79998779297</ele>
        <time>2022-05-22T11:44:38.000Z</time>
      </trkpt>
      <trkpt lat="44.86862" lon="1.62361">
        <ele>272</ele>
        <time>2022-05-22T11:44:41.000Z</time>
      </trkpt>
      <trkpt lat="44.86889" lon="1.62352">
        <ele>272.79998779297</ele>
        <time>2022-05-22T11:44:48.000Z</time>
      </trkpt>
      <trkpt lat="44.86892" lon="1.62351">
        <ele>273</ele>
        <time>2022-05-22T11:44:49.000Z</time>
      </trkpt>
      <trkpt lat="44.86906" lon="1.62346">
        <ele>273.20001220703</ele>
        <time>2022-05-22T11:44:54.000Z</time>
      </trkpt>
      <trkpt lat="44.86925" lon="1.62342">
        <ele>273.20001220703</ele>
        <time>2022-05-22T11:44:59.000Z</time>
      </trkpt>
      <trkpt lat="44.86929" lon="1.62342">
        <ele>273.20001220703</ele>
        <time>2022-05-22T11:45:00.000Z</time>
      </trkpt>
      <trkpt lat="44.86951" lon="1.62342">
        <ele>273.60000610352</ele>
        <time>2022-05-22T11:45:05.000Z</time>
      </trkpt>
      <trkpt lat="44.86978" lon="1.6234">
        <ele>273.60000610352</ele>
        <time>2022-05-22T11:45:12.000Z</time>
      </trkpt>
      <trkpt lat="44.86998" lon="1.62338">
        <ele>273.39999389648</ele>
        <time>2022-05-22T11:45:18.000Z</time>
      </trkpt>
      <trkpt lat="44.87025" lon="1.62335">
        <ele>273.39999389648</ele>
        <time>2022-05-22T11:45:24.000Z</time>
      </trkpt>
      <trkpt lat="44.87066" lon="1.62327">
        <ele>273.20001220703</ele>
        <time>2022-05-22T11:45:33.000Z</time>
      </trkpt>
      <trkpt lat="44.8711" lon="1.62325">
        <ele>272.20001220703</ele>
        <time>2022-05-22T11:45:41.000Z</time>
      </trkpt>
      <trkpt lat="44.87135" lon="1.62324">
        <ele>271.79998779297</ele>
        <time>2022-05-22T11:45:45.000Z</time>
      </trkpt>
      <trkpt lat="44.87153" lon="1.62324">
        <ele>271.39999389648</ele>
        <time>2022-05-22T11:45:48.000Z</time>
      </trkpt>
      <trkpt lat="44.87177" lon="1.62322">
        <ele>270.60000610352</ele>
        <time>2022-05-22T11:45:51.000Z</time>
      </trkpt>
      <trkpt lat="44.87191" lon="1.62322">
        <ele>270.39999389648</ele>
        <time>2022-05-22T11:45:53.000Z</time>
      </trkpt>
      <trkpt lat="44.87208" lon="1.62324">
        <ele>269.60000610352</ele>
        <time>2022-05-22T11:45:55.000Z</time>
      </trkpt>
      <trkpt lat="44.87234" lon="1.62332">
        <ele>268.20001220703</ele>
        <time>2022-05-22T11:45:58.000Z</time>
      </trkpt>
      <trkpt lat="44.8726" lon="1.62336">
        <ele>267</ele>
        <time>2022-05-22T11:46:01.000Z</time>
      </trkpt>
      <trkpt lat="44.87276" lon="1.62337">
        <ele>265.39999389648</ele>
        <time>2022-05-22T11:46:03.000Z</time>
      </trkpt>
      <trkpt lat="44.87291" lon="1.62337">
        <ele>263.60000610352</ele>
        <time>2022-05-22T11:46:05.000Z</time>
      </trkpt>
      <trkpt lat="44.87301" lon="1.62337">
        <ele>262.39999389648</ele>
        <time>2022-05-22T11:46:06.000Z</time>
      </trkpt>
      <trkpt lat="44.87317" lon="1.62337">
        <ele>261</ele>
        <time>2022-05-22T11:46:08.000Z</time>
      </trkpt>
      <trkpt lat="44.87327" lon="1.62338">
        <ele>259.79998779297</ele>
        <time>2022-05-22T11:46:10.000Z</time>
      </trkpt>
      <trkpt lat="44.87332" lon="1.62339">
        <ele>258.79998779297</ele>
        <time>2022-05-22T11:46:11.000Z</time>
      </trkpt>
      <trkpt lat="44.87336" lon="1.6234">
        <ele>258.20001220703</ele>
        <time>2022-05-22T11:46:12.000Z</time>
      </trkpt>
      <trkpt lat="44.8734" lon="1.62342">
        <ele>257.39999389648</ele>
        <time>2022-05-22T11:46:13.000Z</time>
      </trkpt>
      <trkpt lat="44.87342" lon="1.62344">
        <ele>256.79998779297</ele>
        <time>2022-05-22T11:46:14.000Z</time>
      </trkpt>
      <trkpt lat="44.87353" lon="1.62342">
        <ele>255.80000305176</ele>
        <time>2022-05-22T11:46:17.000Z</time>
      </trkpt>
      <trkpt lat="44.87357" lon="1.62339">
        <ele>255.60000610352</ele>
        <time>2022-05-22T11:46:18.000Z</time>
      </trkpt>
      <trkpt lat="44.87364" lon="1.62334">
        <ele>255.19999694824</ele>
        <time>2022-05-22T11:46:20.000Z</time>
      </trkpt>
      <trkpt lat="44.87374" lon="1.62332">
        <ele>254.80000305176</ele>
        <time>2022-05-22T11:46:22.000Z</time>
      </trkpt>
      <trkpt lat="44.87378" lon="1.62332">
        <ele>254.80000305176</ele>
        <time>2022-05-22T11:46:23.000Z</time>
      </trkpt>
      <trkpt lat="44.87386" lon="1.62332">
        <ele>254.39999389648</ele>
        <time>2022-05-22T11:46:25.000Z</time>
      </trkpt>
      <trkpt lat="44.87396" lon="1.62331">
        <ele>254.19999694824</ele>
        <time>2022-05-22T11:46:27.000Z</time>
      </trkpt>
      <trkpt lat="44.87407" lon="1.62332">
        <ele>254</ele>
        <time>2022-05-22T11:46:29.000Z</time>
      </trkpt>
      <trkpt lat="44.87423" lon="1.62333">
        <ele>253.60000610352</ele>
        <time>2022-05-22T11:46:32.000Z</time>
      </trkpt>
      <trkpt lat="44.87434" lon="1.62335">
        <ele>253.39999389648</ele>
        <time>2022-05-22T11:46:34.000Z</time>
      </trkpt>
      <trkpt lat="44.87444" lon="1.62337">
        <ele>253</ele>
        <time>2022-05-22T11:46:36.000Z</time>
      </trkpt>
      <trkpt lat="44.87449" lon="1.62336">
        <ele>252.39999389648</ele>
        <time>2022-05-22T11:46:38.000Z</time>
      </trkpt>
      <trkpt lat="44.87457" lon="1.62333">
        <ele>251.19999694824</ele>
        <time>2022-05-22T11:46:41.000Z</time>
      </trkpt>
      <trkpt lat="44.87465" lon="1.62334">
        <ele>250.80000305176</ele>
        <time>2022-05-22T11:46:43.000Z</time>
      </trkpt>
      <trkpt lat="44.87478" lon="1.62336">
        <ele>250.60000610352</ele>
        <time>2022-05-22T11:46:46.000Z</time>
      </trkpt>
      <trkpt lat="44.87486" lon="1.62334">
        <ele>250.60000610352</ele>
        <time>2022-05-22T11:46:48.000Z</time>
      </trkpt>
      <trkpt lat="44.87505" lon="1.62321">
        <ele>250.19999694824</ele>
        <time>2022-05-22T11:46:54.000Z</time>
      </trkpt>
      <trkpt lat="44.87539" lon="1.62296">
        <ele>249.80000305176</ele>
        <time>2022-05-22T11:47:03.000Z</time>
      </trkpt>
      <trkpt lat="44.8755" lon="1.62288">
        <ele>249.60000610352</ele>
        <time>2022-05-22T11:47:06.000Z</time>
      </trkpt>
      <trkpt lat="44.87561" lon="1.62276">
        <ele>249.39999389648</ele>
        <time>2022-05-22T11:47:09.000Z</time>
      </trkpt>
      <trkpt lat="44.87568" lon="1.62268">
        <ele>249.19999694824</ele>
        <time>2022-05-22T11:47:11.000Z</time>
      </trkpt>
      <trkpt lat="44.87597" lon="1.62235">
        <ele>248.39999389648</ele>
        <time>2022-05-22T11:47:18.000Z</time>
      </trkpt>
      <trkpt lat="44.87605" lon="1.62226">
        <ele>248.19999694824</ele>
        <time>2022-05-22T11:47:20.000Z</time>
      </trkpt>
      <trkpt lat="44.87624" lon="1.62206">
        <ele>247.80000305176</ele>
        <time>2022-05-22T11:47:24.000Z</time>
      </trkpt>
      <trkpt lat="44.87639" lon="1.62197">
        <ele>247.80000305176</ele>
        <time>2022-05-22T11:47:27.000Z</time>
      </trkpt>
      <trkpt lat="44.87648" lon="1.62193">
        <ele>247.60000610352</ele>
        <time>2022-05-22T11:47:29.000Z</time>
      </trkpt>
      <trkpt lat="44.87667" lon="1.62183">
        <ele>247.19999694824</ele>
        <time>2022-05-22T11:47:34.000Z</time>
      </trkpt>
      <trkpt lat="44.87672" lon="1.62181">
        <ele>247.19999694824</ele>
        <time>2022-05-22T11:47:35.000Z</time>
      </trkpt>
      <trkpt lat="44.87709" lon="1.62154">
        <ele>246.60000610352</ele>
        <time>2022-05-22T11:47:43.000Z</time>
      </trkpt>
      <trkpt lat="44.87714" lon="1.62151">
        <ele>246.19999694824</ele>
        <time>2022-05-22T11:47:44.000Z</time>
      </trkpt>
      <trkpt lat="44.87734" lon="1.62134">
        <ele>245.80000305176</ele>
        <time>2022-05-22T11:47:48.000Z</time>
      </trkpt>
      <trkpt lat="44.87755" lon="1.62117">
        <ele>245.19999694824</ele>
        <time>2022-05-22T11:47:52.000Z</time>
      </trkpt>
      <trkpt lat="44.87774" lon="1.621">
        <ele>244.39999389648</ele>
        <time>2022-05-22T11:47:55.000Z</time>
      </trkpt>
      <trkpt lat="44.87778" lon="1.62096">
        <ele>244.19999694824</ele>
        <time>2022-05-22T11:47:56.000Z</time>
      </trkpt>
      <trkpt lat="44.87816" lon="1.62063">
        <ele>243</ele>
        <time>2022-05-22T11:48:03.000Z</time>
      </trkpt>
      <trkpt lat="44.8784" lon="1.62046">
        <ele>242.60000610352</ele>
        <time>2022-05-22T11:48:08.000Z</time>
      </trkpt>
      <trkpt lat="44.87869" lon="1.62027">
        <ele>242.39999389648</ele>
        <time>2022-05-22T11:48:15.000Z</time>
      </trkpt>
      <trkpt lat="44.87873" lon="1.62024">
        <ele>242.39999389648</ele>
        <time>2022-05-22T11:48:16.000Z</time>
      </trkpt>
      <trkpt lat="44.87906" lon="1.62">
        <ele>243</ele>
        <time>2022-05-22T11:48:24.000Z</time>
      </trkpt>
      <trkpt lat="44.87938" lon="1.6198">
        <ele>242</ele>
        <time>2022-05-22T11:48:30.000Z</time>
      </trkpt>
      <trkpt lat="44.87974" lon="1.61964">
        <ele>240.80000305176</ele>
        <time>2022-05-22T11:48:36.000Z</time>
      </trkpt>
      <trkpt lat="44.8798" lon="1.61963">
        <ele>240.60000610352</ele>
        <time>2022-05-22T11:48:37.000Z</time>
      </trkpt>
      <trkpt lat="44.87992" lon="1.61965">
        <ele>240.19999694824</ele>
        <time>2022-05-22T11:48:39.000Z</time>
      </trkpt>
      <trkpt lat="44.87997" lon="1.61968">
        <ele>240</ele>
        <time>2022-05-22T11:48:40.000Z</time>
      </trkpt>
      <trkpt lat="44.88" lon="1.6197">
        <ele>239.80000305176</ele>
        <time>2022-05-22T11:48:41.000Z</time>
      </trkpt>
      <trkpt lat="44.88004" lon="1.61974">
        <ele>239.60000610352</ele>
        <time>2022-05-22T11:48:42.000Z</time>
      </trkpt>
      <trkpt lat="44.88009" lon="1.61979">
        <ele>239</ele>
        <time>2022-05-22T11:48:44.000Z</time>
      </trkpt>
      <trkpt lat="44.88011" lon="1.61983">
        <ele>238.60000610352</ele>
        <time>2022-05-22T11:48:45.000Z</time>
      </trkpt>
      <trkpt lat="44.88019" lon="1.61996">
        <ele>237.60000610352</ele>
        <time>2022-05-22T11:48:49.000Z</time>
      </trkpt>
      <trkpt lat="44.88021" lon="1.62">
        <ele>237.39999389648</ele>
        <time>2022-05-22T11:48:50.000Z</time>
      </trkpt>
      <trkpt lat="44.88026" lon="1.6201">
        <ele>237</ele>
        <time>2022-05-22T11:48:52.000Z</time>
      </trkpt>
      <trkpt lat="44.88033" lon="1.62021">
        <ele>236.39999389648</ele>
        <time>2022-05-22T11:48:54.000Z</time>
      </trkpt>
      <trkpt lat="44.88037" lon="1.62028">
        <ele>236.19999694824</ele>
        <time>2022-05-22T11:48:55.000Z</time>
      </trkpt>
      <trkpt lat="44.88042" lon="1.62039">
        <ele>235.60000610352</ele>
        <time>2022-05-22T11:48:57.000Z</time>
      </trkpt>
      <trkpt lat="44.88044" lon="1.62043">
        <ele>235.19999694824</ele>
        <time>2022-05-22T11:48:58.000Z</time>
      </trkpt>
      <trkpt lat="44.88045" lon="1.62045">
        <ele>234.39999389648</ele>
        <time>2022-05-22T11:49:01.000Z</time>
      </trkpt>
      <trkpt lat="44.88045" lon="1.62045">
        <ele>234</ele>
        <time>2022-05-22T11:49:02.000Z</time>
      </trkpt>
      <trkpt lat="44.88045" lon="1.62045">
        <ele>233</ele>
        <time>2022-05-22T11:49:08.000Z</time>
      </trkpt>
      <trkpt lat="44.88045" lon="1.62045">
        <ele>232.19999694824</ele>
        <time>2022-05-22T11:49:23.000Z</time>
      </trkpt>
      <trkpt lat="44.88045" lon="1.62045">
        <ele>232.19999694824</ele>
        <time>2022-05-22T11:49:36.000Z</time>
      </trkpt>
      <trkpt lat="44.88045" lon="1.62045">
        <ele>232</ele>
        <time>2022-05-22T11:49:43.000Z</time>
      </trkpt>
      <trkpt lat="44.88045" lon="1.62045">
        <ele>232</ele>
        <time>2022-05-22T11:49:55.000Z</time>
      </trkpt>
      <trkpt lat="44.88045" lon="1.62045">
        <ele>231.80000305176</ele>
        <time>2022-05-22T11:50:09.000Z</time>
      </trkpt>
      <trkpt lat="44.88051" lon="1.62053">
        <ele>231.39999389648</ele>
        <time>2022-05-22T11:50:40.000Z</time>
      </trkpt>
      <trkpt lat="44.88058" lon="1.62061">
        <ele>231.39999389648</ele>
        <time>2022-05-22T11:50:42.000Z</time>
      </trkpt>
      <trkpt lat="44.88066" lon="1.62064">
        <ele>231.19999694824</ele>
        <time>2022-05-22T11:50:44.000Z</time>
      </trkpt>
      <trkpt lat="44.8807" lon="1.62064">
        <ele>230.80000305176</ele>
        <time>2022-05-22T11:50:46.000Z</time>
      </trkpt>
      <trkpt lat="44.88072" lon="1.62063">
        <ele>230.60000610352</ele>
        <time>2022-05-22T11:50:47.000Z</time>
      </trkpt>
      <trkpt lat="44.88077" lon="1.62061">
        <ele>230.39999389648</ele>
        <time>2022-05-22T11:50:50.000Z</time>
      </trkpt>
      <trkpt lat="44.88079" lon="1.6206">
        <ele>230.19999694824</ele>
        <time>2022-05-22T11:50:52.000Z</time>
      </trkpt>
      <trkpt lat="44.88078" lon="1.62061">
        <ele>229.80000305176</ele>
        <time>2022-05-22T11:50:59.000Z</time>
      </trkpt>
      <trkpt lat="44.88078" lon="1.62061">
        <ele>229.80000305176</ele>
        <time>2022-05-22T11:51:04.000Z</time>
      </trkpt>
      <trkpt lat="44.88078" lon="1.62061">
        <ele>229.80000305176</ele>
        <time>2022-05-22T11:51:05.000Z</time>
      </trkpt>
      <trkpt lat="44.88078" lon="1.62061">
        <ele>229.80000305176</ele>
        <time>2022-05-22T11:51:43.000Z</time>
      </trkpt>
      <trkpt lat="44.88078" lon="1.62061">
        <ele>230.19999694824</ele>
        <time>2022-05-22T11:52:22.000Z</time>
      </trkpt>
      <trkpt lat="44.88078" lon="1.6206">
        <ele>230.19999694824</ele>
        <time>2022-05-22T11:52:41.000Z</time>
      </trkpt>
      <trkpt lat="44.8808" lon="1.62058">
        <ele>230.19999694824</ele>
        <time>2022-05-22T11:52:44.000Z</time>
      </trkpt>
      <trkpt lat="44.8808" lon="1.62058">
        <ele>230.19999694824</ele>
        <time>2022-05-22T11:52:53.000Z</time>
      </trkpt>
      <trkpt lat="44.88083" lon="1.62056">
        <ele>230</ele>
        <time>2022-05-22T11:53:15.000Z</time>
      </trkpt>
      <trkpt lat="44.88083" lon="1.62055">
        <ele>229.80000305176</ele>
        <time>2022-05-22T11:53:19.000Z</time>
      </trkpt>
      <trkpt lat="44.88083" lon="1.62055">
        <ele>229.60000610352</ele>
        <time>2022-05-22T11:53:54.000Z</time>
      </trkpt>
      <trkpt lat="44.88083" lon="1.62055">
        <ele>229.80000305176</ele>
        <time>2022-05-22T11:54:13.000Z</time>
      </trkpt>
      <trkpt lat="44.88083" lon="1.62055">
        <ele>229.39999389648</ele>
        <time>2022-05-22T11:54:45.000Z</time>
      </trkpt>
      <trkpt lat="44.88083" lon="1.62055">
        <ele>229.19999694824</ele>
        <time>2022-05-22T11:55:10.000Z</time>
      </trkpt>
      <trkpt lat="44.88084" lon="1.62052">
        <ele>229</ele>
        <time>2022-05-22T11:55:42.000Z</time>
      </trkpt>
      <trkpt lat="44.88087" lon="1.62047">
        <ele>229</ele>
        <time>2022-05-22T11:55:44.000Z</time>
      </trkpt>
      <trkpt lat="44.88093" lon="1.6203">
        <ele>228.60000610352</ele>
        <time>2022-05-22T11:55:49.000Z</time>
      </trkpt>
      <trkpt lat="44.88097" lon="1.62017">
        <ele>228</ele>
        <time>2022-05-22T11:55:53.000Z</time>
      </trkpt>
      <trkpt lat="44.881" lon="1.62013">
        <ele>227.60000610352</ele>
        <time>2022-05-22T11:55:54.000Z</time>
      </trkpt>
      <trkpt lat="44.88106" lon="1.61991">
        <ele>226.80000305176</ele>
        <time>2022-05-22T11:55:58.000Z</time>
      </trkpt>
      <trkpt lat="44.88107" lon="1.61985">
        <ele>226.60000610352</ele>
        <time>2022-05-22T11:55:59.000Z</time>
      </trkpt>
      <trkpt lat="44.88108" lon="1.61979">
        <ele>226.60000610352</ele>
        <time>2022-05-22T11:56:00.000Z</time>
      </trkpt>
      <trkpt lat="44.8811" lon="1.61965">
        <ele>225.60000610352</ele>
        <time>2022-05-22T11:56:02.000Z</time>
      </trkpt>
      <trkpt lat="44.88111" lon="1.61958">
        <ele>225.19999694824</ele>
        <time>2022-05-22T11:56:03.000Z</time>
      </trkpt>
      <trkpt lat="44.88113" lon="1.61938">
        <ele>224.39999389648</ele>
        <time>2022-05-22T11:56:06.000Z</time>
      </trkpt>
      <trkpt lat="44.88114" lon="1.61932">
        <ele>224</ele>
        <time>2022-05-22T11:56:07.000Z</time>
      </trkpt>
      <trkpt lat="44.88116" lon="1.61926">
        <ele>223.60000610352</ele>
        <time>2022-05-22T11:56:08.000Z</time>
      </trkpt>
      <trkpt lat="44.88118" lon="1.61915">
        <ele>223</ele>
        <time>2022-05-22T11:56:10.000Z</time>
      </trkpt>
      <trkpt lat="44.88122" lon="1.61891">
        <ele>222</ele>
        <time>2022-05-22T11:56:14.000Z</time>
      </trkpt>
      <trkpt lat="44.88125" lon="1.61872">
        <ele>221.19999694824</ele>
        <time>2022-05-22T11:56:17.000Z</time>
      </trkpt>
      <trkpt lat="44.88124" lon="1.61857">
        <ele>220.80000305176</ele>
        <time>2022-05-22T11:56:19.000Z</time>
      </trkpt>
      <trkpt lat="44.88125" lon="1.6185">
        <ele>220.19999694824</ele>
        <time>2022-05-22T11:56:20.000Z</time>
      </trkpt>
      <trkpt lat="44.88127" lon="1.61838">
        <ele>219.39999389648</ele>
        <time>2022-05-22T11:56:22.000Z</time>
      </trkpt>
      <trkpt lat="44.88128" lon="1.61832">
        <ele>218.80000305176</ele>
        <time>2022-05-22T11:56:23.000Z</time>
      </trkpt>
      <trkpt lat="44.88128" lon="1.61825">
        <ele>218</ele>
        <time>2022-05-22T11:56:25.000Z</time>
      </trkpt>
      <trkpt lat="44.88126" lon="1.61823">
        <ele>217.80000305176</ele>
        <time>2022-05-22T11:56:26.000Z</time>
      </trkpt>
      <trkpt lat="44.88125" lon="1.61822">
        <ele>217.19999694824</ele>
        <time>2022-05-22T11:56:27.000Z</time>
      </trkpt>
      <trkpt lat="44.88123" lon="1.6182">
        <ele>217</ele>
        <time>2022-05-22T11:56:28.000Z</time>
      </trkpt>
      <trkpt lat="44.88123" lon="1.6182">
        <ele>216.39999389648</ele>
        <time>2022-05-22T11:56:29.000Z</time>
      </trkpt>
      <trkpt lat="44.88121" lon="1.61819">
        <ele>216</ele>
        <time>2022-05-22T11:56:31.000Z</time>
      </trkpt>
      <trkpt lat="44.88121" lon="1.61817">
        <ele>215.60000610352</ele>
        <time>2022-05-22T11:56:33.000Z</time>
      </trkpt>
      <trkpt lat="44.88121" lon="1.61817">
        <ele>215</ele>
        <time>2022-05-22T11:56:36.000Z</time>
      </trkpt>
      <trkpt lat="44.88121" lon="1.61817">
        <ele>215</ele>
        <time>2022-05-22T11:56:37.000Z</time>
      </trkpt>
      <trkpt lat="44.88121" lon="1.61817">
        <ele>214.80000305176</ele>
        <time>2022-05-22T11:56:40.000Z</time>
      </trkpt>
      <trkpt lat="44.88121" lon="1.61817">
        <ele>214.39999389648</ele>
        <time>2022-05-22T11:56:57.000Z</time>
      </trkpt>
      <trkpt lat="44.88121" lon="1.61817">
        <ele>214.19999694824</ele>
        <time>2022-05-22T11:57:25.000Z</time>
      </trkpt>
      <trkpt lat="44.88121" lon="1.61817">
        <ele>214.39999389648</ele>
        <time>2022-05-22T11:57:53.000Z</time>
      </trkpt>
      <trkpt lat="44.88121" lon="1.61817">
        <ele>214.39999389648</ele>
        <time>2022-05-22T11:58:17.000Z</time>
      </trkpt>
      <trkpt lat="44.88121" lon="1.61814">
        <ele>214.19999694824</ele>
        <time>2022-05-22T11:58:24.000Z</time>
      </trkpt>
      <trkpt lat="44.88121" lon="1.61812">
        <ele>214.19999694824</ele>
        <time>2022-05-22T11:58:25.000Z</time>
      </trkpt>
      <trkpt lat="44.88121" lon="1.6181">
        <ele>214.19999694824</ele>
        <time>2022-05-22T11:58:26.000Z</time>
      </trkpt>
      <trkpt lat="44.88123" lon="1.61798">
        <ele>213.80000305176</ele>
        <time>2022-05-22T11:58:32.000Z</time>
      </trkpt>
      <trkpt lat="44.88127" lon="1.61785">
        <ele>213.60000610352</ele>
        <time>2022-05-22T11:58:37.000Z</time>
      </trkpt>
      <trkpt lat="44.88125" lon="1.61779">
        <ele>213.19999694824</ele>
        <time>2022-05-22T11:58:39.000Z</time>
      </trkpt>
      <trkpt lat="44.88124" lon="1.61769">
        <ele>212.19999694824</ele>
        <time>2022-05-22T11:58:43.000Z</time>
      </trkpt>
      <trkpt lat="44.88125" lon="1.61767">
        <ele>212</ele>
        <time>2022-05-22T11:58:44.000Z</time>
      </trkpt>
      <trkpt lat="44.88128" lon="1.61767">
        <ele>211.19999694824</ele>
        <time>2022-05-22T11:58:46.000Z</time>
      </trkpt>
      <trkpt lat="44.88132" lon="1.61768">
        <ele>210.80000305176</ele>
        <time>2022-05-22T11:58:48.000Z</time>
      </trkpt>
      <trkpt lat="44.88139" lon="1.61773">
        <ele>210.39999389648</ele>
        <time>2022-05-22T11:58:51.000Z</time>
      </trkpt>
      <trkpt lat="44.88161" lon="1.61788">
        <ele>210.19999694824</ele>
        <time>2022-05-22T11:58:57.000Z</time>
      </trkpt>
      <trkpt lat="44.88171" lon="1.61793">
        <ele>210</ele>
        <time>2022-05-22T11:58:59.000Z</time>
      </trkpt>
      <trkpt lat="44.88175" lon="1.61795">
        <ele>209.80000305176</ele>
        <time>2022-05-22T11:59:00.000Z</time>
      </trkpt>
      <trkpt lat="44.88185" lon="1.61797">
        <ele>209.60000610352</ele>
        <time>2022-05-22T11:59:02.000Z</time>
      </trkpt>
      <trkpt lat="44.88198" lon="1.61803">
        <ele>209.39999389648</ele>
        <time>2022-05-22T11:59:05.000Z</time>
      </trkpt>
      <trkpt lat="44.88206" lon="1.61809">
        <ele>209.19999694824</ele>
        <time>2022-05-22T11:59:07.000Z</time>
      </trkpt>
      <trkpt lat="44.88215" lon="1.61816">
        <ele>208.60000610352</ele>
        <time>2022-05-22T11:59:09.000Z</time>
      </trkpt>
      <trkpt lat="44.88224" lon="1.61823">
        <ele>208</ele>
        <time>2022-05-22T11:59:11.000Z</time>
      </trkpt>
      <trkpt lat="44.88229" lon="1.61825">
        <ele>207.39999389648</ele>
        <time>2022-05-22T11:59:12.000Z</time>
      </trkpt>
      <trkpt lat="44.88248" lon="1.61831">
        <ele>206.19999694824</ele>
        <time>2022-05-22T11:59:15.000Z</time>
      </trkpt>
      <trkpt lat="44.88254" lon="1.61833">
        <ele>205.80000305176</ele>
        <time>2022-05-22T11:59:16.000Z</time>
      </trkpt>
      <trkpt lat="44.8826" lon="1.61837">
        <ele>205</ele>
        <time>2022-05-22T11:59:17.000Z</time>
      </trkpt>
      <trkpt lat="44.88267" lon="1.61839">
        <ele>204.80000305176</ele>
        <time>2022-05-22T11:59:18.000Z</time>
      </trkpt>
      <trkpt lat="44.88278" lon="1.61843">
        <ele>203.80000305176</ele>
        <time>2022-05-22T11:59:20.000Z</time>
      </trkpt>
      <trkpt lat="44.88288" lon="1.61847">
        <ele>201.60000610352</ele>
        <time>2022-05-22T11:59:22.000Z</time>
      </trkpt>
      <trkpt lat="44.883" lon="1.61852">
        <ele>200.60000610352</ele>
        <time>2022-05-22T11:59:24.000Z</time>
      </trkpt>
      <trkpt lat="44.88307" lon="1.61855">
        <ele>199</ele>
        <time>2022-05-22T11:59:25.000Z</time>
      </trkpt>
      <trkpt lat="44.88313" lon="1.61859">
        <ele>198.39999389648</ele>
        <time>2022-05-22T11:59:26.000Z</time>
      </trkpt>
      <trkpt lat="44.88319" lon="1.61863">
        <ele>197.60000610352</ele>
        <time>2022-05-22T11:59:27.000Z</time>
      </trkpt>
      <trkpt lat="44.88325" lon="1.61867">
        <ele>197</ele>
        <time>2022-05-22T11:59:28.000Z</time>
      </trkpt>
      <trkpt lat="44.8833" lon="1.61872">
        <ele>196</ele>
        <time>2022-05-22T11:59:29.000Z</time>
      </trkpt>
      <trkpt lat="44.88335" lon="1.61877">
        <ele>194.60000610352</ele>
        <time>2022-05-22T11:59:30.000Z</time>
      </trkpt>
      <trkpt lat="44.88345" lon="1.61886">
        <ele>193.39999389648</ele>
        <time>2022-05-22T11:59:32.000Z</time>
      </trkpt>
      <trkpt lat="44.88351" lon="1.61889">
        <ele>193.19999694824</ele>
        <time>2022-05-22T11:59:33.000Z</time>
      </trkpt>
      <trkpt lat="44.88363" lon="1.61896">
        <ele>192.19999694824</ele>
        <time>2022-05-22T11:59:35.000Z</time>
      </trkpt>
      <trkpt lat="44.88378" lon="1.61901">
        <ele>190.19999694824</ele>
        <time>2022-05-22T11:59:37.000Z</time>
      </trkpt>
      <trkpt lat="44.88393" lon="1.61905">
        <ele>188.80000305176</ele>
        <time>2022-05-22T11:59:39.000Z</time>
      </trkpt>
      <trkpt lat="44.88408" lon="1.61908">
        <ele>187.19999694824</ele>
        <time>2022-05-22T11:59:41.000Z</time>
      </trkpt>
      <trkpt lat="44.88421" lon="1.61909">
        <ele>186.19999694824</ele>
        <time>2022-05-22T11:59:43.000Z</time>
      </trkpt>
      <trkpt lat="44.88427" lon="1.6191">
        <ele>185.19999694824</ele>
        <time>2022-05-22T11:59:44.000Z</time>
      </trkpt>
      <trkpt lat="44.88438" lon="1.6191">
        <ele>184.39999389648</ele>
        <time>2022-05-22T11:59:46.000Z</time>
      </trkpt>
      <trkpt lat="44.88444" lon="1.61912">
        <ele>183.80000305176</ele>
        <time>2022-05-22T11:59:47.000Z</time>
      </trkpt>
      <trkpt lat="44.88451" lon="1.61915">
        <ele>183.39999389648</ele>
        <time>2022-05-22T11:59:48.000Z</time>
      </trkpt>
      <trkpt lat="44.88465" lon="1.6192">
        <ele>182.60000610352</ele>
        <time>2022-05-22T11:59:50.000Z</time>
      </trkpt>
      <trkpt lat="44.88477" lon="1.61924">
        <ele>181.60000610352</ele>
        <time>2022-05-22T11:59:52.000Z</time>
      </trkpt>
      <trkpt lat="44.88484" lon="1.61926">
        <ele>181</ele>
        <time>2022-05-22T11:59:53.000Z</time>
      </trkpt>
      <trkpt lat="44.88497" lon="1.61931">
        <ele>180.39999389648</ele>
        <time>2022-05-22T11:59:55.000Z</time>
      </trkpt>
      <trkpt lat="44.88515" lon="1.61934">
        <ele>179</ele>
        <time>2022-05-22T11:59:58.000Z</time>
      </trkpt>
      <trkpt lat="44.88521" lon="1.61934">
        <ele>178.80000305176</ele>
        <time>2022-05-22T11:59:59.000Z</time>
      </trkpt>
      <trkpt lat="44.88537" lon="1.61934">
        <ele>178</ele>
        <time>2022-05-22T12:00:02.000Z</time>
      </trkpt>
      <trkpt lat="44.88544" lon="1.61935">
        <ele>177.80000305176</ele>
        <time>2022-05-22T12:00:03.000Z</time>
      </trkpt>
      <trkpt lat="44.88557" lon="1.61938">
        <ele>177.39999389648</ele>
        <time>2022-05-22T12:00:05.000Z</time>
      </trkpt>
      <trkpt lat="44.88568" lon="1.61937">
        <ele>177</ele>
        <time>2022-05-22T12:00:07.000Z</time>
      </trkpt>
      <trkpt lat="44.88574" lon="1.61937">
        <ele>176.80000305176</ele>
        <time>2022-05-22T12:00:08.000Z</time>
      </trkpt>
      <trkpt lat="44.88581" lon="1.61937">
        <ele>176.39999389648</ele>
        <time>2022-05-22T12:00:09.000Z</time>
      </trkpt>
      <trkpt lat="44.88594" lon="1.61936">
        <ele>175</ele>
        <time>2022-05-22T12:00:11.000Z</time>
      </trkpt>
      <trkpt lat="44.88608" lon="1.61934">
        <ele>174</ele>
        <time>2022-05-22T12:00:13.000Z</time>
      </trkpt>
      <trkpt lat="44.88615" lon="1.61933">
        <ele>173.60000610352</ele>
        <time>2022-05-22T12:00:14.000Z</time>
      </trkpt>
      <trkpt lat="44.88621" lon="1.61932">
        <ele>172.80000305176</ele>
        <time>2022-05-22T12:00:15.000Z</time>
      </trkpt>
      <trkpt lat="44.88648" lon="1.6193">
        <ele>171.39999389648</ele>
        <time>2022-05-22T12:00:19.000Z</time>
      </trkpt>
      <trkpt lat="44.88654" lon="1.61929">
        <ele>170.60000610352</ele>
        <time>2022-05-22T12:00:20.000Z</time>
      </trkpt>
      <trkpt lat="44.88662" lon="1.61926">
        <ele>170.19999694824</ele>
        <time>2022-05-22T12:00:21.000Z</time>
      </trkpt>
      <trkpt lat="44.88689" lon="1.61918">
        <ele>168.60000610352</ele>
        <time>2022-05-22T12:00:25.000Z</time>
      </trkpt>
      <trkpt lat="44.88703" lon="1.61917">
        <ele>167</ele>
        <time>2022-05-22T12:00:27.000Z</time>
      </trkpt>
      <trkpt lat="44.88716" lon="1.61914">
        <ele>166</ele>
        <time>2022-05-22T12:00:29.000Z</time>
      </trkpt>
      <trkpt lat="44.88723" lon="1.61911">
        <ele>165.60000610352</ele>
        <time>2022-05-22T12:00:30.000Z</time>
      </trkpt>
      <trkpt lat="44.88736" lon="1.61908">
        <ele>165.19999694824</ele>
        <time>2022-05-22T12:00:32.000Z</time>
      </trkpt>
      <trkpt lat="44.88747" lon="1.61907">
        <ele>164.39999389648</ele>
        <time>2022-05-22T12:00:34.000Z</time>
      </trkpt>
      <trkpt lat="44.88766" lon="1.61901">
        <ele>163.60000610352</ele>
        <time>2022-05-22T12:00:37.000Z</time>
      </trkpt>
      <trkpt lat="44.88773" lon="1.61898">
        <ele>163.39999389648</ele>
        <time>2022-05-22T12:00:38.000Z</time>
      </trkpt>
      <trkpt lat="44.88779" lon="1.61895">
        <ele>163</ele>
        <time>2022-05-22T12:00:39.000Z</time>
      </trkpt>
      <trkpt lat="44.88785" lon="1.61892">
        <ele>161.80000305176</ele>
        <time>2022-05-22T12:00:40.000Z</time>
      </trkpt>
      <trkpt lat="44.88798" lon="1.61887">
        <ele>159.80000305176</ele>
        <time>2022-05-22T12:00:42.000Z</time>
      </trkpt>
      <trkpt lat="44.88804" lon="1.61886">
        <ele>159.39999389648</ele>
        <time>2022-05-22T12:00:43.000Z</time>
      </trkpt>
      <trkpt lat="44.8881" lon="1.61885">
        <ele>158.80000305176</ele>
        <time>2022-05-22T12:00:44.000Z</time>
      </trkpt>
      <trkpt lat="44.88821" lon="1.61882">
        <ele>157.80000305176</ele>
        <time>2022-05-22T12:00:46.000Z</time>
      </trkpt>
      <trkpt lat="44.88825" lon="1.6188">
        <ele>157.39999389648</ele>
        <time>2022-05-22T12:00:47.000Z</time>
      </trkpt>
      <trkpt lat="44.88834" lon="1.61877">
        <ele>156.19999694824</ele>
        <time>2022-05-22T12:00:49.000Z</time>
      </trkpt>
      <trkpt lat="44.8884" lon="1.61875">
        <ele>155.19999694824</ele>
        <time>2022-05-22T12:00:50.000Z</time>
      </trkpt>
      <trkpt lat="44.88849" lon="1.61871">
        <ele>153.60000610352</ele>
        <time>2022-05-22T12:00:52.000Z</time>
      </trkpt>
      <trkpt lat="44.88857" lon="1.6187">
        <ele>153.19999694824</ele>
        <time>2022-05-22T12:00:53.000Z</time>
      </trkpt>
      <trkpt lat="44.88863" lon="1.61867">
        <ele>152.19999694824</ele>
        <time>2022-05-22T12:00:54.000Z</time>
      </trkpt>
      <trkpt lat="44.88876" lon="1.61863">
        <ele>151.19999694824</ele>
        <time>2022-05-22T12:00:56.000Z</time>
      </trkpt>
      <trkpt lat="44.88891" lon="1.61862">
        <ele>150.39999389648</ele>
        <time>2022-05-22T12:00:58.000Z</time>
      </trkpt>
      <trkpt lat="44.88898" lon="1.61862">
        <ele>150</ele>
        <time>2022-05-22T12:00:59.000Z</time>
      </trkpt>
      <trkpt lat="44.88928" lon="1.61864">
        <ele>149.19999694824</ele>
        <time>2022-05-22T12:01:03.000Z</time>
      </trkpt>
      <trkpt lat="44.88934" lon="1.61863">
        <ele>148.80000305176</ele>
        <time>2022-05-22T12:01:04.000Z</time>
      </trkpt>
      <trkpt lat="44.88945" lon="1.61859">
        <ele>148</ele>
        <time>2022-05-22T12:01:06.000Z</time>
      </trkpt>
      <trkpt lat="44.88949" lon="1.61857">
        <ele>147.80000305176</ele>
        <time>2022-05-22T12:01:07.000Z</time>
      </trkpt>
      <trkpt lat="44.88957" lon="1.61851">
        <ele>147.60000610352</ele>
        <time>2022-05-22T12:01:09.000Z</time>
      </trkpt>
      <trkpt lat="44.8896" lon="1.61839">
        <ele>147.60000610352</ele>
        <time>2022-05-22T12:01:11.000Z</time>
      </trkpt>
      <trkpt lat="44.88959" lon="1.61827">
        <ele>147.19999694824</ele>
        <time>2022-05-22T12:01:13.000Z</time>
      </trkpt>
      <trkpt lat="44.88959" lon="1.61822">
        <ele>147</ele>
        <time>2022-05-22T12:01:14.000Z</time>
      </trkpt>
      <trkpt lat="44.88959" lon="1.61817">
        <ele>147</ele>
        <time>2022-05-22T12:01:15.000Z</time>
      </trkpt>
      <trkpt lat="44.8896" lon="1.61812">
        <ele>146.60000610352</ele>
        <time>2022-05-22T12:01:16.000Z</time>
      </trkpt>
      <trkpt lat="44.88961" lon="1.61807">
        <ele>146.60000610352</ele>
        <time>2022-05-22T12:01:17.000Z</time>
      </trkpt>
      <trkpt lat="44.88967" lon="1.61793">
        <ele>146.19999694824</ele>
        <time>2022-05-22T12:01:20.000Z</time>
      </trkpt>
      <trkpt lat="44.88971" lon="1.6179">
        <ele>146.19999694824</ele>
        <time>2022-05-22T12:01:21.000Z</time>
      </trkpt>
      <trkpt lat="44.88998" lon="1.6178">
        <ele>146</ele>
        <time>2022-05-22T12:01:27.000Z</time>
      </trkpt>
      <trkpt lat="44.89005" lon="1.61776">
        <ele>146</ele>
        <time>2022-05-22T12:01:29.000Z</time>
      </trkpt>
      <trkpt lat="44.89021" lon="1.61767">
        <ele>146</ele>
        <time>2022-05-22T12:01:33.000Z</time>
      </trkpt>
      <trkpt lat="44.89029" lon="1.61762">
        <ele>146</ele>
        <time>2022-05-22T12:01:35.000Z</time>
      </trkpt>
      <trkpt lat="44.89035" lon="1.61758">
        <ele>146.19999694824</ele>
        <time>2022-05-22T12:01:37.000Z</time>
      </trkpt>
      <trkpt lat="44.89054" lon="1.61745">
        <ele>146.19999694824</ele>
        <time>2022-05-22T12:01:42.000Z</time>
      </trkpt>
      <trkpt lat="44.89067" lon="1.61737">
        <ele>146.19999694824</ele>
        <time>2022-05-22T12:01:45.000Z</time>
      </trkpt>
      <trkpt lat="44.89084" lon="1.61729">
        <ele>146.19999694824</ele>
        <time>2022-05-22T12:01:49.000Z</time>
      </trkpt>
      <trkpt lat="44.89096" lon="1.61723">
        <ele>146.19999694824</ele>
        <time>2022-05-22T12:01:52.000Z</time>
      </trkpt>
      <trkpt lat="44.89107" lon="1.61717">
        <ele>146.19999694824</ele>
        <time>2022-05-22T12:01:55.000Z</time>
      </trkpt>
      <trkpt lat="44.89123" lon="1.61709">
        <ele>146.39999389648</ele>
        <time>2022-05-22T12:01:59.000Z</time>
      </trkpt>
      <trkpt lat="44.89127" lon="1.61707">
        <ele>146.39999389648</ele>
        <time>2022-05-22T12:02:00.000Z</time>
      </trkpt>
      <trkpt lat="44.89149" lon="1.61694">
        <ele>146.60000610352</ele>
        <time>2022-05-22T12:02:06.000Z</time>
      </trkpt>
      <trkpt lat="44.89168" lon="1.61676">
        <ele>146.80000305176</ele>
        <time>2022-05-22T12:02:13.000Z</time>
      </trkpt>
      <trkpt lat="44.89172" lon="1.61669">
        <ele>146.80000305176</ele>
        <time>2022-05-22T12:02:16.000Z</time>
      </trkpt>
      <trkpt lat="44.89176" lon="1.61665">
        <ele>146.80000305176</ele>
        <time>2022-05-22T12:02:18.000Z</time>
      </trkpt>
      <trkpt lat="44.89195" lon="1.6165">
        <ele>146.60000610352</ele>
        <time>2022-05-22T12:02:24.000Z</time>
      </trkpt>
      <trkpt lat="44.89215" lon="1.61641">
        <ele>146.39999389648</ele>
        <time>2022-05-22T12:02:29.000Z</time>
      </trkpt>
      <trkpt lat="44.89231" lon="1.61633">
        <ele>146.60000610352</ele>
        <time>2022-05-22T12:02:34.000Z</time>
      </trkpt>
      <trkpt lat="44.89255" lon="1.61631">
        <ele>146.80000305176</ele>
        <time>2022-05-22T12:02:40.000Z</time>
      </trkpt>
      <trkpt lat="44.89281" lon="1.61625">
        <ele>147</ele>
        <time>2022-05-22T12:02:47.000Z</time>
      </trkpt>
      <trkpt lat="44.89306" lon="1.61618">
        <ele>147</ele>
        <time>2022-05-22T12:02:53.000Z</time>
      </trkpt>
      <trkpt lat="44.89321" lon="1.61614">
        <ele>147</ele>
        <time>2022-05-22T12:02:56.000Z</time>
      </trkpt>
      <trkpt lat="44.8936" lon="1.61607">
        <ele>146.60000610352</ele>
        <time>2022-05-22T12:03:05.000Z</time>
      </trkpt>
      <trkpt lat="44.89397" lon="1.61607">
        <ele>146.60000610352</ele>
        <time>2022-05-22T12:03:13.000Z</time>
      </trkpt>
      <trkpt lat="44.894" lon="1.61607">
        <ele>146.80000305176</ele>
        <time>2022-05-22T12:03:14.000Z</time>
      </trkpt>
      <trkpt lat="44.89423" lon="1.61607">
        <ele>147</ele>
        <time>2022-05-22T12:03:19.000Z</time>
      </trkpt>
      <trkpt lat="44.89427" lon="1.61607">
        <ele>147</ele>
        <time>2022-05-22T12:03:20.000Z</time>
      </trkpt>
      <trkpt lat="44.89451" lon="1.6161">
        <ele>146.80000305176</ele>
        <time>2022-05-22T12:03:26.000Z</time>
      </trkpt>
      <trkpt lat="44.89474" lon="1.6161">
        <ele>146.80000305176</ele>
        <time>2022-05-22T12:03:31.000Z</time>
      </trkpt>
      <trkpt lat="44.89483" lon="1.61611">
        <ele>146.80000305176</ele>
        <time>2022-05-22T12:03:33.000Z</time>
      </trkpt>
      <trkpt lat="44.89499" lon="1.61611">
        <ele>147</ele>
        <time>2022-05-22T12:03:36.000Z</time>
      </trkpt>
      <trkpt lat="44.89536" lon="1.61611">
        <ele>147</ele>
        <time>2022-05-22T12:03:44.000Z</time>
      </trkpt>
      <trkpt lat="44.89585" lon="1.61608">
        <ele>146.80000305176</ele>
        <time>2022-05-22T12:03:54.000Z</time>
      </trkpt>
      <trkpt lat="44.89614" lon="1.61605">
        <ele>146.80000305176</ele>
        <time>2022-05-22T12:04:00.000Z</time>
      </trkpt>
      <trkpt lat="44.89618" lon="1.61605">
        <ele>146.80000305176</ele>
        <time>2022-05-22T12:04:01.000Z</time>
      </trkpt>
      <trkpt lat="44.89624" lon="1.61607">
        <ele>146.80000305176</ele>
        <time>2022-05-22T12:04:02.000Z</time>
      </trkpt>
      <trkpt lat="44.89629" lon="1.61616">
        <ele>146.80000305176</ele>
        <time>2022-05-22T12:04:04.000Z</time>
      </trkpt>
      <trkpt lat="44.89631" lon="1.61628">
        <ele>147</ele>
        <time>2022-05-22T12:04:06.000Z</time>
      </trkpt>
      <trkpt lat="44.89631" lon="1.61641">
        <ele>147</ele>
        <time>2022-05-22T12:04:08.000Z</time>
      </trkpt>
      <trkpt lat="44.89632" lon="1.61681">
        <ele>147.39999389648</ele>
        <time>2022-05-22T12:04:14.000Z</time>
      </trkpt>
      <trkpt lat="44.89632" lon="1.61692">
        <ele>147.39999389648</ele>
        <time>2022-05-22T12:04:16.000Z</time>
      </trkpt>
      <trkpt lat="44.89635" lon="1.61746">
        <ele>148.39999389648</ele>
        <time>2022-05-22T12:04:24.000Z</time>
      </trkpt>
      <trkpt lat="44.89635" lon="1.61757">
        <ele>148.60000610352</ele>
        <time>2022-05-22T12:04:26.000Z</time>
      </trkpt>
      <trkpt lat="44.89636" lon="1.61809">
        <ele>149.60000610352</ele>
        <time>2022-05-22T12:04:34.000Z</time>
      </trkpt>
      <trkpt lat="44.89636" lon="1.61815">
        <ele>149.80000305176</ele>
        <time>2022-05-22T12:04:35.000Z</time>
      </trkpt>
      <trkpt lat="44.89633" lon="1.61842">
        <ele>150.80000305176</ele>
        <time>2022-05-22T12:04:40.000Z</time>
      </trkpt>
      <trkpt lat="44.89631" lon="1.61854">
        <ele>151.39999389648</ele>
        <time>2022-05-22T12:04:42.000Z</time>
      </trkpt>
      <trkpt lat="44.89627" lon="1.61875">
        <ele>152.19999694824</ele>
        <time>2022-05-22T12:04:46.000Z</time>
      </trkpt>
      <trkpt lat="44.89622" lon="1.61893">
        <ele>152.60000610352</ele>
        <time>2022-05-22T12:04:49.000Z</time>
      </trkpt>
      <trkpt lat="44.89617" lon="1.61915">
        <ele>153.19999694824</ele>
        <time>2022-05-22T12:04:53.000Z</time>
      </trkpt>
      <trkpt lat="44.89616" lon="1.6192">
        <ele>153.39999389648</ele>
        <time>2022-05-22T12:04:54.000Z</time>
      </trkpt>
      <trkpt lat="44.8961" lon="1.61947">
        <ele>154.19999694824</ele>
        <time>2022-05-22T12:04:59.000Z</time>
      </trkpt>
      <trkpt lat="44.8961" lon="1.61952">
        <ele>154.39999389648</ele>
        <time>2022-05-22T12:05:00.000Z</time>
      </trkpt>
      <trkpt lat="44.89603" lon="1.61981">
        <ele>155</ele>
        <time>2022-05-22T12:05:06.000Z</time>
      </trkpt>
      <trkpt lat="44.89601" lon="1.61992">
        <ele>155.39999389648</ele>
        <time>2022-05-22T12:05:08.000Z</time>
      </trkpt>
      <trkpt lat="44.89595" lon="1.6202">
        <ele>156.60000610352</ele>
        <time>2022-05-22T12:05:14.000Z</time>
      </trkpt>
      <trkpt lat="44.89594" lon="1.62025">
        <ele>156.80000305176</ele>
        <time>2022-05-22T12:05:15.000Z</time>
      </trkpt>
      <trkpt lat="44.8959" lon="1.62043">
        <ele>157.60000610352</ele>
        <time>2022-05-22T12:05:19.000Z</time>
      </trkpt>
      <trkpt lat="44.89584" lon="1.62068">
        <ele>158.60000610352</ele>
        <time>2022-05-22T12:05:24.000Z</time>
      </trkpt>
      <trkpt lat="44.8958" lon="1.62093">
        <ele>159.80000305176</ele>
        <time>2022-05-22T12:05:30.000Z</time>
      </trkpt>
      <trkpt lat="44.89579" lon="1.62095">
        <ele>160.39999389648</ele>
        <time>2022-05-22T12:05:31.000Z</time>
      </trkpt>
      <trkpt lat="44.89579" lon="1.62099">
        <ele>161</ele>
        <time>2022-05-22T12:05:34.000Z</time>
      </trkpt>
      <trkpt lat="44.89581" lon="1.62108">
        <ele>161.19999694824</ele>
        <time>2022-05-22T12:05:37.000Z</time>
      </trkpt>
      <trkpt lat="44.89595" lon="1.62123">
        <ele>161.39999389648</ele>
        <time>2022-05-22T12:05:41.000Z</time>
      </trkpt>
      <trkpt lat="44.89607" lon="1.6213">
        <ele>161.80000305176</ele>
        <time>2022-05-22T12:05:44.000Z</time>
      </trkpt>
      <trkpt lat="44.89626" lon="1.62143">
        <ele>161.60000610352</ele>
        <time>2022-05-22T12:05:48.000Z</time>
      </trkpt>
      <trkpt lat="44.89654" lon="1.62164">
        <ele>161</ele>
        <time>2022-05-22T12:05:53.000Z</time>
      </trkpt>
      <trkpt lat="44.89694" lon="1.62186">
        <ele>160.19999694824</ele>
        <time>2022-05-22T12:05:59.000Z</time>
      </trkpt>
      <trkpt lat="44.89708" lon="1.62191">
        <ele>160</ele>
        <time>2022-05-22T12:06:01.000Z</time>
      </trkpt>
      <trkpt lat="44.89728" lon="1.62194">
        <ele>159.60000610352</ele>
        <time>2022-05-22T12:06:04.000Z</time>
      </trkpt>
      <trkpt lat="44.89735" lon="1.62193">
        <ele>159.60000610352</ele>
        <time>2022-05-22T12:06:05.000Z</time>
      </trkpt>
      <trkpt lat="44.89758" lon="1.62189">
        <ele>159</ele>
        <time>2022-05-22T12:06:09.000Z</time>
      </trkpt>
      <trkpt lat="44.89764" lon="1.62188">
        <ele>158.80000305176</ele>
        <time>2022-05-22T12:06:10.000Z</time>
      </trkpt>
      <trkpt lat="44.89794" lon="1.62182">
        <ele>158.80000305176</ele>
        <time>2022-05-22T12:06:16.000Z</time>
      </trkpt>
      <trkpt lat="44.89837" lon="1.62188">
        <ele>160.19999694824</ele>
        <time>2022-05-22T12:06:25.000Z</time>
      </trkpt>
      <trkpt lat="44.89871" lon="1.62198">
        <ele>161.19999694824</ele>
        <time>2022-05-22T12:06:32.000Z</time>
      </trkpt>
      <trkpt lat="44.89884" lon="1.62202">
        <ele>161.60000610352</ele>
        <time>2022-05-22T12:06:35.000Z</time>
      </trkpt>
      <trkpt lat="44.89897" lon="1.62207">
        <ele>162.19999694824</ele>
        <time>2022-05-22T12:06:40.000Z</time>
      </trkpt>
      <trkpt lat="44.89899" lon="1.62207">
        <ele>162.19999694824</ele>
        <time>2022-05-22T12:06:41.000Z</time>
      </trkpt>
      <trkpt lat="44.89913" lon="1.62212">
        <ele>162.39999389648</ele>
        <time>2022-05-22T12:06:45.000Z</time>
      </trkpt>
      <trkpt lat="44.8994" lon="1.62221">
        <ele>163.19999694824</ele>
        <time>2022-05-22T12:06:51.000Z</time>
      </trkpt>
      <trkpt lat="44.89945" lon="1.62223">
        <ele>163.39999389648</ele>
        <time>2022-05-22T12:06:52.000Z</time>
      </trkpt>
      <trkpt lat="44.89976" lon="1.62233">
        <ele>164.19999694824</ele>
        <time>2022-05-22T12:06:58.000Z</time>
      </trkpt>
      <trkpt lat="44.89985" lon="1.62235">
        <ele>164.39999389648</ele>
        <time>2022-05-22T12:07:00.000Z</time>
      </trkpt>
      <trkpt lat="44.89994" lon="1.62238">
        <ele>165</ele>
        <time>2022-05-22T12:07:02.000Z</time>
      </trkpt>
      <trkpt lat="44.90002" lon="1.62238">
        <ele>165.19999694824</ele>
        <time>2022-05-22T12:07:04.000Z</time>
      </trkpt>
      <trkpt lat="44.9001" lon="1.6224">
        <ele>165.39999389648</ele>
        <time>2022-05-22T12:07:06.000Z</time>
      </trkpt>
      <trkpt lat="44.90022" lon="1.62243">
        <ele>165.60000610352</ele>
        <time>2022-05-22T12:07:09.000Z</time>
      </trkpt>
      <trkpt lat="44.90029" lon="1.62239">
        <ele>165.80000305176</ele>
        <time>2022-05-22T12:07:11.000Z</time>
      </trkpt>
      <trkpt lat="44.90031" lon="1.62234">
        <ele>166</ele>
        <time>2022-05-22T12:07:12.000Z</time>
      </trkpt>
      <trkpt lat="44.90033" lon="1.62228">
        <ele>166</ele>
        <time>2022-05-22T12:07:13.000Z</time>
      </trkpt>
      <trkpt lat="44.90039" lon="1.62198">
        <ele>166</ele>
        <time>2022-05-22T12:07:18.000Z</time>
      </trkpt>
      <trkpt lat="44.9004" lon="1.62193">
        <ele>166</ele>
        <time>2022-05-22T12:07:19.000Z</time>
      </trkpt>
      <trkpt lat="44.90047" lon="1.6217">
        <ele>166</ele>
        <time>2022-05-22T12:07:24.000Z</time>
      </trkpt>
      <trkpt lat="44.90059" lon="1.62139">
        <ele>167</ele>
        <time>2022-05-22T12:07:30.000Z</time>
      </trkpt>
      <trkpt lat="44.90063" lon="1.6213">
        <ele>167.39999389648</ele>
        <time>2022-05-22T12:07:32.000Z</time>
      </trkpt>
      <trkpt lat="44.90068" lon="1.62122">
        <ele>168.19999694824</ele>
        <time>2022-05-22T12:07:34.000Z</time>
      </trkpt>
      <trkpt lat="44.90074" lon="1.62108">
        <ele>169.19999694824</ele>
        <time>2022-05-22T12:07:37.000Z</time>
      </trkpt>
      <trkpt lat="44.90083" lon="1.62089">
        <ele>170.19999694824</ele>
        <time>2022-05-22T12:07:41.000Z</time>
      </trkpt>
      <trkpt lat="44.90095" lon="1.62058">
        <ele>171.19999694824</ele>
        <time>2022-05-22T12:07:47.000Z</time>
      </trkpt>
      <trkpt lat="44.90099" lon="1.62055">
        <ele>171.19999694824</ele>
        <time>2022-05-22T12:07:48.000Z</time>
      </trkpt>
      <trkpt lat="44.90102" lon="1.62053">
        <ele>171.19999694824</ele>
        <time>2022-05-22T12:07:49.000Z</time>
      </trkpt>
      <trkpt lat="44.90109" lon="1.62053">
        <ele>171.19999694824</ele>
        <time>2022-05-22T12:07:51.000Z</time>
      </trkpt>
      <trkpt lat="44.90121" lon="1.62064">
        <ele>171.19999694824</ele>
        <time>2022-05-22T12:07:55.000Z</time>
      </trkpt>
      <trkpt lat="44.90146" lon="1.62092">
        <ele>171.19999694824</ele>
        <time>2022-05-22T12:08:02.000Z</time>
      </trkpt>
      <trkpt lat="44.90148" lon="1.62097">
        <ele>171.39999389648</ele>
        <time>2022-05-22T12:08:03.000Z</time>
      </trkpt>
      <trkpt lat="44.90159" lon="1.62118">
        <ele>171.80000305176</ele>
        <time>2022-05-22T12:08:07.000Z</time>
      </trkpt>
      <trkpt lat="44.90166" lon="1.62124">
        <ele>172.19999694824</ele>
        <time>2022-05-22T12:08:09.000Z</time>
      </trkpt>
      <trkpt lat="44.90174" lon="1.62131">
        <ele>172.19999694824</ele>
        <time>2022-05-22T12:08:11.000Z</time>
      </trkpt>
      <trkpt lat="44.90182" lon="1.62134">
        <ele>172.19999694824</ele>
        <time>2022-05-22T12:08:13.000Z</time>
      </trkpt>
      <trkpt lat="44.9019" lon="1.62134">
        <ele>172.19999694824</ele>
        <time>2022-05-22T12:08:15.000Z</time>
      </trkpt>
      <trkpt lat="44.90206" lon="1.62141">
        <ele>171.80000305176</ele>
        <time>2022-05-22T12:08:18.000Z</time>
      </trkpt>
      <trkpt lat="44.90221" lon="1.6215">
        <ele>171.19999694824</ele>
        <time>2022-05-22T12:08:21.000Z</time>
      </trkpt>
      <trkpt lat="44.90231" lon="1.62157">
        <ele>170.80000305176</ele>
        <time>2022-05-22T12:08:23.000Z</time>
      </trkpt>
      <trkpt lat="44.90234" lon="1.62161">
        <ele>170.80000305176</ele>
        <time>2022-05-22T12:08:24.000Z</time>
      </trkpt>
      <trkpt lat="44.90242" lon="1.62171">
        <ele>170.39999389648</ele>
        <time>2022-05-22T12:08:26.000Z</time>
      </trkpt>
      <trkpt lat="44.90247" lon="1.62177">
        <ele>170.19999694824</ele>
        <time>2022-05-22T12:08:27.000Z</time>
      </trkpt>
      <trkpt lat="44.90256" lon="1.62183">
        <ele>169.80000305176</ele>
        <time>2022-05-22T12:08:29.000Z</time>
      </trkpt>
      <trkpt lat="44.90261" lon="1.62185">
        <ele>169.60000610352</ele>
        <time>2022-05-22T12:08:30.000Z</time>
      </trkpt>
      <trkpt lat="44.90268" lon="1.62186">
        <ele>169.60000610352</ele>
        <time>2022-05-22T12:08:31.000Z</time>
      </trkpt>
      <trkpt lat="44.90273" lon="1.62186">
        <ele>169.39999389648</ele>
        <time>2022-05-22T12:08:32.000Z</time>
      </trkpt>
      <trkpt lat="44.90292" lon="1.62187">
        <ele>169</ele>
        <time>2022-05-22T12:08:36.000Z</time>
      </trkpt>
      <trkpt lat="44.90311" lon="1.62189">
        <ele>168.39999389648</ele>
        <time>2022-05-22T12:08:40.000Z</time>
      </trkpt>
      <trkpt lat="44.90321" lon="1.6219">
        <ele>168</ele>
        <time>2022-05-22T12:08:42.000Z</time>
      </trkpt>
      <trkpt lat="44.9033" lon="1.62194">
        <ele>167.39999389648</ele>
        <time>2022-05-22T12:08:44.000Z</time>
      </trkpt>
      <trkpt lat="44.90334" lon="1.62195">
        <ele>167.39999389648</ele>
        <time>2022-05-22T12:08:45.000Z</time>
      </trkpt>
      <trkpt lat="44.90343" lon="1.62196">
        <ele>167.19999694824</ele>
        <time>2022-05-22T12:08:47.000Z</time>
      </trkpt>
      <trkpt lat="44.90347" lon="1.62197">
        <ele>167.19999694824</ele>
        <time>2022-05-22T12:08:48.000Z</time>
      </trkpt>
      <trkpt lat="44.90385" lon="1.6221">
        <ele>167.80000305176</ele>
        <time>2022-05-22T12:08:57.000Z</time>
      </trkpt>
      <trkpt lat="44.90415" lon="1.62222">
        <ele>168</ele>
        <time>2022-05-22T12:09:05.000Z</time>
      </trkpt>
      <trkpt lat="44.90433" lon="1.62245">
        <ele>167.19999694824</ele>
        <time>2022-05-22T12:09:11.000Z</time>
      </trkpt>
      <trkpt lat="44.9044" lon="1.62253">
        <ele>166.80000305176</ele>
        <time>2022-05-22T12:09:15.000Z</time>
      </trkpt>
      <trkpt lat="44.90444" lon="1.62253">
        <ele>166.39999389648</ele>
        <time>2022-05-22T12:09:17.000Z</time>
      </trkpt>
      <trkpt lat="44.90448" lon="1.6225">
        <ele>166.19999694824</ele>
        <time>2022-05-22T12:09:19.000Z</time>
      </trkpt>
      <trkpt lat="44.9046" lon="1.62233">
        <ele>164.80000305176</ele>
        <time>2022-05-22T12:09:23.000Z</time>
      </trkpt>
      <trkpt lat="44.90467" lon="1.62225">
        <ele>163.60000610352</ele>
        <time>2022-05-22T12:09:26.000Z</time>
      </trkpt>
      <trkpt lat="44.90471" lon="1.6222">
        <ele>162.39999389648</ele>
        <time>2022-05-22T12:09:28.000Z</time>
      </trkpt>
      <trkpt lat="44.90479" lon="1.62212">
        <ele>161.19999694824</ele>
        <time>2022-05-22T12:09:31.000Z</time>
      </trkpt>
      <trkpt lat="44.90486" lon="1.62206">
        <ele>160</ele>
        <time>2022-05-22T12:09:33.000Z</time>
      </trkpt>
      <trkpt lat="44.90492" lon="1.622">
        <ele>157.80000305176</ele>
        <time>2022-05-22T12:09:35.000Z</time>
      </trkpt>
      <trkpt lat="44.905" lon="1.62193">
        <ele>156.39999389648</ele>
        <time>2022-05-22T12:09:37.000Z</time>
      </trkpt>
      <trkpt lat="44.90505" lon="1.6219">
        <ele>154.80000305176</ele>
        <time>2022-05-22T12:09:39.000Z</time>
      </trkpt>
      <trkpt lat="44.90508" lon="1.6219">
        <ele>153.39999389648</ele>
        <time>2022-05-22T12:09:40.000Z</time>
      </trkpt>
      <trkpt lat="44.90515" lon="1.62193">
        <ele>152.39999389648</ele>
        <time>2022-05-22T12:09:42.000Z</time>
      </trkpt>
      <trkpt lat="44.90519" lon="1.62196">
        <ele>152.39999389648</ele>
        <time>2022-05-22T12:09:43.000Z</time>
      </trkpt>
      <trkpt lat="44.90537" lon="1.62208">
        <ele>151.80000305176</ele>
        <time>2022-05-22T12:09:46.000Z</time>
      </trkpt>
      <trkpt lat="44.90564" lon="1.62231">
        <ele>151.19999694824</ele>
        <time>2022-05-22T12:09:52.000Z</time>
      </trkpt>
      <trkpt lat="44.90569" lon="1.62233">
        <ele>151</ele>
        <time>2022-05-22T12:09:53.000Z</time>
      </trkpt>
      <trkpt lat="44.90609" lon="1.62263">
        <ele>151</ele>
        <time>2022-05-22T12:10:03.000Z</time>
      </trkpt>
      <trkpt lat="44.90614" lon="1.62272">
        <ele>151.19999694824</ele>
        <time>2022-05-22T12:10:05.000Z</time>
      </trkpt>
      <trkpt lat="44.90617" lon="1.62287">
        <ele>151.19999694824</ele>
        <time>2022-05-22T12:10:07.000Z</time>
      </trkpt>
      <trkpt lat="44.90627" lon="1.62338">
        <ele>151.39999389648</ele>
        <time>2022-05-22T12:10:15.000Z</time>
      </trkpt>
      <trkpt lat="44.90629" lon="1.62344">
        <ele>151.19999694824</ele>
        <time>2022-05-22T12:10:16.000Z</time>
      </trkpt>
      <trkpt lat="44.90633" lon="1.62354">
        <ele>151.19999694824</ele>
        <time>2022-05-22T12:10:18.000Z</time>
      </trkpt>
      <trkpt lat="44.90636" lon="1.62357">
        <ele>151.19999694824</ele>
        <time>2022-05-22T12:10:19.000Z</time>
      </trkpt>
      <trkpt lat="44.9066" lon="1.62373">
        <ele>150.80000305176</ele>
        <time>2022-05-22T12:10:26.000Z</time>
      </trkpt>
      <trkpt lat="44.90682" lon="1.6239">
        <ele>150.39999389648</ele>
        <time>2022-05-22T12:10:32.000Z</time>
      </trkpt>
      <trkpt lat="44.90687" lon="1.62394">
        <ele>150.39999389648</ele>
        <time>2022-05-22T12:10:33.000Z</time>
      </trkpt>
      <trkpt lat="44.90692" lon="1.62399">
        <ele>150.19999694824</ele>
        <time>2022-05-22T12:10:34.000Z</time>
      </trkpt>
      <trkpt lat="44.90705" lon="1.62417">
        <ele>149.80000305176</ele>
        <time>2022-05-22T12:10:37.000Z</time>
      </trkpt>
      <trkpt lat="44.90709" lon="1.62423">
        <ele>149.39999389648</ele>
        <time>2022-05-22T12:10:38.000Z</time>
      </trkpt>
      <trkpt lat="44.90714" lon="1.62438">
        <ele>149.19999694824</ele>
        <time>2022-05-22T12:10:40.000Z</time>
      </trkpt>
      <trkpt lat="44.90715" lon="1.62446">
        <ele>149</ele>
        <time>2022-05-22T12:10:41.000Z</time>
      </trkpt>
      <trkpt lat="44.90715" lon="1.62453">
        <ele>149</ele>
        <time>2022-05-22T12:10:42.000Z</time>
      </trkpt>
      <trkpt lat="44.90715" lon="1.6248">
        <ele>148.80000305176</ele>
        <time>2022-05-22T12:10:46.000Z</time>
      </trkpt>
      <trkpt lat="44.90711" lon="1.62518">
        <ele>148.39999389648</ele>
        <time>2022-05-22T12:10:52.000Z</time>
      </trkpt>
      <trkpt lat="44.9071" lon="1.62524">
        <ele>148.39999389648</ele>
        <time>2022-05-22T12:10:53.000Z</time>
      </trkpt>
      <trkpt lat="44.90703" lon="1.62537">
        <ele>148.60000610352</ele>
        <time>2022-05-22T12:10:56.000Z</time>
      </trkpt>
      <trkpt lat="44.90686" lon="1.62574">
        <ele>149.39999389648</ele>
        <time>2022-05-22T12:11:03.000Z</time>
      </trkpt>
      <trkpt lat="44.90678" lon="1.62589">
        <ele>150.19999694824</ele>
        <time>2022-05-22T12:11:07.000Z</time>
      </trkpt>
      <trkpt lat="44.90676" lon="1.62591">
        <ele>150.39999389648</ele>
        <time>2022-05-22T12:11:08.000Z</time>
      </trkpt>
      <trkpt lat="44.90674" lon="1.62598">
        <ele>151.60000610352</ele>
        <time>2022-05-22T12:11:11.000Z</time>
      </trkpt>
      <trkpt lat="44.90675" lon="1.62602">
        <ele>151.60000610352</ele>
        <time>2022-05-22T12:11:12.000Z</time>
      </trkpt>
      <trkpt lat="44.90686" lon="1.62622">
        <ele>152.19999694824</ele>
        <time>2022-05-22T12:11:17.000Z</time>
      </trkpt>
      <trkpt lat="44.90709" lon="1.62661">
        <ele>152.39999389648</ele>
        <time>2022-05-22T12:11:26.000Z</time>
      </trkpt>
      <trkpt lat="44.90725" lon="1.62687">
        <ele>152.80000305176</ele>
        <time>2022-05-22T12:11:33.000Z</time>
      </trkpt>
      <trkpt lat="44.90738" lon="1.62709">
        <ele>153</ele>
        <time>2022-05-22T12:11:40.000Z</time>
      </trkpt>
      <trkpt lat="44.9074" lon="1.62713">
        <ele>153</ele>
        <time>2022-05-22T12:11:45.000Z</time>
      </trkpt>
      <trkpt lat="44.9074" lon="1.62713">
        <ele>152.80000305176</ele>
        <time>2022-05-22T12:11:54.000Z</time>
      </trkpt>
      <trkpt lat="44.9074" lon="1.62713">
        <ele>152.80000305176</ele>
        <time>2022-05-22T12:12:01.000Z</time>
      </trkpt>
      <trkpt lat="44.90742" lon="1.62711">
        <ele>152.60000610352</ele>
        <time>2022-05-22T12:12:04.000Z</time>
      </trkpt>
      <trkpt lat="44.90743" lon="1.62711">
        <ele>152.60000610352</ele>
        <time>2022-05-22T12:12:11.000Z</time>
      </trkpt>
      <trkpt lat="44.90744" lon="1.6271">
        <ele>152.39999389648</ele>
        <time>2022-05-22T12:12:23.000Z</time>
      </trkpt>
      <trkpt lat="44.90744" lon="1.6271">
        <ele>152.19999694824</ele>
        <time>2022-05-22T12:12:50.000Z</time>
      </trkpt>
      <trkpt lat="44.90744" lon="1.6271">
        <ele>152.19999694824</ele>
        <time>2022-05-22T12:13:04.000Z</time>
      </trkpt>
      <trkpt lat="44.90744" lon="1.6271">
        <ele>152.19999694824</ele>
        <time>2022-05-22T12:13:23.000Z</time>
      </trkpt>
      <trkpt lat="44.90744" lon="1.6271">
        <ele>152.60000610352</ele>
        <time>2022-05-22T12:13:59.000Z</time>
      </trkpt>
      <trkpt lat="44.90743" lon="1.62711">
        <ele>152.80000305176</ele>
        <time>2022-05-22T12:14:07.000Z</time>
      </trkpt>
      <trkpt lat="44.90742" lon="1.62714">
        <ele>152.80000305176</ele>
        <time>2022-05-22T12:14:09.000Z</time>
      </trkpt>
      <trkpt lat="44.90744" lon="1.62719">
        <ele>152.80000305176</ele>
        <time>2022-05-22T12:14:13.000Z</time>
      </trkpt>
      <trkpt lat="44.90747" lon="1.62725">
        <ele>152.80000305176</ele>
        <time>2022-05-22T12:14:16.000Z</time>
      </trkpt>
      <trkpt lat="44.90757" lon="1.62741">
        <ele>152.80000305176</ele>
        <time>2022-05-22T12:14:20.000Z</time>
      </trkpt>
      <trkpt lat="44.9078" lon="1.62779">
        <ele>153</ele>
        <time>2022-05-22T12:14:28.000Z</time>
      </trkpt>
      <trkpt lat="44.90787" lon="1.62793">
        <ele>153</ele>
        <time>2022-05-22T12:14:31.000Z</time>
      </trkpt>
      <trkpt lat="44.90805" lon="1.62821">
        <ele>153.19999694824</ele>
        <time>2022-05-22T12:14:38.000Z</time>
      </trkpt>
      <trkpt lat="44.9083" lon="1.62857">
        <ele>153</ele>
        <time>2022-05-22T12:14:47.000Z</time>
      </trkpt>
      <trkpt lat="44.90834" lon="1.62857">
        <ele>152.80000305176</ele>
        <time>2022-05-22T12:14:48.000Z</time>
      </trkpt>
      <trkpt lat="44.90841" lon="1.62854">
        <ele>152.80000305176</ele>
        <time>2022-05-22T12:14:50.000Z</time>
      </trkpt>
      <trkpt lat="44.90852" lon="1.62832">
        <ele>152.80000305176</ele>
        <time>2022-05-22T12:14:55.000Z</time>
      </trkpt>
      <trkpt lat="44.90863" lon="1.62798">
        <ele>152.19999694824</ele>
        <time>2022-05-22T12:15:00.000Z</time>
      </trkpt>
      <trkpt lat="44.90874" lon="1.62775">
        <ele>152</ele>
        <time>2022-05-22T12:15:03.000Z</time>
      </trkpt>
      <trkpt lat="44.90882" lon="1.62763">
        <ele>151.60000610352</ele>
        <time>2022-05-22T12:15:05.000Z</time>
      </trkpt>
      <trkpt lat="44.90902" lon="1.62737">
        <ele>150.80000305176</ele>
        <time>2022-05-22T12:15:09.000Z</time>
      </trkpt>
      <trkpt lat="44.90917" lon="1.62718">
        <ele>150.19999694824</ele>
        <time>2022-05-22T12:15:12.000Z</time>
      </trkpt>
      <trkpt lat="44.90927" lon="1.62707">
        <ele>149.80000305176</ele>
        <time>2022-05-22T12:15:14.000Z</time>
      </trkpt>
      <trkpt lat="44.90948" lon="1.62688">
        <ele>149.39999389648</ele>
        <time>2022-05-22T12:15:18.000Z</time>
      </trkpt>
      <trkpt lat="44.90966" lon="1.62674">
        <ele>148.80000305176</ele>
        <time>2022-05-22T12:15:22.000Z</time>
      </trkpt>
      <trkpt lat="44.9097" lon="1.62672">
        <ele>148.80000305176</ele>
        <time>2022-05-22T12:15:23.000Z</time>
      </trkpt>
      <trkpt lat="44.90986" lon="1.62664">
        <ele>148.80000305176</ele>
        <time>2022-05-22T12:15:27.000Z</time>
      </trkpt>
      <trkpt lat="44.90994" lon="1.62662">
        <ele>148.80000305176</ele>
        <time>2022-05-22T12:15:29.000Z</time>
      </trkpt>
      <trkpt lat="44.91017" lon="1.62661">
        <ele>149</ele>
        <time>2022-05-22T12:15:34.000Z</time>
      </trkpt>
      <trkpt lat="44.9103" lon="1.6266">
        <ele>149</ele>
        <time>2022-05-22T12:15:37.000Z</time>
      </trkpt>
      <trkpt lat="44.91035" lon="1.6266">
        <ele>149</ele>
        <time>2022-05-22T12:15:38.000Z</time>
      </trkpt>
      <trkpt lat="44.91044" lon="1.62662">
        <ele>149.19999694824</ele>
        <time>2022-05-22T12:15:40.000Z</time>
      </trkpt>
      <trkpt lat="44.91052" lon="1.62661">
        <ele>149.19999694824</ele>
        <time>2022-05-22T12:15:42.000Z</time>
      </trkpt>
      <trkpt lat="44.91069" lon="1.62658">
        <ele>149.60000610352</ele>
        <time>2022-05-22T12:15:47.000Z</time>
      </trkpt>
      <trkpt lat="44.91083" lon="1.62644">
        <ele>149.80000305176</ele>
        <time>2022-05-22T12:15:52.000Z</time>
      </trkpt>
      <trkpt lat="44.91097" lon="1.62615">
        <ele>150.60000610352</ele>
        <time>2022-05-22T12:15:59.000Z</time>
      </trkpt>
      <trkpt lat="44.91099" lon="1.62609">
        <ele>150.60000610352</ele>
        <time>2022-05-22T12:16:00.000Z</time>
      </trkpt>
      <trkpt lat="44.91099" lon="1.62596">
        <ele>151.19999694824</ele>
        <time>2022-05-22T12:16:02.000Z</time>
      </trkpt>
      <trkpt lat="44.91099" lon="1.62583">
        <ele>151.60000610352</ele>
        <time>2022-05-22T12:16:04.000Z</time>
      </trkpt>
      <trkpt lat="44.91097" lon="1.6257">
        <ele>152</ele>
        <time>2022-05-22T12:16:06.000Z</time>
      </trkpt>
      <trkpt lat="44.91095" lon="1.62562">
        <ele>152.19999694824</ele>
        <time>2022-05-22T12:16:07.000Z</time>
      </trkpt>
      <trkpt lat="44.91093" lon="1.62555">
        <ele>152.39999389648</ele>
        <time>2022-05-22T12:16:08.000Z</time>
      </trkpt>
      <trkpt lat="44.91091" lon="1.62548">
        <ele>152.39999389648</ele>
        <time>2022-05-22T12:16:09.000Z</time>
      </trkpt>
      <trkpt lat="44.91077" lon="1.6251">
        <ele>152</ele>
        <time>2022-05-22T12:16:14.000Z</time>
      </trkpt>
      <trkpt lat="44.91068" lon="1.62481">
        <ele>151.60000610352</ele>
        <time>2022-05-22T12:16:17.000Z</time>
      </trkpt>
      <trkpt lat="44.91067" lon="1.62468">
        <ele>151.39999389648</ele>
        <time>2022-05-22T12:16:18.000Z</time>
      </trkpt>
      <trkpt lat="44.91066" lon="1.62459">
        <ele>151.19999694824</ele>
        <time>2022-05-22T12:16:19.000Z</time>
      </trkpt>
      <trkpt lat="44.91063" lon="1.62437">
        <ele>150.39999389648</ele>
        <time>2022-05-22T12:16:21.000Z</time>
      </trkpt>
      <trkpt lat="44.91061" lon="1.62425">
        <ele>150.19999694824</ele>
        <time>2022-05-22T12:16:22.000Z</time>
      </trkpt>
      <trkpt lat="44.91057" lon="1.62396">
        <ele>149.39999389648</ele>
        <time>2022-05-22T12:16:25.000Z</time>
      </trkpt>
      <trkpt lat="44.91051" lon="1.62363">
        <ele>148.80000305176</ele>
        <time>2022-05-22T12:16:28.000Z</time>
      </trkpt>
      <trkpt lat="44.91049" lon="1.62354">
        <ele>148.60000610352</ele>
        <time>2022-05-22T12:16:29.000Z</time>
      </trkpt>
      <trkpt lat="44.91046" lon="1.62345">
        <ele>148.60000610352</ele>
        <time>2022-05-22T12:16:30.000Z</time>
      </trkpt>
      <trkpt lat="44.9104" lon="1.62327">
        <ele>148.39999389648</ele>
        <time>2022-05-22T12:16:32.000Z</time>
      </trkpt>
      <trkpt lat="44.91038" lon="1.62319">
        <ele>148</ele>
        <time>2022-05-22T12:16:33.000Z</time>
      </trkpt>
      <trkpt lat="44.91031" lon="1.62304">
        <ele>148</ele>
        <time>2022-05-22T12:16:35.000Z</time>
      </trkpt>
      <trkpt lat="44.91024" lon="1.62289">
        <ele>147.80000305176</ele>
        <time>2022-05-22T12:16:37.000Z</time>
      </trkpt>
      <trkpt lat="44.91015" lon="1.62272">
        <ele>147.39999389648</ele>
        <time>2022-05-22T12:16:40.000Z</time>
      </trkpt>
      <trkpt lat="44.91012" lon="1.62265">
        <ele>147.39999389648</ele>
        <time>2022-05-22T12:16:41.000Z</time>
      </trkpt>
      <trkpt lat="44.91009" lon="1.62256">
        <ele>147.39999389648</ele>
        <time>2022-05-22T12:16:42.000Z</time>
      </trkpt>
      <trkpt lat="44.91004" lon="1.62244">
        <ele>147.39999389648</ele>
        <time>2022-05-22T12:16:44.000Z</time>
      </trkpt>
      <trkpt lat="44.90999" lon="1.62239">
        <ele>147.39999389648</ele>
        <time>2022-05-22T12:16:45.000Z</time>
      </trkpt>
      <trkpt lat="44.90985" lon="1.62216">
        <ele>147.60000610352</ele>
        <time>2022-05-22T12:16:49.000Z</time>
      </trkpt>
      <trkpt lat="44.9098" lon="1.62204">
        <ele>147.60000610352</ele>
        <time>2022-05-22T12:16:51.000Z</time>
      </trkpt>
      <trkpt lat="44.90975" lon="1.62191">
        <ele>147.80000305176</ele>
        <time>2022-05-22T12:16:53.000Z</time>
      </trkpt>
      <trkpt lat="44.90967" lon="1.62168">
        <ele>147.80000305176</ele>
        <time>2022-05-22T12:16:56.000Z</time>
      </trkpt>
      <trkpt lat="44.90964" lon="1.62159">
        <ele>147.80000305176</ele>
        <time>2022-05-22T12:16:57.000Z</time>
      </trkpt>
      <trkpt lat="44.90961" lon="1.62142">
        <ele>147.80000305176</ele>
        <time>2022-05-22T12:16:59.000Z</time>
      </trkpt>
      <trkpt lat="44.90959" lon="1.62135">
        <ele>148</ele>
        <time>2022-05-22T12:17:00.000Z</time>
      </trkpt>
      <trkpt lat="44.90949" lon="1.62101">
        <ele>148.39999389648</ele>
        <time>2022-05-22T12:17:05.000Z</time>
      </trkpt>
      <trkpt lat="44.90947" lon="1.62094">
        <ele>148.39999389648</ele>
        <time>2022-05-22T12:17:06.000Z</time>
      </trkpt>
      <trkpt lat="44.90946" lon="1.62089">
        <ele>148.60000610352</ele>
        <time>2022-05-22T12:17:07.000Z</time>
      </trkpt>
      <trkpt lat="44.90945" lon="1.62077">
        <ele>149</ele>
        <time>2022-05-22T12:17:09.000Z</time>
      </trkpt>
      <trkpt lat="44.90943" lon="1.62071">
        <ele>149</ele>
        <time>2022-05-22T12:17:10.000Z</time>
      </trkpt>
      <trkpt lat="44.90938" lon="1.6205">
        <ele>149.60000610352</ele>
        <time>2022-05-22T12:17:14.000Z</time>
      </trkpt>
      <trkpt lat="44.90933" lon="1.62026">
        <ele>149.80000305176</ele>
        <time>2022-05-22T12:17:17.000Z</time>
      </trkpt>
      <trkpt lat="44.90932" lon="1.62019">
        <ele>150</ele>
        <time>2022-05-22T12:17:18.000Z</time>
      </trkpt>
      <trkpt lat="44.9093" lon="1.62013">
        <ele>150</ele>
        <time>2022-05-22T12:17:19.000Z</time>
      </trkpt>
      <trkpt lat="44.90925" lon="1.62005">
        <ele>150.19999694824</ele>
        <time>2022-05-22T12:17:21.000Z</time>
      </trkpt>
      <trkpt lat="44.90923" lon="1.62">
        <ele>150.19999694824</ele>
        <time>2022-05-22T12:17:22.000Z</time>
      </trkpt>
      <trkpt lat="44.90916" lon="1.61989">
        <ele>150.19999694824</ele>
        <time>2022-05-22T12:17:24.000Z</time>
      </trkpt>
      <trkpt lat="44.90898" lon="1.61954">
        <ele>150</ele>
        <time>2022-05-22T12:17:29.000Z</time>
      </trkpt>
      <trkpt lat="44.90891" lon="1.61941">
        <ele>149.60000610352</ele>
        <time>2022-05-22T12:17:31.000Z</time>
      </trkpt>
      <trkpt lat="44.90886" lon="1.61935">
        <ele>149.60000610352</ele>
        <time>2022-05-22T12:17:32.000Z</time>
      </trkpt>
      <trkpt lat="44.9088" lon="1.6193">
        <ele>149.60000610352</ele>
        <time>2022-05-22T12:17:33.000Z</time>
      </trkpt>
      <trkpt lat="44.9087" lon="1.61922">
        <ele>149.39999389648</ele>
        <time>2022-05-22T12:17:35.000Z</time>
      </trkpt>
      <trkpt lat="44.90866" lon="1.61917">
        <ele>149.39999389648</ele>
        <time>2022-05-22T12:17:36.000Z</time>
      </trkpt>
      <trkpt lat="44.9086" lon="1.61907">
        <ele>149.39999389648</ele>
        <time>2022-05-22T12:17:37.000Z</time>
      </trkpt>
      <trkpt lat="44.90849" lon="1.61891">
        <ele>149.19999694824</ele>
        <time>2022-05-22T12:17:39.000Z</time>
      </trkpt>
      <trkpt lat="44.90843" lon="1.61871">
        <ele>149.19999694824</ele>
        <time>2022-05-22T12:17:41.000Z</time>
      </trkpt>
      <trkpt lat="44.90838" lon="1.61851">
        <ele>149.19999694824</ele>
        <time>2022-05-22T12:17:43.000Z</time>
      </trkpt>
      <trkpt lat="44.90829" lon="1.61829">
        <ele>149.39999389648</ele>
        <time>2022-05-22T12:17:46.000Z</time>
      </trkpt>
      <trkpt lat="44.90819" lon="1.61809">
        <ele>149.39999389648</ele>
        <time>2022-05-22T12:17:49.000Z</time>
      </trkpt>
      <trkpt lat="44.90788" lon="1.61763">
        <ele>149.19999694824</ele>
        <time>2022-05-22T12:17:56.000Z</time>
      </trkpt>
      <trkpt lat="44.90775" lon="1.61741">
        <ele>149.19999694824</ele>
        <time>2022-05-22T12:17:59.000Z</time>
      </trkpt>
      <trkpt lat="44.90768" lon="1.61725">
        <ele>148.60000610352</ele>
        <time>2022-05-22T12:18:01.000Z</time>
      </trkpt>
      <trkpt lat="44.90757" lon="1.61703">
        <ele>148.19999694824</ele>
        <time>2022-05-22T12:18:04.000Z</time>
      </trkpt>
      <trkpt lat="44.90747" lon="1.61692">
        <ele>148</ele>
        <time>2022-05-22T12:18:06.000Z</time>
      </trkpt>
      <trkpt lat="44.90737" lon="1.61681">
        <ele>147.39999389648</ele>
        <time>2022-05-22T12:18:08.000Z</time>
      </trkpt>
      <trkpt lat="44.90733" lon="1.61676">
        <ele>147.19999694824</ele>
        <time>2022-05-22T12:18:09.000Z</time>
      </trkpt>
      <trkpt lat="44.90728" lon="1.61672">
        <ele>147</ele>
        <time>2022-05-22T12:18:10.000Z</time>
      </trkpt>
      <trkpt lat="44.90717" lon="1.61665">
        <ele>146.80000305176</ele>
        <time>2022-05-22T12:18:12.000Z</time>
      </trkpt>
      <trkpt lat="44.90698" lon="1.61648">
        <ele>147</ele>
        <time>2022-05-22T12:18:16.000Z</time>
      </trkpt>
      <trkpt lat="44.90694" lon="1.61644">
        <ele>147</ele>
        <time>2022-05-22T12:18:17.000Z</time>
      </trkpt>
      <trkpt lat="44.90681" lon="1.61628">
        <ele>146.80000305176</ele>
        <time>2022-05-22T12:18:20.000Z</time>
      </trkpt>
      <trkpt lat="44.90676" lon="1.61625">
        <ele>147</ele>
        <time>2022-05-22T12:18:21.000Z</time>
      </trkpt>
      <trkpt lat="44.90671" lon="1.61622">
        <ele>146.80000305176</ele>
        <time>2022-05-22T12:18:22.000Z</time>
      </trkpt>
      <trkpt lat="44.90654" lon="1.61609">
        <ele>146.60000610352</ele>
        <time>2022-05-22T12:18:25.000Z</time>
      </trkpt>
      <trkpt lat="44.90641" lon="1.61589">
        <ele>146.80000305176</ele>
        <time>2022-05-22T12:18:28.000Z</time>
      </trkpt>
      <trkpt lat="44.90638" lon="1.61581">
        <ele>146.80000305176</ele>
        <time>2022-05-22T12:18:29.000Z</time>
      </trkpt>
      <trkpt lat="44.90637" lon="1.61571">
        <ele>146.80000305176</ele>
        <time>2022-05-22T12:18:30.000Z</time>
      </trkpt>
      <trkpt lat="44.90633" lon="1.61555">
        <ele>146.80000305176</ele>
        <time>2022-05-22T12:18:32.000Z</time>
      </trkpt>
      <trkpt lat="44.90629" lon="1.61541">
        <ele>146.80000305176</ele>
        <time>2022-05-22T12:18:34.000Z</time>
      </trkpt>
      <trkpt lat="44.90626" lon="1.61534">
        <ele>147</ele>
        <time>2022-05-22T12:18:35.000Z</time>
      </trkpt>
      <trkpt lat="44.90607" lon="1.61489">
        <ele>147.39999389648</ele>
        <time>2022-05-22T12:18:42.000Z</time>
      </trkpt>
      <trkpt lat="44.90577" lon="1.61449">
        <ele>148.19999694824</ele>
        <time>2022-05-22T12:18:50.000Z</time>
      </trkpt>
      <trkpt lat="44.90547" lon="1.61414">
        <ele>148.19999694824</ele>
        <time>2022-05-22T12:18:58.000Z</time>
      </trkpt>
      <trkpt lat="44.90521" lon="1.61376">
        <ele>148.60000610352</ele>
        <time>2022-05-22T12:19:06.000Z</time>
      </trkpt>
      <trkpt lat="44.90505" lon="1.61352">
        <ele>149.39999389648</ele>
        <time>2022-05-22T12:19:12.000Z</time>
      </trkpt>
      <trkpt lat="44.9049" lon="1.61329">
        <ele>150.19999694824</ele>
        <time>2022-05-22T12:19:19.000Z</time>
      </trkpt>
      <trkpt lat="44.90486" lon="1.61323">
        <ele>150.80000305176</ele>
        <time>2022-05-22T12:19:21.000Z</time>
      </trkpt>
      <trkpt lat="44.90483" lon="1.61317">
        <ele>151.39999389648</ele>
        <time>2022-05-22T12:19:23.000Z</time>
      </trkpt>
      <trkpt lat="44.90475" lon="1.61305">
        <ele>152.39999389648</ele>
        <time>2022-05-22T12:19:28.000Z</time>
      </trkpt>
      <trkpt lat="44.90474" lon="1.61302">
        <ele>152.80000305176</ele>
        <time>2022-05-22T12:19:29.000Z</time>
      </trkpt>
      <trkpt lat="44.90468" lon="1.61287">
        <ele>153.80000305176</ele>
        <time>2022-05-22T12:19:35.000Z</time>
      </trkpt>
      <trkpt lat="44.90468" lon="1.61286">
        <ele>154</ele>
        <time>2022-05-22T12:19:36.000Z</time>
      </trkpt>
      <trkpt lat="44.90468" lon="1.61286">
        <ele>154.60000610352</ele>
        <time>2022-05-22T12:19:41.000Z</time>
      </trkpt>
      <trkpt lat="44.90468" lon="1.61286">
        <ele>154.80000305176</ele>
        <time>2022-05-22T12:19:46.000Z</time>
      </trkpt>
      <trkpt lat="44.90468" lon="1.61286">
        <ele>154.80000305176</ele>
        <time>2022-05-22T12:19:50.000Z</time>
      </trkpt>
      <trkpt lat="44.90463" lon="1.6128">
        <ele>154.80000305176</ele>
        <time>2022-05-22T12:20:08.000Z</time>
      </trkpt>
      <trkpt lat="44.90459" lon="1.61274">
        <ele>155</ele>
        <time>2022-05-22T12:20:10.000Z</time>
      </trkpt>
      <trkpt lat="44.90456" lon="1.61268">
        <ele>155.19999694824</ele>
        <time>2022-05-22T12:20:12.000Z</time>
      </trkpt>
      <trkpt lat="44.90451" lon="1.61258">
        <ele>155.60000610352</ele>
        <time>2022-05-22T12:20:15.000Z</time>
      </trkpt>
      <trkpt lat="44.90448" lon="1.61248">
        <ele>156.39999389648</ele>
        <time>2022-05-22T12:20:18.000Z</time>
      </trkpt>
      <trkpt lat="44.90448" lon="1.61244">
        <ele>156.60000610352</ele>
        <time>2022-05-22T12:20:19.000Z</time>
      </trkpt>
      <trkpt lat="44.90439" lon="1.61224">
        <ele>157.80000305176</ele>
        <time>2022-05-22T12:20:24.000Z</time>
      </trkpt>
      <trkpt lat="44.90437" lon="1.61222">
        <ele>158</ele>
        <time>2022-05-22T12:20:25.000Z</time>
      </trkpt>
      <trkpt lat="44.90426" lon="1.61218">
        <ele>158.80000305176</ele>
        <time>2022-05-22T12:20:28.000Z</time>
      </trkpt>
      <trkpt lat="44.9042" lon="1.61216">
        <ele>159</ele>
        <time>2022-05-22T12:20:30.000Z</time>
      </trkpt>
      <trkpt lat="44.90411" lon="1.61211">
        <ele>159.80000305176</ele>
        <time>2022-05-22T12:20:33.000Z</time>
      </trkpt>
      <trkpt lat="44.90403" lon="1.61204">
        <ele>160.80000305176</ele>
        <time>2022-05-22T12:20:36.000Z</time>
      </trkpt>
      <trkpt lat="44.90389" lon="1.61194">
        <ele>162</ele>
        <time>2022-05-22T12:20:41.000Z</time>
      </trkpt>
      <trkpt lat="44.90385" lon="1.61194">
        <ele>162.19999694824</ele>
        <time>2022-05-22T12:20:42.000Z</time>
      </trkpt>
      <trkpt lat="44.90376" lon="1.61198">
        <ele>163.19999694824</ele>
        <time>2022-05-22T12:20:45.000Z</time>
      </trkpt>
      <trkpt lat="44.9037" lon="1.612">
        <ele>163.60000610352</ele>
        <time>2022-05-22T12:20:47.000Z</time>
      </trkpt>
      <trkpt lat="44.90361" lon="1.61199">
        <ele>164.19999694824</ele>
        <time>2022-05-22T12:20:50.000Z</time>
      </trkpt>
      <trkpt lat="44.90355" lon="1.61196">
        <ele>164.60000610352</ele>
        <time>2022-05-22T12:20:52.000Z</time>
      </trkpt>
      <trkpt lat="44.90347" lon="1.61189">
        <ele>165.19999694824</ele>
        <time>2022-05-22T12:20:55.000Z</time>
      </trkpt>
      <trkpt lat="44.90339" lon="1.61183">
        <ele>166.39999389648</ele>
        <time>2022-05-22T12:20:58.000Z</time>
      </trkpt>
      <trkpt lat="44.90321" lon="1.61172">
        <ele>167.60000610352</ele>
        <time>2022-05-22T12:21:04.000Z</time>
      </trkpt>
      <trkpt lat="44.90315" lon="1.61167">
        <ele>168</ele>
        <time>2022-05-22T12:21:06.000Z</time>
      </trkpt>
      <trkpt lat="44.90311" lon="1.61161">
        <ele>168.60000610352</ele>
        <time>2022-05-22T12:21:08.000Z</time>
      </trkpt>
      <trkpt lat="44.90306" lon="1.61156">
        <ele>169.19999694824</ele>
        <time>2022-05-22T12:21:10.000Z</time>
      </trkpt>
      <trkpt lat="44.90299" lon="1.61146">
        <ele>169.80000305176</ele>
        <time>2022-05-22T12:21:13.000Z</time>
      </trkpt>
      <trkpt lat="44.90292" lon="1.61138">
        <ele>170.80000305176</ele>
        <time>2022-05-22T12:21:16.000Z</time>
      </trkpt>
      <trkpt lat="44.90289" lon="1.61136">
        <ele>171.19999694824</ele>
        <time>2022-05-22T12:21:17.000Z</time>
      </trkpt>
      <trkpt lat="44.9028" lon="1.61128">
        <ele>172.19999694824</ele>
        <time>2022-05-22T12:21:21.000Z</time>
      </trkpt>
      <trkpt lat="44.90277" lon="1.61126">
        <ele>172.60000610352</ele>
        <time>2022-05-22T12:21:22.000Z</time>
      </trkpt>
      <trkpt lat="44.90267" lon="1.61119">
        <ele>173.19999694824</ele>
        <time>2022-05-22T12:21:26.000Z</time>
      </trkpt>
      <trkpt lat="44.90261" lon="1.61115">
        <ele>174</ele>
        <time>2022-05-22T12:21:29.000Z</time>
      </trkpt>
      <trkpt lat="44.90256" lon="1.61111">
        <ele>174.39999389648</ele>
        <time>2022-05-22T12:21:32.000Z</time>
      </trkpt>
      <trkpt lat="44.90246" lon="1.61103">
        <ele>175.39999389648</ele>
        <time>2022-05-22T12:21:37.000Z</time>
      </trkpt>
      <trkpt lat="44.90244" lon="1.61102">
        <ele>175.60000610352</ele>
        <time>2022-05-22T12:21:38.000Z</time>
      </trkpt>
      <trkpt lat="44.90232" lon="1.61091">
        <ele>176.80000305176</ele>
        <time>2022-05-22T12:21:45.000Z</time>
      </trkpt>
      <trkpt lat="44.90219" lon="1.61079">
        <ele>178</ele>
        <time>2022-05-22T12:21:52.000Z</time>
      </trkpt>
      <trkpt lat="44.90213" lon="1.61074">
        <ele>178.39999389648</ele>
        <time>2022-05-22T12:21:55.000Z</time>
      </trkpt>
      <trkpt lat="44.90208" lon="1.61069">
        <ele>179.19999694824</ele>
        <time>2022-05-22T12:21:58.000Z</time>
      </trkpt>
      <trkpt lat="44.90192" lon="1.61056">
        <ele>180.19999694824</ele>
        <time>2022-05-22T12:22:06.000Z</time>
      </trkpt>
      <trkpt lat="44.90188" lon="1.61053">
        <ele>180.80000305176</ele>
        <time>2022-05-22T12:22:08.000Z</time>
      </trkpt>
      <trkpt lat="44.90182" lon="1.61051">
        <ele>181.39999389648</ele>
        <time>2022-05-22T12:22:11.000Z</time>
      </trkpt>
      <trkpt lat="44.90171" lon="1.61047">
        <ele>182.19999694824</ele>
        <time>2022-05-22T12:22:16.000Z</time>
      </trkpt>
      <trkpt lat="44.90169" lon="1.61046">
        <ele>182.39999389648</ele>
        <time>2022-05-22T12:22:17.000Z</time>
      </trkpt>
      <trkpt lat="44.90152" lon="1.61033">
        <ele>183.60000610352</ele>
        <time>2022-05-22T12:22:24.000Z</time>
      </trkpt>
      <trkpt lat="44.90136" lon="1.61015">
        <ele>183.80000305176</ele>
        <time>2022-05-22T12:22:31.000Z</time>
      </trkpt>
      <trkpt lat="44.90135" lon="1.61012">
        <ele>183.80000305176</ele>
        <time>2022-05-22T12:22:32.000Z</time>
      </trkpt>
      <trkpt lat="44.90136" lon="1.61007">
        <ele>183.80000305176</ele>
        <time>2022-05-22T12:22:34.000Z</time>
      </trkpt>
      <trkpt lat="44.90138" lon="1.61006">
        <ele>183.80000305176</ele>
        <time>2022-05-22T12:22:35.000Z</time>
      </trkpt>
      <trkpt lat="44.90141" lon="1.61009">
        <ele>184.39999389648</ele>
        <time>2022-05-22T12:22:37.000Z</time>
      </trkpt>
      <trkpt lat="44.90153" lon="1.61021">
        <ele>184.80000305176</ele>
        <time>2022-05-22T12:22:43.000Z</time>
      </trkpt>
      <trkpt lat="44.90164" lon="1.61026">
        <ele>186.19999694824</ele>
        <time>2022-05-22T12:22:48.000Z</time>
      </trkpt>
      <trkpt lat="44.90167" lon="1.61026">
        <ele>186.39999389648</ele>
        <time>2022-05-22T12:22:49.000Z</time>
      </trkpt>
      <trkpt lat="44.90175" lon="1.61024">
        <ele>188</ele>
        <time>2022-05-22T12:22:52.000Z</time>
      </trkpt>
      <trkpt lat="44.90181" lon="1.61026">
        <ele>189.19999694824</ele>
        <time>2022-05-22T12:22:54.000Z</time>
      </trkpt>
      <trkpt lat="44.90188" lon="1.61024">
        <ele>190.60000610352</ele>
        <time>2022-05-22T12:22:57.000Z</time>
      </trkpt>
      <trkpt lat="44.90194" lon="1.61022">
        <ele>192.19999694824</ele>
        <time>2022-05-22T12:23:00.000Z</time>
      </trkpt>
      <trkpt lat="44.90201" lon="1.61018">
        <ele>193.19999694824</ele>
        <time>2022-05-22T12:23:04.000Z</time>
      </trkpt>
      <trkpt lat="44.90208" lon="1.61015">
        <ele>193.80000305176</ele>
        <time>2022-05-22T12:23:07.000Z</time>
      </trkpt>
      <trkpt lat="44.90216" lon="1.61013">
        <ele>194.39999389648</ele>
        <time>2022-05-22T12:23:10.000Z</time>
      </trkpt>
      <trkpt lat="44.90226" lon="1.61013">
        <ele>195</ele>
        <time>2022-05-22T12:23:14.000Z</time>
      </trkpt>
      <trkpt lat="44.9023" lon="1.61014">
        <ele>195.80000305176</ele>
        <time>2022-05-22T12:23:16.000Z</time>
      </trkpt>
      <trkpt lat="44.90238" lon="1.61015">
        <ele>197</ele>
        <time>2022-05-22T12:23:19.000Z</time>
      </trkpt>
      <trkpt lat="44.90245" lon="1.61016">
        <ele>198.19999694824</ele>
        <time>2022-05-22T12:23:22.000Z</time>
      </trkpt>
      <trkpt lat="44.90248" lon="1.61017">
        <ele>198.39999389648</ele>
        <time>2022-05-22T12:23:23.000Z</time>
      </trkpt>
      <trkpt lat="44.90255" lon="1.61019">
        <ele>199.19999694824</ele>
        <time>2022-05-22T12:23:26.000Z</time>
      </trkpt>
      <trkpt lat="44.90265" lon="1.61024">
        <ele>200.39999389648</ele>
        <time>2022-05-22T12:23:31.000Z</time>
      </trkpt>
      <trkpt lat="44.90274" lon="1.61029">
        <ele>201.80000305176</ele>
        <time>2022-05-22T12:23:35.000Z</time>
      </trkpt>
      <trkpt lat="44.90279" lon="1.61032">
        <ele>202.60000610352</ele>
        <time>2022-05-22T12:23:37.000Z</time>
      </trkpt>
      <trkpt lat="44.90281" lon="1.61034">
        <ele>203</ele>
        <time>2022-05-22T12:23:38.000Z</time>
      </trkpt>
      <trkpt lat="44.90292" lon="1.61041">
        <ele>204</ele>
        <time>2022-05-22T12:23:43.000Z</time>
      </trkpt>
      <trkpt lat="44.90294" lon="1.61042">
        <ele>204.39999389648</ele>
        <time>2022-05-22T12:23:44.000Z</time>
      </trkpt>
      <trkpt lat="44.90299" lon="1.61044">
        <ele>205.19999694824</ele>
        <time>2022-05-22T12:23:46.000Z</time>
      </trkpt>
      <trkpt lat="44.90309" lon="1.61048">
        <ele>206.19999694824</ele>
        <time>2022-05-22T12:23:50.000Z</time>
      </trkpt>
      <trkpt lat="44.90312" lon="1.61049">
        <ele>206.19999694824</ele>
        <time>2022-05-22T12:23:51.000Z</time>
      </trkpt>
      <trkpt lat="44.9032" lon="1.61052">
        <ele>207.60000610352</ele>
        <time>2022-05-22T12:23:55.000Z</time>
      </trkpt>
      <trkpt lat="44.90324" lon="1.61053">
        <ele>208</ele>
        <time>2022-05-22T12:23:57.000Z</time>
      </trkpt>
      <trkpt lat="44.90331" lon="1.61056">
        <ele>208.80000305176</ele>
        <time>2022-05-22T12:24:00.000Z</time>
      </trkpt>
      <trkpt lat="44.9034" lon="1.61059">
        <ele>210</ele>
        <time>2022-05-22T12:24:04.000Z</time>
      </trkpt>
      <trkpt lat="44.90346" lon="1.61061">
        <ele>211.19999694824</ele>
        <time>2022-05-22T12:24:07.000Z</time>
      </trkpt>
      <trkpt lat="44.90349" lon="1.61061">
        <ele>211.19999694824</ele>
        <time>2022-05-22T12:24:08.000Z</time>
      </trkpt>
      <trkpt lat="44.90358" lon="1.61063">
        <ele>212.39999389648</ele>
        <time>2022-05-22T12:24:12.000Z</time>
      </trkpt>
      <trkpt lat="44.90364" lon="1.61064">
        <ele>213</ele>
        <time>2022-05-22T12:24:15.000Z</time>
      </trkpt>
      <trkpt lat="44.90368" lon="1.61064">
        <ele>213.60000610352</ele>
        <time>2022-05-22T12:24:17.000Z</time>
      </trkpt>
      <trkpt lat="44.9037" lon="1.61064">
        <ele>213.80000305176</ele>
        <time>2022-05-22T12:24:18.000Z</time>
      </trkpt>
      <trkpt lat="44.90373" lon="1.61064">
        <ele>214.39999389648</ele>
        <time>2022-05-22T12:24:20.000Z</time>
      </trkpt>
      <trkpt lat="44.90375" lon="1.61065">
        <ele>214.80000305176</ele>
        <time>2022-05-22T12:24:21.000Z</time>
      </trkpt>
      <trkpt lat="44.90384" lon="1.61065">
        <ele>215.39999389648</ele>
        <time>2022-05-22T12:24:25.000Z</time>
      </trkpt>
      <trkpt lat="44.90388" lon="1.61065">
        <ele>215.80000305176</ele>
        <time>2022-05-22T12:24:27.000Z</time>
      </trkpt>
      <trkpt lat="44.90396" lon="1.61068">
        <ele>217</ele>
        <time>2022-05-22T12:24:31.000Z</time>
      </trkpt>
      <trkpt lat="44.904" lon="1.61069">
        <ele>217.39999389648</ele>
        <time>2022-05-22T12:24:33.000Z</time>
      </trkpt>
      <trkpt lat="44.90405" lon="1.61069">
        <ele>218</ele>
        <time>2022-05-22T12:24:35.000Z</time>
      </trkpt>
      <trkpt lat="44.90414" lon="1.61066">
        <ele>219.19999694824</ele>
        <time>2022-05-22T12:24:39.000Z</time>
      </trkpt>
      <trkpt lat="44.90427" lon="1.61063">
        <ele>220.19999694824</ele>
        <time>2022-05-22T12:24:44.000Z</time>
      </trkpt>
      <trkpt lat="44.90432" lon="1.61063">
        <ele>220.39999389648</ele>
        <time>2022-05-22T12:24:46.000Z</time>
      </trkpt>
      <trkpt lat="44.90442" lon="1.61063">
        <ele>221.39999389648</ele>
        <time>2022-05-22T12:24:50.000Z</time>
      </trkpt>
      <trkpt lat="44.90451" lon="1.61063">
        <ele>222</ele>
        <time>2022-05-22T12:24:54.000Z</time>
      </trkpt>
      <trkpt lat="44.90459" lon="1.61063">
        <ele>222.60000610352</ele>
        <time>2022-05-22T12:24:57.000Z</time>
      </trkpt>
      <trkpt lat="44.90467" lon="1.61058">
        <ele>223.39999389648</ele>
        <time>2022-05-22T12:25:01.000Z</time>
      </trkpt>
      <trkpt lat="44.90474" lon="1.61058">
        <ele>223.80000305176</ele>
        <time>2022-05-22T12:25:04.000Z</time>
      </trkpt>
      <trkpt lat="44.90481" lon="1.61058">
        <ele>224.39999389648</ele>
        <time>2022-05-22T12:25:07.000Z</time>
      </trkpt>
      <trkpt lat="44.9049" lon="1.6106">
        <ele>225</ele>
        <time>2022-05-22T12:25:11.000Z</time>
      </trkpt>
      <trkpt lat="44.90497" lon="1.6106">
        <ele>226.19999694824</ele>
        <time>2022-05-22T12:25:14.000Z</time>
      </trkpt>
      <trkpt lat="44.90507" lon="1.6106">
        <ele>227.19999694824</ele>
        <time>2022-05-22T12:25:18.000Z</time>
      </trkpt>
      <trkpt lat="44.90512" lon="1.61062">
        <ele>227.39999389648</ele>
        <time>2022-05-22T12:25:20.000Z</time>
      </trkpt>
      <trkpt lat="44.90528" lon="1.61066">
        <ele>228.39999389648</ele>
        <time>2022-05-22T12:25:26.000Z</time>
      </trkpt>
      <trkpt lat="44.9053" lon="1.61066">
        <ele>228.39999389648</ele>
        <time>2022-05-22T12:25:27.000Z</time>
      </trkpt>
      <trkpt lat="44.90541" lon="1.61068">
        <ele>229.39999389648</ele>
        <time>2022-05-22T12:25:31.000Z</time>
      </trkpt>
      <trkpt lat="44.90549" lon="1.61069">
        <ele>229.39999389648</ele>
        <time>2022-05-22T12:25:34.000Z</time>
      </trkpt>
      <trkpt lat="44.90567" lon="1.61073">
        <ele>230.39999389648</ele>
        <time>2022-05-22T12:25:41.000Z</time>
      </trkpt>
      <trkpt lat="44.90572" lon="1.61074">
        <ele>230.60000610352</ele>
        <time>2022-05-22T12:25:43.000Z</time>
      </trkpt>
      <trkpt lat="44.90593" lon="1.61074">
        <ele>231.80000305176</ele>
        <time>2022-05-22T12:25:51.000Z</time>
      </trkpt>
      <trkpt lat="44.90612" lon="1.61073">
        <ele>232.80000305176</ele>
        <time>2022-05-22T12:25:58.000Z</time>
      </trkpt>
      <trkpt lat="44.90617" lon="1.61073">
        <ele>233.19999694824</ele>
        <time>2022-05-22T12:26:00.000Z</time>
      </trkpt>
      <trkpt lat="44.90628" lon="1.61073">
        <ele>234.19999694824</ele>
        <time>2022-05-22T12:26:04.000Z</time>
      </trkpt>
      <trkpt lat="44.90642" lon="1.61074">
        <ele>235.19999694824</ele>
        <time>2022-05-22T12:26:09.000Z</time>
      </trkpt>
      <trkpt lat="44.90645" lon="1.61074">
        <ele>235.39999389648</ele>
        <time>2022-05-22T12:26:10.000Z</time>
      </trkpt>
      <trkpt lat="44.90658" lon="1.61077">
        <ele>236</ele>
        <time>2022-05-22T12:26:16.000Z</time>
      </trkpt>
      <trkpt lat="44.90658" lon="1.61077">
        <ele>236</ele>
        <time>2022-05-22T12:26:29.000Z</time>
      </trkpt>
      <trkpt lat="44.90658" lon="1.61077">
        <ele>235.80000305176</ele>
        <time>2022-05-22T12:26:38.000Z</time>
      </trkpt>
      <trkpt lat="44.90658" lon="1.61077">
        <ele>235.60000610352</ele>
        <time>2022-05-22T12:26:50.000Z</time>
      </trkpt>
      <trkpt lat="44.90658" lon="1.61077">
        <ele>235.60000610352</ele>
        <time>2022-05-22T12:27:06.000Z</time>
      </trkpt>
      <trkpt lat="44.90658" lon="1.61077">
        <ele>235.60000610352</ele>
        <time>2022-05-22T12:27:07.000Z</time>
      </trkpt>
      <trkpt lat="44.90658" lon="1.61077">
        <ele>235.60000610352</ele>
        <time>2022-05-22T12:27:09.000Z</time>
      </trkpt>
      <trkpt lat="44.90658" lon="1.61077">
        <ele>235.80000305176</ele>
        <time>2022-05-22T12:27:12.000Z</time>
      </trkpt>
      <trkpt lat="44.90658" lon="1.61077">
        <ele>236</ele>
        <time>2022-05-22T12:27:18.000Z</time>
      </trkpt>
      <trkpt lat="44.90667" lon="1.61081">
        <ele>236.19999694824</ele>
        <time>2022-05-22T12:27:24.000Z</time>
      </trkpt>
      <trkpt lat="44.90674" lon="1.61084">
        <ele>236.39999389648</ele>
        <time>2022-05-22T12:27:26.000Z</time>
      </trkpt>
      <trkpt lat="44.90692" lon="1.61092">
        <ele>237.39999389648</ele>
        <time>2022-05-22T12:27:31.000Z</time>
      </trkpt>
      <trkpt lat="44.90695" lon="1.61094">
        <ele>237.39999389648</ele>
        <time>2022-05-22T12:27:32.000Z</time>
      </trkpt>
      <trkpt lat="44.90706" lon="1.61101">
        <ele>238.60000610352</ele>
        <time>2022-05-22T12:27:36.000Z</time>
      </trkpt>
      <trkpt lat="44.90714" lon="1.61105">
        <ele>239.39999389648</ele>
        <time>2022-05-22T12:27:39.000Z</time>
      </trkpt>
      <trkpt lat="44.90715" lon="1.61106">
        <ele>239.60000610352</ele>
        <time>2022-05-22T12:27:40.000Z</time>
      </trkpt>
      <trkpt lat="44.90726" lon="1.61113">
        <ele>240.60000610352</ele>
        <time>2022-05-22T12:27:45.000Z</time>
      </trkpt>
      <trkpt lat="44.90731" lon="1.61115">
        <ele>241.19999694824</ele>
        <time>2022-05-22T12:27:47.000Z</time>
      </trkpt>
      <trkpt lat="44.90737" lon="1.61119">
        <ele>241.80000305176</ele>
        <time>2022-05-22T12:27:49.000Z</time>
      </trkpt>
      <trkpt lat="44.90741" lon="1.61121">
        <ele>242.19999694824</ele>
        <time>2022-05-22T12:27:52.000Z</time>
      </trkpt>
      <trkpt lat="44.90748" lon="1.61126">
        <ele>242.80000305176</ele>
        <time>2022-05-22T12:27:56.000Z</time>
      </trkpt>
      <trkpt lat="44.9075" lon="1.61128">
        <ele>242.80000305176</ele>
        <time>2022-05-22T12:27:57.000Z</time>
      </trkpt>
      <trkpt lat="44.90765" lon="1.61134">
        <ele>244</ele>
        <time>2022-05-22T12:28:02.000Z</time>
      </trkpt>
      <trkpt lat="44.90768" lon="1.61135">
        <ele>244</ele>
        <time>2022-05-22T12:28:03.000Z</time>
      </trkpt>
      <trkpt lat="44.90776" lon="1.61139">
        <ele>245</ele>
        <time>2022-05-22T12:28:06.000Z</time>
      </trkpt>
      <trkpt lat="44.90788" lon="1.61151">
        <ele>245.80000305176</ele>
        <time>2022-05-22T12:28:10.000Z</time>
      </trkpt>
      <trkpt lat="44.90788" lon="1.61151">
        <ele>246</ele>
        <time>2022-05-22T12:28:11.000Z</time>
      </trkpt>
      <trkpt lat="44.90807" lon="1.61174">
        <ele>246.60000610352</ele>
        <time>2022-05-22T12:28:18.000Z</time>
      </trkpt>
      <trkpt lat="44.90819" lon="1.61191">
        <ele>247</ele>
        <time>2022-05-22T12:28:25.000Z</time>
      </trkpt>
      <trkpt lat="44.90846" lon="1.6121">
        <ele>246.80000305176</ele>
        <time>2022-05-22T12:28:34.000Z</time>
      </trkpt>
      <trkpt lat="44.90867" lon="1.61223">
        <ele>246.39999389648</ele>
        <time>2022-05-22T12:28:40.000Z</time>
      </trkpt>
      <trkpt lat="44.90873" lon="1.61226">
        <ele>246.19999694824</ele>
        <time>2022-05-22T12:28:41.000Z</time>
      </trkpt>
      <trkpt lat="44.90905" lon="1.61246">
        <ele>245.19999694824</ele>
        <time>2022-05-22T12:28:46.000Z</time>
      </trkpt>
      <trkpt lat="44.90919" lon="1.61252">
        <ele>245</ele>
        <time>2022-05-22T12:28:47.000Z</time>
      </trkpt>
      <trkpt lat="44.9094" lon="1.61259">
        <ele>244</ele>
        <time>2022-05-22T12:28:50.000Z</time>
      </trkpt>
      <trkpt lat="44.9094" lon="1.61259">
        <ele>243.80000305176</ele>
        <time>2022-05-22T12:28:51.000Z</time>
      </trkpt>
      <trkpt lat="44.90972" lon="1.61266">
        <ele>243.19999694824</ele>
        <time>2022-05-22T12:28:55.000Z</time>
      </trkpt>
      <trkpt lat="44.90984" lon="1.61268">
        <ele>242.80000305176</ele>
        <time>2022-05-22T12:28:57.000Z</time>
      </trkpt>
      <trkpt lat="44.90989" lon="1.61269">
        <ele>242.80000305176</ele>
        <time>2022-05-22T12:28:58.000Z</time>
      </trkpt>
      <trkpt lat="44.91008" lon="1.61269">
        <ele>242.60000610352</ele>
        <time>2022-05-22T12:29:03.000Z</time>
      </trkpt>
      <trkpt lat="44.91036" lon="1.61266">
        <ele>243.19999694824</ele>
        <time>2022-05-22T12:29:11.000Z</time>
      </trkpt>
      <trkpt lat="44.91046" lon="1.61266">
        <ele>244</ele>
        <time>2022-05-22T12:29:14.000Z</time>
      </trkpt>
      <trkpt lat="44.91052" lon="1.61266">
        <ele>245.19999694824</ele>
        <time>2022-05-22T12:29:17.000Z</time>
      </trkpt>
      <trkpt lat="44.9107" lon="1.61268">
        <ele>245.80000305176</ele>
        <time>2022-05-22T12:29:22.000Z</time>
      </trkpt>
      <trkpt lat="44.9108" lon="1.61269">
        <ele>246.19999694824</ele>
        <time>2022-05-22T12:29:25.000Z</time>
      </trkpt>
      <trkpt lat="44.9109" lon="1.61269">
        <ele>247.19999694824</ele>
        <time>2022-05-22T12:29:29.000Z</time>
      </trkpt>
      <trkpt lat="44.91096" lon="1.61267">
        <ele>247.80000305176</ele>
        <time>2022-05-22T12:29:31.000Z</time>
      </trkpt>
      <trkpt lat="44.91105" lon="1.61263">
        <ele>248.60000610352</ele>
        <time>2022-05-22T12:29:34.000Z</time>
      </trkpt>
      <trkpt lat="44.91118" lon="1.61258">
        <ele>249.19999694824</ele>
        <time>2022-05-22T12:29:39.000Z</time>
      </trkpt>
      <trkpt lat="44.91138" lon="1.61257">
        <ele>250</ele>
        <time>2022-05-22T12:29:46.000Z</time>
      </trkpt>
      <trkpt lat="44.91149" lon="1.61258">
        <ele>250.19999694824</ele>
        <time>2022-05-22T12:29:48.000Z</time>
      </trkpt>
      <trkpt lat="44.91165" lon="1.6126">
        <ele>251</ele>
        <time>2022-05-22T12:29:53.000Z</time>
      </trkpt>
      <trkpt lat="44.91184" lon="1.6126">
        <ele>251.60000610352</ele>
        <time>2022-05-22T12:29:58.000Z</time>
      </trkpt>
      <trkpt lat="44.91213" lon="1.61262">
        <ele>251.39999389648</ele>
        <time>2022-05-22T12:30:05.000Z</time>
      </trkpt>
      <trkpt lat="44.91249" lon="1.61265">
        <ele>250.39999389648</ele>
        <time>2022-05-22T12:30:13.000Z</time>
      </trkpt>
      <trkpt lat="44.91258" lon="1.61265">
        <ele>250</ele>
        <time>2022-05-22T12:30:16.000Z</time>
      </trkpt>
      <trkpt lat="44.91282" lon="1.61262">
        <ele>249.60000610352</ele>
        <time>2022-05-22T12:30:21.000Z</time>
      </trkpt>
      <trkpt lat="44.91321" lon="1.61254">
        <ele>250.19999694824</ele>
        <time>2022-05-22T12:30:31.000Z</time>
      </trkpt>
      <trkpt lat="44.91339" lon="1.61252">
        <ele>251.19999694824</ele>
        <time>2022-05-22T12:30:36.000Z</time>
      </trkpt>
      <trkpt lat="44.91345" lon="1.61251">
        <ele>251.39999389648</ele>
        <time>2022-05-22T12:30:38.000Z</time>
      </trkpt>
      <trkpt lat="44.91362" lon="1.61247">
        <ele>252.19999694824</ele>
        <time>2022-05-22T12:30:43.000Z</time>
      </trkpt>
      <trkpt lat="44.91376" lon="1.61242">
        <ele>253.19999694824</ele>
        <time>2022-05-22T12:30:47.000Z</time>
      </trkpt>
      <trkpt lat="44.91386" lon="1.61238">
        <ele>254.60000610352</ele>
        <time>2022-05-22T12:30:50.000Z</time>
      </trkpt>
      <trkpt lat="44.91406" lon="1.61228">
        <ele>255.39999389648</ele>
        <time>2022-05-22T12:30:56.000Z</time>
      </trkpt>
      <trkpt lat="44.91409" lon="1.61227">
        <ele>255.80000305176</ele>
        <time>2022-05-22T12:30:57.000Z</time>
      </trkpt>
      <trkpt lat="44.91422" lon="1.61224">
        <ele>256.79998779297</ele>
        <time>2022-05-22T12:31:01.000Z</time>
      </trkpt>
      <trkpt lat="44.91435" lon="1.61221">
        <ele>257.79998779297</ele>
        <time>2022-05-22T12:31:05.000Z</time>
      </trkpt>
      <trkpt lat="44.9145" lon="1.61219">
        <ele>259</ele>
        <time>2022-05-22T12:31:10.000Z</time>
      </trkpt>
      <trkpt lat="44.91468" lon="1.61216">
        <ele>260.20001220703</ele>
        <time>2022-05-22T12:31:16.000Z</time>
      </trkpt>
      <trkpt lat="44.91487" lon="1.61211">
        <ele>261.39999389648</ele>
        <time>2022-05-22T12:31:22.000Z</time>
      </trkpt>
      <trkpt lat="44.91491" lon="1.61211">
        <ele>261.60000610352</ele>
        <time>2022-05-22T12:31:23.000Z</time>
      </trkpt>
      <trkpt lat="44.91508" lon="1.61206">
        <ele>262.79998779297</ele>
        <time>2022-05-22T12:31:29.000Z</time>
      </trkpt>
      <trkpt lat="44.91513" lon="1.61205">
        <ele>263.20001220703</ele>
        <time>2022-05-22T12:31:31.000Z</time>
      </trkpt>
      <trkpt lat="44.91526" lon="1.61203">
        <ele>264</ele>
        <time>2022-05-22T12:31:36.000Z</time>
      </trkpt>
      <trkpt lat="44.91536" lon="1.61201">
        <ele>264.79998779297</ele>
        <time>2022-05-22T12:31:40.000Z</time>
      </trkpt>
      <trkpt lat="44.91541" lon="1.612">
        <ele>265.20001220703</ele>
        <time>2022-05-22T12:31:42.000Z</time>
      </trkpt>
      <trkpt lat="44.91551" lon="1.61197">
        <ele>266.39999389648</ele>
        <time>2022-05-22T12:31:46.000Z</time>
      </trkpt>
      <trkpt lat="44.9156" lon="1.61196">
        <ele>266.60000610352</ele>
        <time>2022-05-22T12:31:49.000Z</time>
      </trkpt>
      <trkpt lat="44.91574" lon="1.61194">
        <ele>267.39999389648</ele>
        <time>2022-05-22T12:31:54.000Z</time>
      </trkpt>
      <trkpt lat="44.9158" lon="1.61194">
        <ele>267.60000610352</ele>
        <time>2022-05-22T12:31:56.000Z</time>
      </trkpt>
      <trkpt lat="44.91594" lon="1.61192">
        <ele>268.60000610352</ele>
        <time>2022-05-22T12:32:01.000Z</time>
      </trkpt>
      <trkpt lat="44.91603" lon="1.61193">
        <ele>269.60000610352</ele>
        <time>2022-05-22T12:32:04.000Z</time>
      </trkpt>
      <trkpt lat="44.91609" lon="1.61193">
        <ele>270.20001220703</ele>
        <time>2022-05-22T12:32:06.000Z</time>
      </trkpt>
      <trkpt lat="44.91618" lon="1.61193">
        <ele>270.79998779297</ele>
        <time>2022-05-22T12:32:09.000Z</time>
      </trkpt>
      <trkpt lat="44.91634" lon="1.6119">
        <ele>271.79998779297</ele>
        <time>2022-05-22T12:32:14.000Z</time>
      </trkpt>
      <trkpt lat="44.91648" lon="1.61186">
        <ele>273</ele>
        <time>2022-05-22T12:32:19.000Z</time>
      </trkpt>
      <trkpt lat="44.91661" lon="1.61185">
        <ele>274</ele>
        <time>2022-05-22T12:32:23.000Z</time>
      </trkpt>
      <trkpt lat="44.91665" lon="1.61185">
        <ele>274.20001220703</ele>
        <time>2022-05-22T12:32:24.000Z</time>
      </trkpt>
      <trkpt lat="44.91685" lon="1.61185">
        <ele>274.79998779297</ele>
        <time>2022-05-22T12:32:30.000Z</time>
      </trkpt>
      <trkpt lat="44.917" lon="1.61184">
        <ele>275.39999389648</ele>
        <time>2022-05-22T12:32:35.000Z</time>
      </trkpt>
      <trkpt lat="44.91713" lon="1.61182">
        <ele>276</ele>
        <time>2022-05-22T12:32:39.000Z</time>
      </trkpt>
      <trkpt lat="44.91723" lon="1.61181">
        <ele>276.39999389648</ele>
        <time>2022-05-22T12:32:42.000Z</time>
      </trkpt>
      <trkpt lat="44.91735" lon="1.61181">
        <ele>276.79998779297</ele>
        <time>2022-05-22T12:32:46.000Z</time>
      </trkpt>
      <trkpt lat="44.9176" lon="1.61179">
        <ele>277.20001220703</ele>
        <time>2022-05-22T12:32:55.000Z</time>
      </trkpt>
      <trkpt lat="44.91787" lon="1.61173">
        <ele>277.39999389648</ele>
        <time>2022-05-22T12:33:04.000Z</time>
      </trkpt>
      <trkpt lat="44.91793" lon="1.61172">
        <ele>277.39999389648</ele>
        <time>2022-05-22T12:33:06.000Z</time>
      </trkpt>
      <trkpt lat="44.91809" lon="1.61166">
        <ele>278.20001220703</ele>
        <time>2022-05-22T12:33:12.000Z</time>
      </trkpt>
      <trkpt lat="44.91818" lon="1.61162">
        <ele>278.60000610352</ele>
        <time>2022-05-22T12:33:15.000Z</time>
      </trkpt>
      <trkpt lat="44.91833" lon="1.61155">
        <ele>279.60000610352</ele>
        <time>2022-05-22T12:33:21.000Z</time>
      </trkpt>
      <trkpt lat="44.91839" lon="1.61152">
        <ele>280</ele>
        <time>2022-05-22T12:33:22.000Z</time>
      </trkpt>
      <trkpt lat="44.91852" lon="1.61147">
        <ele>281.39999389648</ele>
        <time>2022-05-22T12:33:27.000Z</time>
      </trkpt>
      <trkpt lat="44.91858" lon="1.61146">
        <ele>281.39999389648</ele>
        <time>2022-05-22T12:33:28.000Z</time>
      </trkpt>
      <trkpt lat="44.91867" lon="1.61143">
        <ele>282.60000610352</ele>
        <time>2022-05-22T12:33:31.000Z</time>
      </trkpt>
      <trkpt lat="44.9188" lon="1.6114">
        <ele>283.39999389648</ele>
        <time>2022-05-22T12:33:35.000Z</time>
      </trkpt>
      <trkpt lat="44.91891" lon="1.61136">
        <ele>283.60000610352</ele>
        <time>2022-05-22T12:33:38.000Z</time>
      </trkpt>
      <trkpt lat="44.91908" lon="1.61129">
        <ele>284.79998779297</ele>
        <time>2022-05-22T12:33:43.000Z</time>
      </trkpt>
      <trkpt lat="44.91935" lon="1.61108">
        <ele>285.79998779297</ele>
        <time>2022-05-22T12:33:51.000Z</time>
      </trkpt>
      <trkpt lat="44.91938" lon="1.61106">
        <ele>285.79998779297</ele>
        <time>2022-05-22T12:33:52.000Z</time>
      </trkpt>
      <trkpt lat="44.91952" lon="1.61095">
        <ele>286.20001220703</ele>
        <time>2022-05-22T12:33:57.000Z</time>
      </trkpt>
      <trkpt lat="44.9196" lon="1.6109">
        <ele>286.39999389648</ele>
        <time>2022-05-22T12:33:59.000Z</time>
      </trkpt>
      <trkpt lat="44.91984" lon="1.61081">
        <ele>286.39999389648</ele>
        <time>2022-05-22T12:34:06.000Z</time>
      </trkpt>
      <trkpt lat="44.92014" lon="1.61073">
        <ele>286.20001220703</ele>
        <time>2022-05-22T12:34:12.000Z</time>
      </trkpt>
      <trkpt lat="44.92061" lon="1.61065">
        <ele>284.79998779297</ele>
        <time>2022-05-22T12:34:19.000Z</time>
      </trkpt>
      <trkpt lat="44.92068" lon="1.61063">
        <ele>284.39999389648</ele>
        <time>2022-05-22T12:34:20.000Z</time>
      </trkpt>
      <trkpt lat="44.92095" lon="1.61057">
        <ele>283.39999389648</ele>
        <time>2022-05-22T12:34:24.000Z</time>
      </trkpt>
      <trkpt lat="44.92107" lon="1.61054">
        <ele>283</ele>
        <time>2022-05-22T12:34:26.000Z</time>
      </trkpt>
      <trkpt lat="44.92133" lon="1.61049">
        <ele>282.60000610352</ele>
        <time>2022-05-22T12:34:30.000Z</time>
      </trkpt>
      <trkpt lat="44.92143" lon="1.61047">
        <ele>282.39999389648</ele>
        <time>2022-05-22T12:34:32.000Z</time>
      </trkpt>
      <trkpt lat="44.9215" lon="1.61045">
        <ele>282.20001220703</ele>
        <time>2022-05-22T12:34:33.000Z</time>
      </trkpt>
      <trkpt lat="44.9216" lon="1.61041">
        <ele>282</ele>
        <time>2022-05-22T12:34:35.000Z</time>
      </trkpt>
      <trkpt lat="44.92168" lon="1.61036">
        <ele>281.79998779297</ele>
        <time>2022-05-22T12:34:37.000Z</time>
      </trkpt>
      <trkpt lat="44.92194" lon="1.61014">
        <ele>281.39999389648</ele>
        <time>2022-05-22T12:34:44.000Z</time>
      </trkpt>
      <trkpt lat="44.92215" lon="1.60996">
        <ele>281.39999389648</ele>
        <time>2022-05-22T12:34:51.000Z</time>
      </trkpt>
      <trkpt lat="44.92225" lon="1.60989">
        <ele>281.20001220703</ele>
        <time>2022-05-22T12:34:54.000Z</time>
      </trkpt>
      <trkpt lat="44.92238" lon="1.60977">
        <ele>281</ele>
        <time>2022-05-22T12:34:58.000Z</time>
      </trkpt>
      <trkpt lat="44.92256" lon="1.60961">
        <ele>280.79998779297</ele>
        <time>2022-05-22T12:35:02.000Z</time>
      </trkpt>
      <trkpt lat="44.92265" lon="1.60955">
        <ele>280.60000610352</ele>
        <time>2022-05-22T12:35:04.000Z</time>
      </trkpt>
      <trkpt lat="44.92276" lon="1.60946">
        <ele>280.39999389648</ele>
        <time>2022-05-22T12:35:07.000Z</time>
      </trkpt>
      <trkpt lat="44.92282" lon="1.60938">
        <ele>280.20001220703</ele>
        <time>2022-05-22T12:35:09.000Z</time>
      </trkpt>
      <trkpt lat="44.92284" lon="1.60934">
        <ele>280.20001220703</ele>
        <time>2022-05-22T12:35:10.000Z</time>
      </trkpt>
      <trkpt lat="44.92298" lon="1.60908">
        <ele>280.20001220703</ele>
        <time>2022-05-22T12:35:16.000Z</time>
      </trkpt>
      <trkpt lat="44.9232" lon="1.60868">
        <ele>280.79998779297</ele>
        <time>2022-05-22T12:35:25.000Z</time>
      </trkpt>
      <trkpt lat="44.92345" lon="1.60848">
        <ele>280.79998779297</ele>
        <time>2022-05-22T12:35:32.000Z</time>
      </trkpt>
      <trkpt lat="44.92348" lon="1.60847">
        <ele>280.79998779297</ele>
        <time>2022-05-22T12:35:33.000Z</time>
      </trkpt>
      <trkpt lat="44.92371" lon="1.60841">
        <ele>281.20001220703</ele>
        <time>2022-05-22T12:35:39.000Z</time>
      </trkpt>
      <trkpt lat="44.92384" lon="1.60841">
        <ele>281.20001220703</ele>
        <time>2022-05-22T12:35:42.000Z</time>
      </trkpt>
      <trkpt lat="44.92398" lon="1.6084">
        <ele>281.60000610352</ele>
        <time>2022-05-22T12:35:46.000Z</time>
      </trkpt>
      <trkpt lat="44.92438" lon="1.60833">
        <ele>281.60000610352</ele>
        <time>2022-05-22T12:35:56.000Z</time>
      </trkpt>
      <trkpt lat="44.92462" lon="1.60816">
        <ele>281.79998779297</ele>
        <time>2022-05-22T12:36:03.000Z</time>
      </trkpt>
      <trkpt lat="44.92484" lon="1.60792">
        <ele>281.79998779297</ele>
        <time>2022-05-22T12:36:10.000Z</time>
      </trkpt>
      <trkpt lat="44.92518" lon="1.60759">
        <ele>282</ele>
        <time>2022-05-22T12:36:19.000Z</time>
      </trkpt>
      <trkpt lat="44.92543" lon="1.60732">
        <ele>282</ele>
        <time>2022-05-22T12:36:27.000Z</time>
      </trkpt>
      <trkpt lat="44.92559" lon="1.60716">
        <ele>282.39999389648</ele>
        <time>2022-05-22T12:36:32.000Z</time>
      </trkpt>
      <trkpt lat="44.92572" lon="1.60702">
        <ele>282.60000610352</ele>
        <time>2022-05-22T12:36:36.000Z</time>
      </trkpt>
      <trkpt lat="44.92602" lon="1.6067">
        <ele>283.20001220703</ele>
        <time>2022-05-22T12:36:46.000Z</time>
      </trkpt>
      <trkpt lat="44.92609" lon="1.60663">
        <ele>283.39999389648</ele>
        <time>2022-05-22T12:36:48.000Z</time>
      </trkpt>
      <trkpt lat="44.92629" lon="1.60642">
        <ele>284</ele>
        <time>2022-05-22T12:36:55.000Z</time>
      </trkpt>
      <trkpt lat="44.92647" lon="1.60623">
        <ele>284.39999389648</ele>
        <time>2022-05-22T12:37:01.000Z</time>
      </trkpt>
      <trkpt lat="44.92659" lon="1.60612">
        <ele>284.60000610352</ele>
        <time>2022-05-22T12:37:05.000Z</time>
      </trkpt>
      <trkpt lat="44.92677" lon="1.60598">
        <ele>285.60000610352</ele>
        <time>2022-05-22T12:37:11.000Z</time>
      </trkpt>
      <trkpt lat="44.9268" lon="1.60596">
        <ele>285.60000610352</ele>
        <time>2022-05-22T12:37:12.000Z</time>
      </trkpt>
      <trkpt lat="44.92708" lon="1.60584">
        <ele>286</ele>
        <time>2022-05-22T12:37:21.000Z</time>
      </trkpt>
      <trkpt lat="44.92723" lon="1.6058">
        <ele>286.60000610352</ele>
        <time>2022-05-22T12:37:26.000Z</time>
      </trkpt>
      <trkpt lat="44.92731" lon="1.60576">
        <ele>286.79998779297</ele>
        <time>2022-05-22T12:37:29.000Z</time>
      </trkpt>
      <trkpt lat="44.92747" lon="1.6057">
        <ele>287.60000610352</ele>
        <time>2022-05-22T12:37:34.000Z</time>
      </trkpt>
      <trkpt lat="44.92761" lon="1.60565">
        <ele>288</ele>
        <time>2022-05-22T12:37:39.000Z</time>
      </trkpt>
      <trkpt lat="44.9278" lon="1.60559">
        <ele>288.60000610352</ele>
        <time>2022-05-22T12:37:45.000Z</time>
      </trkpt>
      <trkpt lat="44.928" lon="1.60553">
        <ele>289.20001220703</ele>
        <time>2022-05-22T12:37:51.000Z</time>
      </trkpt>
      <trkpt lat="44.92829" lon="1.60545">
        <ele>289.60000610352</ele>
        <time>2022-05-22T12:37:59.000Z</time>
      </trkpt>
      <trkpt lat="44.92835" lon="1.60543">
        <ele>289.60000610352</ele>
        <time>2022-05-22T12:38:01.000Z</time>
      </trkpt>
      <trkpt lat="44.92853" lon="1.60535">
        <ele>289.79998779297</ele>
        <time>2022-05-22T12:38:07.000Z</time>
      </trkpt>
      <trkpt lat="44.92875" lon="1.60523">
        <ele>290</ele>
        <time>2022-05-22T12:38:14.000Z</time>
      </trkpt>
      <trkpt lat="44.92901" lon="1.60497">
        <ele>290.20001220703</ele>
        <time>2022-05-22T12:38:24.000Z</time>
      </trkpt>
      <trkpt lat="44.92922" lon="1.60487">
        <ele>289.60000610352</ele>
        <time>2022-05-22T12:38:31.000Z</time>
      </trkpt>
      <trkpt lat="44.92924" lon="1.60485">
        <ele>289.39999389648</ele>
        <time>2022-05-22T12:38:32.000Z</time>
      </trkpt>
      <trkpt lat="44.92925" lon="1.6048">
        <ele>289.39999389648</ele>
        <time>2022-05-22T12:38:34.000Z</time>
      </trkpt>
      <trkpt lat="44.92928" lon="1.6047">
        <ele>289</ele>
        <time>2022-05-22T12:38:38.000Z</time>
      </trkpt>
      <trkpt lat="44.92928" lon="1.60468">
        <ele>289</ele>
        <time>2022-05-22T12:38:39.000Z</time>
      </trkpt>
      <trkpt lat="44.92931" lon="1.60466">
        <ele>288.79998779297</ele>
        <time>2022-05-22T12:38:41.000Z</time>
      </trkpt>
      <trkpt lat="44.92935" lon="1.60461">
        <ele>288.79998779297</ele>
        <time>2022-05-22T12:38:44.000Z</time>
      </trkpt>
      <trkpt lat="44.92939" lon="1.60457">
        <ele>288.79998779297</ele>
        <time>2022-05-22T12:38:47.000Z</time>
      </trkpt>
      <trkpt lat="44.92945" lon="1.60454">
        <ele>288.60000610352</ele>
        <time>2022-05-22T12:38:51.000Z</time>
      </trkpt>
      <trkpt lat="44.92946" lon="1.60454">
        <ele>288.60000610352</ele>
        <time>2022-05-22T12:38:52.000Z</time>
      </trkpt>
      <trkpt lat="44.92947" lon="1.60453">
        <ele>288.39999389648</ele>
        <time>2022-05-22T12:38:53.000Z</time>
      </trkpt>
      <trkpt lat="44.92951" lon="1.60455">
        <ele>288.20001220703</ele>
        <time>2022-05-22T12:38:56.000Z</time>
      </trkpt>
      <trkpt lat="44.92951" lon="1.60455">
        <ele>287.60000610352</ele>
        <time>2022-05-22T12:39:01.000Z</time>
      </trkpt>
      <trkpt lat="44.92951" lon="1.60455">
        <ele>287.20001220703</ele>
        <time>2022-05-22T12:39:13.000Z</time>
      </trkpt>
      <trkpt lat="44.92951" lon="1.60455">
        <ele>287.60000610352</ele>
        <time>2022-05-22T12:39:28.000Z</time>
      </trkpt>
      <trkpt lat="44.92948" lon="1.60456">
        <ele>287.79998779297</ele>
        <time>2022-05-22T12:39:39.000Z</time>
      </trkpt>
      <trkpt lat="44.92942" lon="1.60457">
        <ele>288.20001220703</ele>
        <time>2022-05-22T12:39:47.000Z</time>
      </trkpt>
      <trkpt lat="44.92935" lon="1.60461">
        <ele>288.60000610352</ele>
        <time>2022-05-22T12:39:58.000Z</time>
      </trkpt>
      <trkpt lat="44.92935" lon="1.60461">
        <ele>288.60000610352</ele>
        <time>2022-05-22T12:40:01.000Z</time>
      </trkpt>
      <trkpt lat="44.92935" lon="1.60461">
        <ele>288.79998779297</ele>
        <time>2022-05-22T12:40:06.000Z</time>
      </trkpt>
      <trkpt lat="44.92935" lon="1.60461">
        <ele>288.79998779297</ele>
        <time>2022-05-22T12:40:16.000Z</time>
      </trkpt>
      <trkpt lat="44.92936" lon="1.60461">
        <ele>288.79998779297</ele>
        <time>2022-05-22T12:40:23.000Z</time>
      </trkpt>
      <trkpt lat="44.92942" lon="1.60459">
        <ele>288.79998779297</ele>
        <time>2022-05-22T12:40:26.000Z</time>
      </trkpt>
      <trkpt lat="44.92958" lon="1.60459">
        <ele>288.60000610352</ele>
        <time>2022-05-22T12:40:30.000Z</time>
      </trkpt>
      <trkpt lat="44.92986" lon="1.60471">
        <ele>287.79998779297</ele>
        <time>2022-05-22T12:40:35.000Z</time>
      </trkpt>
      <trkpt lat="44.92998" lon="1.60475">
        <ele>287</ele>
        <time>2022-05-22T12:40:37.000Z</time>
      </trkpt>
      <trkpt lat="44.93014" lon="1.60476">
        <ele>285.79998779297</ele>
        <time>2022-05-22T12:40:39.000Z</time>
      </trkpt>
      <trkpt lat="44.93035" lon="1.60476">
        <ele>284.20001220703</ele>
        <time>2022-05-22T12:40:42.000Z</time>
      </trkpt>
      <trkpt lat="44.93052" lon="1.60476">
        <ele>283</ele>
        <time>2022-05-22T12:40:44.000Z</time>
      </trkpt>
      <trkpt lat="44.9306" lon="1.60476">
        <ele>282.39999389648</ele>
        <time>2022-05-22T12:40:45.000Z</time>
      </trkpt>
      <trkpt lat="44.93075" lon="1.60475">
        <ele>281</ele>
        <time>2022-05-22T12:40:47.000Z</time>
      </trkpt>
      <trkpt lat="44.93093" lon="1.60476">
        <ele>279.79998779297</ele>
        <time>2022-05-22T12:40:49.000Z</time>
      </trkpt>
      <trkpt lat="44.9311" lon="1.60479">
        <ele>278.20001220703</ele>
        <time>2022-05-22T12:40:51.000Z</time>
      </trkpt>
      <trkpt lat="44.93117" lon="1.60482">
        <ele>277.20001220703</ele>
        <time>2022-05-22T12:40:52.000Z</time>
      </trkpt>
      <trkpt lat="44.93124" lon="1.60488">
        <ele>276.60000610352</ele>
        <time>2022-05-22T12:40:53.000Z</time>
      </trkpt>
      <trkpt lat="44.93129" lon="1.60495">
        <ele>276</ele>
        <time>2022-05-22T12:40:54.000Z</time>
      </trkpt>
      <trkpt lat="44.93132" lon="1.60503">
        <ele>275.79998779297</ele>
        <time>2022-05-22T12:40:55.000Z</time>
      </trkpt>
      <trkpt lat="44.93139" lon="1.60519">
        <ele>274</ele>
        <time>2022-05-22T12:40:57.000Z</time>
      </trkpt>
      <trkpt lat="44.93147" lon="1.60531">
        <ele>273.20001220703</ele>
        <time>2022-05-22T12:40:59.000Z</time>
      </trkpt>
      <trkpt lat="44.93151" lon="1.60536">
        <ele>272.79998779297</ele>
        <time>2022-05-22T12:41:00.000Z</time>
      </trkpt>
      <trkpt lat="44.93163" lon="1.60552">
        <ele>271.79998779297</ele>
        <time>2022-05-22T12:41:04.000Z</time>
      </trkpt>
      <trkpt lat="44.93171" lon="1.6056">
        <ele>272.39999389648</ele>
        <time>2022-05-22T12:41:08.000Z</time>
      </trkpt>
      <trkpt lat="44.9318" lon="1.6057">
        <ele>272.79998779297</ele>
        <time>2022-05-22T12:41:12.000Z</time>
      </trkpt>
      <trkpt lat="44.93186" lon="1.60578">
        <ele>273</ele>
        <time>2022-05-22T12:41:14.000Z</time>
      </trkpt>
      <trkpt lat="44.93205" lon="1.60605">
        <ele>272.79998779297</ele>
        <time>2022-05-22T12:41:19.000Z</time>
      </trkpt>
      <trkpt lat="44.93227" lon="1.60643">
        <ele>271.60000610352</ele>
        <time>2022-05-22T12:41:24.000Z</time>
      </trkpt>
      <trkpt lat="44.93238" lon="1.60662">
        <ele>271.20001220703</ele>
        <time>2022-05-22T12:41:26.000Z</time>
      </trkpt>
      <trkpt lat="44.93245" lon="1.60669">
        <ele>270.39999389648</ele>
        <time>2022-05-22T12:41:27.000Z</time>
      </trkpt>
      <trkpt lat="44.93252" lon="1.60677">
        <ele>269.79998779297</ele>
        <time>2022-05-22T12:41:28.000Z</time>
      </trkpt>
      <trkpt lat="44.93267" lon="1.60691">
        <ele>269.39999389648</ele>
        <time>2022-05-22T12:41:30.000Z</time>
      </trkpt>
      <trkpt lat="44.93285" lon="1.60702">
        <ele>268.60000610352</ele>
        <time>2022-05-22T12:41:32.000Z</time>
      </trkpt>
      <trkpt lat="44.93292" lon="1.60706">
        <ele>268.20001220703</ele>
        <time>2022-05-22T12:41:33.000Z</time>
      </trkpt>
      <trkpt lat="44.93324" lon="1.6072">
        <ele>267</ele>
        <time>2022-05-22T12:41:36.000Z</time>
      </trkpt>
      <trkpt lat="44.93344" lon="1.60728">
        <ele>265.79998779297</ele>
        <time>2022-05-22T12:41:38.000Z</time>
      </trkpt>
      <trkpt lat="44.93362" lon="1.60735">
        <ele>264</ele>
        <time>2022-05-22T12:41:40.000Z</time>
      </trkpt>
      <trkpt lat="44.93388" lon="1.60746">
        <ele>262.79998779297</ele>
        <time>2022-05-22T12:41:43.000Z</time>
      </trkpt>
      <trkpt lat="44.93409" lon="1.60755">
        <ele>262.20001220703</ele>
        <time>2022-05-22T12:41:46.000Z</time>
      </trkpt>
      <trkpt lat="44.93414" lon="1.60758">
        <ele>262</ele>
        <time>2022-05-22T12:41:47.000Z</time>
      </trkpt>
      <trkpt lat="44.9342" lon="1.60763">
        <ele>261.60000610352</ele>
        <time>2022-05-22T12:41:48.000Z</time>
      </trkpt>
      <trkpt lat="44.93429" lon="1.6077">
        <ele>261.20001220703</ele>
        <time>2022-05-22T12:41:50.000Z</time>
      </trkpt>
      <trkpt lat="44.93433" lon="1.60773">
        <ele>260.79998779297</ele>
        <time>2022-05-22T12:41:51.000Z</time>
      </trkpt>
      <trkpt lat="44.93437" lon="1.60775">
        <ele>260.60000610352</ele>
        <time>2022-05-22T12:41:52.000Z</time>
      </trkpt>
      <trkpt lat="44.93441" lon="1.60778">
        <ele>260.20001220703</ele>
        <time>2022-05-22T12:41:53.000Z</time>
      </trkpt>
      <trkpt lat="44.93445" lon="1.60783">
        <ele>260</ele>
        <time>2022-05-22T12:41:55.000Z</time>
      </trkpt>
      <trkpt lat="44.93461" lon="1.60789">
        <ele>259.79998779297</ele>
        <time>2022-05-22T12:42:00.000Z</time>
      </trkpt>
      <trkpt lat="44.935" lon="1.60807">
        <ele>260.60000610352</ele>
        <time>2022-05-22T12:42:11.000Z</time>
      </trkpt>
      <trkpt lat="44.93515" lon="1.60813">
        <ele>260.79998779297</ele>
        <time>2022-05-22T12:42:15.000Z</time>
      </trkpt>
      <trkpt lat="44.93536" lon="1.60816">
        <ele>261</ele>
        <time>2022-05-22T12:42:21.000Z</time>
      </trkpt>
      <trkpt lat="44.93554" lon="1.60827">
        <ele>261.39999389648</ele>
        <time>2022-05-22T12:42:27.000Z</time>
      </trkpt>
      <trkpt lat="44.93564" lon="1.60831">
        <ele>261.79998779297</ele>
        <time>2022-05-22T12:42:31.000Z</time>
      </trkpt>
      <trkpt lat="44.93566" lon="1.60834">
        <ele>262.20001220703</ele>
        <time>2022-05-22T12:42:32.000Z</time>
      </trkpt>
      <trkpt lat="44.93567" lon="1.60837">
        <ele>262.60000610352</ele>
        <time>2022-05-22T12:42:33.000Z</time>
      </trkpt>
      <trkpt lat="44.93567" lon="1.60845">
        <ele>263</ele>
        <time>2022-05-22T12:42:35.000Z</time>
      </trkpt>
      <trkpt lat="44.93566" lon="1.60866">
        <ele>263.60000610352</ele>
        <time>2022-05-22T12:42:39.000Z</time>
      </trkpt>
      <trkpt lat="44.93566" lon="1.6088">
        <ele>264</ele>
        <time>2022-05-22T12:42:42.000Z</time>
      </trkpt>
      <trkpt lat="44.93567" lon="1.60902">
        <ele>264.39999389648</ele>
        <time>2022-05-22T12:42:46.000Z</time>
      </trkpt>
      <trkpt lat="44.93572" lon="1.60945">
        <ele>265</ele>
        <time>2022-05-22T12:42:55.000Z</time>
      </trkpt>
      <trkpt lat="44.93573" lon="1.60952">
        <ele>265</ele>
        <time>2022-05-22T12:42:57.000Z</time>
      </trkpt>
      <trkpt lat="44.93576" lon="1.60964">
        <ele>265.20001220703</ele>
        <time>2022-05-22T12:43:01.000Z</time>
      </trkpt>
      <trkpt lat="44.93577" lon="1.60972">
        <ele>265.20001220703</ele>
        <time>2022-05-22T12:43:05.000Z</time>
      </trkpt>
      <trkpt lat="44.93576" lon="1.60976">
        <ele>265.20001220703</ele>
        <time>2022-05-22T12:43:07.000Z</time>
      </trkpt>
      <trkpt lat="44.93576" lon="1.60979">
        <ele>265.20001220703</ele>
        <time>2022-05-22T12:43:08.000Z</time>
      </trkpt>
      <trkpt lat="44.93578" lon="1.60984">
        <ele>265</ele>
        <time>2022-05-22T12:43:12.000Z</time>
      </trkpt>
      <trkpt lat="44.93578" lon="1.60984">
        <ele>265</ele>
        <time>2022-05-22T12:43:23.000Z</time>
      </trkpt>
      <trkpt lat="44.93578" lon="1.60984">
        <ele>264.79998779297</ele>
        <time>2022-05-22T12:43:34.000Z</time>
      </trkpt>
      <trkpt lat="44.9358" lon="1.60982">
        <ele>264.79998779297</ele>
        <time>2022-05-22T12:45:01.000Z</time>
      </trkpt>
      <trkpt lat="44.93582" lon="1.60981">
        <ele>264.79998779297</ele>
        <time>2022-05-22T12:45:03.000Z</time>
      </trkpt>
      <trkpt lat="44.93587" lon="1.60975">
        <ele>265</ele>
        <time>2022-05-22T12:45:09.000Z</time>
      </trkpt>
      <trkpt lat="44.93587" lon="1.60974">
        <ele>265.20001220703</ele>
        <time>2022-05-22T12:45:12.000Z</time>
      </trkpt>
      <trkpt lat="44.93589" lon="1.60971">
        <ele>265.20001220703</ele>
        <time>2022-05-22T12:45:17.000Z</time>
      </trkpt>
      <trkpt lat="44.93592" lon="1.6097">
        <ele>265.39999389648</ele>
        <time>2022-05-22T12:45:19.000Z</time>
      </trkpt>
      <trkpt lat="44.93603" lon="1.60965">
        <ele>265.60000610352</ele>
        <time>2022-05-22T12:45:24.000Z</time>
      </trkpt>
      <trkpt lat="44.93616" lon="1.60958">
        <ele>266</ele>
        <time>2022-05-22T12:45:29.000Z</time>
      </trkpt>
      <trkpt lat="44.9363" lon="1.60952">
        <ele>267</ele>
        <time>2022-05-22T12:45:36.000Z</time>
      </trkpt>
      <trkpt lat="44.93632" lon="1.60951">
        <ele>267.20001220703</ele>
        <time>2022-05-22T12:45:37.000Z</time>
      </trkpt>
      <trkpt lat="44.93647" lon="1.60949">
        <ele>268.20001220703</ele>
        <time>2022-05-22T12:45:45.000Z</time>
      </trkpt>
      <trkpt lat="44.93648" lon="1.60948">
        <ele>268.39999389648</ele>
        <time>2022-05-22T12:45:46.000Z</time>
      </trkpt>
      <trkpt lat="44.93655" lon="1.60946">
        <ele>268.79998779297</ele>
        <time>2022-05-22T12:45:50.000Z</time>
      </trkpt>
      <trkpt lat="44.93666" lon="1.60941">
        <ele>269.20001220703</ele>
        <time>2022-05-22T12:45:57.000Z</time>
      </trkpt>
      <trkpt lat="44.93671" lon="1.60938">
        <ele>269.20001220703</ele>
        <time>2022-05-22T12:46:01.000Z</time>
      </trkpt>
      <trkpt lat="44.93671" lon="1.60937">
        <ele>269.39999389648</ele>
        <time>2022-05-22T12:46:02.000Z</time>
      </trkpt>
      <trkpt lat="44.93674" lon="1.60934">
        <ele>269.39999389648</ele>
        <time>2022-05-22T12:46:04.000Z</time>
      </trkpt>
      <trkpt lat="44.93678" lon="1.60932">
        <ele>269.39999389648</ele>
        <time>2022-05-22T12:46:07.000Z</time>
      </trkpt>
      <trkpt lat="44.93682" lon="1.60926">
        <ele>269.60000610352</ele>
        <time>2022-05-22T12:46:10.000Z</time>
      </trkpt>
      <trkpt lat="44.93682" lon="1.60925">
        <ele>269.79998779297</ele>
        <time>2022-05-22T12:46:12.000Z</time>
      </trkpt>
      <trkpt lat="44.93682" lon="1.60925">
        <ele>269.79998779297</ele>
        <time>2022-05-22T12:46:27.000Z</time>
      </trkpt>
      <trkpt lat="44.93682" lon="1.60925">
        <ele>269.79998779297</ele>
        <time>2022-05-22T12:46:40.000Z</time>
      </trkpt>
      <trkpt lat="44.93686" lon="1.60925">
        <ele>270</ele>
        <time>2022-05-22T12:46:42.000Z</time>
      </trkpt>
      <trkpt lat="44.93687" lon="1.60924">
        <ele>270</ele>
        <time>2022-05-22T12:46:43.000Z</time>
      </trkpt>
      <trkpt lat="44.93699" lon="1.60922">
        <ele>269.60000610352</ele>
        <time>2022-05-22T12:46:48.000Z</time>
      </trkpt>
      <trkpt lat="44.93701" lon="1.60922">
        <ele>269.60000610352</ele>
        <time>2022-05-22T12:46:49.000Z</time>
      </trkpt>
      <trkpt lat="44.93712" lon="1.60923">
        <ele>269.39999389648</ele>
        <time>2022-05-22T12:46:54.000Z</time>
      </trkpt>
      <trkpt lat="44.93714" lon="1.60923">
        <ele>269</ele>
        <time>2022-05-22T12:46:58.000Z</time>
      </trkpt>
      <trkpt lat="44.93717" lon="1.60923">
        <ele>268.39999389648</ele>
        <time>2022-05-22T12:47:08.000Z</time>
      </trkpt>
      <trkpt lat="44.93719" lon="1.6092">
        <ele>268.39999389648</ele>
        <time>2022-05-22T12:47:10.000Z</time>
      </trkpt>
      <trkpt lat="44.9372" lon="1.60903">
        <ele>268.39999389648</ele>
        <time>2022-05-22T12:47:14.000Z</time>
      </trkpt>
      <trkpt lat="44.93725" lon="1.60877">
        <ele>268.79998779297</ele>
        <time>2022-05-22T12:47:20.000Z</time>
      </trkpt>
      <trkpt lat="44.93729" lon="1.60845">
        <ele>269.79998779297</ele>
        <time>2022-05-22T12:47:28.000Z</time>
      </trkpt>
      <trkpt lat="44.93736" lon="1.6082">
        <ele>270.39999389648</ele>
        <time>2022-05-22T12:47:35.000Z</time>
      </trkpt>
      <trkpt lat="44.93738" lon="1.60818">
        <ele>270.39999389648</ele>
        <time>2022-05-22T12:47:36.000Z</time>
      </trkpt>
      <trkpt lat="44.93746" lon="1.60814">
        <ele>271</ele>
        <time>2022-05-22T12:47:40.000Z</time>
      </trkpt>
      <trkpt lat="44.93752" lon="1.60812">
        <ele>271.20001220703</ele>
        <time>2022-05-22T12:47:43.000Z</time>
      </trkpt>
      <trkpt lat="44.93759" lon="1.60812">
        <ele>271.39999389648</ele>
        <time>2022-05-22T12:47:45.000Z</time>
      </trkpt>
      <trkpt lat="44.93776" lon="1.60812">
        <ele>271.60000610352</ele>
        <time>2022-05-22T12:47:50.000Z</time>
      </trkpt>
      <trkpt lat="44.93779" lon="1.60812">
        <ele>271.60000610352</ele>
        <time>2022-05-22T12:47:51.000Z</time>
      </trkpt>
      <trkpt lat="44.93803" lon="1.60811">
        <ele>272.39999389648</ele>
        <time>2022-05-22T12:47:59.000Z</time>
      </trkpt>
      <trkpt lat="44.93816" lon="1.6081">
        <ele>273</ele>
        <time>2022-05-22T12:48:04.000Z</time>
      </trkpt>
      <trkpt lat="44.93825" lon="1.60808">
        <ele>273.60000610352</ele>
        <time>2022-05-22T12:48:08.000Z</time>
      </trkpt>
      <trkpt lat="44.93836" lon="1.60811">
        <ele>273.79998779297</ele>
        <time>2022-05-22T12:48:14.000Z</time>
      </trkpt>
      <trkpt lat="44.93837" lon="1.60813">
        <ele>274</ele>
        <time>2022-05-22T12:48:15.000Z</time>
      </trkpt>
      <trkpt lat="44.93838" lon="1.60815">
        <ele>274</ele>
        <time>2022-05-22T12:48:16.000Z</time>
      </trkpt>
      <trkpt lat="44.93838" lon="1.60815">
        <ele>274</ele>
        <time>2022-05-22T12:48:18.000Z</time>
      </trkpt>
      <trkpt lat="44.93838" lon="1.60815">
        <ele>274.20001220703</ele>
        <time>2022-05-22T12:48:28.000Z</time>
      </trkpt>
      <trkpt lat="44.93838" lon="1.60815">
        <ele>274</ele>
        <time>2022-05-22T12:48:48.000Z</time>
      </trkpt>
      <trkpt lat="44.93838" lon="1.60818">
        <ele>274</ele>
        <time>2022-05-22T12:48:51.000Z</time>
      </trkpt>
    </trkseg>
  </trk>
</gpx>